<?xml version="1.0" encoding="UTF-8" standalone="no" ?>
<gpx xmlns="http://www.topografix.com/GPX/1/1" xmlns:xsi="http://www.w3.org/2001/XMLSchema-instance" xsi:schemaLocation="http://www.topografix.com/GPX/1/1 http://www.topografix.com/GPX/1/1/gpx.xsd" version="1.1" creator="VisuGPX - https://www.visugpx.com">
  <metadata>
    <name>Pornichet 01/07/2021</name>
    <desc><![CDATA[Sortie VTT du jeudi 01 juillet 2021]]></desc>
  </metadata>
  <trk>
    <name><![CDATA[Pornichet Cyclisme]]></name>
    <trkseg>
      <trkpt lat="47.26414" lon="-2.31566">
        <ele>7.8000001907349</ele>
        <time>2021-07-01T06:49:55.000Z</time>
      </trkpt>
      <trkpt lat="47.26414" lon="-2.3158">
        <ele>7.8000001907349</ele>
        <time>2021-07-01T06:49:58.000Z</time>
      </trkpt>
      <trkpt lat="47.26414" lon="-2.31585">
        <ele>7.5999999046326</ele>
        <time>2021-07-01T06:49:59.000Z</time>
      </trkpt>
      <trkpt lat="47.26415" lon="-2.31594">
        <ele>7.5999999046326</ele>
        <time>2021-07-01T06:50:01.000Z</time>
      </trkpt>
      <trkpt lat="47.26412" lon="-2.31634">
        <ele>7.5999999046326</ele>
        <time>2021-07-01T06:50:08.000Z</time>
      </trkpt>
      <trkpt lat="47.26414" lon="-2.31654">
        <ele>7.5999999046326</ele>
        <time>2021-07-01T06:50:12.000Z</time>
      </trkpt>
      <trkpt lat="47.26406" lon="-2.31662">
        <ele>7.5999999046326</ele>
        <time>2021-07-01T06:50:15.000Z</time>
      </trkpt>
      <trkpt lat="47.2639" lon="-2.31673">
        <ele>7.5999999046326</ele>
        <time>2021-07-01T06:50:19.000Z</time>
      </trkpt>
      <trkpt lat="47.26358" lon="-2.31689">
        <ele>7.5999999046326</ele>
        <time>2021-07-01T06:50:25.000Z</time>
      </trkpt>
      <trkpt lat="47.26337" lon="-2.317">
        <ele>7.1999998092651</ele>
        <time>2021-07-01T06:50:29.000Z</time>
      </trkpt>
      <trkpt lat="47.26332" lon="-2.31702">
        <ele>6.8000001907349</ele>
        <time>2021-07-01T06:50:30.000Z</time>
      </trkpt>
      <trkpt lat="47.26326" lon="-2.31705">
        <ele>6.1999998092651</ele>
        <time>2021-07-01T06:50:31.000Z</time>
      </trkpt>
      <trkpt lat="47.26321" lon="-2.31708">
        <ele>5.8000001907349</ele>
        <time>2021-07-01T06:50:32.000Z</time>
      </trkpt>
      <trkpt lat="47.26316" lon="-2.3171">
        <ele>5.4000000953674</ele>
        <time>2021-07-01T06:50:33.000Z</time>
      </trkpt>
      <trkpt lat="47.26308" lon="-2.31716">
        <ele>5.4000000953674</ele>
        <time>2021-07-01T06:50:35.000Z</time>
      </trkpt>
      <trkpt lat="47.26299" lon="-2.3173">
        <ele>5</ele>
        <time>2021-07-01T06:50:38.000Z</time>
      </trkpt>
      <trkpt lat="47.26296" lon="-2.31734">
        <ele>4.5999999046326</ele>
        <time>2021-07-01T06:50:39.000Z</time>
      </trkpt>
      <trkpt lat="47.26294" lon="-2.31737">
        <ele>4.1999998092651</ele>
        <time>2021-07-01T06:50:40.000Z</time>
      </trkpt>
      <trkpt lat="47.26292" lon="-2.31739">
        <ele>3.7999999523163</ele>
        <time>2021-07-01T06:50:41.000Z</time>
      </trkpt>
      <trkpt lat="47.2629" lon="-2.31742">
        <ele>3.4000000953674</ele>
        <time>2021-07-01T06:50:42.000Z</time>
      </trkpt>
      <trkpt lat="47.26289" lon="-2.31745">
        <ele>3.4000000953674</ele>
        <time>2021-07-01T06:50:43.000Z</time>
      </trkpt>
      <trkpt lat="47.26289" lon="-2.31749">
        <ele>3.4000000953674</ele>
        <time>2021-07-01T06:50:44.000Z</time>
      </trkpt>
      <trkpt lat="47.26289" lon="-2.31776">
        <ele>3.4000000953674</ele>
        <time>2021-07-01T06:50:49.000Z</time>
      </trkpt>
      <trkpt lat="47.26289" lon="-2.31783">
        <ele>3.4000000953674</ele>
        <time>2021-07-01T06:50:50.000Z</time>
      </trkpt>
      <trkpt lat="47.26287" lon="-2.31813">
        <ele>3.4000000953674</ele>
        <time>2021-07-01T06:50:54.000Z</time>
      </trkpt>
      <trkpt lat="47.26287" lon="-2.31821">
        <ele>3.4000000953674</ele>
        <time>2021-07-01T06:50:55.000Z</time>
      </trkpt>
      <trkpt lat="47.26289" lon="-2.31864">
        <ele>3.4000000953674</ele>
        <time>2021-07-01T06:51:01.000Z</time>
      </trkpt>
      <trkpt lat="47.26287" lon="-2.31873">
        <ele>3.4000000953674</ele>
        <time>2021-07-01T06:51:03.000Z</time>
      </trkpt>
      <trkpt lat="47.26283" lon="-2.31881">
        <ele>3.4000000953674</ele>
        <time>2021-07-01T06:51:05.000Z</time>
      </trkpt>
      <trkpt lat="47.26273" lon="-2.31913">
        <ele>3.4000000953674</ele>
        <time>2021-07-01T06:51:11.000Z</time>
      </trkpt>
      <trkpt lat="47.26263" lon="-2.31939">
        <ele>3.4000000953674</ele>
        <time>2021-07-01T06:51:16.000Z</time>
      </trkpt>
      <trkpt lat="47.26249" lon="-2.31968">
        <ele>3.4000000953674</ele>
        <time>2021-07-01T06:51:22.000Z</time>
      </trkpt>
      <trkpt lat="47.26246" lon="-2.31969">
        <ele>3.4000000953674</ele>
        <time>2021-07-01T06:51:23.000Z</time>
      </trkpt>
      <trkpt lat="47.26238" lon="-2.31973">
        <ele>3.4000000953674</ele>
        <time>2021-07-01T06:51:26.000Z</time>
      </trkpt>
      <trkpt lat="47.26216" lon="-2.3199">
        <ele>3.4000000953674</ele>
        <time>2021-07-01T06:51:31.000Z</time>
      </trkpt>
      <trkpt lat="47.26209" lon="-2.31996">
        <ele>3.4000000953674</ele>
        <time>2021-07-01T06:51:34.000Z</time>
      </trkpt>
      <trkpt lat="47.26207" lon="-2.31999">
        <ele>3.4000000953674</ele>
        <time>2021-07-01T06:51:35.000Z</time>
      </trkpt>
      <trkpt lat="47.26206" lon="-2.3201">
        <ele>3</ele>
        <time>2021-07-01T06:51:38.000Z</time>
      </trkpt>
      <trkpt lat="47.26204" lon="-2.32011">
        <ele>2.5999999046326</ele>
        <time>2021-07-01T06:51:39.000Z</time>
      </trkpt>
      <trkpt lat="47.26202" lon="-2.32012">
        <ele>2.2000000476837</ele>
        <time>2021-07-01T06:51:40.000Z</time>
      </trkpt>
      <trkpt lat="47.262" lon="-2.32013">
        <ele>1.7999999523163</ele>
        <time>2021-07-01T06:51:41.000Z</time>
      </trkpt>
      <trkpt lat="47.26199" lon="-2.32013">
        <ele>1.3999999761581</ele>
        <time>2021-07-01T06:51:42.000Z</time>
      </trkpt>
      <trkpt lat="47.26195" lon="-2.32014">
        <ele>1.3999999761581</ele>
        <time>2021-07-01T06:51:44.000Z</time>
      </trkpt>
      <trkpt lat="47.26186" lon="-2.32017">
        <ele>1.3999999761581</ele>
        <time>2021-07-01T06:51:47.000Z</time>
      </trkpt>
      <trkpt lat="47.26175" lon="-2.32025">
        <ele>1.3999999761581</ele>
        <time>2021-07-01T06:51:50.000Z</time>
      </trkpt>
      <trkpt lat="47.26171" lon="-2.3203">
        <ele>1.3999999761581</ele>
        <time>2021-07-01T06:51:51.000Z</time>
      </trkpt>
      <trkpt lat="47.26164" lon="-2.32046">
        <ele>1.3999999761581</ele>
        <time>2021-07-01T06:51:54.000Z</time>
      </trkpt>
      <trkpt lat="47.26161" lon="-2.32058">
        <ele>1.3999999761581</ele>
        <time>2021-07-01T06:51:56.000Z</time>
      </trkpt>
      <trkpt lat="47.26155" lon="-2.32077">
        <ele>1.3999999761581</ele>
        <time>2021-07-01T06:51:59.000Z</time>
      </trkpt>
      <trkpt lat="47.26152" lon="-2.32082">
        <ele>1.3999999761581</ele>
        <time>2021-07-01T06:52:00.000Z</time>
      </trkpt>
      <trkpt lat="47.26143" lon="-2.32113">
        <ele>1.3999999761581</ele>
        <time>2021-07-01T06:52:05.000Z</time>
      </trkpt>
      <trkpt lat="47.2614" lon="-2.32125">
        <ele>1.3999999761581</ele>
        <time>2021-07-01T06:52:07.000Z</time>
      </trkpt>
      <trkpt lat="47.26124" lon="-2.32168">
        <ele>1.3999999761581</ele>
        <time>2021-07-01T06:52:14.000Z</time>
      </trkpt>
      <trkpt lat="47.26118" lon="-2.32186">
        <ele>1.3999999761581</ele>
        <time>2021-07-01T06:52:17.000Z</time>
      </trkpt>
      <trkpt lat="47.26113" lon="-2.32197">
        <ele>1.3999999761581</ele>
        <time>2021-07-01T06:52:19.000Z</time>
      </trkpt>
      <trkpt lat="47.261" lon="-2.32223">
        <ele>1.3999999761581</ele>
        <time>2021-07-01T06:52:24.000Z</time>
      </trkpt>
      <trkpt lat="47.26096" lon="-2.32227">
        <ele>1.3999999761581</ele>
        <time>2021-07-01T06:52:25.000Z</time>
      </trkpt>
      <trkpt lat="47.26073" lon="-2.32252">
        <ele>1.3999999761581</ele>
        <time>2021-07-01T06:52:30.000Z</time>
      </trkpt>
      <trkpt lat="47.26062" lon="-2.32264">
        <ele>1.3999999761581</ele>
        <time>2021-07-01T06:52:33.000Z</time>
      </trkpt>
      <trkpt lat="47.26044" lon="-2.32282">
        <ele>1.3999999761581</ele>
        <time>2021-07-01T06:52:37.000Z</time>
      </trkpt>
      <trkpt lat="47.26007" lon="-2.32321">
        <ele>1.3999999761581</ele>
        <time>2021-07-01T06:52:46.000Z</time>
      </trkpt>
      <trkpt lat="47.25976" lon="-2.3236">
        <ele>1.3999999761581</ele>
        <time>2021-07-01T06:52:54.000Z</time>
      </trkpt>
      <trkpt lat="47.25937" lon="-2.32411">
        <ele>1.3999999761581</ele>
        <time>2021-07-01T06:53:05.000Z</time>
      </trkpt>
      <trkpt lat="47.25905" lon="-2.32451">
        <ele>1.3999999761581</ele>
        <time>2021-07-01T06:53:14.000Z</time>
      </trkpt>
      <trkpt lat="47.25902" lon="-2.32464">
        <ele>1.3999999761581</ele>
        <time>2021-07-01T06:53:17.000Z</time>
      </trkpt>
      <trkpt lat="47.25903" lon="-2.32467">
        <ele>1.3999999761581</ele>
        <time>2021-07-01T06:53:18.000Z</time>
      </trkpt>
      <trkpt lat="47.25915" lon="-2.32479">
        <ele>1.3999999761581</ele>
        <time>2021-07-01T06:53:22.000Z</time>
      </trkpt>
      <trkpt lat="47.25926" lon="-2.32501">
        <ele>1.3999999761581</ele>
        <time>2021-07-01T06:53:26.000Z</time>
      </trkpt>
      <trkpt lat="47.25928" lon="-2.32507">
        <ele>1.3999999761581</ele>
        <time>2021-07-01T06:53:27.000Z</time>
      </trkpt>
      <trkpt lat="47.25945" lon="-2.32559">
        <ele>1.3999999761581</ele>
        <time>2021-07-01T06:53:35.000Z</time>
      </trkpt>
      <trkpt lat="47.2596" lon="-2.32618">
        <ele>1.3999999761581</ele>
        <time>2021-07-01T06:53:44.000Z</time>
      </trkpt>
      <trkpt lat="47.25962" lon="-2.32645">
        <ele>1.3999999761581</ele>
        <time>2021-07-01T06:53:48.000Z</time>
      </trkpt>
      <trkpt lat="47.25964" lon="-2.32655">
        <ele>1.3999999761581</ele>
        <time>2021-07-01T06:53:50.000Z</time>
      </trkpt>
      <trkpt lat="47.25972" lon="-2.32657">
        <ele>1.3999999761581</ele>
        <time>2021-07-01T06:53:52.000Z</time>
      </trkpt>
      <trkpt lat="47.25987" lon="-2.32658">
        <ele>1.3999999761581</ele>
        <time>2021-07-01T06:53:56.000Z</time>
      </trkpt>
      <trkpt lat="47.25992" lon="-2.32658">
        <ele>1.3999999761581</ele>
        <time>2021-07-01T06:53:57.000Z</time>
      </trkpt>
      <trkpt lat="47.26022" lon="-2.32654">
        <ele>1.3999999761581</ele>
        <time>2021-07-01T06:54:04.000Z</time>
      </trkpt>
      <trkpt lat="47.26058" lon="-2.32649">
        <ele>1.3999999761581</ele>
        <time>2021-07-01T06:54:12.000Z</time>
      </trkpt>
      <trkpt lat="47.26071" lon="-2.32645">
        <ele>1.3999999761581</ele>
        <time>2021-07-01T06:54:15.000Z</time>
      </trkpt>
      <trkpt lat="47.26089" lon="-2.32642">
        <ele>1.3999999761581</ele>
        <time>2021-07-01T06:54:19.000Z</time>
      </trkpt>
      <trkpt lat="47.26111" lon="-2.32639">
        <ele>1.7999999523163</ele>
        <time>2021-07-01T06:54:24.000Z</time>
      </trkpt>
      <trkpt lat="47.26115" lon="-2.3264">
        <ele>2.2000000476837</ele>
        <time>2021-07-01T06:54:25.000Z</time>
      </trkpt>
      <trkpt lat="47.2612" lon="-2.3264">
        <ele>2.5999999046326</ele>
        <time>2021-07-01T06:54:26.000Z</time>
      </trkpt>
      <trkpt lat="47.26124" lon="-2.3264">
        <ele>3</ele>
        <time>2021-07-01T06:54:27.000Z</time>
      </trkpt>
      <trkpt lat="47.26128" lon="-2.32641">
        <ele>3.4000000953674</ele>
        <time>2021-07-01T06:54:28.000Z</time>
      </trkpt>
      <trkpt lat="47.26132" lon="-2.32642">
        <ele>3.4000000953674</ele>
        <time>2021-07-01T06:54:29.000Z</time>
      </trkpt>
      <trkpt lat="47.26148" lon="-2.32648">
        <ele>3.4000000953674</ele>
        <time>2021-07-01T06:54:33.000Z</time>
      </trkpt>
      <trkpt lat="47.26166" lon="-2.32655">
        <ele>3.4000000953674</ele>
        <time>2021-07-01T06:54:37.000Z</time>
      </trkpt>
      <trkpt lat="47.2617" lon="-2.32656">
        <ele>3.4000000953674</ele>
        <time>2021-07-01T06:54:38.000Z</time>
      </trkpt>
      <trkpt lat="47.26174" lon="-2.32659">
        <ele>3.4000000953674</ele>
        <time>2021-07-01T06:54:39.000Z</time>
      </trkpt>
      <trkpt lat="47.26187" lon="-2.32668">
        <ele>3.4000000953674</ele>
        <time>2021-07-01T06:54:42.000Z</time>
      </trkpt>
      <trkpt lat="47.26195" lon="-2.32676">
        <ele>3.4000000953674</ele>
        <time>2021-07-01T06:54:44.000Z</time>
      </trkpt>
      <trkpt lat="47.26225" lon="-2.32713">
        <ele>3.4000000953674</ele>
        <time>2021-07-01T06:54:52.000Z</time>
      </trkpt>
      <trkpt lat="47.26252" lon="-2.32753">
        <ele>3.4000000953674</ele>
        <time>2021-07-01T06:54:59.000Z</time>
      </trkpt>
      <trkpt lat="47.26277" lon="-2.32798">
        <ele>3.4000000953674</ele>
        <time>2021-07-01T06:55:06.000Z</time>
      </trkpt>
      <trkpt lat="47.26281" lon="-2.32812">
        <ele>3</ele>
        <time>2021-07-01T06:55:08.000Z</time>
      </trkpt>
      <trkpt lat="47.26283" lon="-2.3282">
        <ele>2.4000000953674</ele>
        <time>2021-07-01T06:55:09.000Z</time>
      </trkpt>
      <trkpt lat="47.26284" lon="-2.32827">
        <ele>2</ele>
        <time>2021-07-01T06:55:10.000Z</time>
      </trkpt>
      <trkpt lat="47.26284" lon="-2.32835">
        <ele>1.6000000238419</ele>
        <time>2021-07-01T06:55:11.000Z</time>
      </trkpt>
      <trkpt lat="47.26284" lon="-2.32842">
        <ele>1.2000000476837</ele>
        <time>2021-07-01T06:55:12.000Z</time>
      </trkpt>
      <trkpt lat="47.26291" lon="-2.3286">
        <ele>1.2000000476837</ele>
        <time>2021-07-01T06:55:15.000Z</time>
      </trkpt>
      <trkpt lat="47.26306" lon="-2.32865">
        <ele>1.2000000476837</ele>
        <time>2021-07-01T06:55:18.000Z</time>
      </trkpt>
      <trkpt lat="47.26318" lon="-2.32878">
        <ele>1.2000000476837</ele>
        <time>2021-07-01T06:55:21.000Z</time>
      </trkpt>
      <trkpt lat="47.26325" lon="-2.32899">
        <ele>1.2000000476837</ele>
        <time>2021-07-01T06:55:24.000Z</time>
      </trkpt>
      <trkpt lat="47.2633" lon="-2.32914">
        <ele>1.2000000476837</ele>
        <time>2021-07-01T06:55:26.000Z</time>
      </trkpt>
      <trkpt lat="47.2635" lon="-2.32971">
        <ele>1.2000000476837</ele>
        <time>2021-07-01T06:55:34.000Z</time>
      </trkpt>
      <trkpt lat="47.26354" lon="-2.32976">
        <ele>1.2000000476837</ele>
        <time>2021-07-01T06:55:35.000Z</time>
      </trkpt>
      <trkpt lat="47.26365" lon="-2.32991">
        <ele>1.2000000476837</ele>
        <time>2021-07-01T06:55:38.000Z</time>
      </trkpt>
      <trkpt lat="47.26365" lon="-2.32998">
        <ele>1.2000000476837</ele>
        <time>2021-07-01T06:55:39.000Z</time>
      </trkpt>
      <trkpt lat="47.26366" lon="-2.33036">
        <ele>1.2000000476837</ele>
        <time>2021-07-01T06:55:44.000Z</time>
      </trkpt>
      <trkpt lat="47.26369" lon="-2.33104">
        <ele>1.2000000476837</ele>
        <time>2021-07-01T06:55:53.000Z</time>
      </trkpt>
      <trkpt lat="47.26373" lon="-2.33165">
        <ele>1.2000000476837</ele>
        <time>2021-07-01T06:56:01.000Z</time>
      </trkpt>
      <trkpt lat="47.26377" lon="-2.33232">
        <ele>1.2000000476837</ele>
        <time>2021-07-01T06:56:10.000Z</time>
      </trkpt>
      <trkpt lat="47.2638" lon="-2.33246">
        <ele>1.2000000476837</ele>
        <time>2021-07-01T06:56:12.000Z</time>
      </trkpt>
      <trkpt lat="47.26388" lon="-2.33263">
        <ele>1.2000000476837</ele>
        <time>2021-07-01T06:56:15.000Z</time>
      </trkpt>
      <trkpt lat="47.26408" lon="-2.33268">
        <ele>1.2000000476837</ele>
        <time>2021-07-01T06:56:19.000Z</time>
      </trkpt>
      <trkpt lat="47.26413" lon="-2.33268">
        <ele>1.2000000476837</ele>
        <time>2021-07-01T06:56:20.000Z</time>
      </trkpt>
      <trkpt lat="47.26462" lon="-2.33274">
        <ele>1.2000000476837</ele>
        <time>2021-07-01T06:56:30.000Z</time>
      </trkpt>
      <trkpt lat="47.26489" lon="-2.33279">
        <ele>1.2000000476837</ele>
        <time>2021-07-01T06:56:37.000Z</time>
      </trkpt>
      <trkpt lat="47.26512" lon="-2.3329">
        <ele>1.2000000476837</ele>
        <time>2021-07-01T06:56:43.000Z</time>
      </trkpt>
      <trkpt lat="47.26516" lon="-2.33291">
        <ele>1.2000000476837</ele>
        <time>2021-07-01T06:56:44.000Z</time>
      </trkpt>
      <trkpt lat="47.26529" lon="-2.3329">
        <ele>1.2000000476837</ele>
        <time>2021-07-01T06:56:47.000Z</time>
      </trkpt>
      <trkpt lat="47.26531" lon="-2.33293">
        <ele>1.2000000476837</ele>
        <time>2021-07-01T06:56:48.000Z</time>
      </trkpt>
      <trkpt lat="47.26537" lon="-2.33298">
        <ele>1.2000000476837</ele>
        <time>2021-07-01T06:56:50.000Z</time>
      </trkpt>
      <trkpt lat="47.26547" lon="-2.3329">
        <ele>1.2000000476837</ele>
        <time>2021-07-01T06:56:53.000Z</time>
      </trkpt>
      <trkpt lat="47.2655" lon="-2.33286">
        <ele>1.2000000476837</ele>
        <time>2021-07-01T06:56:54.000Z</time>
      </trkpt>
      <trkpt lat="47.26573" lon="-2.33263">
        <ele>1.2000000476837</ele>
        <time>2021-07-01T06:57:00.000Z</time>
      </trkpt>
      <trkpt lat="47.26605" lon="-2.33229">
        <ele>1.2000000476837</ele>
        <time>2021-07-01T06:57:08.000Z</time>
      </trkpt>
      <trkpt lat="47.26634" lon="-2.33201">
        <ele>1.2000000476837</ele>
        <time>2021-07-01T06:57:15.000Z</time>
      </trkpt>
      <trkpt lat="47.2666" lon="-2.33173">
        <ele>1.2000000476837</ele>
        <time>2021-07-01T06:57:22.000Z</time>
      </trkpt>
      <trkpt lat="47.26687" lon="-2.33145">
        <ele>1.2000000476837</ele>
        <time>2021-07-01T06:57:29.000Z</time>
      </trkpt>
      <trkpt lat="47.26715" lon="-2.33118">
        <ele>1.2000000476837</ele>
        <time>2021-07-01T06:57:36.000Z</time>
      </trkpt>
      <trkpt lat="47.26744" lon="-2.33089">
        <ele>1.2000000476837</ele>
        <time>2021-07-01T06:57:44.000Z</time>
      </trkpt>
      <trkpt lat="47.26755" lon="-2.33087">
        <ele>1.2000000476837</ele>
        <time>2021-07-01T06:57:47.000Z</time>
      </trkpt>
      <trkpt lat="47.26759" lon="-2.33093">
        <ele>1.2000000476837</ele>
        <time>2021-07-01T06:57:48.000Z</time>
      </trkpt>
      <trkpt lat="47.26767" lon="-2.33114">
        <ele>1.2000000476837</ele>
        <time>2021-07-01T06:57:51.000Z</time>
      </trkpt>
      <trkpt lat="47.26769" lon="-2.33143">
        <ele>1.2000000476837</ele>
        <time>2021-07-01T06:57:55.000Z</time>
      </trkpt>
      <trkpt lat="47.26768" lon="-2.33158">
        <ele>1.2000000476837</ele>
        <time>2021-07-01T06:57:57.000Z</time>
      </trkpt>
      <trkpt lat="47.26763" lon="-2.33186">
        <ele>1.2000000476837</ele>
        <time>2021-07-01T06:58:01.000Z</time>
      </trkpt>
      <trkpt lat="47.26757" lon="-2.3321">
        <ele>1.2000000476837</ele>
        <time>2021-07-01T06:58:05.000Z</time>
      </trkpt>
      <trkpt lat="47.26756" lon="-2.33216">
        <ele>1.2000000476837</ele>
        <time>2021-07-01T06:58:06.000Z</time>
      </trkpt>
      <trkpt lat="47.26746" lon="-2.33257">
        <ele>1.2000000476837</ele>
        <time>2021-07-01T06:58:12.000Z</time>
      </trkpt>
      <trkpt lat="47.26744" lon="-2.33266">
        <ele>1.2000000476837</ele>
        <time>2021-07-01T06:58:13.000Z</time>
      </trkpt>
      <trkpt lat="47.26743" lon="-2.33291">
        <ele>1.2000000476837</ele>
        <time>2021-07-01T06:58:16.000Z</time>
      </trkpt>
      <trkpt lat="47.26744" lon="-2.33316">
        <ele>1.2000000476837</ele>
        <time>2021-07-01T06:58:19.000Z</time>
      </trkpt>
      <trkpt lat="47.26746" lon="-2.33331">
        <ele>1.2000000476837</ele>
        <time>2021-07-01T06:58:21.000Z</time>
      </trkpt>
      <trkpt lat="47.26761" lon="-2.33398">
        <ele>1.2000000476837</ele>
        <time>2021-07-01T06:58:30.000Z</time>
      </trkpt>
      <trkpt lat="47.26763" lon="-2.33419">
        <ele>1.2000000476837</ele>
        <time>2021-07-01T06:58:33.000Z</time>
      </trkpt>
      <trkpt lat="47.26764" lon="-2.33443">
        <ele>1.2000000476837</ele>
        <time>2021-07-01T06:58:36.000Z</time>
      </trkpt>
      <trkpt lat="47.26772" lon="-2.33497">
        <ele>1.2000000476837</ele>
        <time>2021-07-01T06:58:43.000Z</time>
      </trkpt>
      <trkpt lat="47.26778" lon="-2.3355">
        <ele>1.2000000476837</ele>
        <time>2021-07-01T06:58:50.000Z</time>
      </trkpt>
      <trkpt lat="47.26779" lon="-2.33562">
        <ele>1.2000000476837</ele>
        <time>2021-07-01T06:58:52.000Z</time>
      </trkpt>
      <trkpt lat="47.26785" lon="-2.33567">
        <ele>1.2000000476837</ele>
        <time>2021-07-01T06:58:54.000Z</time>
      </trkpt>
      <trkpt lat="47.26798" lon="-2.33562">
        <ele>1.2000000476837</ele>
        <time>2021-07-01T06:58:58.000Z</time>
      </trkpt>
      <trkpt lat="47.26824" lon="-2.33552">
        <ele>1.2000000476837</ele>
        <time>2021-07-01T06:59:04.000Z</time>
      </trkpt>
      <trkpt lat="47.26843" lon="-2.33546">
        <ele>1.2000000476837</ele>
        <time>2021-07-01T06:59:09.000Z</time>
      </trkpt>
      <trkpt lat="47.26868" lon="-2.33538">
        <ele>1.2000000476837</ele>
        <time>2021-07-01T06:59:14.000Z</time>
      </trkpt>
      <trkpt lat="47.26873" lon="-2.33538">
        <ele>1.2000000476837</ele>
        <time>2021-07-01T06:59:15.000Z</time>
      </trkpt>
      <trkpt lat="47.26889" lon="-2.33547">
        <ele>1.2000000476837</ele>
        <time>2021-07-01T06:59:19.000Z</time>
      </trkpt>
      <trkpt lat="47.26898" lon="-2.33561">
        <ele>1.2000000476837</ele>
        <time>2021-07-01T06:59:22.000Z</time>
      </trkpt>
      <trkpt lat="47.269" lon="-2.33566">
        <ele>1.2000000476837</ele>
        <time>2021-07-01T06:59:23.000Z</time>
      </trkpt>
      <trkpt lat="47.26904" lon="-2.33576">
        <ele>1.2000000476837</ele>
        <time>2021-07-01T06:59:25.000Z</time>
      </trkpt>
      <trkpt lat="47.26909" lon="-2.33588">
        <ele>1.6000000238419</ele>
        <time>2021-07-01T06:59:27.000Z</time>
      </trkpt>
      <trkpt lat="47.26911" lon="-2.33594">
        <ele>2</ele>
        <time>2021-07-01T06:59:28.000Z</time>
      </trkpt>
      <trkpt lat="47.26913" lon="-2.33599">
        <ele>2.7999999523163</ele>
        <time>2021-07-01T06:59:29.000Z</time>
      </trkpt>
      <trkpt lat="47.26916" lon="-2.33604">
        <ele>3.2000000476837</ele>
        <time>2021-07-01T06:59:30.000Z</time>
      </trkpt>
      <trkpt lat="47.2692" lon="-2.33615">
        <ele>3.2000000476837</ele>
        <time>2021-07-01T06:59:32.000Z</time>
      </trkpt>
      <trkpt lat="47.26928" lon="-2.33656">
        <ele>3.2000000476837</ele>
        <time>2021-07-01T06:59:39.000Z</time>
      </trkpt>
      <trkpt lat="47.26938" lon="-2.33704">
        <ele>3.2000000476837</ele>
        <time>2021-07-01T06:59:47.000Z</time>
      </trkpt>
      <trkpt lat="47.2694" lon="-2.33716">
        <ele>3.5999999046326</ele>
        <time>2021-07-01T06:59:49.000Z</time>
      </trkpt>
      <trkpt lat="47.2694" lon="-2.33723">
        <ele>4.1999998092651</ele>
        <time>2021-07-01T06:59:50.000Z</time>
      </trkpt>
      <trkpt lat="47.26939" lon="-2.33729">
        <ele>4.5999999046326</ele>
        <time>2021-07-01T06:59:51.000Z</time>
      </trkpt>
      <trkpt lat="47.26939" lon="-2.33735">
        <ele>5</ele>
        <time>2021-07-01T06:59:52.000Z</time>
      </trkpt>
      <trkpt lat="47.26938" lon="-2.33742">
        <ele>5.4000000953674</ele>
        <time>2021-07-01T06:59:53.000Z</time>
      </trkpt>
      <trkpt lat="47.26935" lon="-2.33756">
        <ele>5.4000000953674</ele>
        <time>2021-07-01T06:59:55.000Z</time>
      </trkpt>
      <trkpt lat="47.26931" lon="-2.33777">
        <ele>5.4000000953674</ele>
        <time>2021-07-01T06:59:58.000Z</time>
      </trkpt>
      <trkpt lat="47.2693" lon="-2.33798">
        <ele>5.4000000953674</ele>
        <time>2021-07-01T07:00:01.000Z</time>
      </trkpt>
      <trkpt lat="47.26932" lon="-2.3381">
        <ele>5.4000000953674</ele>
        <time>2021-07-01T07:00:03.000Z</time>
      </trkpt>
      <trkpt lat="47.26943" lon="-2.33826">
        <ele>5.4000000953674</ele>
        <time>2021-07-01T07:00:07.000Z</time>
      </trkpt>
      <trkpt lat="47.26952" lon="-2.33831">
        <ele>5.4000000953674</ele>
        <time>2021-07-01T07:00:09.000Z</time>
      </trkpt>
      <trkpt lat="47.26968" lon="-2.33836">
        <ele>5.4000000953674</ele>
        <time>2021-07-01T07:00:12.000Z</time>
      </trkpt>
      <trkpt lat="47.26989" lon="-2.33846">
        <ele>5.8000001907349</ele>
        <time>2021-07-01T07:00:17.000Z</time>
      </trkpt>
      <trkpt lat="47.26993" lon="-2.33847">
        <ele>6.8000001907349</ele>
        <time>2021-07-01T07:00:18.000Z</time>
      </trkpt>
      <trkpt lat="47.26997" lon="-2.33849">
        <ele>7.1999998092651</ele>
        <time>2021-07-01T07:00:19.000Z</time>
      </trkpt>
      <trkpt lat="47.27" lon="-2.33852">
        <ele>7.5999999046326</ele>
        <time>2021-07-01T07:00:20.000Z</time>
      </trkpt>
      <trkpt lat="47.27015" lon="-2.33861">
        <ele>8</ele>
        <time>2021-07-01T07:00:24.000Z</time>
      </trkpt>
      <trkpt lat="47.27018" lon="-2.33864">
        <ele>8.3999996185303</ele>
        <time>2021-07-01T07:00:25.000Z</time>
      </trkpt>
      <trkpt lat="47.27021" lon="-2.33867">
        <ele>8.8000001907349</ele>
        <time>2021-07-01T07:00:26.000Z</time>
      </trkpt>
      <trkpt lat="47.27024" lon="-2.3387">
        <ele>9.1999998092651</ele>
        <time>2021-07-01T07:00:27.000Z</time>
      </trkpt>
      <trkpt lat="47.27027" lon="-2.33872">
        <ele>9.6000003814697</ele>
        <time>2021-07-01T07:00:28.000Z</time>
      </trkpt>
      <trkpt lat="47.27042" lon="-2.33882">
        <ele>9.6000003814697</ele>
        <time>2021-07-01T07:00:32.000Z</time>
      </trkpt>
      <trkpt lat="47.27065" lon="-2.33906">
        <ele>9.6000003814697</ele>
        <time>2021-07-01T07:00:39.000Z</time>
      </trkpt>
      <trkpt lat="47.27068" lon="-2.3391">
        <ele>10</ele>
        <time>2021-07-01T07:00:40.000Z</time>
      </trkpt>
      <trkpt lat="47.27072" lon="-2.33913">
        <ele>10.60000038147</ele>
        <time>2021-07-01T07:00:41.000Z</time>
      </trkpt>
      <trkpt lat="47.27075" lon="-2.33915">
        <ele>11</ele>
        <time>2021-07-01T07:00:42.000Z</time>
      </trkpt>
      <trkpt lat="47.27079" lon="-2.33918">
        <ele>11.800000190735</ele>
        <time>2021-07-01T07:00:43.000Z</time>
      </trkpt>
      <trkpt lat="47.27091" lon="-2.33929">
        <ele>12.199999809265</ele>
        <time>2021-07-01T07:00:47.000Z</time>
      </trkpt>
      <trkpt lat="47.27094" lon="-2.33931">
        <ele>12.60000038147</ele>
        <time>2021-07-01T07:00:48.000Z</time>
      </trkpt>
      <trkpt lat="47.27097" lon="-2.33934">
        <ele>13</ele>
        <time>2021-07-01T07:00:49.000Z</time>
      </trkpt>
      <trkpt lat="47.271" lon="-2.33937">
        <ele>13.60000038147</ele>
        <time>2021-07-01T07:00:50.000Z</time>
      </trkpt>
      <trkpt lat="47.27104" lon="-2.33939">
        <ele>14</ele>
        <time>2021-07-01T07:00:51.000Z</time>
      </trkpt>
      <trkpt lat="47.27112" lon="-2.33946">
        <ele>14</ele>
        <time>2021-07-01T07:00:54.000Z</time>
      </trkpt>
      <trkpt lat="47.27121" lon="-2.33953">
        <ele>14.39999961853</ele>
        <time>2021-07-01T07:00:57.000Z</time>
      </trkpt>
      <trkpt lat="47.27124" lon="-2.33955">
        <ele>14.800000190735</ele>
        <time>2021-07-01T07:00:58.000Z</time>
      </trkpt>
      <trkpt lat="47.27127" lon="-2.33958">
        <ele>15.199999809265</ele>
        <time>2021-07-01T07:00:59.000Z</time>
      </trkpt>
      <trkpt lat="47.2713" lon="-2.33963">
        <ele>15.60000038147</ele>
        <time>2021-07-01T07:01:00.000Z</time>
      </trkpt>
      <trkpt lat="47.27133" lon="-2.33967">
        <ele>16</ele>
        <time>2021-07-01T07:01:01.000Z</time>
      </trkpt>
      <trkpt lat="47.27141" lon="-2.33979">
        <ele>16</ele>
        <time>2021-07-01T07:01:04.000Z</time>
      </trkpt>
      <trkpt lat="47.27151" lon="-2.33991">
        <ele>16</ele>
        <time>2021-07-01T07:01:07.000Z</time>
      </trkpt>
      <trkpt lat="47.27157" lon="-2.33998">
        <ele>16</ele>
        <time>2021-07-01T07:01:09.000Z</time>
      </trkpt>
      <trkpt lat="47.27173" lon="-2.34015">
        <ele>16</ele>
        <time>2021-07-01T07:01:14.000Z</time>
      </trkpt>
      <trkpt lat="47.27197" lon="-2.34038">
        <ele>16.39999961853</ele>
        <time>2021-07-01T07:01:21.000Z</time>
      </trkpt>
      <trkpt lat="47.272" lon="-2.34042">
        <ele>16.799999237061</ele>
        <time>2021-07-01T07:01:22.000Z</time>
      </trkpt>
      <trkpt lat="47.27204" lon="-2.34045">
        <ele>17.200000762939</ele>
        <time>2021-07-01T07:01:23.000Z</time>
      </trkpt>
      <trkpt lat="47.27207" lon="-2.34048">
        <ele>17.60000038147</ele>
        <time>2021-07-01T07:01:24.000Z</time>
      </trkpt>
      <trkpt lat="47.27211" lon="-2.34051">
        <ele>18</ele>
        <time>2021-07-01T07:01:25.000Z</time>
      </trkpt>
      <trkpt lat="47.27227" lon="-2.34055">
        <ele>18</ele>
        <time>2021-07-01T07:01:29.000Z</time>
      </trkpt>
      <trkpt lat="47.27255" lon="-2.34054">
        <ele>18</ele>
        <time>2021-07-01T07:01:36.000Z</time>
      </trkpt>
      <trkpt lat="47.2726" lon="-2.34057">
        <ele>18</ele>
        <time>2021-07-01T07:01:37.000Z</time>
      </trkpt>
      <trkpt lat="47.27275" lon="-2.34071">
        <ele>18</ele>
        <time>2021-07-01T07:01:41.000Z</time>
      </trkpt>
      <trkpt lat="47.27281" lon="-2.34082">
        <ele>18</ele>
        <time>2021-07-01T07:01:43.000Z</time>
      </trkpt>
      <trkpt lat="47.27285" lon="-2.34095">
        <ele>18</ele>
        <time>2021-07-01T07:01:45.000Z</time>
      </trkpt>
      <trkpt lat="47.27293" lon="-2.3412">
        <ele>18</ele>
        <time>2021-07-01T07:01:49.000Z</time>
      </trkpt>
      <trkpt lat="47.27296" lon="-2.34123">
        <ele>18</ele>
        <time>2021-07-01T07:01:50.000Z</time>
      </trkpt>
      <trkpt lat="47.27303" lon="-2.3413">
        <ele>18</ele>
        <time>2021-07-01T07:01:52.000Z</time>
      </trkpt>
      <trkpt lat="47.27317" lon="-2.34141">
        <ele>18</ele>
        <time>2021-07-01T07:01:55.000Z</time>
      </trkpt>
      <trkpt lat="47.27346" lon="-2.3416">
        <ele>18</ele>
        <time>2021-07-01T07:02:02.000Z</time>
      </trkpt>
      <trkpt lat="47.27375" lon="-2.34179">
        <ele>18</ele>
        <time>2021-07-01T07:02:09.000Z</time>
      </trkpt>
      <trkpt lat="47.27387" lon="-2.34187">
        <ele>18</ele>
        <time>2021-07-01T07:02:12.000Z</time>
      </trkpt>
      <trkpt lat="47.27396" lon="-2.342">
        <ele>18</ele>
        <time>2021-07-01T07:02:15.000Z</time>
      </trkpt>
      <trkpt lat="47.27397" lon="-2.34206">
        <ele>18</ele>
        <time>2021-07-01T07:02:16.000Z</time>
      </trkpt>
      <trkpt lat="47.27403" lon="-2.3423">
        <ele>18</ele>
        <time>2021-07-01T07:02:20.000Z</time>
      </trkpt>
      <trkpt lat="47.27404" lon="-2.34236">
        <ele>18</ele>
        <time>2021-07-01T07:02:22.000Z</time>
      </trkpt>
      <trkpt lat="47.27405" lon="-2.34239">
        <ele>18</ele>
        <time>2021-07-01T07:02:25.000Z</time>
      </trkpt>
      <trkpt lat="47.27411" lon="-2.34245">
        <ele>18</ele>
        <time>2021-07-01T07:02:28.000Z</time>
      </trkpt>
      <trkpt lat="47.27413" lon="-2.34249">
        <ele>18</ele>
        <time>2021-07-01T07:02:29.000Z</time>
      </trkpt>
      <trkpt lat="47.27417" lon="-2.34263">
        <ele>18</ele>
        <time>2021-07-01T07:02:32.000Z</time>
      </trkpt>
      <trkpt lat="47.27418" lon="-2.34288">
        <ele>18</ele>
        <time>2021-07-01T07:02:36.000Z</time>
      </trkpt>
      <trkpt lat="47.2742" lon="-2.34301">
        <ele>18</ele>
        <time>2021-07-01T07:02:38.000Z</time>
      </trkpt>
      <trkpt lat="47.27421" lon="-2.34353">
        <ele>18</ele>
        <time>2021-07-01T07:02:46.000Z</time>
      </trkpt>
      <trkpt lat="47.27425" lon="-2.34399">
        <ele>18.39999961853</ele>
        <time>2021-07-01T07:02:53.000Z</time>
      </trkpt>
      <trkpt lat="47.27426" lon="-2.34406">
        <ele>19</ele>
        <time>2021-07-01T07:02:54.000Z</time>
      </trkpt>
      <trkpt lat="47.27427" lon="-2.34413">
        <ele>19.39999961853</ele>
        <time>2021-07-01T07:02:55.000Z</time>
      </trkpt>
      <trkpt lat="47.27427" lon="-2.3442">
        <ele>19.799999237061</ele>
        <time>2021-07-01T07:02:56.000Z</time>
      </trkpt>
      <trkpt lat="47.27428" lon="-2.34426">
        <ele>20.200000762939</ele>
        <time>2021-07-01T07:02:57.000Z</time>
      </trkpt>
      <trkpt lat="47.27429" lon="-2.34453">
        <ele>20.200000762939</ele>
        <time>2021-07-01T07:03:01.000Z</time>
      </trkpt>
      <trkpt lat="47.27431" lon="-2.34499">
        <ele>20.200000762939</ele>
        <time>2021-07-01T07:03:08.000Z</time>
      </trkpt>
      <trkpt lat="47.27432" lon="-2.34506">
        <ele>20.200000762939</ele>
        <time>2021-07-01T07:03:09.000Z</time>
      </trkpt>
      <trkpt lat="47.27439" lon="-2.34541">
        <ele>20.200000762939</ele>
        <time>2021-07-01T07:03:15.000Z</time>
      </trkpt>
      <trkpt lat="47.27443" lon="-2.34552">
        <ele>20.200000762939</ele>
        <time>2021-07-01T07:03:17.000Z</time>
      </trkpt>
      <trkpt lat="47.27453" lon="-2.34592">
        <ele>20.200000762939</ele>
        <time>2021-07-01T07:03:23.000Z</time>
      </trkpt>
      <trkpt lat="47.27454" lon="-2.34599">
        <ele>20.200000762939</ele>
        <time>2021-07-01T07:03:24.000Z</time>
      </trkpt>
      <trkpt lat="47.27456" lon="-2.3464">
        <ele>20.200000762939</ele>
        <time>2021-07-01T07:03:31.000Z</time>
      </trkpt>
      <trkpt lat="47.27461" lon="-2.34682">
        <ele>20.200000762939</ele>
        <time>2021-07-01T07:03:39.000Z</time>
      </trkpt>
      <trkpt lat="47.27462" lon="-2.34689">
        <ele>20.200000762939</ele>
        <time>2021-07-01T07:03:41.000Z</time>
      </trkpt>
      <trkpt lat="47.27465" lon="-2.34691">
        <ele>20.200000762939</ele>
        <time>2021-07-01T07:03:43.000Z</time>
      </trkpt>
      <trkpt lat="47.2747" lon="-2.34693">
        <ele>20.200000762939</ele>
        <time>2021-07-01T07:03:48.000Z</time>
      </trkpt>
      <trkpt lat="47.27469" lon="-2.34693">
        <ele>20.200000762939</ele>
        <time>2021-07-01T07:03:52.000Z</time>
      </trkpt>
      <trkpt lat="47.27466" lon="-2.34694">
        <ele>20.200000762939</ele>
        <time>2021-07-01T07:03:53.000Z</time>
      </trkpt>
      <trkpt lat="47.27464" lon="-2.34696">
        <ele>20.200000762939</ele>
        <time>2021-07-01T07:03:56.000Z</time>
      </trkpt>
      <trkpt lat="47.27464" lon="-2.34699">
        <ele>20.200000762939</ele>
        <time>2021-07-01T07:03:58.000Z</time>
      </trkpt>
      <trkpt lat="47.27462" lon="-2.34707">
        <ele>20.200000762939</ele>
        <time>2021-07-01T07:04:10.000Z</time>
      </trkpt>
      <trkpt lat="47.27463" lon="-2.34713">
        <ele>20.200000762939</ele>
        <time>2021-07-01T07:04:12.000Z</time>
      </trkpt>
      <trkpt lat="47.27463" lon="-2.3473">
        <ele>20.200000762939</ele>
        <time>2021-07-01T07:04:15.000Z</time>
      </trkpt>
      <trkpt lat="47.27464" lon="-2.34736">
        <ele>20.200000762939</ele>
        <time>2021-07-01T07:04:16.000Z</time>
      </trkpt>
      <trkpt lat="47.27467" lon="-2.34782">
        <ele>20.200000762939</ele>
        <time>2021-07-01T07:04:22.000Z</time>
      </trkpt>
      <trkpt lat="47.27467" lon="-2.34807">
        <ele>20.200000762939</ele>
        <time>2021-07-01T07:04:25.000Z</time>
      </trkpt>
      <trkpt lat="47.27467" lon="-2.34814">
        <ele>19.799999237061</ele>
        <time>2021-07-01T07:04:26.000Z</time>
      </trkpt>
      <trkpt lat="47.27467" lon="-2.34821">
        <ele>19.39999961853</ele>
        <time>2021-07-01T07:04:27.000Z</time>
      </trkpt>
      <trkpt lat="47.27466" lon="-2.34827">
        <ele>19</ele>
        <time>2021-07-01T07:04:28.000Z</time>
      </trkpt>
      <trkpt lat="47.27466" lon="-2.34834">
        <ele>18.39999961853</ele>
        <time>2021-07-01T07:04:29.000Z</time>
      </trkpt>
      <trkpt lat="47.27465" lon="-2.3484">
        <ele>18</ele>
        <time>2021-07-01T07:04:30.000Z</time>
      </trkpt>
      <trkpt lat="47.27466" lon="-2.34869">
        <ele>18</ele>
        <time>2021-07-01T07:04:34.000Z</time>
      </trkpt>
      <trkpt lat="47.27471" lon="-2.34912">
        <ele>18</ele>
        <time>2021-07-01T07:04:40.000Z</time>
      </trkpt>
      <trkpt lat="47.2748" lon="-2.34917">
        <ele>18</ele>
        <time>2021-07-01T07:04:43.000Z</time>
      </trkpt>
      <trkpt lat="47.27499" lon="-2.3491">
        <ele>18</ele>
        <time>2021-07-01T07:04:47.000Z</time>
      </trkpt>
      <trkpt lat="47.27527" lon="-2.34902">
        <ele>18</ele>
        <time>2021-07-01T07:04:52.000Z</time>
      </trkpt>
      <trkpt lat="47.27572" lon="-2.34906">
        <ele>18</ele>
        <time>2021-07-01T07:05:00.000Z</time>
      </trkpt>
      <trkpt lat="47.27608" lon="-2.34912">
        <ele>18</ele>
        <time>2021-07-01T07:05:06.000Z</time>
      </trkpt>
      <trkpt lat="47.27647" lon="-2.34911">
        <ele>18</ele>
        <time>2021-07-01T07:05:13.000Z</time>
      </trkpt>
      <trkpt lat="47.27663" lon="-2.34908">
        <ele>18</ele>
        <time>2021-07-01T07:05:16.000Z</time>
      </trkpt>
      <trkpt lat="47.27672" lon="-2.34911">
        <ele>18</ele>
        <time>2021-07-01T07:05:18.000Z</time>
      </trkpt>
      <trkpt lat="47.27682" lon="-2.34927">
        <ele>18</ele>
        <time>2021-07-01T07:05:21.000Z</time>
      </trkpt>
      <trkpt lat="47.27686" lon="-2.34959">
        <ele>18</ele>
        <time>2021-07-01T07:05:25.000Z</time>
      </trkpt>
      <trkpt lat="47.27686" lon="-2.34968">
        <ele>18</ele>
        <time>2021-07-01T07:05:26.000Z</time>
      </trkpt>
      <trkpt lat="47.27687" lon="-2.35013">
        <ele>18</ele>
        <time>2021-07-01T07:05:31.000Z</time>
      </trkpt>
      <trkpt lat="47.27688" lon="-2.35022">
        <ele>18</ele>
        <time>2021-07-01T07:05:32.000Z</time>
      </trkpt>
      <trkpt lat="47.27697" lon="-2.35036">
        <ele>18</ele>
        <time>2021-07-01T07:05:35.000Z</time>
      </trkpt>
      <trkpt lat="47.27712" lon="-2.35035">
        <ele>18</ele>
        <time>2021-07-01T07:05:39.000Z</time>
      </trkpt>
      <trkpt lat="47.27734" lon="-2.3503">
        <ele>17.60000038147</ele>
        <time>2021-07-01T07:05:43.000Z</time>
      </trkpt>
      <trkpt lat="47.2774" lon="-2.35029">
        <ele>17.200000762939</ele>
        <time>2021-07-01T07:05:44.000Z</time>
      </trkpt>
      <trkpt lat="47.27745" lon="-2.35031">
        <ele>16.799999237061</ele>
        <time>2021-07-01T07:05:45.000Z</time>
      </trkpt>
      <trkpt lat="47.27751" lon="-2.35033">
        <ele>16.39999961853</ele>
        <time>2021-07-01T07:05:46.000Z</time>
      </trkpt>
      <trkpt lat="47.27756" lon="-2.35038">
        <ele>15.800000190735</ele>
        <time>2021-07-01T07:05:47.000Z</time>
      </trkpt>
      <trkpt lat="47.27759" lon="-2.35045">
        <ele>15.39999961853</ele>
        <time>2021-07-01T07:05:48.000Z</time>
      </trkpt>
      <trkpt lat="47.27761" lon="-2.35053">
        <ele>14.800000190735</ele>
        <time>2021-07-01T07:05:49.000Z</time>
      </trkpt>
      <trkpt lat="47.27762" lon="-2.35061">
        <ele>14.199999809265</ele>
        <time>2021-07-01T07:05:50.000Z</time>
      </trkpt>
      <trkpt lat="47.27762" lon="-2.35069">
        <ele>13.60000038147</ele>
        <time>2021-07-01T07:05:51.000Z</time>
      </trkpt>
      <trkpt lat="47.27766" lon="-2.35116">
        <ele>13.60000038147</ele>
        <time>2021-07-01T07:05:56.000Z</time>
      </trkpt>
      <trkpt lat="47.27773" lon="-2.35183">
        <ele>13.60000038147</ele>
        <time>2021-07-01T07:06:03.000Z</time>
      </trkpt>
      <trkpt lat="47.27776" lon="-2.35222">
        <ele>13.199999809265</ele>
        <time>2021-07-01T07:06:07.000Z</time>
      </trkpt>
      <trkpt lat="47.27777" lon="-2.35231">
        <ele>12.800000190735</ele>
        <time>2021-07-01T07:06:08.000Z</time>
      </trkpt>
      <trkpt lat="47.27778" lon="-2.35241">
        <ele>12.39999961853</ele>
        <time>2021-07-01T07:06:09.000Z</time>
      </trkpt>
      <trkpt lat="47.2778" lon="-2.3525">
        <ele>12</ele>
        <time>2021-07-01T07:06:10.000Z</time>
      </trkpt>
      <trkpt lat="47.27781" lon="-2.3526">
        <ele>11.60000038147</ele>
        <time>2021-07-01T07:06:11.000Z</time>
      </trkpt>
      <trkpt lat="47.27795" lon="-2.35323">
        <ele>11.60000038147</ele>
        <time>2021-07-01T07:06:18.000Z</time>
      </trkpt>
      <trkpt lat="47.27802" lon="-2.35348">
        <ele>11.60000038147</ele>
        <time>2021-07-01T07:06:21.000Z</time>
      </trkpt>
      <trkpt lat="47.2781" lon="-2.35361">
        <ele>11.60000038147</ele>
        <time>2021-07-01T07:06:23.000Z</time>
      </trkpt>
      <trkpt lat="47.27826" lon="-2.35364">
        <ele>11.60000038147</ele>
        <time>2021-07-01T07:06:26.000Z</time>
      </trkpt>
      <trkpt lat="47.27832" lon="-2.35363">
        <ele>11.60000038147</ele>
        <time>2021-07-01T07:06:27.000Z</time>
      </trkpt>
      <trkpt lat="47.27863" lon="-2.35361">
        <ele>11.60000038147</ele>
        <time>2021-07-01T07:06:33.000Z</time>
      </trkpt>
      <trkpt lat="47.27868" lon="-2.35362">
        <ele>11.60000038147</ele>
        <time>2021-07-01T07:06:34.000Z</time>
      </trkpt>
      <trkpt lat="47.2788" lon="-2.35372">
        <ele>11.60000038147</ele>
        <time>2021-07-01T07:06:37.000Z</time>
      </trkpt>
      <trkpt lat="47.27888" lon="-2.35382">
        <ele>11.60000038147</ele>
        <time>2021-07-01T07:06:39.000Z</time>
      </trkpt>
      <trkpt lat="47.279" lon="-2.35398">
        <ele>12</ele>
        <time>2021-07-01T07:06:42.000Z</time>
      </trkpt>
      <trkpt lat="47.27904" lon="-2.35403">
        <ele>12.39999961853</ele>
        <time>2021-07-01T07:06:43.000Z</time>
      </trkpt>
      <trkpt lat="47.27908" lon="-2.35409">
        <ele>12.800000190735</ele>
        <time>2021-07-01T07:06:44.000Z</time>
      </trkpt>
      <trkpt lat="47.27912" lon="-2.35414">
        <ele>13.199999809265</ele>
        <time>2021-07-01T07:06:45.000Z</time>
      </trkpt>
      <trkpt lat="47.27916" lon="-2.3542">
        <ele>13.800000190735</ele>
        <time>2021-07-01T07:06:46.000Z</time>
      </trkpt>
      <trkpt lat="47.27941" lon="-2.35451">
        <ele>13.800000190735</ele>
        <time>2021-07-01T07:06:52.000Z</time>
      </trkpt>
      <trkpt lat="47.27946" lon="-2.35455">
        <ele>13.800000190735</ele>
        <time>2021-07-01T07:06:53.000Z</time>
      </trkpt>
      <trkpt lat="47.27966" lon="-2.35463">
        <ele>13.800000190735</ele>
        <time>2021-07-01T07:06:57.000Z</time>
      </trkpt>
      <trkpt lat="47.27971" lon="-2.35465">
        <ele>13.800000190735</ele>
        <time>2021-07-01T07:06:58.000Z</time>
      </trkpt>
      <trkpt lat="47.2798" lon="-2.3548">
        <ele>13.800000190735</ele>
        <time>2021-07-01T07:07:01.000Z</time>
      </trkpt>
      <trkpt lat="47.27993" lon="-2.35513">
        <ele>13.800000190735</ele>
        <time>2021-07-01T07:07:06.000Z</time>
      </trkpt>
      <trkpt lat="47.28007" lon="-2.35549">
        <ele>13.800000190735</ele>
        <time>2021-07-01T07:07:13.000Z</time>
      </trkpt>
      <trkpt lat="47.28015" lon="-2.35564">
        <ele>13.800000190735</ele>
        <time>2021-07-01T07:07:17.000Z</time>
      </trkpt>
      <trkpt lat="47.28017" lon="-2.35564">
        <ele>13.800000190735</ele>
        <time>2021-07-01T07:07:18.000Z</time>
      </trkpt>
      <trkpt lat="47.28034" lon="-2.35571">
        <ele>13.800000190735</ele>
        <time>2021-07-01T07:07:23.000Z</time>
      </trkpt>
      <trkpt lat="47.28049" lon="-2.35578">
        <ele>13.800000190735</ele>
        <time>2021-07-01T07:07:29.000Z</time>
      </trkpt>
      <trkpt lat="47.28051" lon="-2.3558">
        <ele>13.800000190735</ele>
        <time>2021-07-01T07:07:30.000Z</time>
      </trkpt>
      <trkpt lat="47.28053" lon="-2.35582">
        <ele>13.800000190735</ele>
        <time>2021-07-01T07:07:33.000Z</time>
      </trkpt>
      <trkpt lat="47.28054" lon="-2.35588">
        <ele>13.800000190735</ele>
        <time>2021-07-01T07:09:20.000Z</time>
      </trkpt>
      <trkpt lat="47.28056" lon="-2.35586">
        <ele>13.800000190735</ele>
        <time>2021-07-01T07:09:22.000Z</time>
      </trkpt>
      <trkpt lat="47.28056" lon="-2.35587">
        <ele>13.800000190735</ele>
        <time>2021-07-01T07:09:24.000Z</time>
      </trkpt>
      <trkpt lat="47.28059" lon="-2.35589">
        <ele>13.800000190735</ele>
        <time>2021-07-01T07:09:27.000Z</time>
      </trkpt>
      <trkpt lat="47.28063" lon="-2.35594">
        <ele>13.800000190735</ele>
        <time>2021-07-01T07:09:31.000Z</time>
      </trkpt>
      <trkpt lat="47.28072" lon="-2.35618">
        <ele>14.199999809265</ele>
        <time>2021-07-01T07:09:38.000Z</time>
      </trkpt>
      <trkpt lat="47.28073" lon="-2.35621">
        <ele>14.60000038147</ele>
        <time>2021-07-01T07:09:39.000Z</time>
      </trkpt>
      <trkpt lat="47.28073" lon="-2.35625">
        <ele>15</ele>
        <time>2021-07-01T07:09:40.000Z</time>
      </trkpt>
      <trkpt lat="47.28074" lon="-2.35629">
        <ele>15.39999961853</ele>
        <time>2021-07-01T07:09:41.000Z</time>
      </trkpt>
      <trkpt lat="47.28075" lon="-2.35632">
        <ele>15.800000190735</ele>
        <time>2021-07-01T07:09:42.000Z</time>
      </trkpt>
      <trkpt lat="47.28077" lon="-2.35645">
        <ele>16.799999237061</ele>
        <time>2021-07-01T07:09:46.000Z</time>
      </trkpt>
      <trkpt lat="47.28078" lon="-2.35649">
        <ele>17.200000762939</ele>
        <time>2021-07-01T07:09:47.000Z</time>
      </trkpt>
      <trkpt lat="47.28079" lon="-2.35653">
        <ele>17.60000038147</ele>
        <time>2021-07-01T07:09:48.000Z</time>
      </trkpt>
      <trkpt lat="47.2808" lon="-2.35656">
        <ele>18</ele>
        <time>2021-07-01T07:09:49.000Z</time>
      </trkpt>
      <trkpt lat="47.28083" lon="-2.35669">
        <ele>18.39999961853</ele>
        <time>2021-07-01T07:09:52.000Z</time>
      </trkpt>
      <trkpt lat="47.28084" lon="-2.35673">
        <ele>18.799999237061</ele>
        <time>2021-07-01T07:09:53.000Z</time>
      </trkpt>
      <trkpt lat="47.28084" lon="-2.35677">
        <ele>19.39999961853</ele>
        <time>2021-07-01T07:09:54.000Z</time>
      </trkpt>
      <trkpt lat="47.28085" lon="-2.35681">
        <ele>19.799999237061</ele>
        <time>2021-07-01T07:09:55.000Z</time>
      </trkpt>
      <trkpt lat="47.28087" lon="-2.35685">
        <ele>20.200000762939</ele>
        <time>2021-07-01T07:09:56.000Z</time>
      </trkpt>
      <trkpt lat="47.28089" lon="-2.35694">
        <ele>20.200000762939</ele>
        <time>2021-07-01T07:09:59.000Z</time>
      </trkpt>
      <trkpt lat="47.28091" lon="-2.35716">
        <ele>20.200000762939</ele>
        <time>2021-07-01T07:10:06.000Z</time>
      </trkpt>
      <trkpt lat="47.28088" lon="-2.35739">
        <ele>20.200000762939</ele>
        <time>2021-07-01T07:10:12.000Z</time>
      </trkpt>
      <trkpt lat="47.28085" lon="-2.35773">
        <ele>20.200000762939</ele>
        <time>2021-07-01T07:10:18.000Z</time>
      </trkpt>
      <trkpt lat="47.28081" lon="-2.35795">
        <ele>19.799999237061</ele>
        <time>2021-07-01T07:10:23.000Z</time>
      </trkpt>
      <trkpt lat="47.28083" lon="-2.35797">
        <ele>19.200000762939</ele>
        <time>2021-07-01T07:10:24.000Z</time>
      </trkpt>
      <trkpt lat="47.28086" lon="-2.35798">
        <ele>18.799999237061</ele>
        <time>2021-07-01T07:10:25.000Z</time>
      </trkpt>
      <trkpt lat="47.28089" lon="-2.35798">
        <ele>18.39999961853</ele>
        <time>2021-07-01T07:10:26.000Z</time>
      </trkpt>
      <trkpt lat="47.28091" lon="-2.35797">
        <ele>18</ele>
        <time>2021-07-01T07:10:27.000Z</time>
      </trkpt>
      <trkpt lat="47.28103" lon="-2.3578">
        <ele>18</ele>
        <time>2021-07-01T07:10:32.000Z</time>
      </trkpt>
      <trkpt lat="47.28104" lon="-2.35776">
        <ele>17.60000038147</ele>
        <time>2021-07-01T07:10:33.000Z</time>
      </trkpt>
      <trkpt lat="47.28105" lon="-2.35773">
        <ele>17.200000762939</ele>
        <time>2021-07-01T07:10:34.000Z</time>
      </trkpt>
      <trkpt lat="47.28106" lon="-2.3577">
        <ele>16.39999961853</ele>
        <time>2021-07-01T07:10:35.000Z</time>
      </trkpt>
      <trkpt lat="47.28107" lon="-2.35767">
        <ele>15.800000190735</ele>
        <time>2021-07-01T07:10:36.000Z</time>
      </trkpt>
      <trkpt lat="47.28108" lon="-2.35765">
        <ele>15.800000190735</ele>
        <time>2021-07-01T07:10:37.000Z</time>
      </trkpt>
      <trkpt lat="47.28112" lon="-2.35749">
        <ele>15.800000190735</ele>
        <time>2021-07-01T07:10:44.000Z</time>
      </trkpt>
      <trkpt lat="47.28118" lon="-2.35745">
        <ele>15.800000190735</ele>
        <time>2021-07-01T07:10:51.000Z</time>
      </trkpt>
      <trkpt lat="47.28122" lon="-2.35746">
        <ele>15.800000190735</ele>
        <time>2021-07-01T07:10:54.000Z</time>
      </trkpt>
      <trkpt lat="47.28127" lon="-2.35748">
        <ele>15.800000190735</ele>
        <time>2021-07-01T07:10:57.000Z</time>
      </trkpt>
      <trkpt lat="47.28138" lon="-2.35764">
        <ele>15.800000190735</ele>
        <time>2021-07-01T07:11:04.000Z</time>
      </trkpt>
      <trkpt lat="47.28137" lon="-2.35766">
        <ele>15.800000190735</ele>
        <time>2021-07-01T07:11:05.000Z</time>
      </trkpt>
      <trkpt lat="47.28138" lon="-2.35789">
        <ele>15.800000190735</ele>
        <time>2021-07-01T07:11:12.000Z</time>
      </trkpt>
      <trkpt lat="47.28143" lon="-2.35807">
        <ele>16.200000762939</ele>
        <time>2021-07-01T07:11:17.000Z</time>
      </trkpt>
      <trkpt lat="47.28145" lon="-2.3581">
        <ele>16.60000038147</ele>
        <time>2021-07-01T07:11:18.000Z</time>
      </trkpt>
      <trkpt lat="47.28148" lon="-2.35813">
        <ele>17</ele>
        <time>2021-07-01T07:11:19.000Z</time>
      </trkpt>
      <trkpt lat="47.2815" lon="-2.35815">
        <ele>17.39999961853</ele>
        <time>2021-07-01T07:11:20.000Z</time>
      </trkpt>
      <trkpt lat="47.28153" lon="-2.35818">
        <ele>17.799999237061</ele>
        <time>2021-07-01T07:11:21.000Z</time>
      </trkpt>
      <trkpt lat="47.28158" lon="-2.3582">
        <ele>17.799999237061</ele>
        <time>2021-07-01T07:11:23.000Z</time>
      </trkpt>
      <trkpt lat="47.28163" lon="-2.35821">
        <ele>17.799999237061</ele>
        <time>2021-07-01T07:11:25.000Z</time>
      </trkpt>
      <trkpt lat="47.28173" lon="-2.35822">
        <ele>17.799999237061</ele>
        <time>2021-07-01T07:11:31.000Z</time>
      </trkpt>
      <trkpt lat="47.28182" lon="-2.35821">
        <ele>17.799999237061</ele>
        <time>2021-07-01T07:11:37.000Z</time>
      </trkpt>
      <trkpt lat="47.28186" lon="-2.35822">
        <ele>17.799999237061</ele>
        <time>2021-07-01T07:11:39.000Z</time>
      </trkpt>
      <trkpt lat="47.28193" lon="-2.35833">
        <ele>17.799999237061</ele>
        <time>2021-07-01T07:11:44.000Z</time>
      </trkpt>
      <trkpt lat="47.28193" lon="-2.3584">
        <ele>17.799999237061</ele>
        <time>2021-07-01T07:11:47.000Z</time>
      </trkpt>
      <trkpt lat="47.28196" lon="-2.35855">
        <ele>17.799999237061</ele>
        <time>2021-07-01T07:11:50.000Z</time>
      </trkpt>
      <trkpt lat="47.28204" lon="-2.3589">
        <ele>17.799999237061</ele>
        <time>2021-07-01T07:11:59.000Z</time>
      </trkpt>
      <trkpt lat="47.28201" lon="-2.35917">
        <ele>17.799999237061</ele>
        <time>2021-07-01T07:12:03.000Z</time>
      </trkpt>
      <trkpt lat="47.28195" lon="-2.35944">
        <ele>17.799999237061</ele>
        <time>2021-07-01T07:12:08.000Z</time>
      </trkpt>
      <trkpt lat="47.28189" lon="-2.35957">
        <ele>17.799999237061</ele>
        <time>2021-07-01T07:12:11.000Z</time>
      </trkpt>
      <trkpt lat="47.28191" lon="-2.35967">
        <ele>17.39999961853</ele>
        <time>2021-07-01T07:12:13.000Z</time>
      </trkpt>
      <trkpt lat="47.28191" lon="-2.35973">
        <ele>17</ele>
        <time>2021-07-01T07:12:14.000Z</time>
      </trkpt>
      <trkpt lat="47.28192" lon="-2.3598">
        <ele>16.200000762939</ele>
        <time>2021-07-01T07:12:15.000Z</time>
      </trkpt>
      <trkpt lat="47.28193" lon="-2.35987">
        <ele>15.800000190735</ele>
        <time>2021-07-01T07:12:16.000Z</time>
      </trkpt>
      <trkpt lat="47.28194" lon="-2.35995">
        <ele>15.800000190735</ele>
        <time>2021-07-01T07:12:17.000Z</time>
      </trkpt>
      <trkpt lat="47.28205" lon="-2.36019">
        <ele>15.800000190735</ele>
        <time>2021-07-01T07:12:21.000Z</time>
      </trkpt>
      <trkpt lat="47.2821" lon="-2.36028">
        <ele>15.800000190735</ele>
        <time>2021-07-01T07:12:23.000Z</time>
      </trkpt>
      <trkpt lat="47.28228" lon="-2.36062">
        <ele>15.800000190735</ele>
        <time>2021-07-01T07:12:31.000Z</time>
      </trkpt>
      <trkpt lat="47.28242" lon="-2.36089">
        <ele>15.800000190735</ele>
        <time>2021-07-01T07:12:38.000Z</time>
      </trkpt>
      <trkpt lat="47.28252" lon="-2.36109">
        <ele>15.800000190735</ele>
        <time>2021-07-01T07:12:44.000Z</time>
      </trkpt>
      <trkpt lat="47.28269" lon="-2.36134">
        <ele>15.800000190735</ele>
        <time>2021-07-01T07:12:49.000Z</time>
      </trkpt>
      <trkpt lat="47.28273" lon="-2.3614">
        <ele>15.800000190735</ele>
        <time>2021-07-01T07:12:50.000Z</time>
      </trkpt>
      <trkpt lat="47.28276" lon="-2.36147">
        <ele>15.39999961853</ele>
        <time>2021-07-01T07:12:51.000Z</time>
      </trkpt>
      <trkpt lat="47.28279" lon="-2.36154">
        <ele>15</ele>
        <time>2021-07-01T07:12:52.000Z</time>
      </trkpt>
      <trkpt lat="47.28281" lon="-2.36161">
        <ele>14.60000038147</ele>
        <time>2021-07-01T07:12:53.000Z</time>
      </trkpt>
      <trkpt lat="47.28283" lon="-2.36167">
        <ele>14.199999809265</ele>
        <time>2021-07-01T07:12:54.000Z</time>
      </trkpt>
      <trkpt lat="47.28286" lon="-2.36175">
        <ele>13.60000038147</ele>
        <time>2021-07-01T07:12:55.000Z</time>
      </trkpt>
      <trkpt lat="47.28297" lon="-2.36201">
        <ele>13.60000038147</ele>
        <time>2021-07-01T07:12:59.000Z</time>
      </trkpt>
      <trkpt lat="47.283" lon="-2.36207">
        <ele>13.60000038147</ele>
        <time>2021-07-01T07:13:00.000Z</time>
      </trkpt>
      <trkpt lat="47.28313" lon="-2.3622">
        <ele>13.60000038147</ele>
        <time>2021-07-01T07:13:04.000Z</time>
      </trkpt>
      <trkpt lat="47.28327" lon="-2.36231">
        <ele>13.60000038147</ele>
        <time>2021-07-01T07:13:09.000Z</time>
      </trkpt>
      <trkpt lat="47.28341" lon="-2.36242">
        <ele>14.199999809265</ele>
        <time>2021-07-01T07:13:14.000Z</time>
      </trkpt>
      <trkpt lat="47.28345" lon="-2.36245">
        <ele>14.60000038147</ele>
        <time>2021-07-01T07:13:15.000Z</time>
      </trkpt>
      <trkpt lat="47.28347" lon="-2.36248">
        <ele>15</ele>
        <time>2021-07-01T07:13:16.000Z</time>
      </trkpt>
      <trkpt lat="47.2835" lon="-2.3625">
        <ele>15.39999961853</ele>
        <time>2021-07-01T07:13:17.000Z</time>
      </trkpt>
      <trkpt lat="47.28353" lon="-2.36252">
        <ele>15.800000190735</ele>
        <time>2021-07-01T07:13:18.000Z</time>
      </trkpt>
      <trkpt lat="47.28364" lon="-2.36258">
        <ele>15.800000190735</ele>
        <time>2021-07-01T07:13:22.000Z</time>
      </trkpt>
      <trkpt lat="47.28371" lon="-2.36271">
        <ele>15.800000190735</ele>
        <time>2021-07-01T07:13:27.000Z</time>
      </trkpt>
      <trkpt lat="47.28381" lon="-2.36286">
        <ele>16.200000762939</ele>
        <time>2021-07-01T07:13:33.000Z</time>
      </trkpt>
      <trkpt lat="47.28383" lon="-2.36288">
        <ele>16.60000038147</ele>
        <time>2021-07-01T07:13:34.000Z</time>
      </trkpt>
      <trkpt lat="47.28384" lon="-2.3629">
        <ele>17</ele>
        <time>2021-07-01T07:13:35.000Z</time>
      </trkpt>
      <trkpt lat="47.28386" lon="-2.36292">
        <ele>17.39999961853</ele>
        <time>2021-07-01T07:13:36.000Z</time>
      </trkpt>
      <trkpt lat="47.28387" lon="-2.36293">
        <ele>17.799999237061</ele>
        <time>2021-07-01T07:13:37.000Z</time>
      </trkpt>
      <trkpt lat="47.2839" lon="-2.36298">
        <ele>17.799999237061</ele>
        <time>2021-07-01T07:13:40.000Z</time>
      </trkpt>
      <trkpt lat="47.284" lon="-2.36312">
        <ele>17.799999237061</ele>
        <time>2021-07-01T07:13:45.000Z</time>
      </trkpt>
      <trkpt lat="47.28409" lon="-2.36329">
        <ele>18.200000762939</ele>
        <time>2021-07-01T07:13:50.000Z</time>
      </trkpt>
      <trkpt lat="47.2841" lon="-2.36333">
        <ele>18.60000038147</ele>
        <time>2021-07-01T07:13:51.000Z</time>
      </trkpt>
      <trkpt lat="47.28411" lon="-2.36337">
        <ele>19</ele>
        <time>2021-07-01T07:13:52.000Z</time>
      </trkpt>
      <trkpt lat="47.28412" lon="-2.3634">
        <ele>19.799999237061</ele>
        <time>2021-07-01T07:13:53.000Z</time>
      </trkpt>
      <trkpt lat="47.28424" lon="-2.36356">
        <ele>19.799999237061</ele>
        <time>2021-07-01T07:13:58.000Z</time>
      </trkpt>
      <trkpt lat="47.28435" lon="-2.3637">
        <ele>19.799999237061</ele>
        <time>2021-07-01T07:14:03.000Z</time>
      </trkpt>
      <trkpt lat="47.28448" lon="-2.36398">
        <ele>19.799999237061</ele>
        <time>2021-07-01T07:14:10.000Z</time>
      </trkpt>
      <trkpt lat="47.28466" lon="-2.36411">
        <ele>20.200000762939</ele>
        <time>2021-07-01T07:14:16.000Z</time>
      </trkpt>
      <trkpt lat="47.28468" lon="-2.36409">
        <ele>20.60000038147</ele>
        <time>2021-07-01T07:14:17.000Z</time>
      </trkpt>
      <trkpt lat="47.28469" lon="-2.36407">
        <ele>21.60000038147</ele>
        <time>2021-07-01T07:14:18.000Z</time>
      </trkpt>
      <trkpt lat="47.28471" lon="-2.36405">
        <ele>22</ele>
        <time>2021-07-01T07:14:19.000Z</time>
      </trkpt>
      <trkpt lat="47.28473" lon="-2.36401">
        <ele>22</ele>
        <time>2021-07-01T07:14:20.000Z</time>
      </trkpt>
      <trkpt lat="47.28477" lon="-2.3638">
        <ele>22</ele>
        <time>2021-07-01T07:14:25.000Z</time>
      </trkpt>
      <trkpt lat="47.28476" lon="-2.36358">
        <ele>22</ele>
        <time>2021-07-01T07:14:31.000Z</time>
      </trkpt>
      <trkpt lat="47.28472" lon="-2.3633">
        <ele>22</ele>
        <time>2021-07-01T07:14:36.000Z</time>
      </trkpt>
      <trkpt lat="47.28465" lon="-2.36287">
        <ele>22</ele>
        <time>2021-07-01T07:14:43.000Z</time>
      </trkpt>
      <trkpt lat="47.28457" lon="-2.36243">
        <ele>22</ele>
        <time>2021-07-01T07:14:50.000Z</time>
      </trkpt>
      <trkpt lat="47.28456" lon="-2.36212">
        <ele>22</ele>
        <time>2021-07-01T07:14:56.000Z</time>
      </trkpt>
      <trkpt lat="47.28457" lon="-2.36208">
        <ele>22</ele>
        <time>2021-07-01T07:14:57.000Z</time>
      </trkpt>
      <trkpt lat="47.28464" lon="-2.36193">
        <ele>22</ele>
        <time>2021-07-01T07:15:02.000Z</time>
      </trkpt>
      <trkpt lat="47.28474" lon="-2.3618">
        <ele>22.799999237061</ele>
        <time>2021-07-01T07:15:07.000Z</time>
      </trkpt>
      <trkpt lat="47.28476" lon="-2.36177">
        <ele>23.200000762939</ele>
        <time>2021-07-01T07:15:08.000Z</time>
      </trkpt>
      <trkpt lat="47.28478" lon="-2.36173">
        <ele>23.60000038147</ele>
        <time>2021-07-01T07:15:09.000Z</time>
      </trkpt>
      <trkpt lat="47.2848" lon="-2.3617">
        <ele>24</ele>
        <time>2021-07-01T07:15:10.000Z</time>
      </trkpt>
      <trkpt lat="47.28488" lon="-2.36157">
        <ele>24</ele>
        <time>2021-07-01T07:15:15.000Z</time>
      </trkpt>
      <trkpt lat="47.28498" lon="-2.36151">
        <ele>24.39999961853</ele>
        <time>2021-07-01T07:15:20.000Z</time>
      </trkpt>
      <trkpt lat="47.28501" lon="-2.36151">
        <ele>25</ele>
        <time>2021-07-01T07:15:21.000Z</time>
      </trkpt>
      <trkpt lat="47.28503" lon="-2.36151">
        <ele>25.39999961853</ele>
        <time>2021-07-01T07:15:22.000Z</time>
      </trkpt>
      <trkpt lat="47.28506" lon="-2.36151">
        <ele>25.799999237061</ele>
        <time>2021-07-01T07:15:23.000Z</time>
      </trkpt>
      <trkpt lat="47.28507" lon="-2.36153">
        <ele>26.200000762939</ele>
        <time>2021-07-01T07:15:24.000Z</time>
      </trkpt>
      <trkpt lat="47.28514" lon="-2.36158">
        <ele>26.200000762939</ele>
        <time>2021-07-01T07:15:28.000Z</time>
      </trkpt>
      <trkpt lat="47.28518" lon="-2.36159">
        <ele>26.60000038147</ele>
        <time>2021-07-01T07:15:30.000Z</time>
      </trkpt>
      <trkpt lat="47.2852" lon="-2.36159">
        <ele>27</ele>
        <time>2021-07-01T07:15:31.000Z</time>
      </trkpt>
      <trkpt lat="47.28521" lon="-2.3616">
        <ele>27.799999237061</ele>
        <time>2021-07-01T07:15:32.000Z</time>
      </trkpt>
      <trkpt lat="47.28523" lon="-2.3616">
        <ele>28.200000762939</ele>
        <time>2021-07-01T07:15:33.000Z</time>
      </trkpt>
      <trkpt lat="47.28526" lon="-2.3616">
        <ele>28.200000762939</ele>
        <time>2021-07-01T07:15:35.000Z</time>
      </trkpt>
      <trkpt lat="47.28536" lon="-2.36159">
        <ele>28.60000038147</ele>
        <time>2021-07-01T07:15:40.000Z</time>
      </trkpt>
      <trkpt lat="47.28538" lon="-2.36159">
        <ele>29</ele>
        <time>2021-07-01T07:15:41.000Z</time>
      </trkpt>
      <trkpt lat="47.2854" lon="-2.3616">
        <ele>29.60000038147</ele>
        <time>2021-07-01T07:15:42.000Z</time>
      </trkpt>
      <trkpt lat="47.28542" lon="-2.3616">
        <ele>30</ele>
        <time>2021-07-01T07:15:43.000Z</time>
      </trkpt>
      <trkpt lat="47.28543" lon="-2.36159">
        <ele>30.39999961853</ele>
        <time>2021-07-01T07:15:44.000Z</time>
      </trkpt>
      <trkpt lat="47.28546" lon="-2.36157">
        <ele>30.39999961853</ele>
        <time>2021-07-01T07:15:46.000Z</time>
      </trkpt>
      <trkpt lat="47.28549" lon="-2.36154">
        <ele>30.799999237061</ele>
        <time>2021-07-01T07:15:48.000Z</time>
      </trkpt>
      <trkpt lat="47.2855" lon="-2.36152">
        <ele>31.200000762939</ele>
        <time>2021-07-01T07:15:49.000Z</time>
      </trkpt>
      <trkpt lat="47.28552" lon="-2.36151">
        <ele>31.60000038147</ele>
        <time>2021-07-01T07:15:50.000Z</time>
      </trkpt>
      <trkpt lat="47.28553" lon="-2.3615">
        <ele>32.200000762939</ele>
        <time>2021-07-01T07:15:51.000Z</time>
      </trkpt>
      <trkpt lat="47.28554" lon="-2.36149">
        <ele>32.599998474121</ele>
        <time>2021-07-01T07:15:52.000Z</time>
      </trkpt>
      <trkpt lat="47.28556" lon="-2.36148">
        <ele>32.599998474121</ele>
        <time>2021-07-01T07:15:53.000Z</time>
      </trkpt>
      <trkpt lat="47.2856" lon="-2.36145">
        <ele>33</ele>
        <time>2021-07-01T07:15:56.000Z</time>
      </trkpt>
      <trkpt lat="47.28561" lon="-2.36145">
        <ele>33.799999237061</ele>
        <time>2021-07-01T07:15:57.000Z</time>
      </trkpt>
      <trkpt lat="47.28563" lon="-2.36144">
        <ele>34.200000762939</ele>
        <time>2021-07-01T07:15:58.000Z</time>
      </trkpt>
      <trkpt lat="47.28565" lon="-2.36144">
        <ele>34.599998474121</ele>
        <time>2021-07-01T07:15:59.000Z</time>
      </trkpt>
      <trkpt lat="47.28567" lon="-2.36144">
        <ele>34.599998474121</ele>
        <time>2021-07-01T07:16:01.000Z</time>
      </trkpt>
      <trkpt lat="47.28569" lon="-2.36144">
        <ele>34.599998474121</ele>
        <time>2021-07-01T07:16:02.000Z</time>
      </trkpt>
      <trkpt lat="47.28574" lon="-2.36147">
        <ele>35</ele>
        <time>2021-07-01T07:16:05.000Z</time>
      </trkpt>
      <trkpt lat="47.28576" lon="-2.36148">
        <ele>35.400001525879</ele>
        <time>2021-07-01T07:16:06.000Z</time>
      </trkpt>
      <trkpt lat="47.28577" lon="-2.36149">
        <ele>35.799999237061</ele>
        <time>2021-07-01T07:16:07.000Z</time>
      </trkpt>
      <trkpt lat="47.28579" lon="-2.3615">
        <ele>36.200000762939</ele>
        <time>2021-07-01T07:16:08.000Z</time>
      </trkpt>
      <trkpt lat="47.2858" lon="-2.36151">
        <ele>36.599998474121</ele>
        <time>2021-07-01T07:16:09.000Z</time>
      </trkpt>
      <trkpt lat="47.28596" lon="-2.36152">
        <ele>36.599998474121</ele>
        <time>2021-07-01T07:16:15.000Z</time>
      </trkpt>
      <trkpt lat="47.28609" lon="-2.36143">
        <ele>36.599998474121</ele>
        <time>2021-07-01T07:16:20.000Z</time>
      </trkpt>
      <trkpt lat="47.28622" lon="-2.36138">
        <ele>36.599998474121</ele>
        <time>2021-07-01T07:16:25.000Z</time>
      </trkpt>
      <trkpt lat="47.28624" lon="-2.36141">
        <ele>36.599998474121</ele>
        <time>2021-07-01T07:16:26.000Z</time>
      </trkpt>
      <trkpt lat="47.28633" lon="-2.36159">
        <ele>36.599998474121</ele>
        <time>2021-07-01T07:16:31.000Z</time>
      </trkpt>
      <trkpt lat="47.28643" lon="-2.36173">
        <ele>36.599998474121</ele>
        <time>2021-07-01T07:16:34.000Z</time>
      </trkpt>
      <trkpt lat="47.2865" lon="-2.36182">
        <ele>36.200000762939</ele>
        <time>2021-07-01T07:16:36.000Z</time>
      </trkpt>
      <trkpt lat="47.28653" lon="-2.36186">
        <ele>35.799999237061</ele>
        <time>2021-07-01T07:16:37.000Z</time>
      </trkpt>
      <trkpt lat="47.28656" lon="-2.36191">
        <ele>35.400001525879</ele>
        <time>2021-07-01T07:16:38.000Z</time>
      </trkpt>
      <trkpt lat="47.28658" lon="-2.36195">
        <ele>35</ele>
        <time>2021-07-01T07:16:39.000Z</time>
      </trkpt>
      <trkpt lat="47.2866" lon="-2.362">
        <ele>34.599998474121</ele>
        <time>2021-07-01T07:16:40.000Z</time>
      </trkpt>
      <trkpt lat="47.28661" lon="-2.36205">
        <ele>34.599998474121</ele>
        <time>2021-07-01T07:16:41.000Z</time>
      </trkpt>
      <trkpt lat="47.28665" lon="-2.36245">
        <ele>34.599998474121</ele>
        <time>2021-07-01T07:16:47.000Z</time>
      </trkpt>
      <trkpt lat="47.28665" lon="-2.36252">
        <ele>34.200000762939</ele>
        <time>2021-07-01T07:16:48.000Z</time>
      </trkpt>
      <trkpt lat="47.28665" lon="-2.36259">
        <ele>33.799999237061</ele>
        <time>2021-07-01T07:16:49.000Z</time>
      </trkpt>
      <trkpt lat="47.28666" lon="-2.36265">
        <ele>33.200000762939</ele>
        <time>2021-07-01T07:16:50.000Z</time>
      </trkpt>
      <trkpt lat="47.28669" lon="-2.3627">
        <ele>32.799999237061</ele>
        <time>2021-07-01T07:16:51.000Z</time>
      </trkpt>
      <trkpt lat="47.28672" lon="-2.36273">
        <ele>32.400001525879</ele>
        <time>2021-07-01T07:16:52.000Z</time>
      </trkpt>
      <trkpt lat="47.28678" lon="-2.36275">
        <ele>32.400001525879</ele>
        <time>2021-07-01T07:16:54.000Z</time>
      </trkpt>
      <trkpt lat="47.28695" lon="-2.36273">
        <ele>32</ele>
        <time>2021-07-01T07:16:59.000Z</time>
      </trkpt>
      <trkpt lat="47.28698" lon="-2.36271">
        <ele>31.60000038147</ele>
        <time>2021-07-01T07:17:00.000Z</time>
      </trkpt>
      <trkpt lat="47.287" lon="-2.36269">
        <ele>31.200000762939</ele>
        <time>2021-07-01T07:17:01.000Z</time>
      </trkpt>
      <trkpt lat="47.28703" lon="-2.36266">
        <ele>30.799999237061</ele>
        <time>2021-07-01T07:17:02.000Z</time>
      </trkpt>
      <trkpt lat="47.28707" lon="-2.36262">
        <ele>30.39999961853</ele>
        <time>2021-07-01T07:17:03.000Z</time>
      </trkpt>
      <trkpt lat="47.28718" lon="-2.36248">
        <ele>30.39999961853</ele>
        <time>2021-07-01T07:17:06.000Z</time>
      </trkpt>
      <trkpt lat="47.2872" lon="-2.36242">
        <ele>30</ele>
        <time>2021-07-01T07:17:07.000Z</time>
      </trkpt>
      <trkpt lat="47.28723" lon="-2.36238">
        <ele>29.60000038147</ele>
        <time>2021-07-01T07:17:08.000Z</time>
      </trkpt>
      <trkpt lat="47.28727" lon="-2.36234">
        <ele>29.200000762939</ele>
        <time>2021-07-01T07:17:09.000Z</time>
      </trkpt>
      <trkpt lat="47.28732" lon="-2.36229">
        <ele>28.799999237061</ele>
        <time>2021-07-01T07:17:10.000Z</time>
      </trkpt>
      <trkpt lat="47.28735" lon="-2.36223">
        <ele>28.39999961853</ele>
        <time>2021-07-01T07:17:11.000Z</time>
      </trkpt>
      <trkpt lat="47.28761" lon="-2.36199">
        <ele>28.39999961853</ele>
        <time>2021-07-01T07:17:18.000Z</time>
      </trkpt>
      <trkpt lat="47.2881" lon="-2.36173">
        <ele>28.39999961853</ele>
        <time>2021-07-01T07:17:24.000Z</time>
      </trkpt>
      <trkpt lat="47.28816" lon="-2.36168">
        <ele>28.39999961853</ele>
        <time>2021-07-01T07:17:25.000Z</time>
      </trkpt>
      <trkpt lat="47.28835" lon="-2.36149">
        <ele>28.39999961853</ele>
        <time>2021-07-01T07:17:29.000Z</time>
      </trkpt>
      <trkpt lat="47.28856" lon="-2.36126">
        <ele>28.39999961853</ele>
        <time>2021-07-01T07:17:35.000Z</time>
      </trkpt>
      <trkpt lat="47.28872" lon="-2.36108">
        <ele>28.39999961853</ele>
        <time>2021-07-01T07:17:42.000Z</time>
      </trkpt>
      <trkpt lat="47.28891" lon="-2.36087">
        <ele>28.39999961853</ele>
        <time>2021-07-01T07:17:48.000Z</time>
      </trkpt>
      <trkpt lat="47.28899" lon="-2.36078">
        <ele>28.39999961853</ele>
        <time>2021-07-01T07:17:50.000Z</time>
      </trkpt>
      <trkpt lat="47.28912" lon="-2.36066">
        <ele>28.39999961853</ele>
        <time>2021-07-01T07:17:53.000Z</time>
      </trkpt>
      <trkpt lat="47.28945" lon="-2.36043">
        <ele>28.39999961853</ele>
        <time>2021-07-01T07:18:00.000Z</time>
      </trkpt>
      <trkpt lat="47.28971" lon="-2.36021">
        <ele>28.39999961853</ele>
        <time>2021-07-01T07:18:06.000Z</time>
      </trkpt>
      <trkpt lat="47.29007" lon="-2.35985">
        <ele>28.39999961853</ele>
        <time>2021-07-01T07:18:14.000Z</time>
      </trkpt>
      <trkpt lat="47.29049" lon="-2.35942">
        <ele>28.39999961853</ele>
        <time>2021-07-01T07:18:23.000Z</time>
      </trkpt>
      <trkpt lat="47.29073" lon="-2.35914">
        <ele>28.39999961853</ele>
        <time>2021-07-01T07:18:29.000Z</time>
      </trkpt>
      <trkpt lat="47.29077" lon="-2.35909">
        <ele>28.39999961853</ele>
        <time>2021-07-01T07:18:30.000Z</time>
      </trkpt>
      <trkpt lat="47.29108" lon="-2.35872">
        <ele>28.39999961853</ele>
        <time>2021-07-01T07:18:37.000Z</time>
      </trkpt>
      <trkpt lat="47.2915" lon="-2.35828">
        <ele>28.39999961853</ele>
        <time>2021-07-01T07:18:46.000Z</time>
      </trkpt>
      <trkpt lat="47.29191" lon="-2.358">
        <ele>28.39999961853</ele>
        <time>2021-07-01T07:18:54.000Z</time>
      </trkpt>
      <trkpt lat="47.29225" lon="-2.3577">
        <ele>28.39999961853</ele>
        <time>2021-07-01T07:19:01.000Z</time>
      </trkpt>
      <trkpt lat="47.29247" lon="-2.35744">
        <ele>28.39999961853</ele>
        <time>2021-07-01T07:19:07.000Z</time>
      </trkpt>
      <trkpt lat="47.29255" lon="-2.35733">
        <ele>28.39999961853</ele>
        <time>2021-07-01T07:19:12.000Z</time>
      </trkpt>
      <trkpt lat="47.29255" lon="-2.35733">
        <ele>28.39999961853</ele>
        <time>2021-07-01T07:19:14.000Z</time>
      </trkpt>
      <trkpt lat="47.29256" lon="-2.3573">
        <ele>28.39999961853</ele>
        <time>2021-07-01T07:19:21.000Z</time>
      </trkpt>
      <trkpt lat="47.29258" lon="-2.35728">
        <ele>28.39999961853</ele>
        <time>2021-07-01T07:19:22.000Z</time>
      </trkpt>
      <trkpt lat="47.2926" lon="-2.35729">
        <ele>28</ele>
        <time>2021-07-01T07:19:23.000Z</time>
      </trkpt>
      <trkpt lat="47.29263" lon="-2.35731">
        <ele>27.60000038147</ele>
        <time>2021-07-01T07:19:24.000Z</time>
      </trkpt>
      <trkpt lat="47.29267" lon="-2.35735">
        <ele>27.200000762939</ele>
        <time>2021-07-01T07:19:25.000Z</time>
      </trkpt>
      <trkpt lat="47.29271" lon="-2.35738">
        <ele>26.799999237061</ele>
        <time>2021-07-01T07:19:26.000Z</time>
      </trkpt>
      <trkpt lat="47.29275" lon="-2.35743">
        <ele>26.39999961853</ele>
        <time>2021-07-01T07:19:27.000Z</time>
      </trkpt>
      <trkpt lat="47.29291" lon="-2.35756">
        <ele>26.39999961853</ele>
        <time>2021-07-01T07:19:30.000Z</time>
      </trkpt>
      <trkpt lat="47.29321" lon="-2.35784">
        <ele>26.39999961853</ele>
        <time>2021-07-01T07:19:36.000Z</time>
      </trkpt>
      <trkpt lat="47.2936" lon="-2.35821">
        <ele>26.39999961853</ele>
        <time>2021-07-01T07:19:44.000Z</time>
      </trkpt>
      <trkpt lat="47.29391" lon="-2.35851">
        <ele>26.39999961853</ele>
        <time>2021-07-01T07:19:51.000Z</time>
      </trkpt>
      <trkpt lat="47.29423" lon="-2.35892">
        <ele>26.39999961853</ele>
        <time>2021-07-01T07:19:59.000Z</time>
      </trkpt>
      <trkpt lat="47.29435" lon="-2.35904">
        <ele>26.39999961853</ele>
        <time>2021-07-01T07:20:02.000Z</time>
      </trkpt>
      <trkpt lat="47.29444" lon="-2.35906">
        <ele>26.39999961853</ele>
        <time>2021-07-01T07:20:04.000Z</time>
      </trkpt>
      <trkpt lat="47.29462" lon="-2.35904">
        <ele>26.39999961853</ele>
        <time>2021-07-01T07:20:08.000Z</time>
      </trkpt>
      <trkpt lat="47.2947" lon="-2.35902">
        <ele>26.39999961853</ele>
        <time>2021-07-01T07:20:10.000Z</time>
      </trkpt>
      <trkpt lat="47.29491" lon="-2.35903">
        <ele>26.39999961853</ele>
        <time>2021-07-01T07:20:15.000Z</time>
      </trkpt>
      <trkpt lat="47.29494" lon="-2.35907">
        <ele>26.39999961853</ele>
        <time>2021-07-01T07:20:16.000Z</time>
      </trkpt>
      <trkpt lat="47.29503" lon="-2.35929">
        <ele>26.39999961853</ele>
        <time>2021-07-01T07:20:20.000Z</time>
      </trkpt>
      <trkpt lat="47.29511" lon="-2.35943">
        <ele>26.39999961853</ele>
        <time>2021-07-01T07:20:24.000Z</time>
      </trkpt>
      <trkpt lat="47.29523" lon="-2.35936">
        <ele>26.39999961853</ele>
        <time>2021-07-01T07:20:27.000Z</time>
      </trkpt>
      <trkpt lat="47.29533" lon="-2.35931">
        <ele>26.39999961853</ele>
        <time>2021-07-01T07:20:29.000Z</time>
      </trkpt>
      <trkpt lat="47.29547" lon="-2.35922">
        <ele>26.39999961853</ele>
        <time>2021-07-01T07:20:32.000Z</time>
      </trkpt>
      <trkpt lat="47.29551" lon="-2.35919">
        <ele>26.39999961853</ele>
        <time>2021-07-01T07:20:33.000Z</time>
      </trkpt>
      <trkpt lat="47.29572" lon="-2.35907">
        <ele>26.39999961853</ele>
        <time>2021-07-01T07:20:37.000Z</time>
      </trkpt>
      <trkpt lat="47.29606" lon="-2.35885">
        <ele>26.39999961853</ele>
        <time>2021-07-01T07:20:44.000Z</time>
      </trkpt>
      <trkpt lat="47.29637" lon="-2.35864">
        <ele>26.39999961853</ele>
        <time>2021-07-01T07:20:50.000Z</time>
      </trkpt>
      <trkpt lat="47.29653" lon="-2.35839">
        <ele>26.39999961853</ele>
        <time>2021-07-01T07:20:54.000Z</time>
      </trkpt>
      <trkpt lat="47.29669" lon="-2.35837">
        <ele>26.39999961853</ele>
        <time>2021-07-01T07:20:57.000Z</time>
      </trkpt>
      <trkpt lat="47.29674" lon="-2.35837">
        <ele>26.39999961853</ele>
        <time>2021-07-01T07:20:58.000Z</time>
      </trkpt>
      <trkpt lat="47.29691" lon="-2.35835">
        <ele>26.39999961853</ele>
        <time>2021-07-01T07:21:01.000Z</time>
      </trkpt>
      <trkpt lat="47.29696" lon="-2.35832">
        <ele>26.39999961853</ele>
        <time>2021-07-01T07:21:02.000Z</time>
      </trkpt>
      <trkpt lat="47.29733" lon="-2.35813">
        <ele>26.799999237061</ele>
        <time>2021-07-01T07:21:09.000Z</time>
      </trkpt>
      <trkpt lat="47.29738" lon="-2.3581">
        <ele>27.200000762939</ele>
        <time>2021-07-01T07:21:10.000Z</time>
      </trkpt>
      <trkpt lat="47.29743" lon="-2.35807">
        <ele>27.60000038147</ele>
        <time>2021-07-01T07:21:11.000Z</time>
      </trkpt>
      <trkpt lat="47.29748" lon="-2.35806">
        <ele>28</ele>
        <time>2021-07-01T07:21:12.000Z</time>
      </trkpt>
      <trkpt lat="47.29753" lon="-2.35804">
        <ele>28.39999961853</ele>
        <time>2021-07-01T07:21:13.000Z</time>
      </trkpt>
      <trkpt lat="47.29768" lon="-2.35799">
        <ele>28.39999961853</ele>
        <time>2021-07-01T07:21:16.000Z</time>
      </trkpt>
      <trkpt lat="47.29772" lon="-2.35797">
        <ele>28.799999237061</ele>
        <time>2021-07-01T07:21:17.000Z</time>
      </trkpt>
      <trkpt lat="47.29777" lon="-2.35795">
        <ele>29.200000762939</ele>
        <time>2021-07-01T07:21:18.000Z</time>
      </trkpt>
      <trkpt lat="47.29782" lon="-2.35793">
        <ele>29.799999237061</ele>
        <time>2021-07-01T07:21:19.000Z</time>
      </trkpt>
      <trkpt lat="47.29788" lon="-2.35791">
        <ele>30.60000038147</ele>
        <time>2021-07-01T07:21:20.000Z</time>
      </trkpt>
      <trkpt lat="47.29803" lon="-2.35785">
        <ele>30.60000038147</ele>
        <time>2021-07-01T07:21:23.000Z</time>
      </trkpt>
      <trkpt lat="47.29838" lon="-2.35771">
        <ele>30.60000038147</ele>
        <time>2021-07-01T07:21:29.000Z</time>
      </trkpt>
      <trkpt lat="47.29878" lon="-2.35757">
        <ele>30.200000762939</ele>
        <time>2021-07-01T07:21:35.000Z</time>
      </trkpt>
      <trkpt lat="47.29885" lon="-2.35755">
        <ele>29.799999237061</ele>
        <time>2021-07-01T07:21:36.000Z</time>
      </trkpt>
      <trkpt lat="47.29891" lon="-2.35752">
        <ele>29.39999961853</ele>
        <time>2021-07-01T07:21:37.000Z</time>
      </trkpt>
      <trkpt lat="47.29897" lon="-2.35748">
        <ele>29</ele>
        <time>2021-07-01T07:21:38.000Z</time>
      </trkpt>
      <trkpt lat="47.29903" lon="-2.35744">
        <ele>28.60000038147</ele>
        <time>2021-07-01T07:21:39.000Z</time>
      </trkpt>
      <trkpt lat="47.29927" lon="-2.35726">
        <ele>28.60000038147</ele>
        <time>2021-07-01T07:21:43.000Z</time>
      </trkpt>
      <trkpt lat="47.29975" lon="-2.35691">
        <ele>28.60000038147</ele>
        <time>2021-07-01T07:21:51.000Z</time>
      </trkpt>
      <trkpt lat="47.30027" lon="-2.3566">
        <ele>28.60000038147</ele>
        <time>2021-07-01T07:22:00.000Z</time>
      </trkpt>
      <trkpt lat="47.30064" lon="-2.35638">
        <ele>28.60000038147</ele>
        <time>2021-07-01T07:22:07.000Z</time>
      </trkpt>
      <trkpt lat="47.30083" lon="-2.35626">
        <ele>29</ele>
        <time>2021-07-01T07:22:11.000Z</time>
      </trkpt>
      <trkpt lat="47.30088" lon="-2.35623">
        <ele>29.39999961853</ele>
        <time>2021-07-01T07:22:12.000Z</time>
      </trkpt>
      <trkpt lat="47.30092" lon="-2.35621">
        <ele>29.799999237061</ele>
        <time>2021-07-01T07:22:13.000Z</time>
      </trkpt>
      <trkpt lat="47.30097" lon="-2.35618">
        <ele>30.200000762939</ele>
        <time>2021-07-01T07:22:14.000Z</time>
      </trkpt>
      <trkpt lat="47.30101" lon="-2.35614">
        <ele>30.60000038147</ele>
        <time>2021-07-01T07:22:15.000Z</time>
      </trkpt>
      <trkpt lat="47.30116" lon="-2.35603">
        <ele>30.60000038147</ele>
        <time>2021-07-01T07:22:18.000Z</time>
      </trkpt>
      <trkpt lat="47.30125" lon="-2.35594">
        <ele>30.60000038147</ele>
        <time>2021-07-01T07:22:20.000Z</time>
      </trkpt>
      <trkpt lat="47.30141" lon="-2.3559">
        <ele>30.60000038147</ele>
        <time>2021-07-01T07:22:23.000Z</time>
      </trkpt>
      <trkpt lat="47.30174" lon="-2.35574">
        <ele>30.60000038147</ele>
        <time>2021-07-01T07:22:29.000Z</time>
      </trkpt>
      <trkpt lat="47.30211" lon="-2.35568">
        <ele>30.60000038147</ele>
        <time>2021-07-01T07:22:35.000Z</time>
      </trkpt>
      <trkpt lat="47.30229" lon="-2.35568">
        <ele>30.60000038147</ele>
        <time>2021-07-01T07:22:38.000Z</time>
      </trkpt>
      <trkpt lat="47.30241" lon="-2.35571">
        <ele>30.60000038147</ele>
        <time>2021-07-01T07:22:40.000Z</time>
      </trkpt>
      <trkpt lat="47.30252" lon="-2.35571">
        <ele>30.60000038147</ele>
        <time>2021-07-01T07:22:42.000Z</time>
      </trkpt>
      <trkpt lat="47.30263" lon="-2.35572">
        <ele>30.60000038147</ele>
        <time>2021-07-01T07:22:44.000Z</time>
      </trkpt>
      <trkpt lat="47.30268" lon="-2.35574">
        <ele>30.60000038147</ele>
        <time>2021-07-01T07:22:45.000Z</time>
      </trkpt>
      <trkpt lat="47.3028" lon="-2.35578">
        <ele>30.60000038147</ele>
        <time>2021-07-01T07:22:47.000Z</time>
      </trkpt>
      <trkpt lat="47.30305" lon="-2.35584">
        <ele>30.60000038147</ele>
        <time>2021-07-01T07:22:51.000Z</time>
      </trkpt>
      <trkpt lat="47.30351" lon="-2.3559">
        <ele>30.60000038147</ele>
        <time>2021-07-01T07:22:59.000Z</time>
      </trkpt>
      <trkpt lat="47.30379" lon="-2.35588">
        <ele>30.60000038147</ele>
        <time>2021-07-01T07:23:04.000Z</time>
      </trkpt>
      <trkpt lat="47.30384" lon="-2.3559">
        <ele>30.60000038147</ele>
        <time>2021-07-01T07:23:05.000Z</time>
      </trkpt>
      <trkpt lat="47.30397" lon="-2.35605">
        <ele>30.60000038147</ele>
        <time>2021-07-01T07:23:08.000Z</time>
      </trkpt>
      <trkpt lat="47.304" lon="-2.35611">
        <ele>30.60000038147</ele>
        <time>2021-07-01T07:23:09.000Z</time>
      </trkpt>
      <trkpt lat="47.30415" lon="-2.35635">
        <ele>30.60000038147</ele>
        <time>2021-07-01T07:23:13.000Z</time>
      </trkpt>
      <trkpt lat="47.3042" lon="-2.3564">
        <ele>30.60000038147</ele>
        <time>2021-07-01T07:23:14.000Z</time>
      </trkpt>
      <trkpt lat="47.3043" lon="-2.3565">
        <ele>30.60000038147</ele>
        <time>2021-07-01T07:23:16.000Z</time>
      </trkpt>
      <trkpt lat="47.30441" lon="-2.35658">
        <ele>30.60000038147</ele>
        <time>2021-07-01T07:23:18.000Z</time>
      </trkpt>
      <trkpt lat="47.30475" lon="-2.3569">
        <ele>30.60000038147</ele>
        <time>2021-07-01T07:23:25.000Z</time>
      </trkpt>
      <trkpt lat="47.305" lon="-2.3572">
        <ele>30.60000038147</ele>
        <time>2021-07-01T07:23:30.000Z</time>
      </trkpt>
      <trkpt lat="47.30535" lon="-2.35767">
        <ele>30.60000038147</ele>
        <time>2021-07-01T07:23:37.000Z</time>
      </trkpt>
      <trkpt lat="47.30544" lon="-2.3578">
        <ele>30.60000038147</ele>
        <time>2021-07-01T07:23:39.000Z</time>
      </trkpt>
      <trkpt lat="47.30558" lon="-2.35798">
        <ele>30.60000038147</ele>
        <time>2021-07-01T07:23:42.000Z</time>
      </trkpt>
      <trkpt lat="47.30597" lon="-2.35844">
        <ele>30.60000038147</ele>
        <time>2021-07-01T07:23:50.000Z</time>
      </trkpt>
      <trkpt lat="47.30642" lon="-2.35889">
        <ele>30.60000038147</ele>
        <time>2021-07-01T07:23:59.000Z</time>
      </trkpt>
      <trkpt lat="47.30653" lon="-2.35895">
        <ele>30.60000038147</ele>
        <time>2021-07-01T07:24:01.000Z</time>
      </trkpt>
      <trkpt lat="47.30665" lon="-2.35891">
        <ele>30.60000038147</ele>
        <time>2021-07-01T07:24:03.000Z</time>
      </trkpt>
      <trkpt lat="47.3068" lon="-2.35876">
        <ele>30.60000038147</ele>
        <time>2021-07-01T07:24:06.000Z</time>
      </trkpt>
      <trkpt lat="47.30686" lon="-2.3587">
        <ele>30.60000038147</ele>
        <time>2021-07-01T07:24:07.000Z</time>
      </trkpt>
      <trkpt lat="47.30712" lon="-2.35841">
        <ele>31.39999961853</ele>
        <time>2021-07-01T07:24:12.000Z</time>
      </trkpt>
      <trkpt lat="47.30717" lon="-2.35835">
        <ele>31.799999237061</ele>
        <time>2021-07-01T07:24:13.000Z</time>
      </trkpt>
      <trkpt lat="47.30721" lon="-2.3583">
        <ele>32.200000762939</ele>
        <time>2021-07-01T07:24:14.000Z</time>
      </trkpt>
      <trkpt lat="47.30726" lon="-2.35825">
        <ele>32.599998474121</ele>
        <time>2021-07-01T07:24:15.000Z</time>
      </trkpt>
      <trkpt lat="47.30731" lon="-2.3582">
        <ele>32.599998474121</ele>
        <time>2021-07-01T07:24:16.000Z</time>
      </trkpt>
      <trkpt lat="47.30754" lon="-2.35797">
        <ele>32.599998474121</ele>
        <time>2021-07-01T07:24:21.000Z</time>
      </trkpt>
      <trkpt lat="47.30765" lon="-2.35793">
        <ele>32.599998474121</ele>
        <time>2021-07-01T07:24:23.000Z</time>
      </trkpt>
      <trkpt lat="47.30782" lon="-2.358">
        <ele>32.599998474121</ele>
        <time>2021-07-01T07:24:26.000Z</time>
      </trkpt>
      <trkpt lat="47.30794" lon="-2.35808">
        <ele>32.599998474121</ele>
        <time>2021-07-01T07:24:28.000Z</time>
      </trkpt>
      <trkpt lat="47.30817" lon="-2.35825">
        <ele>32.599998474121</ele>
        <time>2021-07-01T07:24:32.000Z</time>
      </trkpt>
      <trkpt lat="47.30864" lon="-2.35856">
        <ele>32.599998474121</ele>
        <time>2021-07-01T07:24:40.000Z</time>
      </trkpt>
      <trkpt lat="47.30884" lon="-2.35861">
        <ele>32.599998474121</ele>
        <time>2021-07-01T07:24:43.000Z</time>
      </trkpt>
      <trkpt lat="47.30897" lon="-2.3586">
        <ele>32.599998474121</ele>
        <time>2021-07-01T07:24:45.000Z</time>
      </trkpt>
      <trkpt lat="47.30916" lon="-2.35853">
        <ele>32.599998474121</ele>
        <time>2021-07-01T07:24:48.000Z</time>
      </trkpt>
      <trkpt lat="47.30929" lon="-2.35848">
        <ele>32.599998474121</ele>
        <time>2021-07-01T07:24:50.000Z</time>
      </trkpt>
      <trkpt lat="47.30976" lon="-2.35823">
        <ele>32.599998474121</ele>
        <time>2021-07-01T07:24:58.000Z</time>
      </trkpt>
      <trkpt lat="47.31007" lon="-2.3581">
        <ele>32.599998474121</ele>
        <time>2021-07-01T07:25:03.000Z</time>
      </trkpt>
      <trkpt lat="47.31056" lon="-2.35792">
        <ele>32.599998474121</ele>
        <time>2021-07-01T07:25:11.000Z</time>
      </trkpt>
      <trkpt lat="47.31112" lon="-2.35777">
        <ele>32.599998474121</ele>
        <time>2021-07-01T07:25:20.000Z</time>
      </trkpt>
      <trkpt lat="47.31144" lon="-2.3577">
        <ele>32.200000762939</ele>
        <time>2021-07-01T07:25:25.000Z</time>
      </trkpt>
      <trkpt lat="47.3115" lon="-2.35767">
        <ele>31.39999961853</ele>
        <time>2021-07-01T07:25:26.000Z</time>
      </trkpt>
      <trkpt lat="47.31156" lon="-2.35762">
        <ele>31</ele>
        <time>2021-07-01T07:25:27.000Z</time>
      </trkpt>
      <trkpt lat="47.31162" lon="-2.35755">
        <ele>30.60000038147</ele>
        <time>2021-07-01T07:25:28.000Z</time>
      </trkpt>
      <trkpt lat="47.31167" lon="-2.35746">
        <ele>30.60000038147</ele>
        <time>2021-07-01T07:25:29.000Z</time>
      </trkpt>
      <trkpt lat="47.31177" lon="-2.35719">
        <ele>30.60000038147</ele>
        <time>2021-07-01T07:25:32.000Z</time>
      </trkpt>
      <trkpt lat="47.31193" lon="-2.3567">
        <ele>30.60000038147</ele>
        <time>2021-07-01T07:25:38.000Z</time>
      </trkpt>
      <trkpt lat="47.31213" lon="-2.35647">
        <ele>30.60000038147</ele>
        <time>2021-07-01T07:25:42.000Z</time>
      </trkpt>
      <trkpt lat="47.31253" lon="-2.35612">
        <ele>30.60000038147</ele>
        <time>2021-07-01T07:25:49.000Z</time>
      </trkpt>
      <trkpt lat="47.31292" lon="-2.35578">
        <ele>30.60000038147</ele>
        <time>2021-07-01T07:25:56.000Z</time>
      </trkpt>
      <trkpt lat="47.31313" lon="-2.35563">
        <ele>30.200000762939</ele>
        <time>2021-07-01T07:26:00.000Z</time>
      </trkpt>
      <trkpt lat="47.31318" lon="-2.3556">
        <ele>29.799999237061</ele>
        <time>2021-07-01T07:26:01.000Z</time>
      </trkpt>
      <trkpt lat="47.31323" lon="-2.35558">
        <ele>29.39999961853</ele>
        <time>2021-07-01T07:26:02.000Z</time>
      </trkpt>
      <trkpt lat="47.31326" lon="-2.35559">
        <ele>29</ele>
        <time>2021-07-01T07:26:03.000Z</time>
      </trkpt>
      <trkpt lat="47.31329" lon="-2.35563">
        <ele>28.60000038147</ele>
        <time>2021-07-01T07:26:04.000Z</time>
      </trkpt>
      <trkpt lat="47.31332" lon="-2.35573">
        <ele>28.60000038147</ele>
        <time>2021-07-01T07:26:06.000Z</time>
      </trkpt>
      <trkpt lat="47.31332" lon="-2.356">
        <ele>28.60000038147</ele>
        <time>2021-07-01T07:26:10.000Z</time>
      </trkpt>
      <trkpt lat="47.31335" lon="-2.35639">
        <ele>28.60000038147</ele>
        <time>2021-07-01T07:26:15.000Z</time>
      </trkpt>
      <trkpt lat="47.31335" lon="-2.35646">
        <ele>28.60000038147</ele>
        <time>2021-07-01T07:26:16.000Z</time>
      </trkpt>
      <trkpt lat="47.31335" lon="-2.357">
        <ele>28.60000038147</ele>
        <time>2021-07-01T07:26:23.000Z</time>
      </trkpt>
      <trkpt lat="47.31335" lon="-2.35717">
        <ele>28.60000038147</ele>
        <time>2021-07-01T07:26:25.000Z</time>
      </trkpt>
      <trkpt lat="47.31334" lon="-2.35742">
        <ele>28.60000038147</ele>
        <time>2021-07-01T07:26:28.000Z</time>
      </trkpt>
      <trkpt lat="47.31334" lon="-2.35759">
        <ele>28.60000038147</ele>
        <time>2021-07-01T07:26:30.000Z</time>
      </trkpt>
      <trkpt lat="47.31337" lon="-2.35795">
        <ele>28.60000038147</ele>
        <time>2021-07-01T07:26:34.000Z</time>
      </trkpt>
      <trkpt lat="47.31341" lon="-2.35846">
        <ele>28.60000038147</ele>
        <time>2021-07-01T07:26:40.000Z</time>
      </trkpt>
      <trkpt lat="47.31343" lon="-2.35855">
        <ele>28.60000038147</ele>
        <time>2021-07-01T07:26:41.000Z</time>
      </trkpt>
      <trkpt lat="47.31358" lon="-2.35885">
        <ele>28.60000038147</ele>
        <time>2021-07-01T07:26:45.000Z</time>
      </trkpt>
      <trkpt lat="47.3138" lon="-2.3593">
        <ele>28.60000038147</ele>
        <time>2021-07-01T07:26:51.000Z</time>
      </trkpt>
      <trkpt lat="47.31395" lon="-2.35957">
        <ele>28.60000038147</ele>
        <time>2021-07-01T07:26:55.000Z</time>
      </trkpt>
      <trkpt lat="47.31399" lon="-2.35971">
        <ele>28.60000038147</ele>
        <time>2021-07-01T07:26:57.000Z</time>
      </trkpt>
      <trkpt lat="47.31414" lon="-2.36014">
        <ele>28.60000038147</ele>
        <time>2021-07-01T07:27:03.000Z</time>
      </trkpt>
      <trkpt lat="47.31424" lon="-2.36051">
        <ele>28.60000038147</ele>
        <time>2021-07-01T07:27:09.000Z</time>
      </trkpt>
      <trkpt lat="47.31434" lon="-2.36077">
        <ele>29</ele>
        <time>2021-07-01T07:27:14.000Z</time>
      </trkpt>
      <trkpt lat="47.31436" lon="-2.36082">
        <ele>29.39999961853</ele>
        <time>2021-07-01T07:27:15.000Z</time>
      </trkpt>
      <trkpt lat="47.31438" lon="-2.36088">
        <ele>30</ele>
        <time>2021-07-01T07:27:16.000Z</time>
      </trkpt>
      <trkpt lat="47.31439" lon="-2.36094">
        <ele>30.39999961853</ele>
        <time>2021-07-01T07:27:17.000Z</time>
      </trkpt>
      <trkpt lat="47.31441" lon="-2.36101">
        <ele>30.799999237061</ele>
        <time>2021-07-01T07:27:18.000Z</time>
      </trkpt>
      <trkpt lat="47.31448" lon="-2.36119">
        <ele>30.799999237061</ele>
        <time>2021-07-01T07:27:21.000Z</time>
      </trkpt>
      <trkpt lat="47.31451" lon="-2.36134">
        <ele>30.799999237061</ele>
        <time>2021-07-01T07:27:23.000Z</time>
      </trkpt>
      <trkpt lat="47.31459" lon="-2.36164">
        <ele>30.799999237061</ele>
        <time>2021-07-01T07:27:27.000Z</time>
      </trkpt>
      <trkpt lat="47.31469" lon="-2.36215">
        <ele>30.799999237061</ele>
        <time>2021-07-01T07:27:33.000Z</time>
      </trkpt>
      <trkpt lat="47.31483" lon="-2.36278">
        <ele>30.799999237061</ele>
        <time>2021-07-01T07:27:40.000Z</time>
      </trkpt>
      <trkpt lat="47.31491" lon="-2.36334">
        <ele>30.799999237061</ele>
        <time>2021-07-01T07:27:46.000Z</time>
      </trkpt>
      <trkpt lat="47.31492" lon="-2.3637">
        <ele>30.39999961853</ele>
        <time>2021-07-01T07:27:50.000Z</time>
      </trkpt>
      <trkpt lat="47.31492" lon="-2.3638">
        <ele>30</ele>
        <time>2021-07-01T07:27:51.000Z</time>
      </trkpt>
      <trkpt lat="47.31492" lon="-2.36389">
        <ele>29.60000038147</ele>
        <time>2021-07-01T07:27:52.000Z</time>
      </trkpt>
      <trkpt lat="47.31492" lon="-2.36399">
        <ele>29.200000762939</ele>
        <time>2021-07-01T07:27:53.000Z</time>
      </trkpt>
      <trkpt lat="47.31493" lon="-2.36408">
        <ele>28.799999237061</ele>
        <time>2021-07-01T07:27:54.000Z</time>
      </trkpt>
      <trkpt lat="47.31493" lon="-2.36417">
        <ele>28.39999961853</ele>
        <time>2021-07-01T07:27:55.000Z</time>
      </trkpt>
      <trkpt lat="47.31493" lon="-2.36424">
        <ele>28</ele>
        <time>2021-07-01T07:27:56.000Z</time>
      </trkpt>
      <trkpt lat="47.31493" lon="-2.36431">
        <ele>27.60000038147</ele>
        <time>2021-07-01T07:27:57.000Z</time>
      </trkpt>
      <trkpt lat="47.31494" lon="-2.36436">
        <ele>27.200000762939</ele>
        <time>2021-07-01T07:27:58.000Z</time>
      </trkpt>
      <trkpt lat="47.31494" lon="-2.36441">
        <ele>26.60000038147</ele>
        <time>2021-07-01T07:27:59.000Z</time>
      </trkpt>
      <trkpt lat="47.31495" lon="-2.36445">
        <ele>26.60000038147</ele>
        <time>2021-07-01T07:28:01.000Z</time>
      </trkpt>
      <trkpt lat="47.31495" lon="-2.36446">
        <ele>26.200000762939</ele>
        <time>2021-07-01T07:28:02.000Z</time>
      </trkpt>
      <trkpt lat="47.31495" lon="-2.36447">
        <ele>25.799999237061</ele>
        <time>2021-07-01T07:28:03.000Z</time>
      </trkpt>
      <trkpt lat="47.31495" lon="-2.36447">
        <ele>25.39999961853</ele>
        <time>2021-07-01T07:28:04.000Z</time>
      </trkpt>
      <trkpt lat="47.31495" lon="-2.36447">
        <ele>25</ele>
        <time>2021-07-01T07:28:05.000Z</time>
      </trkpt>
      <trkpt lat="47.31495" lon="-2.36447">
        <ele>24.60000038147</ele>
        <time>2021-07-01T07:28:06.000Z</time>
      </trkpt>
      <trkpt lat="47.31495" lon="-2.36453">
        <ele>24.60000038147</ele>
        <time>2021-07-01T07:28:23.000Z</time>
      </trkpt>
      <trkpt lat="47.31497" lon="-2.36462">
        <ele>24.60000038147</ele>
        <time>2021-07-01T07:28:25.000Z</time>
      </trkpt>
      <trkpt lat="47.315" lon="-2.3649">
        <ele>24.60000038147</ele>
        <time>2021-07-01T07:28:30.000Z</time>
      </trkpt>
      <trkpt lat="47.31503" lon="-2.36525">
        <ele>24.60000038147</ele>
        <time>2021-07-01T07:28:36.000Z</time>
      </trkpt>
      <trkpt lat="47.31506" lon="-2.36562">
        <ele>24.60000038147</ele>
        <time>2021-07-01T07:28:42.000Z</time>
      </trkpt>
      <trkpt lat="47.31503" lon="-2.36594">
        <ele>24.60000038147</ele>
        <time>2021-07-01T07:28:47.000Z</time>
      </trkpt>
      <trkpt lat="47.31503" lon="-2.36601">
        <ele>24.60000038147</ele>
        <time>2021-07-01T07:28:48.000Z</time>
      </trkpt>
      <trkpt lat="47.31508" lon="-2.3663">
        <ele>24.60000038147</ele>
        <time>2021-07-01T07:28:52.000Z</time>
      </trkpt>
      <trkpt lat="47.31518" lon="-2.36685">
        <ele>24.60000038147</ele>
        <time>2021-07-01T07:28:59.000Z</time>
      </trkpt>
      <trkpt lat="47.3153" lon="-2.36737">
        <ele>24.60000038147</ele>
        <time>2021-07-01T07:29:06.000Z</time>
      </trkpt>
      <trkpt lat="47.31537" lon="-2.36766">
        <ele>25</ele>
        <time>2021-07-01T07:29:10.000Z</time>
      </trkpt>
      <trkpt lat="47.31538" lon="-2.36773">
        <ele>25.39999961853</ele>
        <time>2021-07-01T07:29:11.000Z</time>
      </trkpt>
      <trkpt lat="47.3154" lon="-2.3678">
        <ele>25.799999237061</ele>
        <time>2021-07-01T07:29:12.000Z</time>
      </trkpt>
      <trkpt lat="47.31542" lon="-2.36787">
        <ele>26.200000762939</ele>
        <time>2021-07-01T07:29:13.000Z</time>
      </trkpt>
      <trkpt lat="47.31543" lon="-2.36794">
        <ele>26.60000038147</ele>
        <time>2021-07-01T07:29:14.000Z</time>
      </trkpt>
      <trkpt lat="47.31552" lon="-2.36822">
        <ele>26.60000038147</ele>
        <time>2021-07-01T07:29:19.000Z</time>
      </trkpt>
      <trkpt lat="47.31554" lon="-2.36829">
        <ele>27</ele>
        <time>2021-07-01T07:29:20.000Z</time>
      </trkpt>
      <trkpt lat="47.31556" lon="-2.36835">
        <ele>27.39999961853</ele>
        <time>2021-07-01T07:29:21.000Z</time>
      </trkpt>
      <trkpt lat="47.31558" lon="-2.36842">
        <ele>28</ele>
        <time>2021-07-01T07:29:22.000Z</time>
      </trkpt>
      <trkpt lat="47.3156" lon="-2.36847">
        <ele>28.39999961853</ele>
        <time>2021-07-01T07:29:23.000Z</time>
      </trkpt>
      <trkpt lat="47.31562" lon="-2.36853">
        <ele>28.799999237061</ele>
        <time>2021-07-01T07:29:24.000Z</time>
      </trkpt>
      <trkpt lat="47.31566" lon="-2.36865">
        <ele>28.799999237061</ele>
        <time>2021-07-01T07:29:26.000Z</time>
      </trkpt>
      <trkpt lat="47.31574" lon="-2.3689">
        <ele>29.200000762939</ele>
        <time>2021-07-01T07:29:30.000Z</time>
      </trkpt>
      <trkpt lat="47.31576" lon="-2.36896">
        <ele>29.60000038147</ele>
        <time>2021-07-01T07:29:31.000Z</time>
      </trkpt>
      <trkpt lat="47.31576" lon="-2.36903">
        <ele>30</ele>
        <time>2021-07-01T07:29:32.000Z</time>
      </trkpt>
      <trkpt lat="47.31578" lon="-2.36909">
        <ele>30.799999237061</ele>
        <time>2021-07-01T07:29:33.000Z</time>
      </trkpt>
      <trkpt lat="47.3158" lon="-2.36914">
        <ele>30.799999237061</ele>
        <time>2021-07-01T07:29:34.000Z</time>
      </trkpt>
      <trkpt lat="47.31586" lon="-2.36937">
        <ele>31.200000762939</ele>
        <time>2021-07-01T07:29:38.000Z</time>
      </trkpt>
      <trkpt lat="47.31588" lon="-2.36943">
        <ele>31.60000038147</ele>
        <time>2021-07-01T07:29:39.000Z</time>
      </trkpt>
      <trkpt lat="47.3159" lon="-2.36949">
        <ele>32</ele>
        <time>2021-07-01T07:29:40.000Z</time>
      </trkpt>
      <trkpt lat="47.31592" lon="-2.36955">
        <ele>32.400001525879</ele>
        <time>2021-07-01T07:29:41.000Z</time>
      </trkpt>
      <trkpt lat="47.31594" lon="-2.36961">
        <ele>33</ele>
        <time>2021-07-01T07:29:42.000Z</time>
      </trkpt>
      <trkpt lat="47.31606" lon="-2.36997">
        <ele>33</ele>
        <time>2021-07-01T07:29:48.000Z</time>
      </trkpt>
      <trkpt lat="47.31614" lon="-2.37019">
        <ele>33</ele>
        <time>2021-07-01T07:29:52.000Z</time>
      </trkpt>
      <trkpt lat="47.31617" lon="-2.37031">
        <ele>33.400001525879</ele>
        <time>2021-07-01T07:29:54.000Z</time>
      </trkpt>
      <trkpt lat="47.31619" lon="-2.37037">
        <ele>33.799999237061</ele>
        <time>2021-07-01T07:29:55.000Z</time>
      </trkpt>
      <trkpt lat="47.31621" lon="-2.37042">
        <ele>34.200000762939</ele>
        <time>2021-07-01T07:29:56.000Z</time>
      </trkpt>
      <trkpt lat="47.31623" lon="-2.37047">
        <ele>34.599998474121</ele>
        <time>2021-07-01T07:29:57.000Z</time>
      </trkpt>
      <trkpt lat="47.31627" lon="-2.37053">
        <ele>35</ele>
        <time>2021-07-01T07:29:58.000Z</time>
      </trkpt>
      <trkpt lat="47.3163" lon="-2.37057">
        <ele>35</ele>
        <time>2021-07-01T07:29:59.000Z</time>
      </trkpt>
      <trkpt lat="47.31633" lon="-2.37063">
        <ele>35</ele>
        <time>2021-07-01T07:30:00.000Z</time>
      </trkpt>
      <trkpt lat="47.31652" lon="-2.37103">
        <ele>35</ele>
        <time>2021-07-01T07:30:07.000Z</time>
      </trkpt>
      <trkpt lat="47.31674" lon="-2.37144">
        <ele>35</ele>
        <time>2021-07-01T07:30:15.000Z</time>
      </trkpt>
      <trkpt lat="47.31679" lon="-2.37155">
        <ele>35</ele>
        <time>2021-07-01T07:30:17.000Z</time>
      </trkpt>
      <trkpt lat="47.31688" lon="-2.37181">
        <ele>35</ele>
        <time>2021-07-01T07:30:21.000Z</time>
      </trkpt>
      <trkpt lat="47.3169" lon="-2.37195">
        <ele>35</ele>
        <time>2021-07-01T07:30:23.000Z</time>
      </trkpt>
      <trkpt lat="47.3169" lon="-2.37202">
        <ele>35.400001525879</ele>
        <time>2021-07-01T07:30:24.000Z</time>
      </trkpt>
      <trkpt lat="47.3169" lon="-2.37207">
        <ele>35.799999237061</ele>
        <time>2021-07-01T07:30:25.000Z</time>
      </trkpt>
      <trkpt lat="47.31688" lon="-2.37215">
        <ele>36.200000762939</ele>
        <time>2021-07-01T07:30:26.000Z</time>
      </trkpt>
      <trkpt lat="47.31686" lon="-2.37223">
        <ele>36.599998474121</ele>
        <time>2021-07-01T07:30:27.000Z</time>
      </trkpt>
      <trkpt lat="47.31683" lon="-2.37229">
        <ele>37</ele>
        <time>2021-07-01T07:30:28.000Z</time>
      </trkpt>
      <trkpt lat="47.31675" lon="-2.3724">
        <ele>37</ele>
        <time>2021-07-01T07:30:30.000Z</time>
      </trkpt>
      <trkpt lat="47.31662" lon="-2.37253">
        <ele>37</ele>
        <time>2021-07-01T07:30:33.000Z</time>
      </trkpt>
      <trkpt lat="47.31647" lon="-2.37266">
        <ele>37</ele>
        <time>2021-07-01T07:30:36.000Z</time>
      </trkpt>
      <trkpt lat="47.31632" lon="-2.37281">
        <ele>37</ele>
        <time>2021-07-01T07:30:39.000Z</time>
      </trkpt>
      <trkpt lat="47.31625" lon="-2.37297">
        <ele>37</ele>
        <time>2021-07-01T07:30:41.000Z</time>
      </trkpt>
      <trkpt lat="47.31623" lon="-2.37334">
        <ele>37</ele>
        <time>2021-07-01T07:30:45.000Z</time>
      </trkpt>
      <trkpt lat="47.31627" lon="-2.37358">
        <ele>37</ele>
        <time>2021-07-01T07:30:48.000Z</time>
      </trkpt>
      <trkpt lat="47.31629" lon="-2.37366">
        <ele>37</ele>
        <time>2021-07-01T07:30:49.000Z</time>
      </trkpt>
      <trkpt lat="47.31635" lon="-2.37423">
        <ele>37</ele>
        <time>2021-07-01T07:30:56.000Z</time>
      </trkpt>
      <trkpt lat="47.31637" lon="-2.37486">
        <ele>37</ele>
        <time>2021-07-01T07:31:03.000Z</time>
      </trkpt>
      <trkpt lat="47.31636" lon="-2.37495">
        <ele>37</ele>
        <time>2021-07-01T07:31:04.000Z</time>
      </trkpt>
      <trkpt lat="47.31633" lon="-2.37512">
        <ele>37</ele>
        <time>2021-07-01T07:31:06.000Z</time>
      </trkpt>
      <trkpt lat="47.31628" lon="-2.37528">
        <ele>37</ele>
        <time>2021-07-01T07:31:08.000Z</time>
      </trkpt>
      <trkpt lat="47.3162" lon="-2.37552">
        <ele>36.200000762939</ele>
        <time>2021-07-01T07:31:11.000Z</time>
      </trkpt>
      <trkpt lat="47.31618" lon="-2.3756">
        <ele>35.799999237061</ele>
        <time>2021-07-01T07:31:12.000Z</time>
      </trkpt>
      <trkpt lat="47.31616" lon="-2.37568">
        <ele>35.400001525879</ele>
        <time>2021-07-01T07:31:13.000Z</time>
      </trkpt>
      <trkpt lat="47.31615" lon="-2.37577">
        <ele>35</ele>
        <time>2021-07-01T07:31:14.000Z</time>
      </trkpt>
      <trkpt lat="47.31614" lon="-2.37586">
        <ele>35</ele>
        <time>2021-07-01T07:31:15.000Z</time>
      </trkpt>
      <trkpt lat="47.31615" lon="-2.37619">
        <ele>35</ele>
        <time>2021-07-01T07:31:19.000Z</time>
      </trkpt>
      <trkpt lat="47.31616" lon="-2.37627">
        <ele>35</ele>
        <time>2021-07-01T07:31:20.000Z</time>
      </trkpt>
      <trkpt lat="47.31617" lon="-2.37635">
        <ele>35</ele>
        <time>2021-07-01T07:31:21.000Z</time>
      </trkpt>
      <trkpt lat="47.31629" lon="-2.37652">
        <ele>35</ele>
        <time>2021-07-01T07:31:24.000Z</time>
      </trkpt>
      <trkpt lat="47.31644" lon="-2.37659">
        <ele>35</ele>
        <time>2021-07-01T07:31:27.000Z</time>
      </trkpt>
      <trkpt lat="47.31648" lon="-2.37662">
        <ele>35</ele>
        <time>2021-07-01T07:31:28.000Z</time>
      </trkpt>
      <trkpt lat="47.31662" lon="-2.37673">
        <ele>35</ele>
        <time>2021-07-01T07:31:31.000Z</time>
      </trkpt>
      <trkpt lat="47.31669" lon="-2.37683">
        <ele>35</ele>
        <time>2021-07-01T07:31:33.000Z</time>
      </trkpt>
      <trkpt lat="47.31686" lon="-2.37702">
        <ele>35</ele>
        <time>2021-07-01T07:31:37.000Z</time>
      </trkpt>
      <trkpt lat="47.31696" lon="-2.37708">
        <ele>35</ele>
        <time>2021-07-01T07:31:39.000Z</time>
      </trkpt>
      <trkpt lat="47.31718" lon="-2.37712">
        <ele>35</ele>
        <time>2021-07-01T07:31:43.000Z</time>
      </trkpt>
      <trkpt lat="47.31735" lon="-2.37707">
        <ele>35</ele>
        <time>2021-07-01T07:31:46.000Z</time>
      </trkpt>
      <trkpt lat="47.31746" lon="-2.37701">
        <ele>35</ele>
        <time>2021-07-01T07:31:48.000Z</time>
      </trkpt>
      <trkpt lat="47.31776" lon="-2.37674">
        <ele>35</ele>
        <time>2021-07-01T07:31:54.000Z</time>
      </trkpt>
      <trkpt lat="47.31805" lon="-2.3765">
        <ele>35</ele>
        <time>2021-07-01T07:32:00.000Z</time>
      </trkpt>
      <trkpt lat="47.31815" lon="-2.37648">
        <ele>35</ele>
        <time>2021-07-01T07:32:02.000Z</time>
      </trkpt>
      <trkpt lat="47.31823" lon="-2.37658">
        <ele>35</ele>
        <time>2021-07-01T07:32:04.000Z</time>
      </trkpt>
      <trkpt lat="47.31825" lon="-2.37664">
        <ele>34.599998474121</ele>
        <time>2021-07-01T07:32:05.000Z</time>
      </trkpt>
      <trkpt lat="47.31826" lon="-2.37671">
        <ele>34.200000762939</ele>
        <time>2021-07-01T07:32:06.000Z</time>
      </trkpt>
      <trkpt lat="47.31825" lon="-2.37676">
        <ele>33.799999237061</ele>
        <time>2021-07-01T07:32:07.000Z</time>
      </trkpt>
      <trkpt lat="47.31824" lon="-2.37683">
        <ele>33.400001525879</ele>
        <time>2021-07-01T07:32:08.000Z</time>
      </trkpt>
      <trkpt lat="47.31823" lon="-2.37689">
        <ele>33</ele>
        <time>2021-07-01T07:32:09.000Z</time>
      </trkpt>
      <trkpt lat="47.3182" lon="-2.3771">
        <ele>33</ele>
        <time>2021-07-01T07:32:12.000Z</time>
      </trkpt>
      <trkpt lat="47.31815" lon="-2.37754">
        <ele>33</ele>
        <time>2021-07-01T07:32:18.000Z</time>
      </trkpt>
      <trkpt lat="47.31809" lon="-2.37813">
        <ele>33</ele>
        <time>2021-07-01T07:32:25.000Z</time>
      </trkpt>
      <trkpt lat="47.31801" lon="-2.37886">
        <ele>33</ele>
        <time>2021-07-01T07:32:33.000Z</time>
      </trkpt>
      <trkpt lat="47.31797" lon="-2.37935">
        <ele>32.400001525879</ele>
        <time>2021-07-01T07:32:38.000Z</time>
      </trkpt>
      <trkpt lat="47.31796" lon="-2.37945">
        <ele>32</ele>
        <time>2021-07-01T07:32:39.000Z</time>
      </trkpt>
      <trkpt lat="47.31795" lon="-2.37955">
        <ele>31.60000038147</ele>
        <time>2021-07-01T07:32:40.000Z</time>
      </trkpt>
      <trkpt lat="47.31795" lon="-2.37965">
        <ele>31.200000762939</ele>
        <time>2021-07-01T07:32:41.000Z</time>
      </trkpt>
      <trkpt lat="47.31795" lon="-2.37976">
        <ele>30.799999237061</ele>
        <time>2021-07-01T07:32:42.000Z</time>
      </trkpt>
      <trkpt lat="47.31795" lon="-2.38008">
        <ele>30.39999961853</ele>
        <time>2021-07-01T07:32:45.000Z</time>
      </trkpt>
      <trkpt lat="47.31796" lon="-2.38018">
        <ele>29.799999237061</ele>
        <time>2021-07-01T07:32:46.000Z</time>
      </trkpt>
      <trkpt lat="47.31796" lon="-2.38028">
        <ele>29.39999961853</ele>
        <time>2021-07-01T07:32:47.000Z</time>
      </trkpt>
      <trkpt lat="47.31797" lon="-2.38037">
        <ele>29</ele>
        <time>2021-07-01T07:32:48.000Z</time>
      </trkpt>
      <trkpt lat="47.31798" lon="-2.38047">
        <ele>28.60000038147</ele>
        <time>2021-07-01T07:32:49.000Z</time>
      </trkpt>
      <trkpt lat="47.318" lon="-2.38067">
        <ele>28.60000038147</ele>
        <time>2021-07-01T07:32:51.000Z</time>
      </trkpt>
      <trkpt lat="47.31803" lon="-2.38105">
        <ele>28.60000038147</ele>
        <time>2021-07-01T07:32:55.000Z</time>
      </trkpt>
      <trkpt lat="47.31804" lon="-2.38131">
        <ele>28.60000038147</ele>
        <time>2021-07-01T07:32:58.000Z</time>
      </trkpt>
      <trkpt lat="47.31807" lon="-2.38209">
        <ele>28.60000038147</ele>
        <time>2021-07-01T07:33:07.000Z</time>
      </trkpt>
      <trkpt lat="47.31808" lon="-2.38279">
        <ele>28.60000038147</ele>
        <time>2021-07-01T07:33:16.000Z</time>
      </trkpt>
      <trkpt lat="47.31808" lon="-2.38286">
        <ele>29</ele>
        <time>2021-07-01T07:33:17.000Z</time>
      </trkpt>
      <trkpt lat="47.31808" lon="-2.38294">
        <ele>29.39999961853</ele>
        <time>2021-07-01T07:33:18.000Z</time>
      </trkpt>
      <trkpt lat="47.31809" lon="-2.38302">
        <ele>29.799999237061</ele>
        <time>2021-07-01T07:33:19.000Z</time>
      </trkpt>
      <trkpt lat="47.31809" lon="-2.38309">
        <ele>30.200000762939</ele>
        <time>2021-07-01T07:33:20.000Z</time>
      </trkpt>
      <trkpt lat="47.31809" lon="-2.38317">
        <ele>30.60000038147</ele>
        <time>2021-07-01T07:33:21.000Z</time>
      </trkpt>
      <trkpt lat="47.31809" lon="-2.3834">
        <ele>30.60000038147</ele>
        <time>2021-07-01T07:33:24.000Z</time>
      </trkpt>
      <trkpt lat="47.31809" lon="-2.3837">
        <ele>31</ele>
        <time>2021-07-01T07:33:28.000Z</time>
      </trkpt>
      <trkpt lat="47.31809" lon="-2.38377">
        <ele>31.39999961853</ele>
        <time>2021-07-01T07:33:29.000Z</time>
      </trkpt>
      <trkpt lat="47.31809" lon="-2.38385">
        <ele>31.799999237061</ele>
        <time>2021-07-01T07:33:30.000Z</time>
      </trkpt>
      <trkpt lat="47.31809" lon="-2.38393">
        <ele>32.400001525879</ele>
        <time>2021-07-01T07:33:31.000Z</time>
      </trkpt>
      <trkpt lat="47.31809" lon="-2.384">
        <ele>32.799999237061</ele>
        <time>2021-07-01T07:33:32.000Z</time>
      </trkpt>
      <trkpt lat="47.3181" lon="-2.38446">
        <ele>32.799999237061</ele>
        <time>2021-07-01T07:33:38.000Z</time>
      </trkpt>
      <trkpt lat="47.3181" lon="-2.38454">
        <ele>32.799999237061</ele>
        <time>2021-07-01T07:33:39.000Z</time>
      </trkpt>
      <trkpt lat="47.31811" lon="-2.38504">
        <ele>33.200000762939</ele>
        <time>2021-07-01T07:33:46.000Z</time>
      </trkpt>
      <trkpt lat="47.3181" lon="-2.3851">
        <ele>33.599998474121</ele>
        <time>2021-07-01T07:33:47.000Z</time>
      </trkpt>
      <trkpt lat="47.3181" lon="-2.38517">
        <ele>34</ele>
        <time>2021-07-01T07:33:48.000Z</time>
      </trkpt>
      <trkpt lat="47.3181" lon="-2.38524">
        <ele>34.400001525879</ele>
        <time>2021-07-01T07:33:49.000Z</time>
      </trkpt>
      <trkpt lat="47.3181" lon="-2.38531">
        <ele>34.799999237061</ele>
        <time>2021-07-01T07:33:50.000Z</time>
      </trkpt>
      <trkpt lat="47.31811" lon="-2.38567">
        <ele>34.799999237061</ele>
        <time>2021-07-01T07:33:55.000Z</time>
      </trkpt>
      <trkpt lat="47.31816" lon="-2.38642">
        <ele>34.799999237061</ele>
        <time>2021-07-01T07:34:05.000Z</time>
      </trkpt>
      <trkpt lat="47.31821" lon="-2.38698">
        <ele>34.799999237061</ele>
        <time>2021-07-01T07:34:12.000Z</time>
      </trkpt>
      <trkpt lat="47.31823" lon="-2.38763">
        <ele>34.799999237061</ele>
        <time>2021-07-01T07:34:20.000Z</time>
      </trkpt>
      <trkpt lat="47.31825" lon="-2.38822">
        <ele>34.799999237061</ele>
        <time>2021-07-01T07:34:27.000Z</time>
      </trkpt>
      <trkpt lat="47.31827" lon="-2.3883">
        <ele>34.799999237061</ele>
        <time>2021-07-01T07:34:28.000Z</time>
      </trkpt>
      <trkpt lat="47.31839" lon="-2.38885">
        <ele>34.799999237061</ele>
        <time>2021-07-01T07:34:33.000Z</time>
      </trkpt>
      <trkpt lat="47.31856" lon="-2.38946">
        <ele>34.799999237061</ele>
        <time>2021-07-01T07:34:42.000Z</time>
      </trkpt>
      <trkpt lat="47.31861" lon="-2.38962">
        <ele>34.799999237061</ele>
        <time>2021-07-01T07:34:44.000Z</time>
      </trkpt>
      <trkpt lat="47.31871" lon="-2.38985">
        <ele>34.799999237061</ele>
        <time>2021-07-01T07:34:47.000Z</time>
      </trkpt>
      <trkpt lat="47.31877" lon="-2.39">
        <ele>34.400001525879</ele>
        <time>2021-07-01T07:34:49.000Z</time>
      </trkpt>
      <trkpt lat="47.3188" lon="-2.39007">
        <ele>34</ele>
        <time>2021-07-01T07:34:50.000Z</time>
      </trkpt>
      <trkpt lat="47.31882" lon="-2.39015">
        <ele>33.599998474121</ele>
        <time>2021-07-01T07:34:51.000Z</time>
      </trkpt>
      <trkpt lat="47.31885" lon="-2.39023">
        <ele>33.200000762939</ele>
        <time>2021-07-01T07:34:52.000Z</time>
      </trkpt>
      <trkpt lat="47.31887" lon="-2.39031">
        <ele>32.799999237061</ele>
        <time>2021-07-01T07:34:53.000Z</time>
      </trkpt>
      <trkpt lat="47.31889" lon="-2.39038">
        <ele>32.799999237061</ele>
        <time>2021-07-01T07:34:54.000Z</time>
      </trkpt>
      <trkpt lat="47.31906" lon="-2.39097">
        <ele>32.799999237061</ele>
        <time>2021-07-01T07:35:02.000Z</time>
      </trkpt>
      <trkpt lat="47.31922" lon="-2.39149">
        <ele>32.799999237061</ele>
        <time>2021-07-01T07:35:09.000Z</time>
      </trkpt>
      <trkpt lat="47.3194" lon="-2.39205">
        <ele>32.799999237061</ele>
        <time>2021-07-01T07:35:17.000Z</time>
      </trkpt>
      <trkpt lat="47.31942" lon="-2.39212">
        <ele>32.799999237061</ele>
        <time>2021-07-01T07:35:18.000Z</time>
      </trkpt>
      <trkpt lat="47.31948" lon="-2.39235">
        <ele>33.200000762939</ele>
        <time>2021-07-01T07:35:21.000Z</time>
      </trkpt>
      <trkpt lat="47.3195" lon="-2.39242">
        <ele>33.599998474121</ele>
        <time>2021-07-01T07:35:22.000Z</time>
      </trkpt>
      <trkpt lat="47.31952" lon="-2.39249">
        <ele>34</ele>
        <time>2021-07-01T07:35:23.000Z</time>
      </trkpt>
      <trkpt lat="47.31954" lon="-2.39257">
        <ele>34.400001525879</ele>
        <time>2021-07-01T07:35:24.000Z</time>
      </trkpt>
      <trkpt lat="47.31956" lon="-2.39264">
        <ele>34.799999237061</ele>
        <time>2021-07-01T07:35:25.000Z</time>
      </trkpt>
      <trkpt lat="47.31973" lon="-2.3932">
        <ele>34.799999237061</ele>
        <time>2021-07-01T07:35:33.000Z</time>
      </trkpt>
      <trkpt lat="47.31984" lon="-2.39365">
        <ele>35.200000762939</ele>
        <time>2021-07-01T07:35:39.000Z</time>
      </trkpt>
      <trkpt lat="47.31986" lon="-2.39372">
        <ele>35.599998474121</ele>
        <time>2021-07-01T07:35:40.000Z</time>
      </trkpt>
      <trkpt lat="47.31987" lon="-2.3938">
        <ele>36</ele>
        <time>2021-07-01T07:35:41.000Z</time>
      </trkpt>
      <trkpt lat="47.31989" lon="-2.39388">
        <ele>36.400001525879</ele>
        <time>2021-07-01T07:35:42.000Z</time>
      </trkpt>
      <trkpt lat="47.3199" lon="-2.39396">
        <ele>36.799999237061</ele>
        <time>2021-07-01T07:35:43.000Z</time>
      </trkpt>
      <trkpt lat="47.31999" lon="-2.39431">
        <ele>36.799999237061</ele>
        <time>2021-07-01T07:35:48.000Z</time>
      </trkpt>
      <trkpt lat="47.32013" lon="-2.39478">
        <ele>36.799999237061</ele>
        <time>2021-07-01T07:35:55.000Z</time>
      </trkpt>
      <trkpt lat="47.32027" lon="-2.39535">
        <ele>37.200000762939</ele>
        <time>2021-07-01T07:36:03.000Z</time>
      </trkpt>
      <trkpt lat="47.32029" lon="-2.39542">
        <ele>37.599998474121</ele>
        <time>2021-07-01T07:36:04.000Z</time>
      </trkpt>
      <trkpt lat="47.32031" lon="-2.39549">
        <ele>38</ele>
        <time>2021-07-01T07:36:05.000Z</time>
      </trkpt>
      <trkpt lat="47.32033" lon="-2.39557">
        <ele>38.400001525879</ele>
        <time>2021-07-01T07:36:06.000Z</time>
      </trkpt>
      <trkpt lat="47.32035" lon="-2.39565">
        <ele>38.799999237061</ele>
        <time>2021-07-01T07:36:07.000Z</time>
      </trkpt>
      <trkpt lat="47.32042" lon="-2.39595">
        <ele>38.799999237061</ele>
        <time>2021-07-01T07:36:11.000Z</time>
      </trkpt>
      <trkpt lat="47.32053" lon="-2.39642">
        <ele>38.799999237061</ele>
        <time>2021-07-01T07:36:18.000Z</time>
      </trkpt>
      <trkpt lat="47.32059" lon="-2.39668">
        <ele>39.200000762939</ele>
        <time>2021-07-01T07:36:22.000Z</time>
      </trkpt>
      <trkpt lat="47.32061" lon="-2.39673">
        <ele>39.599998474121</ele>
        <time>2021-07-01T07:36:23.000Z</time>
      </trkpt>
      <trkpt lat="47.32063" lon="-2.39679">
        <ele>40</ele>
        <time>2021-07-01T07:36:24.000Z</time>
      </trkpt>
      <trkpt lat="47.32065" lon="-2.39684">
        <ele>40.400001525879</ele>
        <time>2021-07-01T07:36:25.000Z</time>
      </trkpt>
      <trkpt lat="47.32068" lon="-2.39688">
        <ele>40.799999237061</ele>
        <time>2021-07-01T07:36:26.000Z</time>
      </trkpt>
      <trkpt lat="47.32077" lon="-2.39711">
        <ele>40.799999237061</ele>
        <time>2021-07-01T07:36:30.000Z</time>
      </trkpt>
      <trkpt lat="47.32081" lon="-2.39723">
        <ele>40.799999237061</ele>
        <time>2021-07-01T07:36:32.000Z</time>
      </trkpt>
      <trkpt lat="47.32086" lon="-2.39745">
        <ele>40.799999237061</ele>
        <time>2021-07-01T07:36:36.000Z</time>
      </trkpt>
      <trkpt lat="47.32094" lon="-2.39775">
        <ele>40.799999237061</ele>
        <time>2021-07-01T07:36:42.000Z</time>
      </trkpt>
      <trkpt lat="47.32096" lon="-2.39796">
        <ele>40.799999237061</ele>
        <time>2021-07-01T07:36:48.000Z</time>
      </trkpt>
      <trkpt lat="47.3208" lon="-2.39818">
        <ele>40.799999237061</ele>
        <time>2021-07-01T07:36:52.000Z</time>
      </trkpt>
      <trkpt lat="47.32054" lon="-2.39839">
        <ele>40.799999237061</ele>
        <time>2021-07-01T07:36:57.000Z</time>
      </trkpt>
      <trkpt lat="47.32012" lon="-2.39876">
        <ele>40.799999237061</ele>
        <time>2021-07-01T07:37:04.000Z</time>
      </trkpt>
      <trkpt lat="47.31966" lon="-2.39916">
        <ele>40.799999237061</ele>
        <time>2021-07-01T07:37:11.000Z</time>
      </trkpt>
      <trkpt lat="47.31919" lon="-2.39962">
        <ele>40.400001525879</ele>
        <time>2021-07-01T07:37:18.000Z</time>
      </trkpt>
      <trkpt lat="47.31913" lon="-2.3997">
        <ele>40</ele>
        <time>2021-07-01T07:37:19.000Z</time>
      </trkpt>
      <trkpt lat="47.31906" lon="-2.39978">
        <ele>39.599998474121</ele>
        <time>2021-07-01T07:37:20.000Z</time>
      </trkpt>
      <trkpt lat="47.319" lon="-2.39986">
        <ele>39.200000762939</ele>
        <time>2021-07-01T07:37:21.000Z</time>
      </trkpt>
      <trkpt lat="47.31894" lon="-2.39994">
        <ele>38.799999237061</ele>
        <time>2021-07-01T07:37:22.000Z</time>
      </trkpt>
      <trkpt lat="47.31877" lon="-2.40019">
        <ele>38.799999237061</ele>
        <time>2021-07-01T07:37:25.000Z</time>
      </trkpt>
      <trkpt lat="47.31838" lon="-2.40075">
        <ele>38.799999237061</ele>
        <time>2021-07-01T07:37:32.000Z</time>
      </trkpt>
      <trkpt lat="47.31833" lon="-2.40083">
        <ele>38.799999237061</ele>
        <time>2021-07-01T07:37:33.000Z</time>
      </trkpt>
      <trkpt lat="47.31807" lon="-2.40125">
        <ele>38.799999237061</ele>
        <time>2021-07-01T07:37:39.000Z</time>
      </trkpt>
      <trkpt lat="47.31782" lon="-2.40159">
        <ele>38.799999237061</ele>
        <time>2021-07-01T07:37:45.000Z</time>
      </trkpt>
      <trkpt lat="47.31757" lon="-2.40201">
        <ele>38.799999237061</ele>
        <time>2021-07-01T07:37:51.000Z</time>
      </trkpt>
      <trkpt lat="47.31731" lon="-2.4025">
        <ele>38.799999237061</ele>
        <time>2021-07-01T07:37:58.000Z</time>
      </trkpt>
      <trkpt lat="47.31713" lon="-2.40281">
        <ele>38.799999237061</ele>
        <time>2021-07-01T07:38:04.000Z</time>
      </trkpt>
      <trkpt lat="47.31696" lon="-2.40306">
        <ele>38.799999237061</ele>
        <time>2021-07-01T07:38:09.000Z</time>
      </trkpt>
      <trkpt lat="47.31691" lon="-2.40317">
        <ele>38.799999237061</ele>
        <time>2021-07-01T07:38:11.000Z</time>
      </trkpt>
      <trkpt lat="47.31694" lon="-2.40337">
        <ele>38.799999237061</ele>
        <time>2021-07-01T07:38:15.000Z</time>
      </trkpt>
      <trkpt lat="47.31698" lon="-2.40341">
        <ele>38.799999237061</ele>
        <time>2021-07-01T07:38:16.000Z</time>
      </trkpt>
      <trkpt lat="47.31718" lon="-2.40358">
        <ele>38.799999237061</ele>
        <time>2021-07-01T07:38:20.000Z</time>
      </trkpt>
      <trkpt lat="47.31748" lon="-2.40383">
        <ele>38.799999237061</ele>
        <time>2021-07-01T07:38:25.000Z</time>
      </trkpt>
      <trkpt lat="47.31776" lon="-2.40407">
        <ele>38.799999237061</ele>
        <time>2021-07-01T07:38:30.000Z</time>
      </trkpt>
      <trkpt lat="47.31796" lon="-2.40422">
        <ele>38.799999237061</ele>
        <time>2021-07-01T07:38:33.000Z</time>
      </trkpt>
      <trkpt lat="47.31822" lon="-2.40438">
        <ele>39.200000762939</ele>
        <time>2021-07-01T07:38:37.000Z</time>
      </trkpt>
      <trkpt lat="47.31829" lon="-2.40443">
        <ele>39.599998474121</ele>
        <time>2021-07-01T07:38:38.000Z</time>
      </trkpt>
      <trkpt lat="47.31836" lon="-2.40448">
        <ele>40.200000762939</ele>
        <time>2021-07-01T07:38:39.000Z</time>
      </trkpt>
      <trkpt lat="47.31841" lon="-2.40453">
        <ele>40.599998474121</ele>
        <time>2021-07-01T07:38:40.000Z</time>
      </trkpt>
      <trkpt lat="47.31847" lon="-2.40457">
        <ele>41</ele>
        <time>2021-07-01T07:38:41.000Z</time>
      </trkpt>
      <trkpt lat="47.31885" lon="-2.40489">
        <ele>41</ele>
        <time>2021-07-01T07:38:47.000Z</time>
      </trkpt>
      <trkpt lat="47.31919" lon="-2.40515">
        <ele>41</ele>
        <time>2021-07-01T07:38:53.000Z</time>
      </trkpt>
      <trkpt lat="47.3194" lon="-2.4053">
        <ele>41.400001525879</ele>
        <time>2021-07-01T07:38:57.000Z</time>
      </trkpt>
      <trkpt lat="47.31945" lon="-2.40533">
        <ele>41.799999237061</ele>
        <time>2021-07-01T07:38:58.000Z</time>
      </trkpt>
      <trkpt lat="47.3195" lon="-2.40536">
        <ele>42.200000762939</ele>
        <time>2021-07-01T07:38:59.000Z</time>
      </trkpt>
      <trkpt lat="47.31955" lon="-2.4054">
        <ele>42.599998474121</ele>
        <time>2021-07-01T07:39:00.000Z</time>
      </trkpt>
      <trkpt lat="47.31959" lon="-2.40543">
        <ele>43</ele>
        <time>2021-07-01T07:39:01.000Z</time>
      </trkpt>
      <trkpt lat="47.31989" lon="-2.40568">
        <ele>43</ele>
        <time>2021-07-01T07:39:07.000Z</time>
      </trkpt>
      <trkpt lat="47.32008" lon="-2.40585">
        <ele>43</ele>
        <time>2021-07-01T07:39:11.000Z</time>
      </trkpt>
      <trkpt lat="47.32021" lon="-2.40597">
        <ele>43</ele>
        <time>2021-07-01T07:39:14.000Z</time>
      </trkpt>
      <trkpt lat="47.32027" lon="-2.40601">
        <ele>43.400001525879</ele>
        <time>2021-07-01T07:39:15.000Z</time>
      </trkpt>
      <trkpt lat="47.32034" lon="-2.40606">
        <ele>43.799999237061</ele>
        <time>2021-07-01T07:39:16.000Z</time>
      </trkpt>
      <trkpt lat="47.32039" lon="-2.4061">
        <ele>44.200000762939</ele>
        <time>2021-07-01T07:39:17.000Z</time>
      </trkpt>
      <trkpt lat="47.32044" lon="-2.40614">
        <ele>44.599998474121</ele>
        <time>2021-07-01T07:39:18.000Z</time>
      </trkpt>
      <trkpt lat="47.3205" lon="-2.4062">
        <ele>45</ele>
        <time>2021-07-01T07:39:19.000Z</time>
      </trkpt>
      <trkpt lat="47.32063" lon="-2.40634">
        <ele>45</ele>
        <time>2021-07-01T07:39:22.000Z</time>
      </trkpt>
      <trkpt lat="47.32111" lon="-2.40681">
        <ele>45</ele>
        <time>2021-07-01T07:39:31.000Z</time>
      </trkpt>
      <trkpt lat="47.32153" lon="-2.40723">
        <ele>45</ele>
        <time>2021-07-01T07:39:39.000Z</time>
      </trkpt>
      <trkpt lat="47.32157" lon="-2.40728">
        <ele>45.400001525879</ele>
        <time>2021-07-01T07:39:40.000Z</time>
      </trkpt>
      <trkpt lat="47.32161" lon="-2.40733">
        <ele>45.799999237061</ele>
        <time>2021-07-01T07:39:41.000Z</time>
      </trkpt>
      <trkpt lat="47.32165" lon="-2.40738">
        <ele>46.200000762939</ele>
        <time>2021-07-01T07:39:42.000Z</time>
      </trkpt>
      <trkpt lat="47.3217" lon="-2.40743">
        <ele>46.599998474121</ele>
        <time>2021-07-01T07:39:43.000Z</time>
      </trkpt>
      <trkpt lat="47.32173" lon="-2.40749">
        <ele>47</ele>
        <time>2021-07-01T07:39:44.000Z</time>
      </trkpt>
      <trkpt lat="47.32181" lon="-2.40759">
        <ele>47</ele>
        <time>2021-07-01T07:39:46.000Z</time>
      </trkpt>
      <trkpt lat="47.32198" lon="-2.40784">
        <ele>47</ele>
        <time>2021-07-01T07:39:51.000Z</time>
      </trkpt>
      <trkpt lat="47.32209" lon="-2.40803">
        <ele>47</ele>
        <time>2021-07-01T07:39:56.000Z</time>
      </trkpt>
      <trkpt lat="47.32222" lon="-2.40824">
        <ele>47</ele>
        <time>2021-07-01T07:40:02.000Z</time>
      </trkpt>
      <trkpt lat="47.32236" lon="-2.40847">
        <ele>47</ele>
        <time>2021-07-01T07:40:07.000Z</time>
      </trkpt>
      <trkpt lat="47.32267" lon="-2.409">
        <ele>47</ele>
        <time>2021-07-01T07:40:16.000Z</time>
      </trkpt>
      <trkpt lat="47.32291" lon="-2.40943">
        <ele>47</ele>
        <time>2021-07-01T07:40:23.000Z</time>
      </trkpt>
      <trkpt lat="47.32319" lon="-2.40995">
        <ele>47</ele>
        <time>2021-07-01T07:40:31.000Z</time>
      </trkpt>
      <trkpt lat="47.32342" lon="-2.41037">
        <ele>47</ele>
        <time>2021-07-01T07:40:38.000Z</time>
      </trkpt>
      <trkpt lat="47.32357" lon="-2.41064">
        <ele>47</ele>
        <time>2021-07-01T07:40:44.000Z</time>
      </trkpt>
      <trkpt lat="47.3236" lon="-2.41072">
        <ele>47.400001525879</ele>
        <time>2021-07-01T07:40:46.000Z</time>
      </trkpt>
      <trkpt lat="47.32362" lon="-2.41077">
        <ele>47.799999237061</ele>
        <time>2021-07-01T07:40:47.000Z</time>
      </trkpt>
      <trkpt lat="47.32364" lon="-2.4108">
        <ele>48.200000762939</ele>
        <time>2021-07-01T07:40:48.000Z</time>
      </trkpt>
      <trkpt lat="47.32366" lon="-2.41083">
        <ele>48.799999237061</ele>
        <time>2021-07-01T07:40:49.000Z</time>
      </trkpt>
      <trkpt lat="47.32367" lon="-2.41087">
        <ele>49.200000762939</ele>
        <time>2021-07-01T07:40:50.000Z</time>
      </trkpt>
      <trkpt lat="47.32371" lon="-2.41096">
        <ele>49.200000762939</ele>
        <time>2021-07-01T07:40:52.000Z</time>
      </trkpt>
      <trkpt lat="47.32387" lon="-2.4113">
        <ele>49.200000762939</ele>
        <time>2021-07-01T07:40:59.000Z</time>
      </trkpt>
      <trkpt lat="47.32407" lon="-2.41162">
        <ele>49.200000762939</ele>
        <time>2021-07-01T07:41:06.000Z</time>
      </trkpt>
      <trkpt lat="47.32423" lon="-2.41195">
        <ele>49.200000762939</ele>
        <time>2021-07-01T07:41:12.000Z</time>
      </trkpt>
      <trkpt lat="47.32426" lon="-2.41199">
        <ele>49.200000762939</ele>
        <time>2021-07-01T07:41:13.000Z</time>
      </trkpt>
      <trkpt lat="47.32432" lon="-2.41215">
        <ele>49.200000762939</ele>
        <time>2021-07-01T07:41:16.000Z</time>
      </trkpt>
      <trkpt lat="47.3245" lon="-2.41248">
        <ele>49.200000762939</ele>
        <time>2021-07-01T07:41:22.000Z</time>
      </trkpt>
      <trkpt lat="47.32473" lon="-2.41291">
        <ele>49.200000762939</ele>
        <time>2021-07-01T07:41:29.000Z</time>
      </trkpt>
      <trkpt lat="47.32505" lon="-2.41348">
        <ele>49.200000762939</ele>
        <time>2021-07-01T07:41:38.000Z</time>
      </trkpt>
      <trkpt lat="47.32515" lon="-2.41369">
        <ele>49.200000762939</ele>
        <time>2021-07-01T07:41:41.000Z</time>
      </trkpt>
      <trkpt lat="47.32533" lon="-2.41405">
        <ele>49.200000762939</ele>
        <time>2021-07-01T07:41:46.000Z</time>
      </trkpt>
      <trkpt lat="47.32556" lon="-2.41449">
        <ele>49.200000762939</ele>
        <time>2021-07-01T07:41:53.000Z</time>
      </trkpt>
      <trkpt lat="47.32563" lon="-2.41461">
        <ele>49.200000762939</ele>
        <time>2021-07-01T07:41:56.000Z</time>
      </trkpt>
      <trkpt lat="47.32565" lon="-2.41463">
        <ele>49.200000762939</ele>
        <time>2021-07-01T07:41:57.000Z</time>
      </trkpt>
      <trkpt lat="47.32572" lon="-2.41459">
        <ele>49.200000762939</ele>
        <time>2021-07-01T07:42:00.000Z</time>
      </trkpt>
      <trkpt lat="47.32574" lon="-2.41442">
        <ele>49.200000762939</ele>
        <time>2021-07-01T07:42:03.000Z</time>
      </trkpt>
      <trkpt lat="47.32576" lon="-2.41412">
        <ele>49.200000762939</ele>
        <time>2021-07-01T07:42:07.000Z</time>
      </trkpt>
      <trkpt lat="47.32577" lon="-2.41404">
        <ele>49.200000762939</ele>
        <time>2021-07-01T07:42:08.000Z</time>
      </trkpt>
      <trkpt lat="47.32586" lon="-2.41387">
        <ele>49.200000762939</ele>
        <time>2021-07-01T07:42:11.000Z</time>
      </trkpt>
      <trkpt lat="47.32597" lon="-2.41381">
        <ele>49.200000762939</ele>
        <time>2021-07-01T07:42:13.000Z</time>
      </trkpt>
      <trkpt lat="47.32609" lon="-2.41375">
        <ele>49.200000762939</ele>
        <time>2021-07-01T07:42:15.000Z</time>
      </trkpt>
      <trkpt lat="47.32633" lon="-2.4136">
        <ele>48.400001525879</ele>
        <time>2021-07-01T07:42:19.000Z</time>
      </trkpt>
      <trkpt lat="47.32639" lon="-2.41357">
        <ele>48</ele>
        <time>2021-07-01T07:42:20.000Z</time>
      </trkpt>
      <trkpt lat="47.32645" lon="-2.41353">
        <ele>47.400001525879</ele>
        <time>2021-07-01T07:42:21.000Z</time>
      </trkpt>
      <trkpt lat="47.32651" lon="-2.41349">
        <ele>47</ele>
        <time>2021-07-01T07:42:22.000Z</time>
      </trkpt>
      <trkpt lat="47.32662" lon="-2.41342">
        <ele>47</ele>
        <time>2021-07-01T07:42:24.000Z</time>
      </trkpt>
      <trkpt lat="47.32679" lon="-2.4133">
        <ele>46.599998474121</ele>
        <time>2021-07-01T07:42:27.000Z</time>
      </trkpt>
      <trkpt lat="47.32684" lon="-2.41326">
        <ele>46.200000762939</ele>
        <time>2021-07-01T07:42:28.000Z</time>
      </trkpt>
      <trkpt lat="47.3269" lon="-2.41322">
        <ele>45.799999237061</ele>
        <time>2021-07-01T07:42:29.000Z</time>
      </trkpt>
      <trkpt lat="47.32694" lon="-2.41317">
        <ele>45.400001525879</ele>
        <time>2021-07-01T07:42:30.000Z</time>
      </trkpt>
      <trkpt lat="47.32699" lon="-2.41314">
        <ele>45</ele>
        <time>2021-07-01T07:42:31.000Z</time>
      </trkpt>
      <trkpt lat="47.32706" lon="-2.41305">
        <ele>45</ele>
        <time>2021-07-01T07:42:33.000Z</time>
      </trkpt>
      <trkpt lat="47.32715" lon="-2.4129">
        <ele>45</ele>
        <time>2021-07-01T07:42:36.000Z</time>
      </trkpt>
      <trkpt lat="47.32729" lon="-2.41283">
        <ele>45</ele>
        <time>2021-07-01T07:42:39.000Z</time>
      </trkpt>
      <trkpt lat="47.32735" lon="-2.41282">
        <ele>45</ele>
        <time>2021-07-01T07:42:40.000Z</time>
      </trkpt>
      <trkpt lat="47.32772" lon="-2.41271">
        <ele>45</ele>
        <time>2021-07-01T07:42:46.000Z</time>
      </trkpt>
      <trkpt lat="47.32785" lon="-2.41269">
        <ele>45</ele>
        <time>2021-07-01T07:42:48.000Z</time>
      </trkpt>
      <trkpt lat="47.32803" lon="-2.41267">
        <ele>45</ele>
        <time>2021-07-01T07:42:51.000Z</time>
      </trkpt>
      <trkpt lat="47.32821" lon="-2.41264">
        <ele>45</ele>
        <time>2021-07-01T07:42:55.000Z</time>
      </trkpt>
      <trkpt lat="47.3284" lon="-2.41259">
        <ele>45</ele>
        <time>2021-07-01T07:42:59.000Z</time>
      </trkpt>
      <trkpt lat="47.32845" lon="-2.41258">
        <ele>45</ele>
        <time>2021-07-01T07:43:00.000Z</time>
      </trkpt>
      <trkpt lat="47.32868" lon="-2.41256">
        <ele>45</ele>
        <time>2021-07-01T07:43:04.000Z</time>
      </trkpt>
      <trkpt lat="47.32914" lon="-2.41252">
        <ele>44.599998474121</ele>
        <time>2021-07-01T07:43:12.000Z</time>
      </trkpt>
      <trkpt lat="47.32918" lon="-2.41249">
        <ele>44.200000762939</ele>
        <time>2021-07-01T07:43:13.000Z</time>
      </trkpt>
      <trkpt lat="47.32921" lon="-2.41246">
        <ele>43.799999237061</ele>
        <time>2021-07-01T07:43:14.000Z</time>
      </trkpt>
      <trkpt lat="47.32924" lon="-2.41244">
        <ele>43.400001525879</ele>
        <time>2021-07-01T07:43:15.000Z</time>
      </trkpt>
      <trkpt lat="47.32926" lon="-2.41243">
        <ele>43</ele>
        <time>2021-07-01T07:43:16.000Z</time>
      </trkpt>
      <trkpt lat="47.32928" lon="-2.41243">
        <ele>43</ele>
        <time>2021-07-01T07:43:17.000Z</time>
      </trkpt>
      <trkpt lat="47.32934" lon="-2.41244">
        <ele>43</ele>
        <time>2021-07-01T07:43:19.000Z</time>
      </trkpt>
      <trkpt lat="47.32937" lon="-2.41246">
        <ele>43</ele>
        <time>2021-07-01T07:43:20.000Z</time>
      </trkpt>
      <trkpt lat="47.32945" lon="-2.41252">
        <ele>43</ele>
        <time>2021-07-01T07:43:22.000Z</time>
      </trkpt>
      <trkpt lat="47.32961" lon="-2.41251">
        <ele>43</ele>
        <time>2021-07-01T07:43:25.000Z</time>
      </trkpt>
      <trkpt lat="47.32981" lon="-2.41236">
        <ele>43</ele>
        <time>2021-07-01T07:43:29.000Z</time>
      </trkpt>
      <trkpt lat="47.32992" lon="-2.41216">
        <ele>43</ele>
        <time>2021-07-01T07:43:33.000Z</time>
      </trkpt>
      <trkpt lat="47.32994" lon="-2.4121">
        <ele>43</ele>
        <time>2021-07-01T07:43:35.000Z</time>
      </trkpt>
      <trkpt lat="47.32999" lon="-2.41209">
        <ele>43</ele>
        <time>2021-07-01T07:43:37.000Z</time>
      </trkpt>
      <trkpt lat="47.33007" lon="-2.41215">
        <ele>43</ele>
        <time>2021-07-01T07:43:40.000Z</time>
      </trkpt>
      <trkpt lat="47.33018" lon="-2.41215">
        <ele>43</ele>
        <time>2021-07-01T07:43:43.000Z</time>
      </trkpt>
      <trkpt lat="47.33031" lon="-2.41199">
        <ele>43</ele>
        <time>2021-07-01T07:43:46.000Z</time>
      </trkpt>
      <trkpt lat="47.33042" lon="-2.41175">
        <ele>43</ele>
        <time>2021-07-01T07:43:49.000Z</time>
      </trkpt>
      <trkpt lat="47.3305" lon="-2.41158">
        <ele>43</ele>
        <time>2021-07-01T07:43:51.000Z</time>
      </trkpt>
      <trkpt lat="47.33075" lon="-2.41098">
        <ele>43</ele>
        <time>2021-07-01T07:43:58.000Z</time>
      </trkpt>
      <trkpt lat="47.33095" lon="-2.41041">
        <ele>43</ele>
        <time>2021-07-01T07:44:05.000Z</time>
      </trkpt>
      <trkpt lat="47.33114" lon="-2.40985">
        <ele>43</ele>
        <time>2021-07-01T07:44:12.000Z</time>
      </trkpt>
      <trkpt lat="47.33134" lon="-2.40937">
        <ele>42.400001525879</ele>
        <time>2021-07-01T07:44:18.000Z</time>
      </trkpt>
      <trkpt lat="47.33138" lon="-2.4093">
        <ele>42</ele>
        <time>2021-07-01T07:44:19.000Z</time>
      </trkpt>
      <trkpt lat="47.33142" lon="-2.40922">
        <ele>41.599998474121</ele>
        <time>2021-07-01T07:44:20.000Z</time>
      </trkpt>
      <trkpt lat="47.33146" lon="-2.40915">
        <ele>41.200000762939</ele>
        <time>2021-07-01T07:44:21.000Z</time>
      </trkpt>
      <trkpt lat="47.3315" lon="-2.40908">
        <ele>40.799999237061</ele>
        <time>2021-07-01T07:44:22.000Z</time>
      </trkpt>
      <trkpt lat="47.3317" lon="-2.40872">
        <ele>40.799999237061</ele>
        <time>2021-07-01T07:44:27.000Z</time>
      </trkpt>
      <trkpt lat="47.33203" lon="-2.4082">
        <ele>40.799999237061</ele>
        <time>2021-07-01T07:44:34.000Z</time>
      </trkpt>
      <trkpt lat="47.33208" lon="-2.40813">
        <ele>40.400001525879</ele>
        <time>2021-07-01T07:44:35.000Z</time>
      </trkpt>
      <trkpt lat="47.33213" lon="-2.40805">
        <ele>40</ele>
        <time>2021-07-01T07:44:36.000Z</time>
      </trkpt>
      <trkpt lat="47.33217" lon="-2.40798">
        <ele>39.599998474121</ele>
        <time>2021-07-01T07:44:37.000Z</time>
      </trkpt>
      <trkpt lat="47.33221" lon="-2.4079">
        <ele>39.200000762939</ele>
        <time>2021-07-01T07:44:38.000Z</time>
      </trkpt>
      <trkpt lat="47.33225" lon="-2.40781">
        <ele>38.599998474121</ele>
        <time>2021-07-01T07:44:39.000Z</time>
      </trkpt>
      <trkpt lat="47.33228" lon="-2.40771">
        <ele>38.599998474121</ele>
        <time>2021-07-01T07:44:40.000Z</time>
      </trkpt>
      <trkpt lat="47.33233" lon="-2.40741">
        <ele>38.599998474121</ele>
        <time>2021-07-01T07:44:43.000Z</time>
      </trkpt>
      <trkpt lat="47.33234" lon="-2.40731">
        <ele>38.200000762939</ele>
        <time>2021-07-01T07:44:44.000Z</time>
      </trkpt>
      <trkpt lat="47.33235" lon="-2.40721">
        <ele>37.799999237061</ele>
        <time>2021-07-01T07:44:45.000Z</time>
      </trkpt>
      <trkpt lat="47.33236" lon="-2.40711">
        <ele>37.400001525879</ele>
        <time>2021-07-01T07:44:46.000Z</time>
      </trkpt>
      <trkpt lat="47.33237" lon="-2.40702">
        <ele>36.599998474121</ele>
        <time>2021-07-01T07:44:47.000Z</time>
      </trkpt>
      <trkpt lat="47.33242" lon="-2.40675">
        <ele>36.599998474121</ele>
        <time>2021-07-01T07:44:50.000Z</time>
      </trkpt>
      <trkpt lat="47.33255" lon="-2.40631">
        <ele>36.200000762939</ele>
        <time>2021-07-01T07:44:55.000Z</time>
      </trkpt>
      <trkpt lat="47.33257" lon="-2.40622">
        <ele>35.799999237061</ele>
        <time>2021-07-01T07:44:56.000Z</time>
      </trkpt>
      <trkpt lat="47.3326" lon="-2.40613">
        <ele>35.400001525879</ele>
        <time>2021-07-01T07:44:57.000Z</time>
      </trkpt>
      <trkpt lat="47.33262" lon="-2.40604">
        <ele>35</ele>
        <time>2021-07-01T07:44:58.000Z</time>
      </trkpt>
      <trkpt lat="47.33264" lon="-2.40595">
        <ele>34.599998474121</ele>
        <time>2021-07-01T07:44:59.000Z</time>
      </trkpt>
      <trkpt lat="47.33277" lon="-2.40549">
        <ele>34.200000762939</ele>
        <time>2021-07-01T07:45:04.000Z</time>
      </trkpt>
      <trkpt lat="47.3328" lon="-2.4054">
        <ele>33.799999237061</ele>
        <time>2021-07-01T07:45:05.000Z</time>
      </trkpt>
      <trkpt lat="47.33283" lon="-2.40531">
        <ele>33.400001525879</ele>
        <time>2021-07-01T07:45:06.000Z</time>
      </trkpt>
      <trkpt lat="47.33287" lon="-2.40523">
        <ele>33</ele>
        <time>2021-07-01T07:45:07.000Z</time>
      </trkpt>
      <trkpt lat="47.3329" lon="-2.40516">
        <ele>32.400001525879</ele>
        <time>2021-07-01T07:45:08.000Z</time>
      </trkpt>
      <trkpt lat="47.33294" lon="-2.40508">
        <ele>32.400001525879</ele>
        <time>2021-07-01T07:45:09.000Z</time>
      </trkpt>
      <trkpt lat="47.33298" lon="-2.40501">
        <ele>32.400001525879</ele>
        <time>2021-07-01T07:45:10.000Z</time>
      </trkpt>
      <trkpt lat="47.33305" lon="-2.40476">
        <ele>32.400001525879</ele>
        <time>2021-07-01T07:45:13.000Z</time>
      </trkpt>
      <trkpt lat="47.33306" lon="-2.40467">
        <ele>32.400001525879</ele>
        <time>2021-07-01T07:45:14.000Z</time>
      </trkpt>
      <trkpt lat="47.33311" lon="-2.40421">
        <ele>32.400001525879</ele>
        <time>2021-07-01T07:45:20.000Z</time>
      </trkpt>
      <trkpt lat="47.33312" lon="-2.40406">
        <ele>32.400001525879</ele>
        <time>2021-07-01T07:45:22.000Z</time>
      </trkpt>
      <trkpt lat="47.33312" lon="-2.40385">
        <ele>32.400001525879</ele>
        <time>2021-07-01T07:45:25.000Z</time>
      </trkpt>
      <trkpt lat="47.33312" lon="-2.40359">
        <ele>32.400001525879</ele>
        <time>2021-07-01T07:45:29.000Z</time>
      </trkpt>
      <trkpt lat="47.33313" lon="-2.40354">
        <ele>33</ele>
        <time>2021-07-01T07:45:30.000Z</time>
      </trkpt>
      <trkpt lat="47.33314" lon="-2.40348">
        <ele>33.400001525879</ele>
        <time>2021-07-01T07:45:31.000Z</time>
      </trkpt>
      <trkpt lat="47.33316" lon="-2.40343">
        <ele>34</ele>
        <time>2021-07-01T07:45:32.000Z</time>
      </trkpt>
      <trkpt lat="47.33318" lon="-2.40337">
        <ele>34.400001525879</ele>
        <time>2021-07-01T07:45:33.000Z</time>
      </trkpt>
      <trkpt lat="47.33319" lon="-2.40331">
        <ele>35</ele>
        <time>2021-07-01T07:45:34.000Z</time>
      </trkpt>
      <trkpt lat="47.33324" lon="-2.40319">
        <ele>35.400001525879</ele>
        <time>2021-07-01T07:45:36.000Z</time>
      </trkpt>
      <trkpt lat="47.33326" lon="-2.40312">
        <ele>36.200000762939</ele>
        <time>2021-07-01T07:45:37.000Z</time>
      </trkpt>
      <trkpt lat="47.33327" lon="-2.40305">
        <ele>36.599998474121</ele>
        <time>2021-07-01T07:45:38.000Z</time>
      </trkpt>
      <trkpt lat="47.33328" lon="-2.40298">
        <ele>37</ele>
        <time>2021-07-01T07:45:39.000Z</time>
      </trkpt>
      <trkpt lat="47.33329" lon="-2.40291">
        <ele>37</ele>
        <time>2021-07-01T07:45:40.000Z</time>
      </trkpt>
      <trkpt lat="47.33336" lon="-2.40239">
        <ele>37</ele>
        <time>2021-07-01T07:45:47.000Z</time>
      </trkpt>
      <trkpt lat="47.33337" lon="-2.40231">
        <ele>37.400001525879</ele>
        <time>2021-07-01T07:45:48.000Z</time>
      </trkpt>
      <trkpt lat="47.33338" lon="-2.40224">
        <ele>37.799999237061</ele>
        <time>2021-07-01T07:45:49.000Z</time>
      </trkpt>
      <trkpt lat="47.33339" lon="-2.40215">
        <ele>38.200000762939</ele>
        <time>2021-07-01T07:45:50.000Z</time>
      </trkpt>
      <trkpt lat="47.3334" lon="-2.40207">
        <ele>38.599998474121</ele>
        <time>2021-07-01T07:45:51.000Z</time>
      </trkpt>
      <trkpt lat="47.33341" lon="-2.40199">
        <ele>39</ele>
        <time>2021-07-01T07:45:52.000Z</time>
      </trkpt>
      <trkpt lat="47.33342" lon="-2.40191">
        <ele>39</ele>
        <time>2021-07-01T07:45:53.000Z</time>
      </trkpt>
      <trkpt lat="47.33348" lon="-2.40124">
        <ele>39</ele>
        <time>2021-07-01T07:46:01.000Z</time>
      </trkpt>
      <trkpt lat="47.33355" lon="-2.40052">
        <ele>39</ele>
        <time>2021-07-01T07:46:09.000Z</time>
      </trkpt>
      <trkpt lat="47.33367" lon="-2.4002">
        <ele>39</ele>
        <time>2021-07-01T07:46:13.000Z</time>
      </trkpt>
      <trkpt lat="47.33376" lon="-2.40007">
        <ele>39</ele>
        <time>2021-07-01T07:46:15.000Z</time>
      </trkpt>
      <trkpt lat="47.33394" lon="-2.39978">
        <ele>39</ele>
        <time>2021-07-01T07:46:19.000Z</time>
      </trkpt>
      <trkpt lat="47.33418" lon="-2.39941">
        <ele>38.599998474121</ele>
        <time>2021-07-01T07:46:24.000Z</time>
      </trkpt>
      <trkpt lat="47.33423" lon="-2.39934">
        <ele>38.200000762939</ele>
        <time>2021-07-01T07:46:25.000Z</time>
      </trkpt>
      <trkpt lat="47.33427" lon="-2.39927">
        <ele>37.400001525879</ele>
        <time>2021-07-01T07:46:26.000Z</time>
      </trkpt>
      <trkpt lat="47.33432" lon="-2.39921">
        <ele>37</ele>
        <time>2021-07-01T07:46:27.000Z</time>
      </trkpt>
      <trkpt lat="47.33463" lon="-2.3988">
        <ele>37</ele>
        <time>2021-07-01T07:46:33.000Z</time>
      </trkpt>
      <trkpt lat="47.33474" lon="-2.39865">
        <ele>36.400001525879</ele>
        <time>2021-07-01T07:46:35.000Z</time>
      </trkpt>
      <trkpt lat="47.33479" lon="-2.39858">
        <ele>36</ele>
        <time>2021-07-01T07:46:36.000Z</time>
      </trkpt>
      <trkpt lat="47.33485" lon="-2.39851">
        <ele>35.599998474121</ele>
        <time>2021-07-01T07:46:37.000Z</time>
      </trkpt>
      <trkpt lat="47.33489" lon="-2.39844">
        <ele>35</ele>
        <time>2021-07-01T07:46:38.000Z</time>
      </trkpt>
      <trkpt lat="47.33494" lon="-2.39837">
        <ele>34.599998474121</ele>
        <time>2021-07-01T07:46:39.000Z</time>
      </trkpt>
      <trkpt lat="47.33499" lon="-2.3983">
        <ele>34.599998474121</ele>
        <time>2021-07-01T07:46:40.000Z</time>
      </trkpt>
      <trkpt lat="47.33523" lon="-2.39793">
        <ele>34.200000762939</ele>
        <time>2021-07-01T07:46:45.000Z</time>
      </trkpt>
      <trkpt lat="47.33527" lon="-2.39787">
        <ele>33.799999237061</ele>
        <time>2021-07-01T07:46:46.000Z</time>
      </trkpt>
      <trkpt lat="47.33532" lon="-2.39781">
        <ele>33.400001525879</ele>
        <time>2021-07-01T07:46:47.000Z</time>
      </trkpt>
      <trkpt lat="47.33535" lon="-2.39777">
        <ele>33</ele>
        <time>2021-07-01T07:46:48.000Z</time>
      </trkpt>
      <trkpt lat="47.33539" lon="-2.39772">
        <ele>32.599998474121</ele>
        <time>2021-07-01T07:46:49.000Z</time>
      </trkpt>
      <trkpt lat="47.33545" lon="-2.39764">
        <ele>32.599998474121</ele>
        <time>2021-07-01T07:46:51.000Z</time>
      </trkpt>
      <trkpt lat="47.33571" lon="-2.39736">
        <ele>32.599998474121</ele>
        <time>2021-07-01T07:46:57.000Z</time>
      </trkpt>
      <trkpt lat="47.33594" lon="-2.397">
        <ele>32.599998474121</ele>
        <time>2021-07-01T07:47:02.000Z</time>
      </trkpt>
      <trkpt lat="47.33625" lon="-2.39656">
        <ele>32.599998474121</ele>
        <time>2021-07-01T07:47:08.000Z</time>
      </trkpt>
      <trkpt lat="47.33629" lon="-2.39648">
        <ele>32.599998474121</ele>
        <time>2021-07-01T07:47:09.000Z</time>
      </trkpt>
      <trkpt lat="47.33643" lon="-2.39616">
        <ele>32.599998474121</ele>
        <time>2021-07-01T07:47:13.000Z</time>
      </trkpt>
      <trkpt lat="47.33659" lon="-2.39571">
        <ele>32.599998474121</ele>
        <time>2021-07-01T07:47:19.000Z</time>
      </trkpt>
      <trkpt lat="47.33678" lon="-2.39517">
        <ele>32.599998474121</ele>
        <time>2021-07-01T07:47:26.000Z</time>
      </trkpt>
      <trkpt lat="47.33694" lon="-2.39464">
        <ele>32.599998474121</ele>
        <time>2021-07-01T07:47:33.000Z</time>
      </trkpt>
      <trkpt lat="47.33701" lon="-2.39414">
        <ele>32.599998474121</ele>
        <time>2021-07-01T07:47:39.000Z</time>
      </trkpt>
      <trkpt lat="47.33703" lon="-2.39389">
        <ele>32.599998474121</ele>
        <time>2021-07-01T07:47:42.000Z</time>
      </trkpt>
      <trkpt lat="47.33705" lon="-2.39373">
        <ele>32.599998474121</ele>
        <time>2021-07-01T07:47:44.000Z</time>
      </trkpt>
      <trkpt lat="47.3371" lon="-2.39322">
        <ele>32.599998474121</ele>
        <time>2021-07-01T07:47:50.000Z</time>
      </trkpt>
      <trkpt lat="47.33712" lon="-2.39308">
        <ele>32.599998474121</ele>
        <time>2021-07-01T07:47:52.000Z</time>
      </trkpt>
      <trkpt lat="47.33715" lon="-2.39304">
        <ele>32.599998474121</ele>
        <time>2021-07-01T07:47:53.000Z</time>
      </trkpt>
      <trkpt lat="47.33731" lon="-2.393">
        <ele>32.599998474121</ele>
        <time>2021-07-01T07:47:56.000Z</time>
      </trkpt>
      <trkpt lat="47.33737" lon="-2.393">
        <ele>32.599998474121</ele>
        <time>2021-07-01T07:47:57.000Z</time>
      </trkpt>
      <trkpt lat="47.33771" lon="-2.39298">
        <ele>32.599998474121</ele>
        <time>2021-07-01T07:48:02.000Z</time>
      </trkpt>
      <trkpt lat="47.33794" lon="-2.39293">
        <ele>32.200000762939</ele>
        <time>2021-07-01T07:48:05.000Z</time>
      </trkpt>
      <trkpt lat="47.33802" lon="-2.39292">
        <ele>31.799999237061</ele>
        <time>2021-07-01T07:48:06.000Z</time>
      </trkpt>
      <trkpt lat="47.3381" lon="-2.3929">
        <ele>31.200000762939</ele>
        <time>2021-07-01T07:48:07.000Z</time>
      </trkpt>
      <trkpt lat="47.33818" lon="-2.39289">
        <ele>30.799999237061</ele>
        <time>2021-07-01T07:48:08.000Z</time>
      </trkpt>
      <trkpt lat="47.33826" lon="-2.39288">
        <ele>30.39999961853</ele>
        <time>2021-07-01T07:48:09.000Z</time>
      </trkpt>
      <trkpt lat="47.33834" lon="-2.39287">
        <ele>30.39999961853</ele>
        <time>2021-07-01T07:48:10.000Z</time>
      </trkpt>
      <trkpt lat="47.33887" lon="-2.39281">
        <ele>30.39999961853</ele>
        <time>2021-07-01T07:48:17.000Z</time>
      </trkpt>
      <trkpt lat="47.33928" lon="-2.39273">
        <ele>30.39999961853</ele>
        <time>2021-07-01T07:48:23.000Z</time>
      </trkpt>
      <trkpt lat="47.33955" lon="-2.39267">
        <ele>30</ele>
        <time>2021-07-01T07:48:27.000Z</time>
      </trkpt>
      <trkpt lat="47.33961" lon="-2.39266">
        <ele>29.60000038147</ele>
        <time>2021-07-01T07:48:28.000Z</time>
      </trkpt>
      <trkpt lat="47.33968" lon="-2.39265">
        <ele>29.200000762939</ele>
        <time>2021-07-01T07:48:29.000Z</time>
      </trkpt>
      <trkpt lat="47.33975" lon="-2.39263">
        <ele>28.39999961853</ele>
        <time>2021-07-01T07:48:30.000Z</time>
      </trkpt>
      <trkpt lat="47.34023" lon="-2.39256">
        <ele>28.39999961853</ele>
        <time>2021-07-01T07:48:37.000Z</time>
      </trkpt>
      <trkpt lat="47.3403" lon="-2.39255">
        <ele>28</ele>
        <time>2021-07-01T07:48:38.000Z</time>
      </trkpt>
      <trkpt lat="47.34036" lon="-2.39255">
        <ele>27.60000038147</ele>
        <time>2021-07-01T07:48:39.000Z</time>
      </trkpt>
      <trkpt lat="47.34042" lon="-2.39255">
        <ele>27.200000762939</ele>
        <time>2021-07-01T07:48:40.000Z</time>
      </trkpt>
      <trkpt lat="47.34048" lon="-2.39256">
        <ele>26.60000038147</ele>
        <time>2021-07-01T07:48:41.000Z</time>
      </trkpt>
      <trkpt lat="47.34054" lon="-2.39257">
        <ele>26.200000762939</ele>
        <time>2021-07-01T07:48:42.000Z</time>
      </trkpt>
      <trkpt lat="47.34059" lon="-2.39258">
        <ele>26.200000762939</ele>
        <time>2021-07-01T07:48:43.000Z</time>
      </trkpt>
      <trkpt lat="47.34065" lon="-2.39268">
        <ele>26.200000762939</ele>
        <time>2021-07-01T07:48:45.000Z</time>
      </trkpt>
      <trkpt lat="47.34068" lon="-2.39282">
        <ele>26.200000762939</ele>
        <time>2021-07-01T07:48:47.000Z</time>
      </trkpt>
      <trkpt lat="47.34072" lon="-2.39304">
        <ele>26.200000762939</ele>
        <time>2021-07-01T07:48:50.000Z</time>
      </trkpt>
      <trkpt lat="47.34081" lon="-2.39357">
        <ele>26.200000762939</ele>
        <time>2021-07-01T07:48:57.000Z</time>
      </trkpt>
      <trkpt lat="47.34091" lon="-2.39414">
        <ele>26.200000762939</ele>
        <time>2021-07-01T07:49:04.000Z</time>
      </trkpt>
      <trkpt lat="47.34103" lon="-2.39428">
        <ele>26.200000762939</ele>
        <time>2021-07-01T07:49:07.000Z</time>
      </trkpt>
      <trkpt lat="47.34118" lon="-2.39422">
        <ele>26.200000762939</ele>
        <time>2021-07-01T07:49:10.000Z</time>
      </trkpt>
      <trkpt lat="47.34138" lon="-2.39411">
        <ele>26.200000762939</ele>
        <time>2021-07-01T07:49:15.000Z</time>
      </trkpt>
      <trkpt lat="47.34146" lon="-2.39405">
        <ele>26.200000762939</ele>
        <time>2021-07-01T07:49:17.000Z</time>
      </trkpt>
      <trkpt lat="47.34164" lon="-2.39391">
        <ele>26.200000762939</ele>
        <time>2021-07-01T07:49:21.000Z</time>
      </trkpt>
      <trkpt lat="47.34198" lon="-2.39369">
        <ele>26.200000762939</ele>
        <time>2021-07-01T07:49:27.000Z</time>
      </trkpt>
      <trkpt lat="47.34238" lon="-2.39343">
        <ele>26.200000762939</ele>
        <time>2021-07-01T07:49:34.000Z</time>
      </trkpt>
      <trkpt lat="47.34281" lon="-2.39317">
        <ele>26.200000762939</ele>
        <time>2021-07-01T07:49:41.000Z</time>
      </trkpt>
      <trkpt lat="47.34316" lon="-2.393">
        <ele>26.200000762939</ele>
        <time>2021-07-01T07:49:47.000Z</time>
      </trkpt>
      <trkpt lat="47.34333" lon="-2.3929">
        <ele>25.799999237061</ele>
        <time>2021-07-01T07:49:50.000Z</time>
      </trkpt>
      <trkpt lat="47.3434" lon="-2.39287">
        <ele>25.39999961853</ele>
        <time>2021-07-01T07:49:51.000Z</time>
      </trkpt>
      <trkpt lat="47.34346" lon="-2.39283">
        <ele>25</ele>
        <time>2021-07-01T07:49:52.000Z</time>
      </trkpt>
      <trkpt lat="47.34353" lon="-2.3928">
        <ele>24.60000038147</ele>
        <time>2021-07-01T07:49:53.000Z</time>
      </trkpt>
      <trkpt lat="47.3436" lon="-2.39276">
        <ele>24.200000762939</ele>
        <time>2021-07-01T07:49:54.000Z</time>
      </trkpt>
      <trkpt lat="47.34388" lon="-2.39263">
        <ele>23.799999237061</ele>
        <time>2021-07-01T07:49:58.000Z</time>
      </trkpt>
      <trkpt lat="47.34395" lon="-2.3926">
        <ele>23.200000762939</ele>
        <time>2021-07-01T07:49:59.000Z</time>
      </trkpt>
      <trkpt lat="47.34403" lon="-2.39257">
        <ele>22.799999237061</ele>
        <time>2021-07-01T07:50:00.000Z</time>
      </trkpt>
      <trkpt lat="47.3441" lon="-2.39255">
        <ele>22.39999961853</ele>
        <time>2021-07-01T07:50:01.000Z</time>
      </trkpt>
      <trkpt lat="47.34417" lon="-2.39253">
        <ele>21.799999237061</ele>
        <time>2021-07-01T07:50:02.000Z</time>
      </trkpt>
      <trkpt lat="47.34423" lon="-2.39251">
        <ele>21.39999961853</ele>
        <time>2021-07-01T07:50:03.000Z</time>
      </trkpt>
      <trkpt lat="47.3443" lon="-2.39249">
        <ele>21</ele>
        <time>2021-07-01T07:50:04.000Z</time>
      </trkpt>
      <trkpt lat="47.34437" lon="-2.39247">
        <ele>20.60000038147</ele>
        <time>2021-07-01T07:50:05.000Z</time>
      </trkpt>
      <trkpt lat="47.34444" lon="-2.39245">
        <ele>20.200000762939</ele>
        <time>2021-07-01T07:50:06.000Z</time>
      </trkpt>
      <trkpt lat="47.34451" lon="-2.39243">
        <ele>19.799999237061</ele>
        <time>2021-07-01T07:50:07.000Z</time>
      </trkpt>
      <trkpt lat="47.34466" lon="-2.39239">
        <ele>19.39999961853</ele>
        <time>2021-07-01T07:50:09.000Z</time>
      </trkpt>
      <trkpt lat="47.34474" lon="-2.39237">
        <ele>18.799999237061</ele>
        <time>2021-07-01T07:50:10.000Z</time>
      </trkpt>
      <trkpt lat="47.34481" lon="-2.39234">
        <ele>18.39999961853</ele>
        <time>2021-07-01T07:50:11.000Z</time>
      </trkpt>
      <trkpt lat="47.34489" lon="-2.39232">
        <ele>18</ele>
        <time>2021-07-01T07:50:12.000Z</time>
      </trkpt>
      <trkpt lat="47.34496" lon="-2.3923">
        <ele>17.39999961853</ele>
        <time>2021-07-01T07:50:13.000Z</time>
      </trkpt>
      <trkpt lat="47.3453" lon="-2.39227">
        <ele>17</ele>
        <time>2021-07-01T07:50:17.000Z</time>
      </trkpt>
      <trkpt lat="47.34538" lon="-2.39227">
        <ele>16.60000038147</ele>
        <time>2021-07-01T07:50:18.000Z</time>
      </trkpt>
      <trkpt lat="47.34547" lon="-2.39229">
        <ele>16</ele>
        <time>2021-07-01T07:50:19.000Z</time>
      </trkpt>
      <trkpt lat="47.34555" lon="-2.39231">
        <ele>15.60000038147</ele>
        <time>2021-07-01T07:50:20.000Z</time>
      </trkpt>
      <trkpt lat="47.34563" lon="-2.39233">
        <ele>15.199999809265</ele>
        <time>2021-07-01T07:50:21.000Z</time>
      </trkpt>
      <trkpt lat="47.34571" lon="-2.39237">
        <ele>15.199999809265</ele>
        <time>2021-07-01T07:50:22.000Z</time>
      </trkpt>
      <trkpt lat="47.34608" lon="-2.39258">
        <ele>15.199999809265</ele>
        <time>2021-07-01T07:50:27.000Z</time>
      </trkpt>
      <trkpt lat="47.34642" lon="-2.39286">
        <ele>15.199999809265</ele>
        <time>2021-07-01T07:50:33.000Z</time>
      </trkpt>
      <trkpt lat="47.34659" lon="-2.39305">
        <ele>15.199999809265</ele>
        <time>2021-07-01T07:50:37.000Z</time>
      </trkpt>
      <trkpt lat="47.3466" lon="-2.39311">
        <ele>15.199999809265</ele>
        <time>2021-07-01T07:50:38.000Z</time>
      </trkpt>
      <trkpt lat="47.34655" lon="-2.39329">
        <ele>15.199999809265</ele>
        <time>2021-07-01T07:50:41.000Z</time>
      </trkpt>
      <trkpt lat="47.34652" lon="-2.39334">
        <ele>15.199999809265</ele>
        <time>2021-07-01T07:50:42.000Z</time>
      </trkpt>
      <trkpt lat="47.34634" lon="-2.39363">
        <ele>15.199999809265</ele>
        <time>2021-07-01T07:50:47.000Z</time>
      </trkpt>
      <trkpt lat="47.34607" lon="-2.39406">
        <ele>15.199999809265</ele>
        <time>2021-07-01T07:50:54.000Z</time>
      </trkpt>
      <trkpt lat="47.3459" lon="-2.3943">
        <ele>15.199999809265</ele>
        <time>2021-07-01T07:50:58.000Z</time>
      </trkpt>
      <trkpt lat="47.34582" lon="-2.3944">
        <ele>15.199999809265</ele>
        <time>2021-07-01T07:51:00.000Z</time>
      </trkpt>
      <trkpt lat="47.34559" lon="-2.39466">
        <ele>15.199999809265</ele>
        <time>2021-07-01T07:51:05.000Z</time>
      </trkpt>
      <trkpt lat="47.34556" lon="-2.39473">
        <ele>15.60000038147</ele>
        <time>2021-07-01T07:51:06.000Z</time>
      </trkpt>
      <trkpt lat="47.34554" lon="-2.3948">
        <ele>16</ele>
        <time>2021-07-01T07:51:07.000Z</time>
      </trkpt>
      <trkpt lat="47.34552" lon="-2.39487">
        <ele>16.39999961853</ele>
        <time>2021-07-01T07:51:08.000Z</time>
      </trkpt>
      <trkpt lat="47.3455" lon="-2.39493">
        <ele>16.799999237061</ele>
        <time>2021-07-01T07:51:09.000Z</time>
      </trkpt>
      <trkpt lat="47.3455" lon="-2.39497">
        <ele>17.200000762939</ele>
        <time>2021-07-01T07:51:10.000Z</time>
      </trkpt>
      <trkpt lat="47.3455" lon="-2.395">
        <ele>17.200000762939</ele>
        <time>2021-07-01T07:51:13.000Z</time>
      </trkpt>
      <trkpt lat="47.3455" lon="-2.39498">
        <ele>17.200000762939</ele>
        <time>2021-07-01T07:51:18.000Z</time>
      </trkpt>
      <trkpt lat="47.34551" lon="-2.39496">
        <ele>17.200000762939</ele>
        <time>2021-07-01T07:51:20.000Z</time>
      </trkpt>
      <trkpt lat="47.34551" lon="-2.39496">
        <ele>17.200000762939</ele>
        <time>2021-07-01T07:51:22.000Z</time>
      </trkpt>
      <trkpt lat="47.3455" lon="-2.39498">
        <ele>17.200000762939</ele>
        <time>2021-07-01T07:51:48.000Z</time>
      </trkpt>
      <trkpt lat="47.3455" lon="-2.39501">
        <ele>17.200000762939</ele>
        <time>2021-07-01T07:51:49.000Z</time>
      </trkpt>
      <trkpt lat="47.34546" lon="-2.39519">
        <ele>17.200000762939</ele>
        <time>2021-07-01T07:51:55.000Z</time>
      </trkpt>
      <trkpt lat="47.34542" lon="-2.39545">
        <ele>17.200000762939</ele>
        <time>2021-07-01T07:52:02.000Z</time>
      </trkpt>
      <trkpt lat="47.34533" lon="-2.39576">
        <ele>17.200000762939</ele>
        <time>2021-07-01T07:52:09.000Z</time>
      </trkpt>
      <trkpt lat="47.34531" lon="-2.3958">
        <ele>17.60000038147</ele>
        <time>2021-07-01T07:52:10.000Z</time>
      </trkpt>
      <trkpt lat="47.34529" lon="-2.39585">
        <ele>18</ele>
        <time>2021-07-01T07:52:11.000Z</time>
      </trkpt>
      <trkpt lat="47.34527" lon="-2.39589">
        <ele>18.799999237061</ele>
        <time>2021-07-01T07:52:12.000Z</time>
      </trkpt>
      <trkpt lat="47.34525" lon="-2.39594">
        <ele>19.200000762939</ele>
        <time>2021-07-01T07:52:13.000Z</time>
      </trkpt>
      <trkpt lat="47.3452" lon="-2.39604">
        <ele>19.200000762939</ele>
        <time>2021-07-01T07:52:15.000Z</time>
      </trkpt>
      <trkpt lat="47.34512" lon="-2.39627">
        <ele>19.200000762939</ele>
        <time>2021-07-01T07:52:19.000Z</time>
      </trkpt>
      <trkpt lat="47.3451" lon="-2.39632">
        <ele>19.200000762939</ele>
        <time>2021-07-01T07:52:20.000Z</time>
      </trkpt>
      <trkpt lat="47.34489" lon="-2.39669">
        <ele>19.200000762939</ele>
        <time>2021-07-01T07:52:27.000Z</time>
      </trkpt>
      <trkpt lat="47.34478" lon="-2.39696">
        <ele>19.200000762939</ele>
        <time>2021-07-01T07:52:31.000Z</time>
      </trkpt>
      <trkpt lat="47.34477" lon="-2.39703">
        <ele>19.200000762939</ele>
        <time>2021-07-01T07:52:32.000Z</time>
      </trkpt>
      <trkpt lat="47.34473" lon="-2.39743">
        <ele>19.200000762939</ele>
        <time>2021-07-01T07:52:37.000Z</time>
      </trkpt>
      <trkpt lat="47.34472" lon="-2.39751">
        <ele>19.200000762939</ele>
        <time>2021-07-01T07:52:38.000Z</time>
      </trkpt>
      <trkpt lat="47.34476" lon="-2.39763">
        <ele>19.200000762939</ele>
        <time>2021-07-01T07:52:40.000Z</time>
      </trkpt>
      <trkpt lat="47.34479" lon="-2.39765">
        <ele>19.200000762939</ele>
        <time>2021-07-01T07:52:41.000Z</time>
      </trkpt>
      <trkpt lat="47.34484" lon="-2.39769">
        <ele>19.200000762939</ele>
        <time>2021-07-01T07:52:43.000Z</time>
      </trkpt>
      <trkpt lat="47.34494" lon="-2.39776">
        <ele>19.200000762939</ele>
        <time>2021-07-01T07:52:48.000Z</time>
      </trkpt>
      <trkpt lat="47.34496" lon="-2.39775">
        <ele>17</ele>
        <time>2021-07-01T07:53:26.000Z</time>
      </trkpt>
      <trkpt lat="47.34502" lon="-2.39777">
        <ele>17</ele>
        <time>2021-07-01T07:53:28.000Z</time>
      </trkpt>
      <trkpt lat="47.34513" lon="-2.39783">
        <ele>17</ele>
        <time>2021-07-01T07:53:31.000Z</time>
      </trkpt>
      <trkpt lat="47.34521" lon="-2.39791">
        <ele>17</ele>
        <time>2021-07-01T07:53:33.000Z</time>
      </trkpt>
      <trkpt lat="47.3455" lon="-2.39819">
        <ele>17</ele>
        <time>2021-07-01T07:53:40.000Z</time>
      </trkpt>
      <trkpt lat="47.3459" lon="-2.3985">
        <ele>17</ele>
        <time>2021-07-01T07:53:48.000Z</time>
      </trkpt>
      <trkpt lat="47.34607" lon="-2.39859">
        <ele>17</ele>
        <time>2021-07-01T07:53:52.000Z</time>
      </trkpt>
      <trkpt lat="47.34611" lon="-2.39863">
        <ele>17</ele>
        <time>2021-07-01T07:53:56.000Z</time>
      </trkpt>
      <trkpt lat="47.34612" lon="-2.39865">
        <ele>17</ele>
        <time>2021-07-01T07:54:10.000Z</time>
      </trkpt>
      <trkpt lat="47.34612" lon="-2.39874">
        <ele>17</ele>
        <time>2021-07-01T07:54:13.000Z</time>
      </trkpt>
      <trkpt lat="47.34612" lon="-2.39878">
        <ele>17</ele>
        <time>2021-07-01T07:54:14.000Z</time>
      </trkpt>
      <trkpt lat="47.34609" lon="-2.39897">
        <ele>17</ele>
        <time>2021-07-01T07:54:18.000Z</time>
      </trkpt>
      <trkpt lat="47.34603" lon="-2.3992">
        <ele>17</ele>
        <time>2021-07-01T07:54:23.000Z</time>
      </trkpt>
      <trkpt lat="47.34596" lon="-2.39942">
        <ele>17</ele>
        <time>2021-07-01T07:54:30.000Z</time>
      </trkpt>
      <trkpt lat="47.34597" lon="-2.39947">
        <ele>17</ele>
        <time>2021-07-01T07:54:33.000Z</time>
      </trkpt>
      <trkpt lat="47.34599" lon="-2.39951">
        <ele>17</ele>
        <time>2021-07-01T07:54:57.000Z</time>
      </trkpt>
      <trkpt lat="47.34598" lon="-2.39958">
        <ele>17</ele>
        <time>2021-07-01T07:54:59.000Z</time>
      </trkpt>
      <trkpt lat="47.34595" lon="-2.39965">
        <ele>17</ele>
        <time>2021-07-01T07:55:01.000Z</time>
      </trkpt>
      <trkpt lat="47.34586" lon="-2.39977">
        <ele>17</ele>
        <time>2021-07-01T07:55:06.000Z</time>
      </trkpt>
      <trkpt lat="47.34585" lon="-2.39986">
        <ele>17</ele>
        <time>2021-07-01T07:55:09.000Z</time>
      </trkpt>
      <trkpt lat="47.34587" lon="-2.3999">
        <ele>17</ele>
        <time>2021-07-01T07:55:10.000Z</time>
      </trkpt>
      <trkpt lat="47.34596" lon="-2.40001">
        <ele>17</ele>
        <time>2021-07-01T07:55:13.000Z</time>
      </trkpt>
      <trkpt lat="47.34598" lon="-2.40007">
        <ele>17</ele>
        <time>2021-07-01T07:55:14.000Z</time>
      </trkpt>
      <trkpt lat="47.34621" lon="-2.40045">
        <ele>17</ele>
        <time>2021-07-01T07:55:20.000Z</time>
      </trkpt>
      <trkpt lat="47.34646" lon="-2.40088">
        <ele>17</ele>
        <time>2021-07-01T07:55:26.000Z</time>
      </trkpt>
      <trkpt lat="47.3466" lon="-2.40107">
        <ele>17</ele>
        <time>2021-07-01T07:55:29.000Z</time>
      </trkpt>
      <trkpt lat="47.34676" lon="-2.40121">
        <ele>17</ele>
        <time>2021-07-01T07:55:32.000Z</time>
      </trkpt>
      <trkpt lat="47.34699" lon="-2.40128">
        <ele>17</ele>
        <time>2021-07-01T07:55:36.000Z</time>
      </trkpt>
      <trkpt lat="47.34718" lon="-2.40134">
        <ele>17</ele>
        <time>2021-07-01T07:55:39.000Z</time>
      </trkpt>
      <trkpt lat="47.34729" lon="-2.40142">
        <ele>17</ele>
        <time>2021-07-01T07:55:41.000Z</time>
      </trkpt>
      <trkpt lat="47.34749" lon="-2.40167">
        <ele>17</ele>
        <time>2021-07-01T07:55:45.000Z</time>
      </trkpt>
      <trkpt lat="47.34776" lon="-2.40205">
        <ele>17</ele>
        <time>2021-07-01T07:55:51.000Z</time>
      </trkpt>
      <trkpt lat="47.34781" lon="-2.4021">
        <ele>17</ele>
        <time>2021-07-01T07:55:52.000Z</time>
      </trkpt>
      <trkpt lat="47.34799" lon="-2.40225">
        <ele>17</ele>
        <time>2021-07-01T07:55:55.000Z</time>
      </trkpt>
      <trkpt lat="47.34808" lon="-2.40241">
        <ele>16.60000038147</ele>
        <time>2021-07-01T07:55:57.000Z</time>
      </trkpt>
      <trkpt lat="47.34813" lon="-2.4025">
        <ele>16.200000762939</ele>
        <time>2021-07-01T07:55:58.000Z</time>
      </trkpt>
      <trkpt lat="47.34817" lon="-2.40259">
        <ele>15.800000190735</ele>
        <time>2021-07-01T07:55:59.000Z</time>
      </trkpt>
      <trkpt lat="47.34821" lon="-2.40268">
        <ele>15.39999961853</ele>
        <time>2021-07-01T07:56:00.000Z</time>
      </trkpt>
      <trkpt lat="47.34825" lon="-2.40276">
        <ele>15</ele>
        <time>2021-07-01T07:56:01.000Z</time>
      </trkpt>
      <trkpt lat="47.34847" lon="-2.40317">
        <ele>15</ele>
        <time>2021-07-01T07:56:06.000Z</time>
      </trkpt>
      <trkpt lat="47.34861" lon="-2.40368">
        <ele>15</ele>
        <time>2021-07-01T07:56:11.000Z</time>
      </trkpt>
      <trkpt lat="47.34863" lon="-2.40379">
        <ele>14.60000038147</ele>
        <time>2021-07-01T07:56:12.000Z</time>
      </trkpt>
      <trkpt lat="47.34865" lon="-2.40391">
        <ele>14</ele>
        <time>2021-07-01T07:56:13.000Z</time>
      </trkpt>
      <trkpt lat="47.34867" lon="-2.40402">
        <ele>13.60000038147</ele>
        <time>2021-07-01T07:56:14.000Z</time>
      </trkpt>
      <trkpt lat="47.3487" lon="-2.40412">
        <ele>13.199999809265</ele>
        <time>2021-07-01T07:56:15.000Z</time>
      </trkpt>
      <trkpt lat="47.34872" lon="-2.40423">
        <ele>12.800000190735</ele>
        <time>2021-07-01T07:56:16.000Z</time>
      </trkpt>
      <trkpt lat="47.3488" lon="-2.40469">
        <ele>12.800000190735</ele>
        <time>2021-07-01T07:56:20.000Z</time>
      </trkpt>
      <trkpt lat="47.34887" lon="-2.40505">
        <ele>12.39999961853</ele>
        <time>2021-07-01T07:56:23.000Z</time>
      </trkpt>
      <trkpt lat="47.34889" lon="-2.40517">
        <ele>12</ele>
        <time>2021-07-01T07:56:24.000Z</time>
      </trkpt>
      <trkpt lat="47.3489" lon="-2.4053">
        <ele>11.60000038147</ele>
        <time>2021-07-01T07:56:25.000Z</time>
      </trkpt>
      <trkpt lat="47.3489" lon="-2.40542">
        <ele>11.199999809265</ele>
        <time>2021-07-01T07:56:26.000Z</time>
      </trkpt>
      <trkpt lat="47.34889" lon="-2.40553">
        <ele>10.800000190735</ele>
        <time>2021-07-01T07:56:27.000Z</time>
      </trkpt>
      <trkpt lat="47.34885" lon="-2.40563">
        <ele>10.800000190735</ele>
        <time>2021-07-01T07:56:29.000Z</time>
      </trkpt>
      <trkpt lat="47.34866" lon="-2.40593">
        <ele>10.800000190735</ele>
        <time>2021-07-01T07:56:33.000Z</time>
      </trkpt>
      <trkpt lat="47.34843" lon="-2.40622">
        <ele>10.800000190735</ele>
        <time>2021-07-01T07:56:37.000Z</time>
      </trkpt>
      <trkpt lat="47.3484" lon="-2.40632">
        <ele>10.800000190735</ele>
        <time>2021-07-01T07:56:38.000Z</time>
      </trkpt>
      <trkpt lat="47.34826" lon="-2.40675">
        <ele>10.800000190735</ele>
        <time>2021-07-01T07:56:43.000Z</time>
      </trkpt>
      <trkpt lat="47.34823" lon="-2.40718">
        <ele>10.800000190735</ele>
        <time>2021-07-01T07:56:49.000Z</time>
      </trkpt>
      <trkpt lat="47.34823" lon="-2.40739">
        <ele>10.800000190735</ele>
        <time>2021-07-01T07:56:52.000Z</time>
      </trkpt>
      <trkpt lat="47.34826" lon="-2.40758">
        <ele>10.800000190735</ele>
        <time>2021-07-01T07:56:55.000Z</time>
      </trkpt>
      <trkpt lat="47.34829" lon="-2.40764">
        <ele>10.800000190735</ele>
        <time>2021-07-01T07:56:56.000Z</time>
      </trkpt>
      <trkpt lat="47.34837" lon="-2.40773">
        <ele>10.800000190735</ele>
        <time>2021-07-01T07:56:58.000Z</time>
      </trkpt>
      <trkpt lat="47.34859" lon="-2.40777">
        <ele>10.800000190735</ele>
        <time>2021-07-01T07:57:02.000Z</time>
      </trkpt>
      <trkpt lat="47.3487" lon="-2.40776">
        <ele>10.800000190735</ele>
        <time>2021-07-01T07:57:04.000Z</time>
      </trkpt>
      <trkpt lat="47.34886" lon="-2.40777">
        <ele>10.800000190735</ele>
        <time>2021-07-01T07:57:07.000Z</time>
      </trkpt>
      <trkpt lat="47.34891" lon="-2.4078">
        <ele>10.800000190735</ele>
        <time>2021-07-01T07:57:08.000Z</time>
      </trkpt>
      <trkpt lat="47.34903" lon="-2.40797">
        <ele>10.800000190735</ele>
        <time>2021-07-01T07:57:11.000Z</time>
      </trkpt>
      <trkpt lat="47.34906" lon="-2.40804">
        <ele>10.800000190735</ele>
        <time>2021-07-01T07:57:12.000Z</time>
      </trkpt>
      <trkpt lat="47.34923" lon="-2.4084">
        <ele>11.199999809265</ele>
        <time>2021-07-01T07:57:17.000Z</time>
      </trkpt>
      <trkpt lat="47.34927" lon="-2.40848">
        <ele>11.60000038147</ele>
        <time>2021-07-01T07:57:18.000Z</time>
      </trkpt>
      <trkpt lat="47.3493" lon="-2.40856">
        <ele>12</ele>
        <time>2021-07-01T07:57:19.000Z</time>
      </trkpt>
      <trkpt lat="47.34932" lon="-2.40865">
        <ele>12.39999961853</ele>
        <time>2021-07-01T07:57:20.000Z</time>
      </trkpt>
      <trkpt lat="47.34935" lon="-2.40874">
        <ele>12.800000190735</ele>
        <time>2021-07-01T07:57:21.000Z</time>
      </trkpt>
      <trkpt lat="47.34939" lon="-2.40893">
        <ele>12.800000190735</ele>
        <time>2021-07-01T07:57:23.000Z</time>
      </trkpt>
      <trkpt lat="47.3494" lon="-2.40901">
        <ele>12.800000190735</ele>
        <time>2021-07-01T07:57:24.000Z</time>
      </trkpt>
      <trkpt lat="47.34944" lon="-2.40945">
        <ele>12.800000190735</ele>
        <time>2021-07-01T07:57:29.000Z</time>
      </trkpt>
      <trkpt lat="47.3494" lon="-2.41008">
        <ele>12.800000190735</ele>
        <time>2021-07-01T07:57:36.000Z</time>
      </trkpt>
      <trkpt lat="47.34937" lon="-2.41035">
        <ele>12.800000190735</ele>
        <time>2021-07-01T07:57:39.000Z</time>
      </trkpt>
      <trkpt lat="47.3494" lon="-2.41055">
        <ele>12.800000190735</ele>
        <time>2021-07-01T07:57:41.000Z</time>
      </trkpt>
      <trkpt lat="47.34951" lon="-2.41083">
        <ele>12.800000190735</ele>
        <time>2021-07-01T07:57:44.000Z</time>
      </trkpt>
      <trkpt lat="47.34955" lon="-2.41091">
        <ele>12.800000190735</ele>
        <time>2021-07-01T07:57:45.000Z</time>
      </trkpt>
      <trkpt lat="47.34976" lon="-2.41142">
        <ele>12.800000190735</ele>
        <time>2021-07-01T07:57:51.000Z</time>
      </trkpt>
      <trkpt lat="47.34992" lon="-2.41181">
        <ele>12.800000190735</ele>
        <time>2021-07-01T07:57:56.000Z</time>
      </trkpt>
      <trkpt lat="47.35013" lon="-2.41228">
        <ele>12.800000190735</ele>
        <time>2021-07-01T07:58:02.000Z</time>
      </trkpt>
      <trkpt lat="47.35023" lon="-2.41252">
        <ele>12.800000190735</ele>
        <time>2021-07-01T07:58:05.000Z</time>
      </trkpt>
      <trkpt lat="47.3503" lon="-2.41269">
        <ele>12.800000190735</ele>
        <time>2021-07-01T07:58:07.000Z</time>
      </trkpt>
      <trkpt lat="47.3504" lon="-2.41292">
        <ele>12.800000190735</ele>
        <time>2021-07-01T07:58:10.000Z</time>
      </trkpt>
      <trkpt lat="47.35047" lon="-2.41307">
        <ele>12.800000190735</ele>
        <time>2021-07-01T07:58:12.000Z</time>
      </trkpt>
      <trkpt lat="47.35067" lon="-2.41351">
        <ele>12.800000190735</ele>
        <time>2021-07-01T07:58:18.000Z</time>
      </trkpt>
      <trkpt lat="47.35083" lon="-2.41388">
        <ele>11.800000190735</ele>
        <time>2021-07-01T07:58:23.000Z</time>
      </trkpt>
      <trkpt lat="47.35087" lon="-2.41392">
        <ele>11.39999961853</ele>
        <time>2021-07-01T07:58:24.000Z</time>
      </trkpt>
      <trkpt lat="47.3509" lon="-2.41395">
        <ele>11</ele>
        <time>2021-07-01T07:58:25.000Z</time>
      </trkpt>
      <trkpt lat="47.35093" lon="-2.41396">
        <ele>10.60000038147</ele>
        <time>2021-07-01T07:58:26.000Z</time>
      </trkpt>
      <trkpt lat="47.35096" lon="-2.41396">
        <ele>10.60000038147</ele>
        <time>2021-07-01T07:58:27.000Z</time>
      </trkpt>
      <trkpt lat="47.35113" lon="-2.41388">
        <ele>10.60000038147</ele>
        <time>2021-07-01T07:58:31.000Z</time>
      </trkpt>
      <trkpt lat="47.35145" lon="-2.41369">
        <ele>10.60000038147</ele>
        <time>2021-07-01T07:58:37.000Z</time>
      </trkpt>
      <trkpt lat="47.35169" lon="-2.41355">
        <ele>10.60000038147</ele>
        <time>2021-07-01T07:58:41.000Z</time>
      </trkpt>
      <trkpt lat="47.35175" lon="-2.41355">
        <ele>10.60000038147</ele>
        <time>2021-07-01T07:58:42.000Z</time>
      </trkpt>
      <trkpt lat="47.35194" lon="-2.41368">
        <ele>10.60000038147</ele>
        <time>2021-07-01T07:58:45.000Z</time>
      </trkpt>
      <trkpt lat="47.35205" lon="-2.41382">
        <ele>10.60000038147</ele>
        <time>2021-07-01T07:58:47.000Z</time>
      </trkpt>
      <trkpt lat="47.35215" lon="-2.41395">
        <ele>10.60000038147</ele>
        <time>2021-07-01T07:58:49.000Z</time>
      </trkpt>
      <trkpt lat="47.35223" lon="-2.41409">
        <ele>10.60000038147</ele>
        <time>2021-07-01T07:58:51.000Z</time>
      </trkpt>
      <trkpt lat="47.35232" lon="-2.41425">
        <ele>10.60000038147</ele>
        <time>2021-07-01T07:58:53.000Z</time>
      </trkpt>
      <trkpt lat="47.35246" lon="-2.41442">
        <ele>10.60000038147</ele>
        <time>2021-07-01T07:58:56.000Z</time>
      </trkpt>
      <trkpt lat="47.35262" lon="-2.41447">
        <ele>10.60000038147</ele>
        <time>2021-07-01T07:58:59.000Z</time>
      </trkpt>
      <trkpt lat="47.35283" lon="-2.41439">
        <ele>10.60000038147</ele>
        <time>2021-07-01T07:59:03.000Z</time>
      </trkpt>
      <trkpt lat="47.353" lon="-2.41416">
        <ele>10.60000038147</ele>
        <time>2021-07-01T07:59:07.000Z</time>
      </trkpt>
      <trkpt lat="47.35304" lon="-2.41408">
        <ele>10.60000038147</ele>
        <time>2021-07-01T07:59:08.000Z</time>
      </trkpt>
      <trkpt lat="47.35322" lon="-2.41377">
        <ele>10.60000038147</ele>
        <time>2021-07-01T07:59:12.000Z</time>
      </trkpt>
      <trkpt lat="47.35357" lon="-2.41325">
        <ele>10.60000038147</ele>
        <time>2021-07-01T07:59:19.000Z</time>
      </trkpt>
      <trkpt lat="47.35374" lon="-2.41301">
        <ele>10.60000038147</ele>
        <time>2021-07-01T07:59:23.000Z</time>
      </trkpt>
      <trkpt lat="47.35378" lon="-2.41295">
        <ele>10.60000038147</ele>
        <time>2021-07-01T07:59:24.000Z</time>
      </trkpt>
      <trkpt lat="47.35393" lon="-2.41281">
        <ele>10.60000038147</ele>
        <time>2021-07-01T07:59:27.000Z</time>
      </trkpt>
      <trkpt lat="47.35408" lon="-2.41269">
        <ele>10.60000038147</ele>
        <time>2021-07-01T07:59:30.000Z</time>
      </trkpt>
      <trkpt lat="47.35422" lon="-2.41255">
        <ele>10.60000038147</ele>
        <time>2021-07-01T07:59:33.000Z</time>
      </trkpt>
      <trkpt lat="47.35431" lon="-2.41243">
        <ele>10.60000038147</ele>
        <time>2021-07-01T07:59:35.000Z</time>
      </trkpt>
      <trkpt lat="47.3545" lon="-2.41214">
        <ele>10.60000038147</ele>
        <time>2021-07-01T07:59:40.000Z</time>
      </trkpt>
      <trkpt lat="47.3546" lon="-2.41204">
        <ele>10.60000038147</ele>
        <time>2021-07-01T07:59:42.000Z</time>
      </trkpt>
      <trkpt lat="47.35472" lon="-2.41195">
        <ele>10.60000038147</ele>
        <time>2021-07-01T07:59:44.000Z</time>
      </trkpt>
      <trkpt lat="47.35496" lon="-2.41178">
        <ele>10.60000038147</ele>
        <time>2021-07-01T07:59:48.000Z</time>
      </trkpt>
      <trkpt lat="47.3554" lon="-2.41142">
        <ele>10.60000038147</ele>
        <time>2021-07-01T07:59:56.000Z</time>
      </trkpt>
      <trkpt lat="47.35586" lon="-2.41105">
        <ele>10.60000038147</ele>
        <time>2021-07-01T08:00:04.000Z</time>
      </trkpt>
      <trkpt lat="47.3562" lon="-2.41066">
        <ele>10.60000038147</ele>
        <time>2021-07-01T08:00:10.000Z</time>
      </trkpt>
      <trkpt lat="47.35652" lon="-2.41026">
        <ele>10.60000038147</ele>
        <time>2021-07-01T08:00:16.000Z</time>
      </trkpt>
      <trkpt lat="47.35686" lon="-2.40975">
        <ele>10.60000038147</ele>
        <time>2021-07-01T08:00:24.000Z</time>
      </trkpt>
      <trkpt lat="47.35694" lon="-2.40966">
        <ele>10.60000038147</ele>
        <time>2021-07-01T08:00:28.000Z</time>
      </trkpt>
      <trkpt lat="47.35697" lon="-2.40966">
        <ele>10.60000038147</ele>
        <time>2021-07-01T08:00:33.000Z</time>
      </trkpt>
      <trkpt lat="47.35704" lon="-2.40956">
        <ele>10.60000038147</ele>
        <time>2021-07-01T08:00:37.000Z</time>
      </trkpt>
      <trkpt lat="47.35715" lon="-2.40933">
        <ele>10.60000038147</ele>
        <time>2021-07-01T08:00:42.000Z</time>
      </trkpt>
      <trkpt lat="47.3574" lon="-2.40895">
        <ele>10.60000038147</ele>
        <time>2021-07-01T08:00:49.000Z</time>
      </trkpt>
      <trkpt lat="47.35765" lon="-2.4086">
        <ele>10.60000038147</ele>
        <time>2021-07-01T08:00:55.000Z</time>
      </trkpt>
      <trkpt lat="47.35796" lon="-2.40815">
        <ele>10.60000038147</ele>
        <time>2021-07-01T08:01:02.000Z</time>
      </trkpt>
      <trkpt lat="47.35826" lon="-2.40767">
        <ele>10.60000038147</ele>
        <time>2021-07-01T08:01:09.000Z</time>
      </trkpt>
      <trkpt lat="47.35852" lon="-2.40725">
        <ele>10.60000038147</ele>
        <time>2021-07-01T08:01:15.000Z</time>
      </trkpt>
      <trkpt lat="47.35857" lon="-2.40697">
        <ele>10.60000038147</ele>
        <time>2021-07-01T08:01:18.000Z</time>
      </trkpt>
      <trkpt lat="47.3586" lon="-2.4068">
        <ele>10.60000038147</ele>
        <time>2021-07-01T08:01:20.000Z</time>
      </trkpt>
      <trkpt lat="47.35866" lon="-2.40664">
        <ele>10.60000038147</ele>
        <time>2021-07-01T08:01:22.000Z</time>
      </trkpt>
      <trkpt lat="47.35874" lon="-2.40648">
        <ele>10.60000038147</ele>
        <time>2021-07-01T08:01:24.000Z</time>
      </trkpt>
      <trkpt lat="47.35882" lon="-2.40634">
        <ele>10.60000038147</ele>
        <time>2021-07-01T08:01:26.000Z</time>
      </trkpt>
      <trkpt lat="47.35891" lon="-2.4062">
        <ele>10.60000038147</ele>
        <time>2021-07-01T08:01:28.000Z</time>
      </trkpt>
      <trkpt lat="47.35914" lon="-2.40578">
        <ele>10.60000038147</ele>
        <time>2021-07-01T08:01:34.000Z</time>
      </trkpt>
      <trkpt lat="47.35919" lon="-2.40571">
        <ele>10.60000038147</ele>
        <time>2021-07-01T08:01:35.000Z</time>
      </trkpt>
      <trkpt lat="47.35943" lon="-2.40538">
        <ele>10.60000038147</ele>
        <time>2021-07-01T08:01:40.000Z</time>
      </trkpt>
      <trkpt lat="47.35953" lon="-2.40526">
        <ele>10.60000038147</ele>
        <time>2021-07-01T08:01:42.000Z</time>
      </trkpt>
      <trkpt lat="47.35966" lon="-2.40505">
        <ele>10.60000038147</ele>
        <time>2021-07-01T08:01:45.000Z</time>
      </trkpt>
      <trkpt lat="47.36004" lon="-2.40454">
        <ele>10.60000038147</ele>
        <time>2021-07-01T08:01:53.000Z</time>
      </trkpt>
      <trkpt lat="47.36022" lon="-2.40427">
        <ele>10.60000038147</ele>
        <time>2021-07-01T08:01:57.000Z</time>
      </trkpt>
      <trkpt lat="47.36024" lon="-2.4042">
        <ele>10.60000038147</ele>
        <time>2021-07-01T08:01:58.000Z</time>
      </trkpt>
      <trkpt lat="47.36026" lon="-2.40394">
        <ele>10.60000038147</ele>
        <time>2021-07-01T08:02:01.000Z</time>
      </trkpt>
      <trkpt lat="47.36026" lon="-2.40385">
        <ele>10.60000038147</ele>
        <time>2021-07-01T08:02:02.000Z</time>
      </trkpt>
      <trkpt lat="47.36029" lon="-2.40335">
        <ele>10.60000038147</ele>
        <time>2021-07-01T08:02:08.000Z</time>
      </trkpt>
      <trkpt lat="47.36031" lon="-2.40328">
        <ele>10.60000038147</ele>
        <time>2021-07-01T08:02:09.000Z</time>
      </trkpt>
      <trkpt lat="47.3604" lon="-2.40307">
        <ele>10.60000038147</ele>
        <time>2021-07-01T08:02:12.000Z</time>
      </trkpt>
      <trkpt lat="47.36043" lon="-2.40301">
        <ele>10.60000038147</ele>
        <time>2021-07-01T08:02:13.000Z</time>
      </trkpt>
      <trkpt lat="47.36061" lon="-2.4028">
        <ele>10.60000038147</ele>
        <time>2021-07-01T08:02:17.000Z</time>
      </trkpt>
      <trkpt lat="47.36073" lon="-2.4027">
        <ele>10.60000038147</ele>
        <time>2021-07-01T08:02:19.000Z</time>
      </trkpt>
      <trkpt lat="47.36084" lon="-2.40262">
        <ele>10.60000038147</ele>
        <time>2021-07-01T08:02:21.000Z</time>
      </trkpt>
      <trkpt lat="47.3612" lon="-2.40236">
        <ele>10.60000038147</ele>
        <time>2021-07-01T08:02:27.000Z</time>
      </trkpt>
      <trkpt lat="47.36158" lon="-2.40207">
        <ele>10.60000038147</ele>
        <time>2021-07-01T08:02:34.000Z</time>
      </trkpt>
      <trkpt lat="47.36176" lon="-2.40194">
        <ele>10.60000038147</ele>
        <time>2021-07-01T08:02:39.000Z</time>
      </trkpt>
      <trkpt lat="47.36196" lon="-2.40174">
        <ele>10.60000038147</ele>
        <time>2021-07-01T08:02:45.000Z</time>
      </trkpt>
      <trkpt lat="47.36222" lon="-2.4015">
        <ele>10.199999809265</ele>
        <time>2021-07-01T08:02:51.000Z</time>
      </trkpt>
      <trkpt lat="47.36226" lon="-2.40147">
        <ele>9.8000001907349</ele>
        <time>2021-07-01T08:02:52.000Z</time>
      </trkpt>
      <trkpt lat="47.36229" lon="-2.40144">
        <ele>9.1999998092651</ele>
        <time>2021-07-01T08:02:53.000Z</time>
      </trkpt>
      <trkpt lat="47.36233" lon="-2.4014">
        <ele>8.3999996185303</ele>
        <time>2021-07-01T08:02:54.000Z</time>
      </trkpt>
      <trkpt lat="47.36242" lon="-2.40132">
        <ele>8.3999996185303</ele>
        <time>2021-07-01T08:02:56.000Z</time>
      </trkpt>
      <trkpt lat="47.36251" lon="-2.40125">
        <ele>8.3999996185303</ele>
        <time>2021-07-01T08:02:58.000Z</time>
      </trkpt>
      <trkpt lat="47.36269" lon="-2.40118">
        <ele>8.3999996185303</ele>
        <time>2021-07-01T08:03:01.000Z</time>
      </trkpt>
      <trkpt lat="47.36314" lon="-2.40101">
        <ele>8.3999996185303</ele>
        <time>2021-07-01T08:03:08.000Z</time>
      </trkpt>
      <trkpt lat="47.36357" lon="-2.40084">
        <ele>8.3999996185303</ele>
        <time>2021-07-01T08:03:15.000Z</time>
      </trkpt>
      <trkpt lat="47.36363" lon="-2.40083">
        <ele>8.3999996185303</ele>
        <time>2021-07-01T08:03:16.000Z</time>
      </trkpt>
      <trkpt lat="47.36397" lon="-2.40074">
        <ele>8.3999996185303</ele>
        <time>2021-07-01T08:03:21.000Z</time>
      </trkpt>
      <trkpt lat="47.36422" lon="-2.40068">
        <ele>8.3999996185303</ele>
        <time>2021-07-01T08:03:25.000Z</time>
      </trkpt>
      <trkpt lat="47.36427" lon="-2.40067">
        <ele>8.3999996185303</ele>
        <time>2021-07-01T08:03:26.000Z</time>
      </trkpt>
      <trkpt lat="47.36462" lon="-2.40053">
        <ele>8.3999996185303</ele>
        <time>2021-07-01T08:03:32.000Z</time>
      </trkpt>
      <trkpt lat="47.36467" lon="-2.40049">
        <ele>8.3999996185303</ele>
        <time>2021-07-01T08:03:33.000Z</time>
      </trkpt>
      <trkpt lat="47.36492" lon="-2.40026">
        <ele>8.3999996185303</ele>
        <time>2021-07-01T08:03:38.000Z</time>
      </trkpt>
      <trkpt lat="47.36522" lon="-2.39998">
        <ele>8.3999996185303</ele>
        <time>2021-07-01T08:03:44.000Z</time>
      </trkpt>
      <trkpt lat="47.36536" lon="-2.39984">
        <ele>8.3999996185303</ele>
        <time>2021-07-01T08:03:47.000Z</time>
      </trkpt>
      <trkpt lat="47.3655" lon="-2.39968">
        <ele>8.3999996185303</ele>
        <time>2021-07-01T08:03:50.000Z</time>
      </trkpt>
      <trkpt lat="47.36555" lon="-2.39961">
        <ele>8.3999996185303</ele>
        <time>2021-07-01T08:03:51.000Z</time>
      </trkpt>
      <trkpt lat="47.36572" lon="-2.39937">
        <ele>8.3999996185303</ele>
        <time>2021-07-01T08:03:55.000Z</time>
      </trkpt>
      <trkpt lat="47.36585" lon="-2.39918">
        <ele>8.3999996185303</ele>
        <time>2021-07-01T08:03:58.000Z</time>
      </trkpt>
      <trkpt lat="47.36587" lon="-2.39904">
        <ele>8</ele>
        <time>2021-07-01T08:04:00.000Z</time>
      </trkpt>
      <trkpt lat="47.36586" lon="-2.39898">
        <ele>7.5999999046326</ele>
        <time>2021-07-01T08:04:01.000Z</time>
      </trkpt>
      <trkpt lat="47.36584" lon="-2.39893">
        <ele>7.1999998092651</ele>
        <time>2021-07-01T08:04:02.000Z</time>
      </trkpt>
      <trkpt lat="47.36581" lon="-2.39887">
        <ele>6.8000001907349</ele>
        <time>2021-07-01T08:04:03.000Z</time>
      </trkpt>
      <trkpt lat="47.36578" lon="-2.39882">
        <ele>6.4000000953674</ele>
        <time>2021-07-01T08:04:04.000Z</time>
      </trkpt>
      <trkpt lat="47.36572" lon="-2.39877">
        <ele>6.4000000953674</ele>
        <time>2021-07-01T08:04:06.000Z</time>
      </trkpt>
      <trkpt lat="47.36569" lon="-2.39874">
        <ele>6.4000000953674</ele>
        <time>2021-07-01T08:04:07.000Z</time>
      </trkpt>
      <trkpt lat="47.36558" lon="-2.39862">
        <ele>6.4000000953674</ele>
        <time>2021-07-01T08:04:12.000Z</time>
      </trkpt>
      <trkpt lat="47.36542" lon="-2.39841">
        <ele>6.4000000953674</ele>
        <time>2021-07-01T08:04:19.000Z</time>
      </trkpt>
      <trkpt lat="47.36539" lon="-2.39835">
        <ele>6.4000000953674</ele>
        <time>2021-07-01T08:04:20.000Z</time>
      </trkpt>
      <trkpt lat="47.36531" lon="-2.39814">
        <ele>6.4000000953674</ele>
        <time>2021-07-01T08:04:23.000Z</time>
      </trkpt>
      <trkpt lat="47.36517" lon="-2.39782">
        <ele>6.4000000953674</ele>
        <time>2021-07-01T08:04:28.000Z</time>
      </trkpt>
      <trkpt lat="47.36512" lon="-2.39779">
        <ele>6.4000000953674</ele>
        <time>2021-07-01T08:04:29.000Z</time>
      </trkpt>
      <trkpt lat="47.36491" lon="-2.39769">
        <ele>6.4000000953674</ele>
        <time>2021-07-01T08:04:33.000Z</time>
      </trkpt>
      <trkpt lat="47.3648" lon="-2.39751">
        <ele>6.4000000953674</ele>
        <time>2021-07-01T08:04:36.000Z</time>
      </trkpt>
      <trkpt lat="47.36471" lon="-2.39728">
        <ele>6.4000000953674</ele>
        <time>2021-07-01T08:04:39.000Z</time>
      </trkpt>
      <trkpt lat="47.36466" lon="-2.39712">
        <ele>6.4000000953674</ele>
        <time>2021-07-01T08:04:41.000Z</time>
      </trkpt>
      <trkpt lat="47.36452" lon="-2.39664">
        <ele>6.4000000953674</ele>
        <time>2021-07-01T08:04:47.000Z</time>
      </trkpt>
      <trkpt lat="47.36452" lon="-2.39657">
        <ele>6.4000000953674</ele>
        <time>2021-07-01T08:04:48.000Z</time>
      </trkpt>
      <trkpt lat="47.36456" lon="-2.39645">
        <ele>6.4000000953674</ele>
        <time>2021-07-01T08:04:50.000Z</time>
      </trkpt>
      <trkpt lat="47.36468" lon="-2.39641">
        <ele>6.4000000953674</ele>
        <time>2021-07-01T08:04:53.000Z</time>
      </trkpt>
      <trkpt lat="47.36473" lon="-2.3964">
        <ele>6.4000000953674</ele>
        <time>2021-07-01T08:04:54.000Z</time>
      </trkpt>
      <trkpt lat="47.36492" lon="-2.39632">
        <ele>6.4000000953674</ele>
        <time>2021-07-01T08:04:59.000Z</time>
      </trkpt>
      <trkpt lat="47.36513" lon="-2.39616">
        <ele>6.4000000953674</ele>
        <time>2021-07-01T08:05:06.000Z</time>
      </trkpt>
      <trkpt lat="47.36536" lon="-2.39603">
        <ele>6.4000000953674</ele>
        <time>2021-07-01T08:05:13.000Z</time>
      </trkpt>
      <trkpt lat="47.36563" lon="-2.39596">
        <ele>6.4000000953674</ele>
        <time>2021-07-01T08:05:19.000Z</time>
      </trkpt>
      <trkpt lat="47.36583" lon="-2.39595">
        <ele>6.4000000953674</ele>
        <time>2021-07-01T08:05:23.000Z</time>
      </trkpt>
      <trkpt lat="47.36588" lon="-2.39596">
        <ele>6.4000000953674</ele>
        <time>2021-07-01T08:05:24.000Z</time>
      </trkpt>
      <trkpt lat="47.36626" lon="-2.39606">
        <ele>6.4000000953674</ele>
        <time>2021-07-01T08:05:31.000Z</time>
      </trkpt>
      <trkpt lat="47.3665" lon="-2.39615">
        <ele>6.4000000953674</ele>
        <time>2021-07-01T08:05:35.000Z</time>
      </trkpt>
      <trkpt lat="47.36656" lon="-2.3962">
        <ele>6.4000000953674</ele>
        <time>2021-07-01T08:05:36.000Z</time>
      </trkpt>
      <trkpt lat="47.36674" lon="-2.39639">
        <ele>6.4000000953674</ele>
        <time>2021-07-01T08:05:39.000Z</time>
      </trkpt>
      <trkpt lat="47.3668" lon="-2.39645">
        <ele>6.4000000953674</ele>
        <time>2021-07-01T08:05:40.000Z</time>
      </trkpt>
      <trkpt lat="47.36692" lon="-2.39655">
        <ele>6.4000000953674</ele>
        <time>2021-07-01T08:05:42.000Z</time>
      </trkpt>
      <trkpt lat="47.36704" lon="-2.39663">
        <ele>6.4000000953674</ele>
        <time>2021-07-01T08:05:44.000Z</time>
      </trkpt>
      <trkpt lat="47.36716" lon="-2.39668">
        <ele>6.4000000953674</ele>
        <time>2021-07-01T08:05:46.000Z</time>
      </trkpt>
      <trkpt lat="47.36735" lon="-2.39672">
        <ele>6.4000000953674</ele>
        <time>2021-07-01T08:05:49.000Z</time>
      </trkpt>
      <trkpt lat="47.36752" lon="-2.39674">
        <ele>6.4000000953674</ele>
        <time>2021-07-01T08:05:52.000Z</time>
      </trkpt>
      <trkpt lat="47.36761" lon="-2.39676">
        <ele>6.4000000953674</ele>
        <time>2021-07-01T08:05:54.000Z</time>
      </trkpt>
      <trkpt lat="47.36782" lon="-2.39672">
        <ele>6.4000000953674</ele>
        <time>2021-07-01T08:05:58.000Z</time>
      </trkpt>
      <trkpt lat="47.36788" lon="-2.39669">
        <ele>6.4000000953674</ele>
        <time>2021-07-01T08:05:59.000Z</time>
      </trkpt>
      <trkpt lat="47.36808" lon="-2.39658">
        <ele>6.4000000953674</ele>
        <time>2021-07-01T08:06:03.000Z</time>
      </trkpt>
      <trkpt lat="47.36813" lon="-2.39656">
        <ele>6.4000000953674</ele>
        <time>2021-07-01T08:06:04.000Z</time>
      </trkpt>
      <trkpt lat="47.36829" lon="-2.39647">
        <ele>6.4000000953674</ele>
        <time>2021-07-01T08:06:07.000Z</time>
      </trkpt>
      <trkpt lat="47.36834" lon="-2.39642">
        <ele>6.4000000953674</ele>
        <time>2021-07-01T08:06:08.000Z</time>
      </trkpt>
      <trkpt lat="47.3686" lon="-2.39612">
        <ele>6.4000000953674</ele>
        <time>2021-07-01T08:06:14.000Z</time>
      </trkpt>
      <trkpt lat="47.36887" lon="-2.3958">
        <ele>6.4000000953674</ele>
        <time>2021-07-01T08:06:20.000Z</time>
      </trkpt>
      <trkpt lat="47.36906" lon="-2.39558">
        <ele>6.4000000953674</ele>
        <time>2021-07-01T08:06:24.000Z</time>
      </trkpt>
      <trkpt lat="47.3691" lon="-2.39552">
        <ele>6.4000000953674</ele>
        <time>2021-07-01T08:06:25.000Z</time>
      </trkpt>
      <trkpt lat="47.36925" lon="-2.3953">
        <ele>6.4000000953674</ele>
        <time>2021-07-01T08:06:29.000Z</time>
      </trkpt>
      <trkpt lat="47.36929" lon="-2.39525">
        <ele>6.4000000953674</ele>
        <time>2021-07-01T08:06:30.000Z</time>
      </trkpt>
      <trkpt lat="47.36946" lon="-2.39501">
        <ele>6.4000000953674</ele>
        <time>2021-07-01T08:06:36.000Z</time>
      </trkpt>
      <trkpt lat="47.36968" lon="-2.39479">
        <ele>6.4000000953674</ele>
        <time>2021-07-01T08:06:43.000Z</time>
      </trkpt>
      <trkpt lat="47.36972" lon="-2.39477">
        <ele>6.8000001907349</ele>
        <time>2021-07-01T08:06:44.000Z</time>
      </trkpt>
      <trkpt lat="47.36975" lon="-2.39474">
        <ele>7.1999998092651</ele>
        <time>2021-07-01T08:06:45.000Z</time>
      </trkpt>
      <trkpt lat="47.36979" lon="-2.39471">
        <ele>7.5999999046326</ele>
        <time>2021-07-01T08:06:46.000Z</time>
      </trkpt>
      <trkpt lat="47.36983" lon="-2.39468">
        <ele>8</ele>
        <time>2021-07-01T08:06:47.000Z</time>
      </trkpt>
      <trkpt lat="47.36987" lon="-2.39464">
        <ele>8.3999996185303</ele>
        <time>2021-07-01T08:06:48.000Z</time>
      </trkpt>
      <trkpt lat="47.36995" lon="-2.39457">
        <ele>8.3999996185303</ele>
        <time>2021-07-01T08:06:50.000Z</time>
      </trkpt>
      <trkpt lat="47.37012" lon="-2.39439">
        <ele>8.3999996185303</ele>
        <time>2021-07-01T08:06:55.000Z</time>
      </trkpt>
      <trkpt lat="47.37036" lon="-2.39412">
        <ele>8.3999996185303</ele>
        <time>2021-07-01T08:07:01.000Z</time>
      </trkpt>
      <trkpt lat="47.37077" lon="-2.39371">
        <ele>8.3999996185303</ele>
        <time>2021-07-01T08:07:10.000Z</time>
      </trkpt>
      <trkpt lat="47.37107" lon="-2.39344">
        <ele>8.3999996185303</ele>
        <time>2021-07-01T08:07:16.000Z</time>
      </trkpt>
      <trkpt lat="47.37135" lon="-2.39318">
        <ele>8.3999996185303</ele>
        <time>2021-07-01T08:07:22.000Z</time>
      </trkpt>
      <trkpt lat="47.37168" lon="-2.39286">
        <ele>8.3999996185303</ele>
        <time>2021-07-01T08:07:29.000Z</time>
      </trkpt>
      <trkpt lat="47.37173" lon="-2.39282">
        <ele>8.3999996185303</ele>
        <time>2021-07-01T08:07:30.000Z</time>
      </trkpt>
      <trkpt lat="47.37193" lon="-2.39265">
        <ele>8.3999996185303</ele>
        <time>2021-07-01T08:07:34.000Z</time>
      </trkpt>
      <trkpt lat="47.37198" lon="-2.39262">
        <ele>8.3999996185303</ele>
        <time>2021-07-01T08:07:35.000Z</time>
      </trkpt>
      <trkpt lat="47.3721" lon="-2.39252">
        <ele>8.3999996185303</ele>
        <time>2021-07-01T08:07:38.000Z</time>
      </trkpt>
      <trkpt lat="47.37236" lon="-2.39231">
        <ele>8.3999996185303</ele>
        <time>2021-07-01T08:07:44.000Z</time>
      </trkpt>
      <trkpt lat="47.37273" lon="-2.39197">
        <ele>8.8000001907349</ele>
        <time>2021-07-01T08:07:52.000Z</time>
      </trkpt>
      <trkpt lat="47.37276" lon="-2.39194">
        <ele>9.1999998092651</ele>
        <time>2021-07-01T08:07:53.000Z</time>
      </trkpt>
      <trkpt lat="47.37279" lon="-2.39191">
        <ele>9.6000003814697</ele>
        <time>2021-07-01T08:07:54.000Z</time>
      </trkpt>
      <trkpt lat="47.37282" lon="-2.39188">
        <ele>10</ele>
        <time>2021-07-01T08:07:55.000Z</time>
      </trkpt>
      <trkpt lat="47.37285" lon="-2.39185">
        <ele>10.39999961853</ele>
        <time>2021-07-01T08:07:56.000Z</time>
      </trkpt>
      <trkpt lat="47.37305" lon="-2.39161">
        <ele>10.39999961853</ele>
        <time>2021-07-01T08:08:03.000Z</time>
      </trkpt>
      <trkpt lat="47.37308" lon="-2.39138">
        <ele>10.39999961853</ele>
        <time>2021-07-01T08:08:07.000Z</time>
      </trkpt>
      <trkpt lat="47.37306" lon="-2.39098">
        <ele>10.39999961853</ele>
        <time>2021-07-01T08:08:13.000Z</time>
      </trkpt>
      <trkpt lat="47.37303" lon="-2.39053">
        <ele>10.39999961853</ele>
        <time>2021-07-01T08:08:19.000Z</time>
      </trkpt>
      <trkpt lat="47.37304" lon="-2.39046">
        <ele>10.39999961853</ele>
        <time>2021-07-01T08:08:20.000Z</time>
      </trkpt>
      <trkpt lat="47.37304" lon="-2.39031">
        <ele>10.39999961853</ele>
        <time>2021-07-01T08:08:22.000Z</time>
      </trkpt>
      <trkpt lat="47.37302" lon="-2.39006">
        <ele>10.39999961853</ele>
        <time>2021-07-01T08:08:25.000Z</time>
      </trkpt>
      <trkpt lat="47.37297" lon="-2.38941">
        <ele>10.39999961853</ele>
        <time>2021-07-01T08:08:32.000Z</time>
      </trkpt>
      <trkpt lat="47.37279" lon="-2.38878">
        <ele>10.39999961853</ele>
        <time>2021-07-01T08:08:39.000Z</time>
      </trkpt>
      <trkpt lat="47.37256" lon="-2.38798">
        <ele>10.39999961853</ele>
        <time>2021-07-01T08:08:48.000Z</time>
      </trkpt>
      <trkpt lat="47.37235" lon="-2.38743">
        <ele>10.39999961853</ele>
        <time>2021-07-01T08:08:54.000Z</time>
      </trkpt>
      <trkpt lat="47.37208" lon="-2.38673">
        <ele>10.39999961853</ele>
        <time>2021-07-01T08:09:02.000Z</time>
      </trkpt>
      <trkpt lat="47.37202" lon="-2.38658">
        <ele>10.39999961853</ele>
        <time>2021-07-01T08:09:04.000Z</time>
      </trkpt>
      <trkpt lat="47.37174" lon="-2.38592">
        <ele>10.39999961853</ele>
        <time>2021-07-01T08:09:12.000Z</time>
      </trkpt>
      <trkpt lat="47.37171" lon="-2.38583">
        <ele>10</ele>
        <time>2021-07-01T08:09:13.000Z</time>
      </trkpt>
      <trkpt lat="47.37167" lon="-2.38574">
        <ele>9.6000003814697</ele>
        <time>2021-07-01T08:09:14.000Z</time>
      </trkpt>
      <trkpt lat="47.37164" lon="-2.38566">
        <ele>9.1999998092651</ele>
        <time>2021-07-01T08:09:15.000Z</time>
      </trkpt>
      <trkpt lat="47.37161" lon="-2.38557">
        <ele>8.8000001907349</ele>
        <time>2021-07-01T08:09:16.000Z</time>
      </trkpt>
      <trkpt lat="47.37157" lon="-2.38549">
        <ele>8.3999996185303</ele>
        <time>2021-07-01T08:09:17.000Z</time>
      </trkpt>
      <trkpt lat="47.37149" lon="-2.38535">
        <ele>8.3999996185303</ele>
        <time>2021-07-01T08:09:19.000Z</time>
      </trkpt>
      <trkpt lat="47.37122" lon="-2.38507">
        <ele>8.3999996185303</ele>
        <time>2021-07-01T08:09:24.000Z</time>
      </trkpt>
      <trkpt lat="47.37096" lon="-2.3849">
        <ele>7.8000001907349</ele>
        <time>2021-07-01T08:09:28.000Z</time>
      </trkpt>
      <trkpt lat="47.3709" lon="-2.38486">
        <ele>7.4000000953674</ele>
        <time>2021-07-01T08:09:29.000Z</time>
      </trkpt>
      <trkpt lat="47.37084" lon="-2.38482">
        <ele>6.5999999046326</ele>
        <time>2021-07-01T08:09:30.000Z</time>
      </trkpt>
      <trkpt lat="47.37078" lon="-2.38478">
        <ele>6</ele>
        <time>2021-07-01T08:09:31.000Z</time>
      </trkpt>
      <trkpt lat="47.37061" lon="-2.38466">
        <ele>6</ele>
        <time>2021-07-01T08:09:34.000Z</time>
      </trkpt>
      <trkpt lat="47.37059" lon="-2.3846">
        <ele>5.5999999046326</ele>
        <time>2021-07-01T08:09:35.000Z</time>
      </trkpt>
      <trkpt lat="47.37059" lon="-2.38452">
        <ele>5.1999998092651</ele>
        <time>2021-07-01T08:09:36.000Z</time>
      </trkpt>
      <trkpt lat="47.3706" lon="-2.38444">
        <ele>4.8000001907349</ele>
        <time>2021-07-01T08:09:37.000Z</time>
      </trkpt>
      <trkpt lat="47.37063" lon="-2.38437">
        <ele>4.1999998092651</ele>
        <time>2021-07-01T08:09:38.000Z</time>
      </trkpt>
      <trkpt lat="47.37066" lon="-2.38431">
        <ele>3.7999999523163</ele>
        <time>2021-07-01T08:09:39.000Z</time>
      </trkpt>
      <trkpt lat="47.37069" lon="-2.38424">
        <ele>3.7999999523163</ele>
        <time>2021-07-01T08:09:40.000Z</time>
      </trkpt>
      <trkpt lat="47.37073" lon="-2.38418">
        <ele>3.7999999523163</ele>
        <time>2021-07-01T08:09:41.000Z</time>
      </trkpt>
      <trkpt lat="47.37101" lon="-2.38379">
        <ele>3.7999999523163</ele>
        <time>2021-07-01T08:09:48.000Z</time>
      </trkpt>
      <trkpt lat="47.37116" lon="-2.38368">
        <ele>3.7999999523163</ele>
        <time>2021-07-01T08:09:51.000Z</time>
      </trkpt>
      <trkpt lat="47.37127" lon="-2.38365">
        <ele>3.7999999523163</ele>
        <time>2021-07-01T08:09:53.000Z</time>
      </trkpt>
      <trkpt lat="47.37148" lon="-2.38359">
        <ele>4.1999998092651</ele>
        <time>2021-07-01T08:09:57.000Z</time>
      </trkpt>
      <trkpt lat="47.37153" lon="-2.38357">
        <ele>4.5999999046326</ele>
        <time>2021-07-01T08:09:58.000Z</time>
      </trkpt>
      <trkpt lat="47.37158" lon="-2.38356">
        <ele>5</ele>
        <time>2021-07-01T08:09:59.000Z</time>
      </trkpt>
      <trkpt lat="47.37163" lon="-2.38355">
        <ele>5.4000000953674</ele>
        <time>2021-07-01T08:10:00.000Z</time>
      </trkpt>
      <trkpt lat="47.37169" lon="-2.38354">
        <ele>5.8000001907349</ele>
        <time>2021-07-01T08:10:01.000Z</time>
      </trkpt>
      <trkpt lat="47.37188" lon="-2.38353">
        <ele>5.8000001907349</ele>
        <time>2021-07-01T08:10:04.000Z</time>
      </trkpt>
      <trkpt lat="47.37225" lon="-2.3835">
        <ele>5.8000001907349</ele>
        <time>2021-07-01T08:10:10.000Z</time>
      </trkpt>
      <trkpt lat="47.37244" lon="-2.38342">
        <ele>6.1999998092651</ele>
        <time>2021-07-01T08:10:13.000Z</time>
      </trkpt>
      <trkpt lat="47.3725" lon="-2.38339">
        <ele>6.5999999046326</ele>
        <time>2021-07-01T08:10:14.000Z</time>
      </trkpt>
      <trkpt lat="47.37256" lon="-2.38336">
        <ele>7</ele>
        <time>2021-07-01T08:10:15.000Z</time>
      </trkpt>
      <trkpt lat="47.37262" lon="-2.38333">
        <ele>7.4000000953674</ele>
        <time>2021-07-01T08:10:16.000Z</time>
      </trkpt>
      <trkpt lat="47.37268" lon="-2.3833">
        <ele>8</ele>
        <time>2021-07-01T08:10:17.000Z</time>
      </trkpt>
      <trkpt lat="47.37302" lon="-2.38309">
        <ele>8</ele>
        <time>2021-07-01T08:10:23.000Z</time>
      </trkpt>
      <trkpt lat="47.37336" lon="-2.38288">
        <ele>8</ele>
        <time>2021-07-01T08:10:29.000Z</time>
      </trkpt>
      <trkpt lat="47.3737" lon="-2.3827">
        <ele>8</ele>
        <time>2021-07-01T08:10:35.000Z</time>
      </trkpt>
      <trkpt lat="47.37393" lon="-2.38256">
        <ele>8</ele>
        <time>2021-07-01T08:10:39.000Z</time>
      </trkpt>
      <trkpt lat="47.37406" lon="-2.38248">
        <ele>8</ele>
        <time>2021-07-01T08:10:41.000Z</time>
      </trkpt>
      <trkpt lat="47.37441" lon="-2.38226">
        <ele>8</ele>
        <time>2021-07-01T08:10:47.000Z</time>
      </trkpt>
      <trkpt lat="47.37476" lon="-2.38207">
        <ele>8</ele>
        <time>2021-07-01T08:10:53.000Z</time>
      </trkpt>
      <trkpt lat="47.37494" lon="-2.38197">
        <ele>8</ele>
        <time>2021-07-01T08:10:56.000Z</time>
      </trkpt>
      <trkpt lat="47.37506" lon="-2.38189">
        <ele>8</ele>
        <time>2021-07-01T08:10:58.000Z</time>
      </trkpt>
      <trkpt lat="47.37512" lon="-2.38186">
        <ele>8</ele>
        <time>2021-07-01T08:10:59.000Z</time>
      </trkpt>
      <trkpt lat="47.3755" lon="-2.38163">
        <ele>8</ele>
        <time>2021-07-01T08:11:05.000Z</time>
      </trkpt>
      <trkpt lat="47.376" lon="-2.38131">
        <ele>8</ele>
        <time>2021-07-01T08:11:13.000Z</time>
      </trkpt>
      <trkpt lat="47.37607" lon="-2.38127">
        <ele>8</ele>
        <time>2021-07-01T08:11:14.000Z</time>
      </trkpt>
      <trkpt lat="47.37656" lon="-2.38094">
        <ele>8</ele>
        <time>2021-07-01T08:11:22.000Z</time>
      </trkpt>
      <trkpt lat="47.37687" lon="-2.38065">
        <ele>8</ele>
        <time>2021-07-01T08:11:28.000Z</time>
      </trkpt>
      <trkpt lat="47.37701" lon="-2.38046">
        <ele>8</ele>
        <time>2021-07-01T08:11:33.000Z</time>
      </trkpt>
      <trkpt lat="47.37714" lon="-2.38031">
        <ele>8</ele>
        <time>2021-07-01T08:11:39.000Z</time>
      </trkpt>
      <trkpt lat="47.37736" lon="-2.38015">
        <ele>8</ele>
        <time>2021-07-01T08:11:44.000Z</time>
      </trkpt>
      <trkpt lat="47.37751" lon="-2.38006">
        <ele>8.3999996185303</ele>
        <time>2021-07-01T08:11:47.000Z</time>
      </trkpt>
      <trkpt lat="47.37757" lon="-2.38003">
        <ele>8.8000001907349</ele>
        <time>2021-07-01T08:11:48.000Z</time>
      </trkpt>
      <trkpt lat="47.37762" lon="-2.38">
        <ele>9.1999998092651</ele>
        <time>2021-07-01T08:11:49.000Z</time>
      </trkpt>
      <trkpt lat="47.37767" lon="-2.37996">
        <ele>9.8000001907349</ele>
        <time>2021-07-01T08:11:50.000Z</time>
      </trkpt>
      <trkpt lat="47.37773" lon="-2.37993">
        <ele>10.199999809265</ele>
        <time>2021-07-01T08:11:51.000Z</time>
      </trkpt>
      <trkpt lat="47.37806" lon="-2.37968">
        <ele>10.199999809265</ele>
        <time>2021-07-01T08:11:57.000Z</time>
      </trkpt>
      <trkpt lat="47.37811" lon="-2.37965">
        <ele>10.199999809265</ele>
        <time>2021-07-01T08:11:58.000Z</time>
      </trkpt>
      <trkpt lat="47.37834" lon="-2.3795">
        <ele>10.199999809265</ele>
        <time>2021-07-01T08:12:02.000Z</time>
      </trkpt>
      <trkpt lat="47.37889" lon="-2.3791">
        <ele>10.199999809265</ele>
        <time>2021-07-01T08:12:11.000Z</time>
      </trkpt>
      <trkpt lat="47.37927" lon="-2.37885">
        <ele>10.199999809265</ele>
        <time>2021-07-01T08:12:17.000Z</time>
      </trkpt>
      <trkpt lat="47.3796" lon="-2.37858">
        <ele>10.199999809265</ele>
        <time>2021-07-01T08:12:23.000Z</time>
      </trkpt>
      <trkpt lat="47.37978" lon="-2.37845">
        <ele>10.199999809265</ele>
        <time>2021-07-01T08:12:26.000Z</time>
      </trkpt>
      <trkpt lat="47.37995" lon="-2.37834">
        <ele>10.199999809265</ele>
        <time>2021-07-01T08:12:29.000Z</time>
      </trkpt>
      <trkpt lat="47.38047" lon="-2.37797">
        <ele>10.199999809265</ele>
        <time>2021-07-01T08:12:38.000Z</time>
      </trkpt>
      <trkpt lat="47.38097" lon="-2.37753">
        <ele>10.199999809265</ele>
        <time>2021-07-01T08:12:46.000Z</time>
      </trkpt>
      <trkpt lat="47.38123" lon="-2.3773">
        <ele>9.8000001907349</ele>
        <time>2021-07-01T08:12:50.000Z</time>
      </trkpt>
      <trkpt lat="47.3813" lon="-2.37724">
        <ele>9.3999996185303</ele>
        <time>2021-07-01T08:12:51.000Z</time>
      </trkpt>
      <trkpt lat="47.38137" lon="-2.37717">
        <ele>9</ele>
        <time>2021-07-01T08:12:52.000Z</time>
      </trkpt>
      <trkpt lat="47.38143" lon="-2.37711">
        <ele>8.6000003814697</ele>
        <time>2021-07-01T08:12:53.000Z</time>
      </trkpt>
      <trkpt lat="47.3815" lon="-2.37705">
        <ele>8.1999998092651</ele>
        <time>2021-07-01T08:12:54.000Z</time>
      </trkpt>
      <trkpt lat="47.38186" lon="-2.37672">
        <ele>7.8000001907349</ele>
        <time>2021-07-01T08:13:00.000Z</time>
      </trkpt>
      <trkpt lat="47.38193" lon="-2.37667">
        <ele>7.1999998092651</ele>
        <time>2021-07-01T08:13:01.000Z</time>
      </trkpt>
      <trkpt lat="47.38199" lon="-2.37662">
        <ele>6.8000001907349</ele>
        <time>2021-07-01T08:13:02.000Z</time>
      </trkpt>
      <trkpt lat="47.38205" lon="-2.37656">
        <ele>6.4000000953674</ele>
        <time>2021-07-01T08:13:03.000Z</time>
      </trkpt>
      <trkpt lat="47.38211" lon="-2.37651">
        <ele>6</ele>
        <time>2021-07-01T08:13:04.000Z</time>
      </trkpt>
      <trkpt lat="47.38228" lon="-2.37634">
        <ele>6</ele>
        <time>2021-07-01T08:13:07.000Z</time>
      </trkpt>
      <trkpt lat="47.38248" lon="-2.37621">
        <ele>5.5999999046326</ele>
        <time>2021-07-01T08:13:11.000Z</time>
      </trkpt>
      <trkpt lat="47.38252" lon="-2.37618">
        <ele>4.5999999046326</ele>
        <time>2021-07-01T08:13:12.000Z</time>
      </trkpt>
      <trkpt lat="47.38257" lon="-2.37615">
        <ele>4.1999998092651</ele>
        <time>2021-07-01T08:13:13.000Z</time>
      </trkpt>
      <trkpt lat="47.38261" lon="-2.37613">
        <ele>3.7999999523163</ele>
        <time>2021-07-01T08:13:14.000Z</time>
      </trkpt>
      <trkpt lat="47.38264" lon="-2.37611">
        <ele>3.7999999523163</ele>
        <time>2021-07-01T08:13:17.000Z</time>
      </trkpt>
      <trkpt lat="47.38267" lon="-2.37613">
        <ele>3.7999999523163</ele>
        <time>2021-07-01T08:13:20.000Z</time>
      </trkpt>
      <trkpt lat="47.3827" lon="-2.37616">
        <ele>3.7999999523163</ele>
        <time>2021-07-01T08:13:23.000Z</time>
      </trkpt>
      <trkpt lat="47.3828" lon="-2.37609">
        <ele>3.7999999523163</ele>
        <time>2021-07-01T08:13:28.000Z</time>
      </trkpt>
      <trkpt lat="47.38296" lon="-2.37602">
        <ele>3.7999999523163</ele>
        <time>2021-07-01T08:13:32.000Z</time>
      </trkpt>
      <trkpt lat="47.38322" lon="-2.37591">
        <ele>3.7999999523163</ele>
        <time>2021-07-01T08:13:37.000Z</time>
      </trkpt>
      <trkpt lat="47.38348" lon="-2.37583">
        <ele>3.4000000953674</ele>
        <time>2021-07-01T08:13:42.000Z</time>
      </trkpt>
      <trkpt lat="47.38353" lon="-2.37582">
        <ele>3</ele>
        <time>2021-07-01T08:13:43.000Z</time>
      </trkpt>
      <trkpt lat="47.38357" lon="-2.37579">
        <ele>2.5999999046326</ele>
        <time>2021-07-01T08:13:44.000Z</time>
      </trkpt>
      <trkpt lat="47.3836" lon="-2.37575">
        <ele>2.2000000476837</ele>
        <time>2021-07-01T08:13:45.000Z</time>
      </trkpt>
      <trkpt lat="47.38361" lon="-2.3757">
        <ele>1.6000000238419</ele>
        <time>2021-07-01T08:13:46.000Z</time>
      </trkpt>
      <trkpt lat="47.38363" lon="-2.37552">
        <ele>1.6000000238419</ele>
        <time>2021-07-01T08:13:49.000Z</time>
      </trkpt>
      <trkpt lat="47.38364" lon="-2.37541">
        <ele>1.6000000238419</ele>
        <time>2021-07-01T08:13:51.000Z</time>
      </trkpt>
      <trkpt lat="47.38366" lon="-2.37511">
        <ele>1.6000000238419</ele>
        <time>2021-07-01T08:13:56.000Z</time>
      </trkpt>
      <trkpt lat="47.38362" lon="-2.37482">
        <ele>1.6000000238419</ele>
        <time>2021-07-01T08:14:01.000Z</time>
      </trkpt>
      <trkpt lat="47.3836" lon="-2.37471">
        <ele>1.2000000476837</ele>
        <time>2021-07-01T08:14:03.000Z</time>
      </trkpt>
      <trkpt lat="47.38359" lon="-2.37466">
        <ele>0.80000001192093</ele>
        <time>2021-07-01T08:14:04.000Z</time>
      </trkpt>
      <trkpt lat="47.38358" lon="-2.37461">
        <ele>0.40000000596046</ele>
        <time>2021-07-01T08:14:05.000Z</time>
      </trkpt>
      <trkpt lat="47.38357" lon="-2.37457">
        <ele>4.1</ele>
        <time>2021-07-01T08:14:06.000Z</time>
      </trkpt>
      <trkpt lat="47.38356" lon="-2.37451">
        <ele>-0.40000000596046</ele>
        <time>2021-07-01T08:14:07.000Z</time>
      </trkpt>
      <trkpt lat="47.38355" lon="-2.37445">
        <ele>-0.40000000596046</ele>
        <time>2021-07-01T08:14:08.000Z</time>
      </trkpt>
      <trkpt lat="47.38349" lon="-2.37419">
        <ele>-0.40000000596046</ele>
        <time>2021-07-01T08:14:13.000Z</time>
      </trkpt>
      <trkpt lat="47.38345" lon="-2.37406">
        <ele>-0.40000000596046</ele>
        <time>2021-07-01T08:14:19.000Z</time>
      </trkpt>
      <trkpt lat="47.38342" lon="-2.3739">
        <ele>-0.40000000596046</ele>
        <time>2021-07-01T08:14:25.000Z</time>
      </trkpt>
      <trkpt lat="47.38342" lon="-2.37376">
        <ele>-0.40000000596046</ele>
        <time>2021-07-01T08:14:30.000Z</time>
      </trkpt>
      <trkpt lat="47.38339" lon="-2.37365">
        <ele>-0.40000000596046</ele>
        <time>2021-07-01T08:14:36.000Z</time>
      </trkpt>
      <trkpt lat="47.38338" lon="-2.37334">
        <ele>-0.40000000596046</ele>
        <time>2021-07-01T08:14:55.000Z</time>
      </trkpt>
      <trkpt lat="47.38339" lon="-2.37333">
        <ele>-0.40000000596046</ele>
        <time>2021-07-01T08:14:56.000Z</time>
      </trkpt>
      <trkpt lat="47.3834" lon="-2.37323">
        <ele>-0.40000000596046</ele>
        <time>2021-07-01T08:14:59.000Z</time>
      </trkpt>
      <trkpt lat="47.3834" lon="-2.37317">
        <ele>-0.40000000596046</ele>
        <time>2021-07-01T08:15:01.000Z</time>
      </trkpt>
      <trkpt lat="47.38337" lon="-2.37305">
        <ele>-0.40000000596046</ele>
        <time>2021-07-01T08:15:06.000Z</time>
      </trkpt>
      <trkpt lat="47.38336" lon="-2.37303">
        <ele>-0.40000000596046</ele>
        <time>2021-07-01T08:15:07.000Z</time>
      </trkpt>
      <trkpt lat="47.38334" lon="-2.37301">
        <ele>-0.40000000596046</ele>
        <time>2021-07-01T08:15:11.000Z</time>
      </trkpt>
      <trkpt lat="47.38329" lon="-2.37294">
        <ele>-0.40000000596046</ele>
        <time>2021-07-01T08:15:17.000Z</time>
      </trkpt>
      <trkpt lat="47.38329" lon="-2.3729">
        <ele>-0.40000000596046</ele>
        <time>2021-07-01T08:15:18.000Z</time>
      </trkpt>
      <trkpt lat="47.38327" lon="-2.37281">
        <ele>-0.40000000596046</ele>
        <time>2021-07-01T08:15:21.000Z</time>
      </trkpt>
      <trkpt lat="47.38325" lon="-2.37278">
        <ele>-0.40000000596046</ele>
        <time>2021-07-01T08:15:22.000Z</time>
      </trkpt>
      <trkpt lat="47.38323" lon="-2.37276">
        <ele>-0.40000000596046</ele>
        <time>2021-07-01T08:15:23.000Z</time>
      </trkpt>
      <trkpt lat="47.38314" lon="-2.37264">
        <ele>-0.40000000596046</ele>
        <time>2021-07-01T08:15:28.000Z</time>
      </trkpt>
      <trkpt lat="47.38298" lon="-2.37254">
        <ele>-0.40000000596046</ele>
        <time>2021-07-01T08:15:33.000Z</time>
      </trkpt>
      <trkpt lat="47.38282" lon="-2.37243">
        <ele>-0.40000000596046</ele>
        <time>2021-07-01T08:15:40.000Z</time>
      </trkpt>
      <trkpt lat="47.38272" lon="-2.37236">
        <ele>-0.40000000596046</ele>
        <time>2021-07-01T08:15:47.000Z</time>
      </trkpt>
      <trkpt lat="47.38268" lon="-2.37229">
        <ele>-0.40000000596046</ele>
        <time>2021-07-01T08:15:50.000Z</time>
      </trkpt>
      <trkpt lat="47.38264" lon="-2.37226">
        <ele>-0.40000000596046</ele>
        <time>2021-07-01T08:15:53.000Z</time>
      </trkpt>
      <trkpt lat="47.38262" lon="-2.37225">
        <ele>-0.40000000596046</ele>
        <time>2021-07-01T08:15:55.000Z</time>
      </trkpt>
      <trkpt lat="47.38257" lon="-2.37223">
        <ele>-0.40000000596046</ele>
        <time>2021-07-01T08:15:58.000Z</time>
      </trkpt>
      <trkpt lat="47.38253" lon="-2.37212">
        <ele>-0.40000000596046</ele>
        <time>2021-07-01T08:16:02.000Z</time>
      </trkpt>
      <trkpt lat="47.3824" lon="-2.37196">
        <ele>-0.40000000596046</ele>
        <time>2021-07-01T08:16:07.000Z</time>
      </trkpt>
      <trkpt lat="47.38228" lon="-2.37175">
        <ele>-0.40000000596046</ele>
        <time>2021-07-01T08:16:12.000Z</time>
      </trkpt>
      <trkpt lat="47.38211" lon="-2.37144">
        <ele>-0.40000000596046</ele>
        <time>2021-07-01T08:16:19.000Z</time>
      </trkpt>
      <trkpt lat="47.38193" lon="-2.37109">
        <ele>0.20000000298023</ele>
        <time>2021-07-01T08:16:26.000Z</time>
      </trkpt>
      <trkpt lat="47.38191" lon="-2.37104">
        <ele>0.60000002384186</ele>
        <time>2021-07-01T08:16:27.000Z</time>
      </trkpt>
      <trkpt lat="47.38188" lon="-2.37098">
        <ele>1</ele>
        <time>2021-07-01T08:16:28.000Z</time>
      </trkpt>
      <trkpt lat="47.38185" lon="-2.37092">
        <ele>1.6000000238419</ele>
        <time>2021-07-01T08:16:29.000Z</time>
      </trkpt>
      <trkpt lat="47.38182" lon="-2.37086">
        <ele>2</ele>
        <time>2021-07-01T08:16:30.000Z</time>
      </trkpt>
      <trkpt lat="47.38176" lon="-2.37074">
        <ele>2</ele>
        <time>2021-07-01T08:16:32.000Z</time>
      </trkpt>
      <trkpt lat="47.38173" lon="-2.37068">
        <ele>2</ele>
        <time>2021-07-01T08:16:33.000Z</time>
      </trkpt>
      <trkpt lat="47.38166" lon="-2.37056">
        <ele>2.4000000953674</ele>
        <time>2021-07-01T08:16:35.000Z</time>
      </trkpt>
      <trkpt lat="47.38163" lon="-2.37049">
        <ele>2.7999999523163</ele>
        <time>2021-07-01T08:16:36.000Z</time>
      </trkpt>
      <trkpt lat="47.3816" lon="-2.37043">
        <ele>3.2000000476837</ele>
        <time>2021-07-01T08:16:37.000Z</time>
      </trkpt>
      <trkpt lat="47.38157" lon="-2.37036">
        <ele>3.5999999046326</ele>
        <time>2021-07-01T08:16:38.000Z</time>
      </trkpt>
      <trkpt lat="47.38154" lon="-2.37029">
        <ele>4</ele>
        <time>2021-07-01T08:16:39.000Z</time>
      </trkpt>
      <trkpt lat="47.3815" lon="-2.37014">
        <ele>4</ele>
        <time>2021-07-01T08:16:41.000Z</time>
      </trkpt>
      <trkpt lat="47.38146" lon="-2.37">
        <ele>4</ele>
        <time>2021-07-01T08:16:43.000Z</time>
      </trkpt>
      <trkpt lat="47.38143" lon="-2.36994">
        <ele>4</ele>
        <time>2021-07-01T08:16:44.000Z</time>
      </trkpt>
      <trkpt lat="47.38127" lon="-2.36954">
        <ele>4</ele>
        <time>2021-07-01T08:16:51.000Z</time>
      </trkpt>
      <trkpt lat="47.38119" lon="-2.36936">
        <ele>4</ele>
        <time>2021-07-01T08:16:54.000Z</time>
      </trkpt>
      <trkpt lat="47.38113" lon="-2.36923">
        <ele>4</ele>
        <time>2021-07-01T08:16:56.000Z</time>
      </trkpt>
      <trkpt lat="47.38109" lon="-2.36909">
        <ele>4</ele>
        <time>2021-07-01T08:16:59.000Z</time>
      </trkpt>
      <trkpt lat="47.38114" lon="-2.369">
        <ele>4</ele>
        <time>2021-07-01T08:17:03.000Z</time>
      </trkpt>
      <trkpt lat="47.38118" lon="-2.36898">
        <ele>4</ele>
        <time>2021-07-01T08:17:05.000Z</time>
      </trkpt>
      <trkpt lat="47.38124" lon="-2.36897">
        <ele>4</ele>
        <time>2021-07-01T08:17:09.000Z</time>
      </trkpt>
      <trkpt lat="47.38124" lon="-2.36897">
        <ele>4</ele>
        <time>2021-07-01T08:17:10.000Z</time>
      </trkpt>
      <trkpt lat="47.3813" lon="-2.36892">
        <ele>4</ele>
        <time>2021-07-01T08:17:35.000Z</time>
      </trkpt>
      <trkpt lat="47.38136" lon="-2.36889">
        <ele>4</ele>
        <time>2021-07-01T08:17:38.000Z</time>
      </trkpt>
      <trkpt lat="47.38153" lon="-2.36881">
        <ele>4</ele>
        <time>2021-07-01T08:17:45.000Z</time>
      </trkpt>
      <trkpt lat="47.38173" lon="-2.3687">
        <ele>4</ele>
        <time>2021-07-01T08:17:52.000Z</time>
      </trkpt>
      <trkpt lat="47.38196" lon="-2.36856">
        <ele>3.5999999046326</ele>
        <time>2021-07-01T08:17:56.000Z</time>
      </trkpt>
      <trkpt lat="47.38201" lon="-2.36854">
        <ele>3.2000000476837</ele>
        <time>2021-07-01T08:17:57.000Z</time>
      </trkpt>
      <trkpt lat="47.38206" lon="-2.36851">
        <ele>2.7999999523163</ele>
        <time>2021-07-01T08:17:58.000Z</time>
      </trkpt>
      <trkpt lat="47.38211" lon="-2.36849">
        <ele>2.4000000953674</ele>
        <time>2021-07-01T08:17:59.000Z</time>
      </trkpt>
      <trkpt lat="47.38216" lon="-2.36847">
        <ele>2</ele>
        <time>2021-07-01T08:18:00.000Z</time>
      </trkpt>
      <trkpt lat="47.38243" lon="-2.36833">
        <ele>2</ele>
        <time>2021-07-01T08:18:05.000Z</time>
      </trkpt>
      <trkpt lat="47.38253" lon="-2.36828">
        <ele>1.6000000238419</ele>
        <time>2021-07-01T08:18:07.000Z</time>
      </trkpt>
      <trkpt lat="47.38258" lon="-2.36825">
        <ele>1.2000000476837</ele>
        <time>2021-07-01T08:18:08.000Z</time>
      </trkpt>
      <trkpt lat="47.38263" lon="-2.3682">
        <ele>0.40000000596046</ele>
        <time>2021-07-01T08:18:09.000Z</time>
      </trkpt>
      <trkpt lat="47.38267" lon="-2.36817">
        <ele>3</ele>
        <time>2021-07-01T08:18:10.000Z</time>
      </trkpt>
      <trkpt lat="47.3827" lon="-2.36814">
        <ele>3</ele>
        <time>2021-07-01T08:18:11.000Z</time>
      </trkpt>
      <trkpt lat="47.38278" lon="-2.36809">
        <ele>3</ele>
        <time>2021-07-01T08:18:15.000Z</time>
      </trkpt>
      <trkpt lat="47.38294" lon="-2.36803">
        <ele>2.5</ele>
        <time>2021-07-01T08:18:22.000Z</time>
      </trkpt>
      <trkpt lat="47.3831" lon="-2.36802">
        <ele>2.1</ele>
        <time>2021-07-01T08:18:28.000Z</time>
      </trkpt>
      <trkpt lat="47.3833" lon="-2.36793">
        <ele>2.4</ele>
        <time>2021-07-01T08:18:34.000Z</time>
      </trkpt>
      <trkpt lat="47.38348" lon="-2.36778">
        <ele>2.5</ele>
        <time>2021-07-01T08:18:41.000Z</time>
      </trkpt>
      <trkpt lat="47.38364" lon="-2.36747">
        <ele>3</ele>
        <time>2021-07-01T08:18:48.000Z</time>
      </trkpt>
      <trkpt lat="47.38373" lon="-2.36724">
        <ele>3.1</ele>
        <time>2021-07-01T08:18:54.000Z</time>
      </trkpt>
      <trkpt lat="47.38382" lon="-2.36693">
        <ele>2.3</ele>
        <time>2021-07-01T08:19:00.000Z</time>
      </trkpt>
      <trkpt lat="47.38388" lon="-2.36671">
        <ele>2.1</ele>
        <time>2021-07-01T08:19:05.000Z</time>
      </trkpt>
      <trkpt lat="47.38394" lon="-2.36654">
        <ele>2.4</ele>
        <time>2021-07-01T08:19:09.000Z</time>
      </trkpt>
      <trkpt lat="47.38405" lon="-2.36631">
        <ele>2.7</ele>
        <time>2021-07-01T08:19:15.000Z</time>
      </trkpt>
      <trkpt lat="47.38418" lon="-2.36608">
        <ele>3</ele>
        <time>2021-07-01T08:19:20.000Z</time>
      </trkpt>
      <trkpt lat="47.38438" lon="-2.36591">
        <ele>2.9</ele>
        <time>2021-07-01T08:19:25.000Z</time>
      </trkpt>
      <trkpt lat="47.38464" lon="-2.36577">
        <ele>2.5</ele>
        <time>2021-07-01T08:19:31.000Z</time>
      </trkpt>
      <trkpt lat="47.38483" lon="-2.36567">
        <ele>2.6</ele>
        <time>2021-07-01T08:19:35.000Z</time>
      </trkpt>
      <trkpt lat="47.38493" lon="-2.3656">
        <ele>2.8</ele>
        <time>2021-07-01T08:19:37.000Z</time>
      </trkpt>
      <trkpt lat="47.38516" lon="-2.36536">
        <ele>3.1</ele>
        <time>2021-07-01T08:19:42.000Z</time>
      </trkpt>
      <trkpt lat="47.3852" lon="-2.36531">
        <ele>3.1</ele>
        <time>2021-07-01T08:19:43.000Z</time>
      </trkpt>
      <trkpt lat="47.38537" lon="-2.36514">
        <ele>3.2</ele>
        <time>2021-07-01T08:19:47.000Z</time>
      </trkpt>
      <trkpt lat="47.38543" lon="-2.36504">
        <ele>3.3</ele>
        <time>2021-07-01T08:19:49.000Z</time>
      </trkpt>
      <trkpt lat="47.38546" lon="-2.36498">
        <ele>3.3</ele>
        <time>2021-07-01T08:19:50.000Z</time>
      </trkpt>
      <trkpt lat="47.38562" lon="-2.36462">
        <ele>3.1</ele>
        <time>2021-07-01T08:19:56.000Z</time>
      </trkpt>
      <trkpt lat="47.38577" lon="-2.36427">
        <ele>3.1</ele>
        <time>2021-07-01T08:20:02.000Z</time>
      </trkpt>
      <trkpt lat="47.3858" lon="-2.36421">
        <ele>3.1</ele>
        <time>2021-07-01T08:20:03.000Z</time>
      </trkpt>
      <trkpt lat="47.38594" lon="-2.36392">
        <ele>3.2</ele>
        <time>2021-07-01T08:20:08.000Z</time>
      </trkpt>
      <trkpt lat="47.38597" lon="-2.36386">
        <ele>3.1</ele>
        <time>2021-07-01T08:20:09.000Z</time>
      </trkpt>
      <trkpt lat="47.38611" lon="-2.36354">
        <ele>3</ele>
        <time>2021-07-01T08:20:14.000Z</time>
      </trkpt>
      <trkpt lat="47.38614" lon="-2.36348">
        <ele>2.9</ele>
        <time>2021-07-01T08:20:15.000Z</time>
      </trkpt>
      <trkpt lat="47.38619" lon="-2.3633">
        <ele>2.7</ele>
        <time>2021-07-01T08:20:18.000Z</time>
      </trkpt>
      <trkpt lat="47.38624" lon="-2.3631">
        <ele>2.5</ele>
        <time>2021-07-01T08:20:21.000Z</time>
      </trkpt>
      <trkpt lat="47.38624" lon="-2.36298">
        <ele>2.5</ele>
        <time>2021-07-01T08:20:23.000Z</time>
      </trkpt>
      <trkpt lat="47.38612" lon="-2.36274">
        <ele>2.8</ele>
        <time>2021-07-01T08:20:28.000Z</time>
      </trkpt>
      <trkpt lat="47.38594" lon="-2.36265">
        <ele>2.9</ele>
        <time>2021-07-01T08:20:32.000Z</time>
      </trkpt>
      <trkpt lat="47.3859" lon="-2.36263">
        <ele>2.9</ele>
        <time>2021-07-01T08:20:33.000Z</time>
      </trkpt>
      <trkpt lat="47.38576" lon="-2.36259">
        <ele>2.7</ele>
        <time>2021-07-01T08:20:36.000Z</time>
      </trkpt>
      <trkpt lat="47.38563" lon="-2.36259">
        <ele>2.7</ele>
        <time>2021-07-01T08:20:39.000Z</time>
      </trkpt>
      <trkpt lat="47.38537" lon="-2.36261">
        <ele>2.8</ele>
        <time>2021-07-01T08:20:45.000Z</time>
      </trkpt>
      <trkpt lat="47.38504" lon="-2.36252">
        <ele>2.9</ele>
        <time>2021-07-01T08:20:52.000Z</time>
      </trkpt>
      <trkpt lat="47.38495" lon="-2.36249">
        <ele>3</ele>
        <time>2021-07-01T08:20:54.000Z</time>
      </trkpt>
      <trkpt lat="47.38481" lon="-2.36252">
        <ele>3.1</ele>
        <time>2021-07-01T08:20:57.000Z</time>
      </trkpt>
      <trkpt lat="47.38471" lon="-2.36262">
        <ele>3.4</ele>
        <time>2021-07-01T08:21:00.000Z</time>
      </trkpt>
      <trkpt lat="47.38458" lon="-2.36268">
        <ele>3.3</ele>
        <time>2021-07-01T08:21:04.000Z</time>
      </trkpt>
      <trkpt lat="47.38446" lon="-2.36266">
        <ele>3</ele>
        <time>2021-07-01T08:21:08.000Z</time>
      </trkpt>
      <trkpt lat="47.38445" lon="-2.36265">
        <ele>3</ele>
        <time>2021-07-01T08:21:09.000Z</time>
      </trkpt>
      <trkpt lat="47.38442" lon="-2.36263">
        <ele>3.2</ele>
        <time>2021-07-01T08:21:11.000Z</time>
      </trkpt>
      <trkpt lat="47.38438" lon="-2.36255">
        <ele>3.5</ele>
        <time>2021-07-01T08:21:14.000Z</time>
      </trkpt>
      <trkpt lat="47.38428" lon="-2.36232">
        <ele>3.5</ele>
        <time>2021-07-01T08:21:19.000Z</time>
      </trkpt>
      <trkpt lat="47.38426" lon="-2.3622">
        <ele>3.3</ele>
        <time>2021-07-01T08:21:22.000Z</time>
      </trkpt>
      <trkpt lat="47.38423" lon="-2.36214">
        <ele>3.4</ele>
        <time>2021-07-01T08:21:24.000Z</time>
      </trkpt>
      <trkpt lat="47.38409" lon="-2.36207">
        <ele>3.3</ele>
        <time>2021-07-01T08:21:29.000Z</time>
      </trkpt>
      <trkpt lat="47.38398" lon="-2.36191">
        <ele>2.3</ele>
        <time>2021-07-01T08:21:33.000Z</time>
      </trkpt>
      <trkpt lat="47.38385" lon="-2.36184">
        <ele>2.1</ele>
        <time>2021-07-01T08:21:36.000Z</time>
      </trkpt>
      <trkpt lat="47.38381" lon="-2.36183">
        <ele>2.2</ele>
        <time>2021-07-01T08:21:37.000Z</time>
      </trkpt>
      <trkpt lat="47.38366" lon="-2.36169">
        <ele>2.1</ele>
        <time>2021-07-01T08:21:41.000Z</time>
      </trkpt>
      <trkpt lat="47.38359" lon="-2.36147">
        <ele>2.2</ele>
        <time>2021-07-01T08:21:45.000Z</time>
      </trkpt>
      <trkpt lat="47.38348" lon="-2.36114">
        <ele>2.5</ele>
        <time>2021-07-01T08:21:51.000Z</time>
      </trkpt>
      <trkpt lat="47.38343" lon="-2.36102">
        <ele>2.7</ele>
        <time>2021-07-01T08:21:53.000Z</time>
      </trkpt>
      <trkpt lat="47.38335" lon="-2.36083">
        <ele>2.9</ele>
        <time>2021-07-01T08:21:56.000Z</time>
      </trkpt>
      <trkpt lat="47.38323" lon="-2.36052">
        <ele>2.7</ele>
        <time>2021-07-01T08:22:02.000Z</time>
      </trkpt>
      <trkpt lat="47.38316" lon="-2.36032">
        <ele>3.3</ele>
        <time>2021-07-01T08:22:05.000Z</time>
      </trkpt>
      <trkpt lat="47.38314" lon="-2.36019">
        <ele>3.2</ele>
        <time>2021-07-01T08:22:07.000Z</time>
      </trkpt>
      <trkpt lat="47.38313" lon="-2.36013">
        <ele>3.1</ele>
        <time>2021-07-01T08:22:08.000Z</time>
      </trkpt>
      <trkpt lat="47.38308" lon="-2.35982">
        <ele>2.9</ele>
        <time>2021-07-01T08:22:13.000Z</time>
      </trkpt>
      <trkpt lat="47.38306" lon="-2.35975">
        <ele>3</ele>
        <time>2021-07-01T08:22:14.000Z</time>
      </trkpt>
      <trkpt lat="47.38297" lon="-2.35942">
        <ele>2.6</ele>
        <time>2021-07-01T08:22:19.000Z</time>
      </trkpt>
      <trkpt lat="47.38291" lon="-2.35923">
        <ele>2.7</ele>
        <time>2021-07-01T08:22:23.000Z</time>
      </trkpt>
      <trkpt lat="47.3828" lon="-2.35922">
        <ele>3.1</ele>
        <time>2021-07-01T08:22:26.000Z</time>
      </trkpt>
      <trkpt lat="47.38274" lon="-2.35926">
        <ele>3.5</ele>
        <time>2021-07-01T08:22:28.000Z</time>
      </trkpt>
      <trkpt lat="47.38264" lon="-2.35935">
        <ele>4.2</ele>
        <time>2021-07-01T08:22:31.000Z</time>
      </trkpt>
      <trkpt lat="47.38231" lon="-2.35958">
        <ele>5</ele>
        <time>2021-07-01T08:22:39.000Z</time>
      </trkpt>
      <trkpt lat="47.38202" lon="-2.35979">
        <ele>5.2</ele>
        <time>2021-07-01T08:22:46.000Z</time>
      </trkpt>
      <trkpt lat="47.38197" lon="-2.35981">
        <ele>5.3</ele>
        <time>2021-07-01T08:22:47.000Z</time>
      </trkpt>
      <trkpt lat="47.38166" lon="-2.36004">
        <ele>6</ele>
        <time>2021-07-01T08:22:54.000Z</time>
      </trkpt>
      <trkpt lat="47.38161" lon="-2.36007">
        <ele>0.40000000596046</ele>
        <time>2021-07-01T08:22:55.000Z</time>
      </trkpt>
      <trkpt lat="47.38157" lon="-2.3601">
        <ele>0.80000001192093</ele>
        <time>2021-07-01T08:22:56.000Z</time>
      </trkpt>
      <trkpt lat="47.38152" lon="-2.36014">
        <ele>1.2000000476837</ele>
        <time>2021-07-01T08:22:57.000Z</time>
      </trkpt>
      <trkpt lat="47.38147" lon="-2.36018">
        <ele>1.6000000238419</ele>
        <time>2021-07-01T08:22:58.000Z</time>
      </trkpt>
      <trkpt lat="47.38142" lon="-2.36021">
        <ele>2</ele>
        <time>2021-07-01T08:22:59.000Z</time>
      </trkpt>
      <trkpt lat="47.38137" lon="-2.36024">
        <ele>2</ele>
        <time>2021-07-01T08:23:00.000Z</time>
      </trkpt>
      <trkpt lat="47.38097" lon="-2.36042">
        <ele>2</ele>
        <time>2021-07-01T08:23:08.000Z</time>
      </trkpt>
      <trkpt lat="47.38057" lon="-2.36056">
        <ele>2</ele>
        <time>2021-07-01T08:23:16.000Z</time>
      </trkpt>
      <trkpt lat="47.38017" lon="-2.3607">
        <ele>2</ele>
        <time>2021-07-01T08:23:24.000Z</time>
      </trkpt>
      <trkpt lat="47.37983" lon="-2.36083">
        <ele>2</ele>
        <time>2021-07-01T08:23:31.000Z</time>
      </trkpt>
      <trkpt lat="47.37944" lon="-2.36103">
        <ele>2</ele>
        <time>2021-07-01T08:23:39.000Z</time>
      </trkpt>
      <trkpt lat="47.37908" lon="-2.36123">
        <ele>2.4000000953674</ele>
        <time>2021-07-01T08:23:47.000Z</time>
      </trkpt>
      <trkpt lat="47.37904" lon="-2.36125">
        <ele>2.7999999523163</ele>
        <time>2021-07-01T08:23:48.000Z</time>
      </trkpt>
      <trkpt lat="47.37899" lon="-2.36126">
        <ele>3.2000000476837</ele>
        <time>2021-07-01T08:23:49.000Z</time>
      </trkpt>
      <trkpt lat="47.37894" lon="-2.36127">
        <ele>3.5999999046326</ele>
        <time>2021-07-01T08:23:50.000Z</time>
      </trkpt>
      <trkpt lat="47.3789" lon="-2.36127">
        <ele>4</ele>
        <time>2021-07-01T08:23:51.000Z</time>
      </trkpt>
      <trkpt lat="47.37885" lon="-2.36126">
        <ele>4</ele>
        <time>2021-07-01T08:23:52.000Z</time>
      </trkpt>
      <trkpt lat="47.3788" lon="-2.36125">
        <ele>4</ele>
        <time>2021-07-01T08:23:53.000Z</time>
      </trkpt>
      <trkpt lat="47.37859" lon="-2.36115">
        <ele>4</ele>
        <time>2021-07-01T08:23:57.000Z</time>
      </trkpt>
      <trkpt lat="47.37818" lon="-2.3609">
        <ele>4</ele>
        <time>2021-07-01T08:24:05.000Z</time>
      </trkpt>
      <trkpt lat="47.37808" lon="-2.36086">
        <ele>4</ele>
        <time>2021-07-01T08:24:07.000Z</time>
      </trkpt>
      <trkpt lat="47.37793" lon="-2.36079">
        <ele>4</ele>
        <time>2021-07-01T08:24:10.000Z</time>
      </trkpt>
      <trkpt lat="47.37753" lon="-2.36056">
        <ele>4</ele>
        <time>2021-07-01T08:24:18.000Z</time>
      </trkpt>
      <trkpt lat="47.37721" lon="-2.36035">
        <ele>4</ele>
        <time>2021-07-01T08:24:24.000Z</time>
      </trkpt>
      <trkpt lat="47.37689" lon="-2.36018">
        <ele>4</ele>
        <time>2021-07-01T08:24:30.000Z</time>
      </trkpt>
      <trkpt lat="47.37651" lon="-2.36008">
        <ele>4</ele>
        <time>2021-07-01T08:24:37.000Z</time>
      </trkpt>
      <trkpt lat="47.37643" lon="-2.36007">
        <ele>4</ele>
        <time>2021-07-01T08:24:39.000Z</time>
      </trkpt>
      <trkpt lat="47.37638" lon="-2.36015">
        <ele>4</ele>
        <time>2021-07-01T08:24:41.000Z</time>
      </trkpt>
      <trkpt lat="47.37638" lon="-2.36031">
        <ele>4</ele>
        <time>2021-07-01T08:24:44.000Z</time>
      </trkpt>
      <trkpt lat="47.37635" lon="-2.36041">
        <ele>4</ele>
        <time>2021-07-01T08:24:46.000Z</time>
      </trkpt>
      <trkpt lat="47.37623" lon="-2.36049">
        <ele>4</ele>
        <time>2021-07-01T08:24:49.000Z</time>
      </trkpt>
      <trkpt lat="47.37614" lon="-2.3605">
        <ele>4</ele>
        <time>2021-07-01T08:24:51.000Z</time>
      </trkpt>
      <trkpt lat="47.37593" lon="-2.36052">
        <ele>4</ele>
        <time>2021-07-01T08:24:56.000Z</time>
      </trkpt>
      <trkpt lat="47.37568" lon="-2.36058">
        <ele>4</ele>
        <time>2021-07-01T08:25:01.000Z</time>
      </trkpt>
      <trkpt lat="47.37535" lon="-2.36072">
        <ele>4</ele>
        <time>2021-07-01T08:25:07.000Z</time>
      </trkpt>
      <trkpt lat="47.37495" lon="-2.36089">
        <ele>4</ele>
        <time>2021-07-01T08:25:14.000Z</time>
      </trkpt>
      <trkpt lat="47.37457" lon="-2.36112">
        <ele>4</ele>
        <time>2021-07-01T08:25:21.000Z</time>
      </trkpt>
      <trkpt lat="47.37452" lon="-2.36115">
        <ele>3.5999999046326</ele>
        <time>2021-07-01T08:25:22.000Z</time>
      </trkpt>
      <trkpt lat="47.37446" lon="-2.36118">
        <ele>3.2000000476837</ele>
        <time>2021-07-01T08:25:23.000Z</time>
      </trkpt>
      <trkpt lat="47.3744" lon="-2.36121">
        <ele>2.7999999523163</ele>
        <time>2021-07-01T08:25:24.000Z</time>
      </trkpt>
      <trkpt lat="47.37434" lon="-2.36126">
        <ele>2.4000000953674</ele>
        <time>2021-07-01T08:25:25.000Z</time>
      </trkpt>
      <trkpt lat="47.37428" lon="-2.3613">
        <ele>2</ele>
        <time>2021-07-01T08:25:26.000Z</time>
      </trkpt>
      <trkpt lat="47.37422" lon="-2.36135">
        <ele>1.3999999761581</ele>
        <time>2021-07-01T08:25:27.000Z</time>
      </trkpt>
      <trkpt lat="47.37418" lon="-2.36138">
        <ele>1</ele>
        <time>2021-07-01T08:25:28.000Z</time>
      </trkpt>
      <trkpt lat="47.37414" lon="-2.3614">
        <ele>0.60000002384186</ele>
        <time>2021-07-01T08:25:29.000Z</time>
      </trkpt>
      <trkpt lat="47.3741" lon="-2.36138">
        <ele>0.20000000298023</ele>
        <time>2021-07-01T08:25:30.000Z</time>
      </trkpt>
      <trkpt lat="47.37407" lon="-2.36136">
        <ele>-0.20000000298023</ele>
        <time>2021-07-01T08:25:31.000Z</time>
      </trkpt>
      <trkpt lat="47.37392" lon="-2.36118">
        <ele>-0.20000000298023</ele>
        <time>2021-07-01T08:25:35.000Z</time>
      </trkpt>
      <trkpt lat="47.37385" lon="-2.36109">
        <ele>-0.20000000298023</ele>
        <time>2021-07-01T08:25:37.000Z</time>
      </trkpt>
      <trkpt lat="47.37376" lon="-2.3611">
        <ele>-0.20000000298023</ele>
        <time>2021-07-01T08:25:39.000Z</time>
      </trkpt>
      <trkpt lat="47.37364" lon="-2.36119">
        <ele>-0.20000000298023</ele>
        <time>2021-07-01T08:25:42.000Z</time>
      </trkpt>
      <trkpt lat="47.37356" lon="-2.36126">
        <ele>-0.20000000298023</ele>
        <time>2021-07-01T08:25:44.000Z</time>
      </trkpt>
      <trkpt lat="47.37351" lon="-2.36128">
        <ele>-0.20000000298023</ele>
        <time>2021-07-01T08:25:45.000Z</time>
      </trkpt>
      <trkpt lat="47.3734" lon="-2.36128">
        <ele>-0.20000000298023</ele>
        <time>2021-07-01T08:25:48.000Z</time>
      </trkpt>
      <trkpt lat="47.37323" lon="-2.36122">
        <ele>-0.20000000298023</ele>
        <time>2021-07-01T08:25:52.000Z</time>
      </trkpt>
      <trkpt lat="47.37318" lon="-2.36121">
        <ele>-0.20000000298023</ele>
        <time>2021-07-01T08:25:53.000Z</time>
      </trkpt>
      <trkpt lat="47.37295" lon="-2.36123">
        <ele>-0.80000001192093</ele>
        <time>2021-07-01T08:25:59.000Z</time>
      </trkpt>
      <trkpt lat="47.37293" lon="-2.36124">
        <ele>-1.2000000476837</ele>
        <time>2021-07-01T08:26:00.000Z</time>
      </trkpt>
      <trkpt lat="47.37292" lon="-2.36125">
        <ele>-1.6000000238419</ele>
        <time>2021-07-01T08:26:01.000Z</time>
      </trkpt>
      <trkpt lat="47.37291" lon="-2.36126">
        <ele>-2</ele>
        <time>2021-07-01T08:26:02.000Z</time>
      </trkpt>
      <trkpt lat="47.3729" lon="-2.36128">
        <ele>-2.4000000953674</ele>
        <time>2021-07-01T08:26:03.000Z</time>
      </trkpt>
      <trkpt lat="47.37288" lon="-2.36129">
        <ele>-2.4000000953674</ele>
        <time>2021-07-01T08:26:04.000Z</time>
      </trkpt>
      <trkpt lat="47.37286" lon="-2.36131">
        <ele>-2.4000000953674</ele>
        <time>2021-07-01T08:26:07.000Z</time>
      </trkpt>
      <trkpt lat="47.3725" lon="-2.3611">
        <ele>-2.4000000953674</ele>
        <time>2021-07-01T08:29:45.000Z</time>
      </trkpt>
      <trkpt lat="47.37249" lon="-2.3611">
        <ele>-2.4000000953674</ele>
        <time>2021-07-01T08:29:46.000Z</time>
      </trkpt>
      <trkpt lat="47.37247" lon="-2.36108">
        <ele>-2.4000000953674</ele>
        <time>2021-07-01T08:29:49.000Z</time>
      </trkpt>
      <trkpt lat="47.37231" lon="-2.36086">
        <ele>-2.4000000953674</ele>
        <time>2021-07-01T08:45:41.000Z</time>
      </trkpt>
      <trkpt lat="47.3723" lon="-2.36085">
        <ele>-2.4000000953674</ele>
        <time>2021-07-01T08:45:42.000Z</time>
      </trkpt>
      <trkpt lat="47.3723" lon="-2.36073">
        <ele>-2.4000000953674</ele>
        <time>2021-07-01T08:45:46.000Z</time>
      </trkpt>
      <trkpt lat="47.37226" lon="-2.36062">
        <ele>-2.4000000953674</ele>
        <time>2021-07-01T08:45:49.000Z</time>
      </trkpt>
      <trkpt lat="47.37219" lon="-2.36066">
        <ele>-2.4000000953674</ele>
        <time>2021-07-01T08:45:52.000Z</time>
      </trkpt>
      <trkpt lat="47.37211" lon="-2.36084">
        <ele>-2.4000000953674</ele>
        <time>2021-07-01T08:45:56.000Z</time>
      </trkpt>
      <trkpt lat="47.37208" lon="-2.36089">
        <ele>-2.4000000953674</ele>
        <time>2021-07-01T08:45:57.000Z</time>
      </trkpt>
      <trkpt lat="47.37202" lon="-2.36099">
        <ele>-2.4000000953674</ele>
        <time>2021-07-01T08:45:59.000Z</time>
      </trkpt>
      <trkpt lat="47.3719" lon="-2.36122">
        <ele>-2.4000000953674</ele>
        <time>2021-07-01T08:46:03.000Z</time>
      </trkpt>
      <trkpt lat="47.37169" lon="-2.36165">
        <ele>-2.4000000953674</ele>
        <time>2021-07-01T08:46:10.000Z</time>
      </trkpt>
      <trkpt lat="47.37157" lon="-2.36187">
        <ele>-2.4000000953674</ele>
        <time>2021-07-01T08:46:14.000Z</time>
      </trkpt>
      <trkpt lat="47.37153" lon="-2.36197">
        <ele>-2.4000000953674</ele>
        <time>2021-07-01T08:46:16.000Z</time>
      </trkpt>
      <trkpt lat="47.37143" lon="-2.36222">
        <ele>-2</ele>
        <time>2021-07-01T08:46:21.000Z</time>
      </trkpt>
      <trkpt lat="47.37141" lon="-2.36227">
        <ele>-1.6000000238419</ele>
        <time>2021-07-01T08:46:22.000Z</time>
      </trkpt>
      <trkpt lat="47.37138" lon="-2.36233">
        <ele>-1.2000000476837</ele>
        <time>2021-07-01T08:46:23.000Z</time>
      </trkpt>
      <trkpt lat="47.37135" lon="-2.36239">
        <ele>-0.80000001192093</ele>
        <time>2021-07-01T08:46:24.000Z</time>
      </trkpt>
      <trkpt lat="47.37132" lon="-2.36245">
        <ele>-0.40000000596046</ele>
        <time>2021-07-01T08:46:25.000Z</time>
      </trkpt>
      <trkpt lat="47.37123" lon="-2.36262">
        <ele>-0.40000000596046</ele>
        <time>2021-07-01T08:46:28.000Z</time>
      </trkpt>
      <trkpt lat="47.37097" lon="-2.36315">
        <ele>-0.40000000596046</ele>
        <time>2021-07-01T08:46:37.000Z</time>
      </trkpt>
      <trkpt lat="47.37077" lon="-2.36356">
        <ele>-0.40000000596046</ele>
        <time>2021-07-01T08:46:44.000Z</time>
      </trkpt>
      <trkpt lat="47.37073" lon="-2.3636">
        <ele>-0.40000000596046</ele>
        <time>2021-07-01T08:46:45.000Z</time>
      </trkpt>
      <trkpt lat="47.37052" lon="-2.36368">
        <ele>-0.40000000596046</ele>
        <time>2021-07-01T08:46:49.000Z</time>
      </trkpt>
      <trkpt lat="47.37035" lon="-2.36367">
        <ele>-0.40000000596046</ele>
        <time>2021-07-01T08:46:52.000Z</time>
      </trkpt>
      <trkpt lat="47.37023" lon="-2.36368">
        <ele>-0.40000000596046</ele>
        <time>2021-07-01T08:46:54.000Z</time>
      </trkpt>
      <trkpt lat="47.36971" lon="-2.36368">
        <ele>-0.40000000596046</ele>
        <time>2021-07-01T08:47:03.000Z</time>
      </trkpt>
      <trkpt lat="47.36927" lon="-2.3637">
        <ele>-0.40000000596046</ele>
        <time>2021-07-01T08:47:11.000Z</time>
      </trkpt>
      <trkpt lat="47.36916" lon="-2.3637">
        <ele>0.20000000298023</ele>
        <time>2021-07-01T08:47:13.000Z</time>
      </trkpt>
      <trkpt lat="47.36911" lon="-2.3637">
        <ele>0.60000002384186</ele>
        <time>2021-07-01T08:47:14.000Z</time>
      </trkpt>
      <trkpt lat="47.36906" lon="-2.3637">
        <ele>1</ele>
        <time>2021-07-01T08:47:15.000Z</time>
      </trkpt>
      <trkpt lat="47.369" lon="-2.3637">
        <ele>1.3999999761581</ele>
        <time>2021-07-01T08:47:16.000Z</time>
      </trkpt>
      <trkpt lat="47.36895" lon="-2.3637">
        <ele>1.7999999523163</ele>
        <time>2021-07-01T08:47:17.000Z</time>
      </trkpt>
      <trkpt lat="47.36878" lon="-2.36372">
        <ele>1.7999999523163</ele>
        <time>2021-07-01T08:47:20.000Z</time>
      </trkpt>
      <trkpt lat="47.36845" lon="-2.3637">
        <ele>1.7999999523163</ele>
        <time>2021-07-01T08:47:26.000Z</time>
      </trkpt>
      <trkpt lat="47.36807" lon="-2.36373">
        <ele>1.7999999523163</ele>
        <time>2021-07-01T08:47:33.000Z</time>
      </trkpt>
      <trkpt lat="47.36769" lon="-2.36374">
        <ele>1.7999999523163</ele>
        <time>2021-07-01T08:47:40.000Z</time>
      </trkpt>
      <trkpt lat="47.36745" lon="-2.36382">
        <ele>1.7999999523163</ele>
        <time>2021-07-01T08:47:45.000Z</time>
      </trkpt>
      <trkpt lat="47.3674" lon="-2.36386">
        <ele>1.7999999523163</ele>
        <time>2021-07-01T08:47:46.000Z</time>
      </trkpt>
      <trkpt lat="47.36728" lon="-2.36399">
        <ele>1.7999999523163</ele>
        <time>2021-07-01T08:47:49.000Z</time>
      </trkpt>
      <trkpt lat="47.3672" lon="-2.36409">
        <ele>1.7999999523163</ele>
        <time>2021-07-01T08:47:51.000Z</time>
      </trkpt>
      <trkpt lat="47.36706" lon="-2.36431">
        <ele>1.7999999523163</ele>
        <time>2021-07-01T08:47:55.000Z</time>
      </trkpt>
      <trkpt lat="47.36697" lon="-2.3644">
        <ele>1.7999999523163</ele>
        <time>2021-07-01T08:47:57.000Z</time>
      </trkpt>
      <trkpt lat="47.36673" lon="-2.36458">
        <ele>2.2000000476837</ele>
        <time>2021-07-01T08:48:02.000Z</time>
      </trkpt>
      <trkpt lat="47.36669" lon="-2.36462">
        <ele>2.5999999046326</ele>
        <time>2021-07-01T08:48:03.000Z</time>
      </trkpt>
      <trkpt lat="47.36664" lon="-2.36465">
        <ele>3</ele>
        <time>2021-07-01T08:48:04.000Z</time>
      </trkpt>
      <trkpt lat="47.36659" lon="-2.36468">
        <ele>3.4000000953674</ele>
        <time>2021-07-01T08:48:05.000Z</time>
      </trkpt>
      <trkpt lat="47.36655" lon="-2.36472">
        <ele>3.7999999523163</ele>
        <time>2021-07-01T08:48:06.000Z</time>
      </trkpt>
      <trkpt lat="47.36632" lon="-2.36486">
        <ele>3.7999999523163</ele>
        <time>2021-07-01T08:48:11.000Z</time>
      </trkpt>
      <trkpt lat="47.36623" lon="-2.36491">
        <ele>3.7999999523163</ele>
        <time>2021-07-01T08:48:13.000Z</time>
      </trkpt>
      <trkpt lat="47.3661" lon="-2.36497">
        <ele>4.1999998092651</ele>
        <time>2021-07-01T08:48:16.000Z</time>
      </trkpt>
      <trkpt lat="47.36606" lon="-2.365">
        <ele>4.5999999046326</ele>
        <time>2021-07-01T08:48:17.000Z</time>
      </trkpt>
      <trkpt lat="47.36602" lon="-2.36503">
        <ele>5</ele>
        <time>2021-07-01T08:48:18.000Z</time>
      </trkpt>
      <trkpt lat="47.36598" lon="-2.36505">
        <ele>5.4000000953674</ele>
        <time>2021-07-01T08:48:19.000Z</time>
      </trkpt>
      <trkpt lat="47.36594" lon="-2.36508">
        <ele>5.8000001907349</ele>
        <time>2021-07-01T08:48:20.000Z</time>
      </trkpt>
      <trkpt lat="47.3659" lon="-2.3651">
        <ele>5.8000001907349</ele>
        <time>2021-07-01T08:48:21.000Z</time>
      </trkpt>
      <trkpt lat="47.36579" lon="-2.36511">
        <ele>5.8000001907349</ele>
        <time>2021-07-01T08:48:24.000Z</time>
      </trkpt>
      <trkpt lat="47.36568" lon="-2.36501">
        <ele>6.4000000953674</ele>
        <time>2021-07-01T08:48:28.000Z</time>
      </trkpt>
      <trkpt lat="47.36566" lon="-2.36496">
        <ele>6.8000001907349</ele>
        <time>2021-07-01T08:48:29.000Z</time>
      </trkpt>
      <trkpt lat="47.36563" lon="-2.36491">
        <ele>7.1999998092651</ele>
        <time>2021-07-01T08:48:30.000Z</time>
      </trkpt>
      <trkpt lat="47.36561" lon="-2.36486">
        <ele>7.5999999046326</ele>
        <time>2021-07-01T08:48:31.000Z</time>
      </trkpt>
      <trkpt lat="47.36559" lon="-2.36481">
        <ele>8</ele>
        <time>2021-07-01T08:48:32.000Z</time>
      </trkpt>
      <trkpt lat="47.36554" lon="-2.3647">
        <ele>8</ele>
        <time>2021-07-01T08:48:34.000Z</time>
      </trkpt>
      <trkpt lat="47.36551" lon="-2.36456">
        <ele>8</ele>
        <time>2021-07-01T08:48:36.000Z</time>
      </trkpt>
      <trkpt lat="47.36544" lon="-2.36439">
        <ele>8</ele>
        <time>2021-07-01T08:48:39.000Z</time>
      </trkpt>
      <trkpt lat="47.36524" lon="-2.36385">
        <ele>8</ele>
        <time>2021-07-01T08:48:47.000Z</time>
      </trkpt>
      <trkpt lat="47.36504" lon="-2.36325">
        <ele>8</ele>
        <time>2021-07-01T08:48:55.000Z</time>
      </trkpt>
      <trkpt lat="47.36486" lon="-2.36272">
        <ele>8</ele>
        <time>2021-07-01T08:49:03.000Z</time>
      </trkpt>
      <trkpt lat="47.36476" lon="-2.36237">
        <ele>8</ele>
        <time>2021-07-01T08:49:10.000Z</time>
      </trkpt>
      <trkpt lat="47.36472" lon="-2.36224">
        <ele>8</ele>
        <time>2021-07-01T08:49:15.000Z</time>
      </trkpt>
      <trkpt lat="47.36467" lon="-2.3621">
        <ele>8</ele>
        <time>2021-07-01T08:49:21.000Z</time>
      </trkpt>
      <trkpt lat="47.36459" lon="-2.3618">
        <ele>8</ele>
        <time>2021-07-01T08:49:27.000Z</time>
      </trkpt>
      <trkpt lat="47.36447" lon="-2.36139">
        <ele>8.6000003814697</ele>
        <time>2021-07-01T08:49:34.000Z</time>
      </trkpt>
      <trkpt lat="47.36445" lon="-2.36133">
        <ele>9</ele>
        <time>2021-07-01T08:49:35.000Z</time>
      </trkpt>
      <trkpt lat="47.36444" lon="-2.36127">
        <ele>9.3999996185303</ele>
        <time>2021-07-01T08:49:36.000Z</time>
      </trkpt>
      <trkpt lat="47.36443" lon="-2.36121">
        <ele>9.8000001907349</ele>
        <time>2021-07-01T08:49:37.000Z</time>
      </trkpt>
      <trkpt lat="47.36442" lon="-2.36115">
        <ele>10.199999809265</ele>
        <time>2021-07-01T08:49:38.000Z</time>
      </trkpt>
      <trkpt lat="47.3644" lon="-2.36101">
        <ele>10.199999809265</ele>
        <time>2021-07-01T08:49:40.000Z</time>
      </trkpt>
      <trkpt lat="47.36439" lon="-2.36095">
        <ele>10.199999809265</ele>
        <time>2021-07-01T08:49:41.000Z</time>
      </trkpt>
      <trkpt lat="47.3644" lon="-2.36089">
        <ele>10.199999809265</ele>
        <time>2021-07-01T08:49:42.000Z</time>
      </trkpt>
      <trkpt lat="47.36446" lon="-2.36076">
        <ele>10.199999809265</ele>
        <time>2021-07-01T08:49:44.000Z</time>
      </trkpt>
      <trkpt lat="47.36464" lon="-2.36039">
        <ele>9.8000001907349</ele>
        <time>2021-07-01T08:49:49.000Z</time>
      </trkpt>
      <trkpt lat="47.36468" lon="-2.36031">
        <ele>9.1999998092651</ele>
        <time>2021-07-01T08:49:50.000Z</time>
      </trkpt>
      <trkpt lat="47.36473" lon="-2.36024">
        <ele>8.8000001907349</ele>
        <time>2021-07-01T08:49:51.000Z</time>
      </trkpt>
      <trkpt lat="47.36478" lon="-2.36017">
        <ele>8.3999996185303</ele>
        <time>2021-07-01T08:49:52.000Z</time>
      </trkpt>
      <trkpt lat="47.36483" lon="-2.36011">
        <ele>8</ele>
        <time>2021-07-01T08:49:53.000Z</time>
      </trkpt>
      <trkpt lat="47.36494" lon="-2.36001">
        <ele>8</ele>
        <time>2021-07-01T08:49:55.000Z</time>
      </trkpt>
      <trkpt lat="47.36504" lon="-2.3599">
        <ele>7.5999999046326</ele>
        <time>2021-07-01T08:49:57.000Z</time>
      </trkpt>
      <trkpt lat="47.36509" lon="-2.35983">
        <ele>7.1999998092651</ele>
        <time>2021-07-01T08:49:58.000Z</time>
      </trkpt>
      <trkpt lat="47.36515" lon="-2.35977">
        <ele>6.8000001907349</ele>
        <time>2021-07-01T08:49:59.000Z</time>
      </trkpt>
      <trkpt lat="47.3652" lon="-2.35971">
        <ele>6.4000000953674</ele>
        <time>2021-07-01T08:50:00.000Z</time>
      </trkpt>
      <trkpt lat="47.36525" lon="-2.35965">
        <ele>6</ele>
        <time>2021-07-01T08:50:01.000Z</time>
      </trkpt>
      <trkpt lat="47.36551" lon="-2.3593">
        <ele>6</ele>
        <time>2021-07-01T08:50:06.000Z</time>
      </trkpt>
      <trkpt lat="47.36581" lon="-2.35888">
        <ele>5.5999999046326</ele>
        <time>2021-07-01T08:50:12.000Z</time>
      </trkpt>
      <trkpt lat="47.36584" lon="-2.3588">
        <ele>5</ele>
        <time>2021-07-01T08:50:13.000Z</time>
      </trkpt>
      <trkpt lat="47.36584" lon="-2.35871">
        <ele>4.1999998092651</ele>
        <time>2021-07-01T08:50:14.000Z</time>
      </trkpt>
      <trkpt lat="47.36584" lon="-2.35862">
        <ele>3.7999999523163</ele>
        <time>2021-07-01T08:50:15.000Z</time>
      </trkpt>
      <trkpt lat="47.36578" lon="-2.35845">
        <ele>3.7999999523163</ele>
        <time>2021-07-01T08:50:18.000Z</time>
      </trkpt>
      <trkpt lat="47.36574" lon="-2.35832">
        <ele>3.7999999523163</ele>
        <time>2021-07-01T08:50:22.000Z</time>
      </trkpt>
      <trkpt lat="47.36571" lon="-2.35806">
        <ele>3.7999999523163</ele>
        <time>2021-07-01T08:50:28.000Z</time>
      </trkpt>
      <trkpt lat="47.36561" lon="-2.35774">
        <ele>3.7999999523163</ele>
        <time>2021-07-01T08:50:33.000Z</time>
      </trkpt>
      <trkpt lat="47.36556" lon="-2.35759">
        <ele>3.7999999523163</ele>
        <time>2021-07-01T08:50:35.000Z</time>
      </trkpt>
      <trkpt lat="47.36545" lon="-2.35728">
        <ele>3.7999999523163</ele>
        <time>2021-07-01T08:50:39.000Z</time>
      </trkpt>
      <trkpt lat="47.3653" lon="-2.3568">
        <ele>3.7999999523163</ele>
        <time>2021-07-01T08:50:45.000Z</time>
      </trkpt>
      <trkpt lat="47.36506" lon="-2.35606">
        <ele>3.7999999523163</ele>
        <time>2021-07-01T08:50:54.000Z</time>
      </trkpt>
      <trkpt lat="47.36481" lon="-2.35527">
        <ele>3.7999999523163</ele>
        <time>2021-07-01T08:51:04.000Z</time>
      </trkpt>
      <trkpt lat="47.36478" lon="-2.35512">
        <ele>3.7999999523163</ele>
        <time>2021-07-01T08:51:06.000Z</time>
      </trkpt>
      <trkpt lat="47.36483" lon="-2.35498">
        <ele>3.7999999523163</ele>
        <time>2021-07-01T08:51:08.000Z</time>
      </trkpt>
      <trkpt lat="47.36491" lon="-2.35485">
        <ele>3.7999999523163</ele>
        <time>2021-07-01T08:51:10.000Z</time>
      </trkpt>
      <trkpt lat="47.365" lon="-2.35471">
        <ele>3.7999999523163</ele>
        <time>2021-07-01T08:51:12.000Z</time>
      </trkpt>
      <trkpt lat="47.3653" lon="-2.3542">
        <ele>3.7999999523163</ele>
        <time>2021-07-01T08:51:19.000Z</time>
      </trkpt>
      <trkpt lat="47.36544" lon="-2.35397">
        <ele>3.4000000953674</ele>
        <time>2021-07-01T08:51:22.000Z</time>
      </trkpt>
      <trkpt lat="47.36548" lon="-2.3539">
        <ele>3</ele>
        <time>2021-07-01T08:51:23.000Z</time>
      </trkpt>
      <trkpt lat="47.36553" lon="-2.35383">
        <ele>2.5999999046326</ele>
        <time>2021-07-01T08:51:24.000Z</time>
      </trkpt>
      <trkpt lat="47.36558" lon="-2.35375">
        <ele>2.2000000476837</ele>
        <time>2021-07-01T08:51:25.000Z</time>
      </trkpt>
      <trkpt lat="47.36562" lon="-2.35368">
        <ele>1.7999999523163</ele>
        <time>2021-07-01T08:51:26.000Z</time>
      </trkpt>
      <trkpt lat="47.36566" lon="-2.3536">
        <ele>1.7999999523163</ele>
        <time>2021-07-01T08:51:27.000Z</time>
      </trkpt>
      <trkpt lat="47.36578" lon="-2.35336">
        <ele>1.7999999523163</ele>
        <time>2021-07-01T08:51:30.000Z</time>
      </trkpt>
      <trkpt lat="47.36583" lon="-2.35328">
        <ele>1.7999999523163</ele>
        <time>2021-07-01T08:51:31.000Z</time>
      </trkpt>
      <trkpt lat="47.36614" lon="-2.35277">
        <ele>1.7999999523163</ele>
        <time>2021-07-01T08:51:38.000Z</time>
      </trkpt>
      <trkpt lat="47.36618" lon="-2.35271">
        <ele>1.7999999523163</ele>
        <time>2021-07-01T08:51:39.000Z</time>
      </trkpt>
      <trkpt lat="47.36637" lon="-2.35237">
        <ele>1.7999999523163</ele>
        <time>2021-07-01T08:51:44.000Z</time>
      </trkpt>
      <trkpt lat="47.36638" lon="-2.35229">
        <ele>1.7999999523163</ele>
        <time>2021-07-01T08:51:45.000Z</time>
      </trkpt>
      <trkpt lat="47.3663" lon="-2.35208">
        <ele>1.7999999523163</ele>
        <time>2021-07-01T08:51:48.000Z</time>
      </trkpt>
      <trkpt lat="47.36623" lon="-2.35195">
        <ele>1.7999999523163</ele>
        <time>2021-07-01T08:51:50.000Z</time>
      </trkpt>
      <trkpt lat="47.36606" lon="-2.35168">
        <ele>1.7999999523163</ele>
        <time>2021-07-01T08:51:54.000Z</time>
      </trkpt>
      <trkpt lat="47.36574" lon="-2.35118">
        <ele>1.7999999523163</ele>
        <time>2021-07-01T08:52:02.000Z</time>
      </trkpt>
      <trkpt lat="47.36542" lon="-2.35067">
        <ele>1.7999999523163</ele>
        <time>2021-07-01T08:52:10.000Z</time>
      </trkpt>
      <trkpt lat="47.36515" lon="-2.35022">
        <ele>1.7999999523163</ele>
        <time>2021-07-01T08:52:17.000Z</time>
      </trkpt>
      <trkpt lat="47.365" lon="-2.34997">
        <ele>1.7999999523163</ele>
        <time>2021-07-01T08:52:22.000Z</time>
      </trkpt>
      <trkpt lat="47.36493" lon="-2.34983">
        <ele>1.7999999523163</ele>
        <time>2021-07-01T08:52:27.000Z</time>
      </trkpt>
      <trkpt lat="47.36491" lon="-2.34991">
        <ele>1.7999999523163</ele>
        <time>2021-07-01T08:52:30.000Z</time>
      </trkpt>
      <trkpt lat="47.36496" lon="-2.35009">
        <ele>1.7999999523163</ele>
        <time>2021-07-01T08:52:34.000Z</time>
      </trkpt>
      <trkpt lat="47.36499" lon="-2.35013">
        <ele>1.7999999523163</ele>
        <time>2021-07-01T08:52:35.000Z</time>
      </trkpt>
      <trkpt lat="47.36511" lon="-2.35033">
        <ele>1.7999999523163</ele>
        <time>2021-07-01T08:52:40.000Z</time>
      </trkpt>
      <trkpt lat="47.36524" lon="-2.35053">
        <ele>1.7999999523163</ele>
        <time>2021-07-01T08:52:46.000Z</time>
      </trkpt>
      <trkpt lat="47.36529" lon="-2.35059">
        <ele>1.7999999523163</ele>
        <time>2021-07-01T08:52:51.000Z</time>
      </trkpt>
      <trkpt lat="47.36529" lon="-2.35059">
        <ele>1.7999999523163</ele>
        <time>2021-07-01T08:52:53.000Z</time>
      </trkpt>
      <trkpt lat="47.36532" lon="-2.35061">
        <ele>1.7999999523163</ele>
        <time>2021-07-01T08:52:54.000Z</time>
      </trkpt>
      <trkpt lat="47.36532" lon="-2.35063">
        <ele>1.7999999523163</ele>
        <time>2021-07-01T08:52:56.000Z</time>
      </trkpt>
      <trkpt lat="47.36542" lon="-2.35078">
        <ele>1.7999999523163</ele>
        <time>2021-07-01T08:53:02.000Z</time>
      </trkpt>
      <trkpt lat="47.36544" lon="-2.35088">
        <ele>1.7999999523163</ele>
        <time>2021-07-01T08:53:04.000Z</time>
      </trkpt>
      <trkpt lat="47.36541" lon="-2.35093">
        <ele>1.7999999523163</ele>
        <time>2021-07-01T08:53:06.000Z</time>
      </trkpt>
      <trkpt lat="47.36526" lon="-2.35099">
        <ele>1.7999999523163</ele>
        <time>2021-07-01T08:53:10.000Z</time>
      </trkpt>
      <trkpt lat="47.36514" lon="-2.351">
        <ele>1.7999999523163</ele>
        <time>2021-07-01T08:53:13.000Z</time>
      </trkpt>
      <trkpt lat="47.36505" lon="-2.35103">
        <ele>1.7999999523163</ele>
        <time>2021-07-01T08:53:15.000Z</time>
      </trkpt>
      <trkpt lat="47.3649" lon="-2.35101">
        <ele>1.7999999523163</ele>
        <time>2021-07-01T08:53:19.000Z</time>
      </trkpt>
      <trkpt lat="47.36485" lon="-2.35098">
        <ele>1.7999999523163</ele>
        <time>2021-07-01T08:53:20.000Z</time>
      </trkpt>
      <trkpt lat="47.36461" lon="-2.35084">
        <ele>1.7999999523163</ele>
        <time>2021-07-01T08:53:26.000Z</time>
      </trkpt>
      <trkpt lat="47.36457" lon="-2.35083">
        <ele>1.7999999523163</ele>
        <time>2021-07-01T08:53:27.000Z</time>
      </trkpt>
      <trkpt lat="47.36443" lon="-2.35075">
        <ele>1.7999999523163</ele>
        <time>2021-07-01T08:53:31.000Z</time>
      </trkpt>
      <trkpt lat="47.36428" lon="-2.35068">
        <ele>1.7999999523163</ele>
        <time>2021-07-01T08:53:37.000Z</time>
      </trkpt>
      <trkpt lat="47.36427" lon="-2.35066">
        <ele>1.7999999523163</ele>
        <time>2021-07-01T08:53:40.000Z</time>
      </trkpt>
      <trkpt lat="47.36416" lon="-2.35069">
        <ele>1.7999999523163</ele>
        <time>2021-07-01T08:54:18.000Z</time>
      </trkpt>
      <trkpt lat="47.36414" lon="-2.35071">
        <ele>1.7999999523163</ele>
        <time>2021-07-01T08:54:19.000Z</time>
      </trkpt>
      <trkpt lat="47.36405" lon="-2.35078">
        <ele>1.7999999523163</ele>
        <time>2021-07-01T08:54:24.000Z</time>
      </trkpt>
      <trkpt lat="47.364" lon="-2.35076">
        <ele>1.7999999523163</ele>
        <time>2021-07-01T08:54:26.000Z</time>
      </trkpt>
      <trkpt lat="47.36399" lon="-2.35073">
        <ele>1.7999999523163</ele>
        <time>2021-07-01T08:54:27.000Z</time>
      </trkpt>
      <trkpt lat="47.36398" lon="-2.35069">
        <ele>1.7999999523163</ele>
        <time>2021-07-01T08:54:28.000Z</time>
      </trkpt>
      <trkpt lat="47.3639" lon="-2.35049">
        <ele>1.7999999523163</ele>
        <time>2021-07-01T08:54:34.000Z</time>
      </trkpt>
      <trkpt lat="47.36384" lon="-2.35033">
        <ele>1.7999999523163</ele>
        <time>2021-07-01T08:54:40.000Z</time>
      </trkpt>
      <trkpt lat="47.36374" lon="-2.35018">
        <ele>1.7999999523163</ele>
        <time>2021-07-01T08:54:45.000Z</time>
      </trkpt>
      <trkpt lat="47.36365" lon="-2.35004">
        <ele>1.7999999523163</ele>
        <time>2021-07-01T08:54:52.000Z</time>
      </trkpt>
      <trkpt lat="47.36367" lon="-2.35009">
        <ele>1.7999999523163</ele>
        <time>2021-07-01T08:54:58.000Z</time>
      </trkpt>
      <trkpt lat="47.3637" lon="-2.35013">
        <ele>1.7999999523163</ele>
        <time>2021-07-01T08:55:00.000Z</time>
      </trkpt>
      <trkpt lat="47.36375" lon="-2.35028">
        <ele>1.7999999523163</ele>
        <time>2021-07-01T08:55:05.000Z</time>
      </trkpt>
      <trkpt lat="47.36371" lon="-2.35032">
        <ele>1.7999999523163</ele>
        <time>2021-07-01T08:55:09.000Z</time>
      </trkpt>
      <trkpt lat="47.36367" lon="-2.35031">
        <ele>1.7999999523163</ele>
        <time>2021-07-01T08:55:12.000Z</time>
      </trkpt>
      <trkpt lat="47.36362" lon="-2.3503">
        <ele>1.7999999523163</ele>
        <time>2021-07-01T08:55:16.000Z</time>
      </trkpt>
      <trkpt lat="47.36351" lon="-2.35023">
        <ele>1.7999999523163</ele>
        <time>2021-07-01T08:55:21.000Z</time>
      </trkpt>
      <trkpt lat="47.36342" lon="-2.35015">
        <ele>1.7999999523163</ele>
        <time>2021-07-01T08:55:27.000Z</time>
      </trkpt>
      <trkpt lat="47.36338" lon="-2.35012">
        <ele>1.7999999523163</ele>
        <time>2021-07-01T08:55:30.000Z</time>
      </trkpt>
      <trkpt lat="47.36336" lon="-2.35009">
        <ele>1.7999999523163</ele>
        <time>2021-07-01T08:55:33.000Z</time>
      </trkpt>
      <trkpt lat="47.36336" lon="-2.35007">
        <ele>1.7999999523163</ele>
        <time>2021-07-01T08:55:34.000Z</time>
      </trkpt>
      <trkpt lat="47.36336" lon="-2.35005">
        <ele>1.7999999523163</ele>
        <time>2021-07-01T08:55:36.000Z</time>
      </trkpt>
      <trkpt lat="47.36335" lon="-2.35018">
        <ele>1.7999999523163</ele>
        <time>2021-07-01T09:02:38.000Z</time>
      </trkpt>
      <trkpt lat="47.36335" lon="-2.3502">
        <ele>1.7999999523163</ele>
        <time>2021-07-01T09:02:39.000Z</time>
      </trkpt>
      <trkpt lat="47.36323" lon="-2.35024">
        <ele>1.7999999523163</ele>
        <time>2021-07-01T09:02:44.000Z</time>
      </trkpt>
      <trkpt lat="47.36319" lon="-2.35022">
        <ele>1.7999999523163</ele>
        <time>2021-07-01T09:02:45.000Z</time>
      </trkpt>
      <trkpt lat="47.36311" lon="-2.35014">
        <ele>1.7999999523163</ele>
        <time>2021-07-01T09:02:49.000Z</time>
      </trkpt>
      <trkpt lat="47.36298" lon="-2.35007">
        <ele>1.7999999523163</ele>
        <time>2021-07-01T09:02:54.000Z</time>
      </trkpt>
      <trkpt lat="47.36293" lon="-2.34996">
        <ele>1.7999999523163</ele>
        <time>2021-07-01T09:02:58.000Z</time>
      </trkpt>
      <trkpt lat="47.36292" lon="-2.34991">
        <ele>1.7999999523163</ele>
        <time>2021-07-01T09:02:59.000Z</time>
      </trkpt>
      <trkpt lat="47.36284" lon="-2.34967">
        <ele>1.7999999523163</ele>
        <time>2021-07-01T09:03:05.000Z</time>
      </trkpt>
      <trkpt lat="47.36277" lon="-2.34933">
        <ele>1.7999999523163</ele>
        <time>2021-07-01T09:03:13.000Z</time>
      </trkpt>
      <trkpt lat="47.36272" lon="-2.34933">
        <ele>1.7999999523163</ele>
        <time>2021-07-01T09:03:15.000Z</time>
      </trkpt>
      <trkpt lat="47.3627" lon="-2.34936">
        <ele>1.7999999523163</ele>
        <time>2021-07-01T09:03:16.000Z</time>
      </trkpt>
      <trkpt lat="47.36268" lon="-2.3494">
        <ele>2.2000000476837</ele>
        <time>2021-07-01T09:03:17.000Z</time>
      </trkpt>
      <trkpt lat="47.36266" lon="-2.34945">
        <ele>2.5999999046326</ele>
        <time>2021-07-01T09:03:18.000Z</time>
      </trkpt>
      <trkpt lat="47.36264" lon="-2.34949">
        <ele>3</ele>
        <time>2021-07-01T09:03:19.000Z</time>
      </trkpt>
      <trkpt lat="47.36262" lon="-2.34954">
        <ele>3.4000000953674</ele>
        <time>2021-07-01T09:03:20.000Z</time>
      </trkpt>
      <trkpt lat="47.3626" lon="-2.34959">
        <ele>3.7999999523163</ele>
        <time>2021-07-01T09:03:21.000Z</time>
      </trkpt>
      <trkpt lat="47.36247" lon="-2.34989">
        <ele>3.7999999523163</ele>
        <time>2021-07-01T09:03:27.000Z</time>
      </trkpt>
      <trkpt lat="47.36224" lon="-2.35034">
        <ele>3.7999999523163</ele>
        <time>2021-07-01T09:03:35.000Z</time>
      </trkpt>
      <trkpt lat="47.36197" lon="-2.35066">
        <ele>3.7999999523163</ele>
        <time>2021-07-01T09:03:42.000Z</time>
      </trkpt>
      <trkpt lat="47.36164" lon="-2.351">
        <ele>3.7999999523163</ele>
        <time>2021-07-01T09:03:50.000Z</time>
      </trkpt>
      <trkpt lat="47.36133" lon="-2.35136">
        <ele>3.7999999523163</ele>
        <time>2021-07-01T09:03:58.000Z</time>
      </trkpt>
      <trkpt lat="47.36112" lon="-2.35166">
        <ele>3.7999999523163</ele>
        <time>2021-07-01T09:04:04.000Z</time>
      </trkpt>
      <trkpt lat="47.36087" lon="-2.35197">
        <ele>3.7999999523163</ele>
        <time>2021-07-01T09:04:11.000Z</time>
      </trkpt>
      <trkpt lat="47.36058" lon="-2.35236">
        <ele>3.7999999523163</ele>
        <time>2021-07-01T09:04:19.000Z</time>
      </trkpt>
      <trkpt lat="47.36028" lon="-2.35273">
        <ele>3.7999999523163</ele>
        <time>2021-07-01T09:04:27.000Z</time>
      </trkpt>
      <trkpt lat="47.36001" lon="-2.35308">
        <ele>3.7999999523163</ele>
        <time>2021-07-01T09:04:34.000Z</time>
      </trkpt>
      <trkpt lat="47.35969" lon="-2.3535">
        <ele>3.7999999523163</ele>
        <time>2021-07-01T09:04:42.000Z</time>
      </trkpt>
      <trkpt lat="47.35958" lon="-2.35366">
        <ele>3.7999999523163</ele>
        <time>2021-07-01T09:04:45.000Z</time>
      </trkpt>
      <trkpt lat="47.35947" lon="-2.35382">
        <ele>3.7999999523163</ele>
        <time>2021-07-01T09:04:48.000Z</time>
      </trkpt>
      <trkpt lat="47.3592" lon="-2.35409">
        <ele>3.7999999523163</ele>
        <time>2021-07-01T09:04:54.000Z</time>
      </trkpt>
      <trkpt lat="47.3589" lon="-2.3543">
        <ele>3.7999999523163</ele>
        <time>2021-07-01T09:05:00.000Z</time>
      </trkpt>
      <trkpt lat="47.35862" lon="-2.35452">
        <ele>3.7999999523163</ele>
        <time>2021-07-01T09:05:06.000Z</time>
      </trkpt>
      <trkpt lat="47.35827" lon="-2.35471">
        <ele>3.7999999523163</ele>
        <time>2021-07-01T09:05:13.000Z</time>
      </trkpt>
      <trkpt lat="47.35791" lon="-2.35486">
        <ele>3.7999999523163</ele>
        <time>2021-07-01T09:05:20.000Z</time>
      </trkpt>
      <trkpt lat="47.35752" lon="-2.35504">
        <ele>3.7999999523163</ele>
        <time>2021-07-01T09:05:28.000Z</time>
      </trkpt>
      <trkpt lat="47.35716" lon="-2.3552">
        <ele>3.7999999523163</ele>
        <time>2021-07-01T09:05:35.000Z</time>
      </trkpt>
      <trkpt lat="47.35711" lon="-2.35524">
        <ele>3.7999999523163</ele>
        <time>2021-07-01T09:05:36.000Z</time>
      </trkpt>
      <trkpt lat="47.35697" lon="-2.35531">
        <ele>3.7999999523163</ele>
        <time>2021-07-01T09:05:39.000Z</time>
      </trkpt>
      <trkpt lat="47.35692" lon="-2.35533">
        <ele>3.7999999523163</ele>
        <time>2021-07-01T09:05:40.000Z</time>
      </trkpt>
      <trkpt lat="47.35672" lon="-2.35543">
        <ele>3.7999999523163</ele>
        <time>2021-07-01T09:05:44.000Z</time>
      </trkpt>
      <trkpt lat="47.35662" lon="-2.3555">
        <ele>3.7999999523163</ele>
        <time>2021-07-01T09:05:46.000Z</time>
      </trkpt>
      <trkpt lat="47.35626" lon="-2.35584">
        <ele>3.7999999523163</ele>
        <time>2021-07-01T09:05:54.000Z</time>
      </trkpt>
      <trkpt lat="47.35602" lon="-2.35612">
        <ele>4.1999998092651</ele>
        <time>2021-07-01T09:06:00.000Z</time>
      </trkpt>
      <trkpt lat="47.35598" lon="-2.35617">
        <ele>4.5999999046326</ele>
        <time>2021-07-01T09:06:01.000Z</time>
      </trkpt>
      <trkpt lat="47.35594" lon="-2.35622">
        <ele>5</ele>
        <time>2021-07-01T09:06:02.000Z</time>
      </trkpt>
      <trkpt lat="47.3559" lon="-2.35626">
        <ele>5.4000000953674</ele>
        <time>2021-07-01T09:06:03.000Z</time>
      </trkpt>
      <trkpt lat="47.35585" lon="-2.3563">
        <ele>5.8000001907349</ele>
        <time>2021-07-01T09:06:04.000Z</time>
      </trkpt>
      <trkpt lat="47.35572" lon="-2.35643">
        <ele>5.8000001907349</ele>
        <time>2021-07-01T09:06:07.000Z</time>
      </trkpt>
      <trkpt lat="47.35546" lon="-2.35666">
        <ele>5.8000001907349</ele>
        <time>2021-07-01T09:06:13.000Z</time>
      </trkpt>
      <trkpt lat="47.35534" lon="-2.35676">
        <ele>6.1999998092651</ele>
        <time>2021-07-01T09:06:16.000Z</time>
      </trkpt>
      <trkpt lat="47.3553" lon="-2.3568">
        <ele>6.5999999046326</ele>
        <time>2021-07-01T09:06:17.000Z</time>
      </trkpt>
      <trkpt lat="47.35526" lon="-2.35683">
        <ele>7</ele>
        <time>2021-07-01T09:06:18.000Z</time>
      </trkpt>
      <trkpt lat="47.35522" lon="-2.35687">
        <ele>7.4000000953674</ele>
        <time>2021-07-01T09:06:19.000Z</time>
      </trkpt>
      <trkpt lat="47.35518" lon="-2.35691">
        <ele>7.8000001907349</ele>
        <time>2021-07-01T09:06:20.000Z</time>
      </trkpt>
      <trkpt lat="47.35497" lon="-2.3572">
        <ele>7.8000001907349</ele>
        <time>2021-07-01T09:06:26.000Z</time>
      </trkpt>
      <trkpt lat="47.35483" lon="-2.3574">
        <ele>7.8000001907349</ele>
        <time>2021-07-01T09:06:30.000Z</time>
      </trkpt>
      <trkpt lat="47.35476" lon="-2.35751">
        <ele>7.8000001907349</ele>
        <time>2021-07-01T09:06:32.000Z</time>
      </trkpt>
      <trkpt lat="47.3545" lon="-2.35792">
        <ele>7.8000001907349</ele>
        <time>2021-07-01T09:06:40.000Z</time>
      </trkpt>
      <trkpt lat="47.35418" lon="-2.35834">
        <ele>7.8000001907349</ele>
        <time>2021-07-01T09:06:49.000Z</time>
      </trkpt>
      <trkpt lat="47.35398" lon="-2.35862">
        <ele>7.8000001907349</ele>
        <time>2021-07-01T09:06:55.000Z</time>
      </trkpt>
      <trkpt lat="47.35392" lon="-2.3587">
        <ele>7.8000001907349</ele>
        <time>2021-07-01T09:06:57.000Z</time>
      </trkpt>
      <trkpt lat="47.35371" lon="-2.35891">
        <ele>7.8000001907349</ele>
        <time>2021-07-01T09:07:02.000Z</time>
      </trkpt>
      <trkpt lat="47.35366" lon="-2.35895">
        <ele>7.8000001907349</ele>
        <time>2021-07-01T09:07:03.000Z</time>
      </trkpt>
      <trkpt lat="47.3534" lon="-2.35927">
        <ele>7.8000001907349</ele>
        <time>2021-07-01T09:07:09.000Z</time>
      </trkpt>
      <trkpt lat="47.35337" lon="-2.35934">
        <ele>7.8000001907349</ele>
        <time>2021-07-01T09:07:10.000Z</time>
      </trkpt>
      <trkpt lat="47.3532" lon="-2.3597">
        <ele>7.8000001907349</ele>
        <time>2021-07-01T09:07:15.000Z</time>
      </trkpt>
      <trkpt lat="47.35304" lon="-2.36009">
        <ele>7.4000000953674</ele>
        <time>2021-07-01T09:07:20.000Z</time>
      </trkpt>
      <trkpt lat="47.353" lon="-2.36016">
        <ele>7</ele>
        <time>2021-07-01T09:07:21.000Z</time>
      </trkpt>
      <trkpt lat="47.35295" lon="-2.36021">
        <ele>6.5999999046326</ele>
        <time>2021-07-01T09:07:22.000Z</time>
      </trkpt>
      <trkpt lat="47.3529" lon="-2.36026">
        <ele>6.1999998092651</ele>
        <time>2021-07-01T09:07:23.000Z</time>
      </trkpt>
      <trkpt lat="47.35286" lon="-2.36031">
        <ele>5.8000001907349</ele>
        <time>2021-07-01T09:07:24.000Z</time>
      </trkpt>
      <trkpt lat="47.35277" lon="-2.3604">
        <ele>5.8000001907349</ele>
        <time>2021-07-01T09:07:26.000Z</time>
      </trkpt>
      <trkpt lat="47.35239" lon="-2.36071">
        <ele>5.8000001907349</ele>
        <time>2021-07-01T09:07:34.000Z</time>
      </trkpt>
      <trkpt lat="47.35202" lon="-2.36102">
        <ele>5.8000001907349</ele>
        <time>2021-07-01T09:07:42.000Z</time>
      </trkpt>
      <trkpt lat="47.35167" lon="-2.3613">
        <ele>5.8000001907349</ele>
        <time>2021-07-01T09:07:49.000Z</time>
      </trkpt>
      <trkpt lat="47.35138" lon="-2.36149">
        <ele>5.8000001907349</ele>
        <time>2021-07-01T09:07:55.000Z</time>
      </trkpt>
      <trkpt lat="47.35109" lon="-2.36168">
        <ele>5.8000001907349</ele>
        <time>2021-07-01T09:08:02.000Z</time>
      </trkpt>
      <trkpt lat="47.35092" lon="-2.36176">
        <ele>5.8000001907349</ele>
        <time>2021-07-01T09:08:07.000Z</time>
      </trkpt>
      <trkpt lat="47.35074" lon="-2.36179">
        <ele>5.8000001907349</ele>
        <time>2021-07-01T09:08:11.000Z</time>
      </trkpt>
      <trkpt lat="47.35069" lon="-2.36179">
        <ele>6.1999998092651</ele>
        <time>2021-07-01T09:08:12.000Z</time>
      </trkpt>
      <trkpt lat="47.35064" lon="-2.3618">
        <ele>6.5999999046326</ele>
        <time>2021-07-01T09:08:13.000Z</time>
      </trkpt>
      <trkpt lat="47.35059" lon="-2.3618">
        <ele>7</ele>
        <time>2021-07-01T09:08:14.000Z</time>
      </trkpt>
      <trkpt lat="47.35054" lon="-2.36179">
        <ele>7.4000000953674</ele>
        <time>2021-07-01T09:08:15.000Z</time>
      </trkpt>
      <trkpt lat="47.35049" lon="-2.36178">
        <ele>7.8000001907349</ele>
        <time>2021-07-01T09:08:16.000Z</time>
      </trkpt>
      <trkpt lat="47.35039" lon="-2.36175">
        <ele>7.8000001907349</ele>
        <time>2021-07-01T09:08:18.000Z</time>
      </trkpt>
      <trkpt lat="47.35014" lon="-2.36168">
        <ele>7.8000001907349</ele>
        <time>2021-07-01T09:08:23.000Z</time>
      </trkpt>
      <trkpt lat="47.35005" lon="-2.36168">
        <ele>7.8000001907349</ele>
        <time>2021-07-01T09:08:25.000Z</time>
      </trkpt>
      <trkpt lat="47.34991" lon="-2.36172">
        <ele>7.8000001907349</ele>
        <time>2021-07-01T09:08:28.000Z</time>
      </trkpt>
      <trkpt lat="47.34978" lon="-2.36178">
        <ele>8.1999998092651</ele>
        <time>2021-07-01T09:08:31.000Z</time>
      </trkpt>
      <trkpt lat="47.34974" lon="-2.36182">
        <ele>9</ele>
        <time>2021-07-01T09:08:32.000Z</time>
      </trkpt>
      <trkpt lat="47.34971" lon="-2.36185">
        <ele>9.3999996185303</ele>
        <time>2021-07-01T09:08:33.000Z</time>
      </trkpt>
      <trkpt lat="47.34967" lon="-2.36189">
        <ele>9.8000001907349</ele>
        <time>2021-07-01T09:08:34.000Z</time>
      </trkpt>
      <trkpt lat="47.34943" lon="-2.3622">
        <ele>9.8000001907349</ele>
        <time>2021-07-01T09:08:41.000Z</time>
      </trkpt>
      <trkpt lat="47.34925" lon="-2.36239">
        <ele>10.199999809265</ele>
        <time>2021-07-01T09:08:46.000Z</time>
      </trkpt>
      <trkpt lat="47.34922" lon="-2.36244">
        <ele>10.60000038147</ele>
        <time>2021-07-01T09:08:47.000Z</time>
      </trkpt>
      <trkpt lat="47.34919" lon="-2.36248">
        <ele>11</ele>
        <time>2021-07-01T09:08:48.000Z</time>
      </trkpt>
      <trkpt lat="47.34915" lon="-2.36252">
        <ele>11.60000038147</ele>
        <time>2021-07-01T09:08:49.000Z</time>
      </trkpt>
      <trkpt lat="47.34911" lon="-2.36256">
        <ele>12</ele>
        <time>2021-07-01T09:08:50.000Z</time>
      </trkpt>
      <trkpt lat="47.34887" lon="-2.36276">
        <ele>12</ele>
        <time>2021-07-01T09:08:56.000Z</time>
      </trkpt>
      <trkpt lat="47.34862" lon="-2.36296">
        <ele>12.39999961853</ele>
        <time>2021-07-01T09:09:02.000Z</time>
      </trkpt>
      <trkpt lat="47.34858" lon="-2.363">
        <ele>12.800000190735</ele>
        <time>2021-07-01T09:09:03.000Z</time>
      </trkpt>
      <trkpt lat="47.34853" lon="-2.36302">
        <ele>13.199999809265</ele>
        <time>2021-07-01T09:09:04.000Z</time>
      </trkpt>
      <trkpt lat="47.34849" lon="-2.36305">
        <ele>13.60000038147</ele>
        <time>2021-07-01T09:09:05.000Z</time>
      </trkpt>
      <trkpt lat="47.34845" lon="-2.36308">
        <ele>14</ele>
        <time>2021-07-01T09:09:06.000Z</time>
      </trkpt>
      <trkpt lat="47.34806" lon="-2.36335">
        <ele>14</ele>
        <time>2021-07-01T09:09:15.000Z</time>
      </trkpt>
      <trkpt lat="47.34769" lon="-2.36358">
        <ele>14</ele>
        <time>2021-07-01T09:09:23.000Z</time>
      </trkpt>
      <trkpt lat="47.34725" lon="-2.36384">
        <ele>14</ele>
        <time>2021-07-01T09:09:32.000Z</time>
      </trkpt>
      <trkpt lat="47.34693" lon="-2.36397">
        <ele>14</ele>
        <time>2021-07-01T09:09:38.000Z</time>
      </trkpt>
      <trkpt lat="47.34675" lon="-2.36403">
        <ele>14</ele>
        <time>2021-07-01T09:09:41.000Z</time>
      </trkpt>
      <trkpt lat="47.34663" lon="-2.36407">
        <ele>14</ele>
        <time>2021-07-01T09:09:43.000Z</time>
      </trkpt>
      <trkpt lat="47.34657" lon="-2.36411">
        <ele>14</ele>
        <time>2021-07-01T09:09:44.000Z</time>
      </trkpt>
      <trkpt lat="47.3462" lon="-2.36431">
        <ele>14</ele>
        <time>2021-07-01T09:09:50.000Z</time>
      </trkpt>
      <trkpt lat="47.34613" lon="-2.36434">
        <ele>13.60000038147</ele>
        <time>2021-07-01T09:09:51.000Z</time>
      </trkpt>
      <trkpt lat="47.34607" lon="-2.36437">
        <ele>13.199999809265</ele>
        <time>2021-07-01T09:09:52.000Z</time>
      </trkpt>
      <trkpt lat="47.34601" lon="-2.3644">
        <ele>12.800000190735</ele>
        <time>2021-07-01T09:09:53.000Z</time>
      </trkpt>
      <trkpt lat="47.34597" lon="-2.3644">
        <ele>12.39999961853</ele>
        <time>2021-07-01T09:09:54.000Z</time>
      </trkpt>
      <trkpt lat="47.34593" lon="-2.36439">
        <ele>12</ele>
        <time>2021-07-01T09:09:55.000Z</time>
      </trkpt>
      <trkpt lat="47.34591" lon="-2.36437">
        <ele>12</ele>
        <time>2021-07-01T09:09:58.000Z</time>
      </trkpt>
      <trkpt lat="47.34591" lon="-2.36439">
        <ele>11.60000038147</ele>
        <time>2021-07-01T09:09:59.000Z</time>
      </trkpt>
      <trkpt lat="47.34592" lon="-2.36441">
        <ele>11.199999809265</ele>
        <time>2021-07-01T09:10:00.000Z</time>
      </trkpt>
      <trkpt lat="47.34593" lon="-2.36444">
        <ele>10.800000190735</ele>
        <time>2021-07-01T09:10:01.000Z</time>
      </trkpt>
      <trkpt lat="47.34593" lon="-2.36447">
        <ele>10.39999961853</ele>
        <time>2021-07-01T09:10:02.000Z</time>
      </trkpt>
      <trkpt lat="47.34593" lon="-2.3645">
        <ele>10</ele>
        <time>2021-07-01T09:10:03.000Z</time>
      </trkpt>
      <trkpt lat="47.34593" lon="-2.36457">
        <ele>10</ele>
        <time>2021-07-01T09:10:05.000Z</time>
      </trkpt>
      <trkpt lat="47.34586" lon="-2.36483">
        <ele>10</ele>
        <time>2021-07-01T09:10:10.000Z</time>
      </trkpt>
      <trkpt lat="47.34582" lon="-2.36491">
        <ele>10</ele>
        <time>2021-07-01T09:10:11.000Z</time>
      </trkpt>
      <trkpt lat="47.34571" lon="-2.3652">
        <ele>10</ele>
        <time>2021-07-01T09:10:15.000Z</time>
      </trkpt>
      <trkpt lat="47.34548" lon="-2.36574">
        <ele>10</ele>
        <time>2021-07-01T09:10:24.000Z</time>
      </trkpt>
      <trkpt lat="47.34535" lon="-2.36605">
        <ele>10.39999961853</ele>
        <time>2021-07-01T09:10:29.000Z</time>
      </trkpt>
      <trkpt lat="47.34532" lon="-2.36611">
        <ele>10.800000190735</ele>
        <time>2021-07-01T09:10:30.000Z</time>
      </trkpt>
      <trkpt lat="47.34529" lon="-2.3662">
        <ele>11.199999809265</ele>
        <time>2021-07-01T09:10:31.000Z</time>
      </trkpt>
      <trkpt lat="47.34527" lon="-2.36626">
        <ele>11.60000038147</ele>
        <time>2021-07-01T09:10:32.000Z</time>
      </trkpt>
      <trkpt lat="47.34524" lon="-2.36633">
        <ele>12</ele>
        <time>2021-07-01T09:10:33.000Z</time>
      </trkpt>
      <trkpt lat="47.34499" lon="-2.36686">
        <ele>12</ele>
        <time>2021-07-01T09:10:41.000Z</time>
      </trkpt>
      <trkpt lat="47.34496" lon="-2.36692">
        <ele>12.39999961853</ele>
        <time>2021-07-01T09:10:42.000Z</time>
      </trkpt>
      <trkpt lat="47.34493" lon="-2.36699">
        <ele>12.800000190735</ele>
        <time>2021-07-01T09:10:43.000Z</time>
      </trkpt>
      <trkpt lat="47.3449" lon="-2.36705">
        <ele>13.39999961853</ele>
        <time>2021-07-01T09:10:44.000Z</time>
      </trkpt>
      <trkpt lat="47.34487" lon="-2.3671">
        <ele>13.800000190735</ele>
        <time>2021-07-01T09:10:45.000Z</time>
      </trkpt>
      <trkpt lat="47.34484" lon="-2.36716">
        <ele>14.199999809265</ele>
        <time>2021-07-01T09:10:46.000Z</time>
      </trkpt>
      <trkpt lat="47.34479" lon="-2.36727">
        <ele>14.199999809265</ele>
        <time>2021-07-01T09:10:48.000Z</time>
      </trkpt>
      <trkpt lat="47.34456" lon="-2.36764">
        <ele>14.60000038147</ele>
        <time>2021-07-01T09:10:55.000Z</time>
      </trkpt>
      <trkpt lat="47.34453" lon="-2.36769">
        <ele>15</ele>
        <time>2021-07-01T09:10:56.000Z</time>
      </trkpt>
      <trkpt lat="47.34449" lon="-2.36774">
        <ele>15.39999961853</ele>
        <time>2021-07-01T09:10:57.000Z</time>
      </trkpt>
      <trkpt lat="47.34445" lon="-2.3678">
        <ele>15.800000190735</ele>
        <time>2021-07-01T09:10:58.000Z</time>
      </trkpt>
      <trkpt lat="47.34442" lon="-2.36785">
        <ele>16.200000762939</ele>
        <time>2021-07-01T09:10:59.000Z</time>
      </trkpt>
      <trkpt lat="47.34424" lon="-2.36814">
        <ele>16.200000762939</ele>
        <time>2021-07-01T09:11:04.000Z</time>
      </trkpt>
      <trkpt lat="47.34396" lon="-2.36859">
        <ele>16.200000762939</ele>
        <time>2021-07-01T09:11:12.000Z</time>
      </trkpt>
      <trkpt lat="47.34361" lon="-2.36917">
        <ele>16.200000762939</ele>
        <time>2021-07-01T09:11:22.000Z</time>
      </trkpt>
      <trkpt lat="47.34327" lon="-2.3697">
        <ele>16.200000762939</ele>
        <time>2021-07-01T09:11:31.000Z</time>
      </trkpt>
      <trkpt lat="47.34292" lon="-2.37017">
        <ele>16.200000762939</ele>
        <time>2021-07-01T09:11:40.000Z</time>
      </trkpt>
      <trkpt lat="47.34281" lon="-2.37031">
        <ele>16.60000038147</ele>
        <time>2021-07-01T09:11:43.000Z</time>
      </trkpt>
      <trkpt lat="47.34276" lon="-2.37035">
        <ele>17</ele>
        <time>2021-07-01T09:11:44.000Z</time>
      </trkpt>
      <trkpt lat="47.34272" lon="-2.37039">
        <ele>17.39999961853</ele>
        <time>2021-07-01T09:11:45.000Z</time>
      </trkpt>
      <trkpt lat="47.34268" lon="-2.37043">
        <ele>17.799999237061</ele>
        <time>2021-07-01T09:11:46.000Z</time>
      </trkpt>
      <trkpt lat="47.34264" lon="-2.37047">
        <ele>18.200000762939</ele>
        <time>2021-07-01T09:11:47.000Z</time>
      </trkpt>
      <trkpt lat="47.34242" lon="-2.37065">
        <ele>18.200000762939</ele>
        <time>2021-07-01T09:11:53.000Z</time>
      </trkpt>
      <trkpt lat="47.34235" lon="-2.37065">
        <ele>18.200000762939</ele>
        <time>2021-07-01T09:11:55.000Z</time>
      </trkpt>
      <trkpt lat="47.34233" lon="-2.37062">
        <ele>18.200000762939</ele>
        <time>2021-07-01T09:11:56.000Z</time>
      </trkpt>
      <trkpt lat="47.3422" lon="-2.37039">
        <ele>18.200000762939</ele>
        <time>2021-07-01T09:12:01.000Z</time>
      </trkpt>
      <trkpt lat="47.34201" lon="-2.37007">
        <ele>18.200000762939</ele>
        <time>2021-07-01T09:12:06.000Z</time>
      </trkpt>
      <trkpt lat="47.34196" lon="-2.37001">
        <ele>18.200000762939</ele>
        <time>2021-07-01T09:12:07.000Z</time>
      </trkpt>
      <trkpt lat="47.34192" lon="-2.36994">
        <ele>17.799999237061</ele>
        <time>2021-07-01T09:12:08.000Z</time>
      </trkpt>
      <trkpt lat="47.34188" lon="-2.36988">
        <ele>17.39999961853</ele>
        <time>2021-07-01T09:12:09.000Z</time>
      </trkpt>
      <trkpt lat="47.34184" lon="-2.36982">
        <ele>17</ele>
        <time>2021-07-01T09:12:10.000Z</time>
      </trkpt>
      <trkpt lat="47.3418" lon="-2.36977">
        <ele>16.60000038147</ele>
        <time>2021-07-01T09:12:11.000Z</time>
      </trkpt>
      <trkpt lat="47.34176" lon="-2.36972">
        <ele>16.200000762939</ele>
        <time>2021-07-01T09:12:12.000Z</time>
      </trkpt>
      <trkpt lat="47.34171" lon="-2.36966">
        <ele>16.200000762939</ele>
        <time>2021-07-01T09:12:13.000Z</time>
      </trkpt>
      <trkpt lat="47.34158" lon="-2.36951">
        <ele>15.800000190735</ele>
        <time>2021-07-01T09:12:16.000Z</time>
      </trkpt>
      <trkpt lat="47.34154" lon="-2.36945">
        <ele>15.39999961853</ele>
        <time>2021-07-01T09:12:17.000Z</time>
      </trkpt>
      <trkpt lat="47.3415" lon="-2.36939">
        <ele>14.800000190735</ele>
        <time>2021-07-01T09:12:18.000Z</time>
      </trkpt>
      <trkpt lat="47.34146" lon="-2.36932">
        <ele>14.39999961853</ele>
        <time>2021-07-01T09:12:19.000Z</time>
      </trkpt>
      <trkpt lat="47.34142" lon="-2.36925">
        <ele>14</ele>
        <time>2021-07-01T09:12:20.000Z</time>
      </trkpt>
      <trkpt lat="47.34138" lon="-2.36918">
        <ele>14</ele>
        <time>2021-07-01T09:12:21.000Z</time>
      </trkpt>
      <trkpt lat="47.34131" lon="-2.36903">
        <ele>14</ele>
        <time>2021-07-01T09:12:23.000Z</time>
      </trkpt>
      <trkpt lat="47.34128" lon="-2.36896">
        <ele>14</ele>
        <time>2021-07-01T09:12:24.000Z</time>
      </trkpt>
      <trkpt lat="47.34121" lon="-2.36882">
        <ele>13.60000038147</ele>
        <time>2021-07-01T09:12:26.000Z</time>
      </trkpt>
      <trkpt lat="47.34117" lon="-2.36875">
        <ele>13.199999809265</ele>
        <time>2021-07-01T09:12:27.000Z</time>
      </trkpt>
      <trkpt lat="47.34114" lon="-2.36867">
        <ele>12.800000190735</ele>
        <time>2021-07-01T09:12:28.000Z</time>
      </trkpt>
      <trkpt lat="47.34111" lon="-2.3686">
        <ele>12.39999961853</ele>
        <time>2021-07-01T09:12:29.000Z</time>
      </trkpt>
      <trkpt lat="47.34108" lon="-2.36852">
        <ele>12</ele>
        <time>2021-07-01T09:12:30.000Z</time>
      </trkpt>
      <trkpt lat="47.34106" lon="-2.36844">
        <ele>12</ele>
        <time>2021-07-01T09:12:31.000Z</time>
      </trkpt>
      <trkpt lat="47.341" lon="-2.36814">
        <ele>12</ele>
        <time>2021-07-01T09:12:35.000Z</time>
      </trkpt>
      <trkpt lat="47.34091" lon="-2.36757">
        <ele>12</ele>
        <time>2021-07-01T09:12:43.000Z</time>
      </trkpt>
      <trkpt lat="47.3408" lon="-2.36709">
        <ele>12</ele>
        <time>2021-07-01T09:12:51.000Z</time>
      </trkpt>
      <trkpt lat="47.34078" lon="-2.36706">
        <ele>12</ele>
        <time>2021-07-01T09:12:52.000Z</time>
      </trkpt>
      <trkpt lat="47.34072" lon="-2.36705">
        <ele>12</ele>
        <time>2021-07-01T09:12:54.000Z</time>
      </trkpt>
      <trkpt lat="47.34065" lon="-2.36709">
        <ele>12</ele>
        <time>2021-07-01T09:12:56.000Z</time>
      </trkpt>
      <trkpt lat="47.3405" lon="-2.36717">
        <ele>12</ele>
        <time>2021-07-01T09:13:00.000Z</time>
      </trkpt>
      <trkpt lat="47.34046" lon="-2.36719">
        <ele>12.39999961853</ele>
        <time>2021-07-01T09:13:01.000Z</time>
      </trkpt>
      <trkpt lat="47.34042" lon="-2.36722">
        <ele>12.800000190735</ele>
        <time>2021-07-01T09:13:02.000Z</time>
      </trkpt>
      <trkpt lat="47.34038" lon="-2.36724">
        <ele>13.199999809265</ele>
        <time>2021-07-01T09:13:03.000Z</time>
      </trkpt>
      <trkpt lat="47.34034" lon="-2.36727">
        <ele>14</ele>
        <time>2021-07-01T09:13:04.000Z</time>
      </trkpt>
      <trkpt lat="47.3401" lon="-2.36739">
        <ele>14</ele>
        <time>2021-07-01T09:13:10.000Z</time>
      </trkpt>
      <trkpt lat="47.33981" lon="-2.36748">
        <ele>14.60000038147</ele>
        <time>2021-07-01T09:13:17.000Z</time>
      </trkpt>
      <trkpt lat="47.33977" lon="-2.36749">
        <ele>15</ele>
        <time>2021-07-01T09:13:18.000Z</time>
      </trkpt>
      <trkpt lat="47.33974" lon="-2.3675">
        <ele>15.39999961853</ele>
        <time>2021-07-01T09:13:19.000Z</time>
      </trkpt>
      <trkpt lat="47.3397" lon="-2.36751">
        <ele>15.800000190735</ele>
        <time>2021-07-01T09:13:20.000Z</time>
      </trkpt>
      <trkpt lat="47.33966" lon="-2.36752">
        <ele>16.200000762939</ele>
        <time>2021-07-01T09:13:21.000Z</time>
      </trkpt>
      <trkpt lat="47.33949" lon="-2.36756">
        <ele>16.200000762939</ele>
        <time>2021-07-01T09:13:25.000Z</time>
      </trkpt>
      <trkpt lat="47.33933" lon="-2.36759">
        <ele>16.200000762939</ele>
        <time>2021-07-01T09:13:30.000Z</time>
      </trkpt>
      <trkpt lat="47.33916" lon="-2.36761">
        <ele>16.200000762939</ele>
        <time>2021-07-01T09:13:36.000Z</time>
      </trkpt>
      <trkpt lat="47.3391" lon="-2.36759">
        <ele>16.60000038147</ele>
        <time>2021-07-01T09:13:38.000Z</time>
      </trkpt>
      <trkpt lat="47.33907" lon="-2.36758">
        <ele>17</ele>
        <time>2021-07-01T09:13:39.000Z</time>
      </trkpt>
      <trkpt lat="47.33903" lon="-2.36759">
        <ele>17.39999961853</ele>
        <time>2021-07-01T09:13:40.000Z</time>
      </trkpt>
      <trkpt lat="47.33899" lon="-2.3676">
        <ele>17.799999237061</ele>
        <time>2021-07-01T09:13:41.000Z</time>
      </trkpt>
      <trkpt lat="47.33895" lon="-2.36761">
        <ele>18.200000762939</ele>
        <time>2021-07-01T09:13:42.000Z</time>
      </trkpt>
      <trkpt lat="47.33873" lon="-2.36767">
        <ele>18.200000762939</ele>
        <time>2021-07-01T09:13:47.000Z</time>
      </trkpt>
      <trkpt lat="47.33838" lon="-2.36779">
        <ele>18.200000762939</ele>
        <time>2021-07-01T09:13:55.000Z</time>
      </trkpt>
      <trkpt lat="47.33799" lon="-2.36789">
        <ele>18.200000762939</ele>
        <time>2021-07-01T09:14:03.000Z</time>
      </trkpt>
      <trkpt lat="47.33765" lon="-2.36802">
        <ele>18.200000762939</ele>
        <time>2021-07-01T09:14:10.000Z</time>
      </trkpt>
      <trkpt lat="47.33738" lon="-2.36811">
        <ele>18.200000762939</ele>
        <time>2021-07-01T09:14:16.000Z</time>
      </trkpt>
      <trkpt lat="47.33733" lon="-2.36813">
        <ele>18.200000762939</ele>
        <time>2021-07-01T09:14:17.000Z</time>
      </trkpt>
      <trkpt lat="47.33729" lon="-2.36815">
        <ele>18.60000038147</ele>
        <time>2021-07-01T09:14:18.000Z</time>
      </trkpt>
      <trkpt lat="47.33724" lon="-2.36817">
        <ele>19.39999961853</ele>
        <time>2021-07-01T09:14:19.000Z</time>
      </trkpt>
      <trkpt lat="47.33719" lon="-2.3682">
        <ele>19.799999237061</ele>
        <time>2021-07-01T09:14:20.000Z</time>
      </trkpt>
      <trkpt lat="47.33714" lon="-2.36822">
        <ele>20.200000762939</ele>
        <time>2021-07-01T09:14:21.000Z</time>
      </trkpt>
      <trkpt lat="47.337" lon="-2.36832">
        <ele>20.200000762939</ele>
        <time>2021-07-01T09:14:24.000Z</time>
      </trkpt>
      <trkpt lat="47.33687" lon="-2.36845">
        <ele>20.200000762939</ele>
        <time>2021-07-01T09:14:27.000Z</time>
      </trkpt>
      <trkpt lat="47.33662" lon="-2.36876">
        <ele>20.200000762939</ele>
        <time>2021-07-01T09:14:33.000Z</time>
      </trkpt>
      <trkpt lat="47.33659" lon="-2.36881">
        <ele>20.200000762939</ele>
        <time>2021-07-01T09:14:34.000Z</time>
      </trkpt>
      <trkpt lat="47.33633" lon="-2.36912">
        <ele>20.200000762939</ele>
        <time>2021-07-01T09:14:40.000Z</time>
      </trkpt>
      <trkpt lat="47.33621" lon="-2.36928">
        <ele>20.200000762939</ele>
        <time>2021-07-01T09:14:43.000Z</time>
      </trkpt>
      <trkpt lat="47.33613" lon="-2.3694">
        <ele>20.200000762939</ele>
        <time>2021-07-01T09:14:45.000Z</time>
      </trkpt>
      <trkpt lat="47.3361" lon="-2.36948">
        <ele>20.200000762939</ele>
        <time>2021-07-01T09:14:46.000Z</time>
      </trkpt>
      <trkpt lat="47.33604" lon="-2.36971">
        <ele>20.200000762939</ele>
        <time>2021-07-01T09:14:49.000Z</time>
      </trkpt>
      <trkpt lat="47.33602" lon="-2.36979">
        <ele>20.200000762939</ele>
        <time>2021-07-01T09:14:50.000Z</time>
      </trkpt>
      <trkpt lat="47.33602" lon="-2.36986">
        <ele>20.200000762939</ele>
        <time>2021-07-01T09:14:51.000Z</time>
      </trkpt>
      <trkpt lat="47.33602" lon="-2.37">
        <ele>20.200000762939</ele>
        <time>2021-07-01T09:14:53.000Z</time>
      </trkpt>
      <trkpt lat="47.33604" lon="-2.37042">
        <ele>20.200000762939</ele>
        <time>2021-07-01T09:14:59.000Z</time>
      </trkpt>
      <trkpt lat="47.33605" lon="-2.37102">
        <ele>20.200000762939</ele>
        <time>2021-07-01T09:15:07.000Z</time>
      </trkpt>
      <trkpt lat="47.33605" lon="-2.37168">
        <ele>20.200000762939</ele>
        <time>2021-07-01T09:15:15.000Z</time>
      </trkpt>
      <trkpt lat="47.33599" lon="-2.37223">
        <ele>20.200000762939</ele>
        <time>2021-07-01T09:15:22.000Z</time>
      </trkpt>
      <trkpt lat="47.33597" lon="-2.37229">
        <ele>20.200000762939</ele>
        <time>2021-07-01T09:15:23.000Z</time>
      </trkpt>
      <trkpt lat="47.33585" lon="-2.37234">
        <ele>20.200000762939</ele>
        <time>2021-07-01T09:15:26.000Z</time>
      </trkpt>
      <trkpt lat="47.33581" lon="-2.37234">
        <ele>20.200000762939</ele>
        <time>2021-07-01T09:15:27.000Z</time>
      </trkpt>
      <trkpt lat="47.33561" lon="-2.37232">
        <ele>20.200000762939</ele>
        <time>2021-07-01T09:15:32.000Z</time>
      </trkpt>
      <trkpt lat="47.33557" lon="-2.37231">
        <ele>20.200000762939</ele>
        <time>2021-07-01T09:15:33.000Z</time>
      </trkpt>
      <trkpt lat="47.33537" lon="-2.37231">
        <ele>20.200000762939</ele>
        <time>2021-07-01T09:15:37.000Z</time>
      </trkpt>
      <trkpt lat="47.33526" lon="-2.37231">
        <ele>19.799999237061</ele>
        <time>2021-07-01T09:15:39.000Z</time>
      </trkpt>
      <trkpt lat="47.33521" lon="-2.37231">
        <ele>19.39999961853</ele>
        <time>2021-07-01T09:15:40.000Z</time>
      </trkpt>
      <trkpt lat="47.33516" lon="-2.3723">
        <ele>19</ele>
        <time>2021-07-01T09:15:41.000Z</time>
      </trkpt>
      <trkpt lat="47.33511" lon="-2.37229">
        <ele>18.60000038147</ele>
        <time>2021-07-01T09:15:42.000Z</time>
      </trkpt>
      <trkpt lat="47.33507" lon="-2.37229">
        <ele>18.200000762939</ele>
        <time>2021-07-01T09:15:43.000Z</time>
      </trkpt>
      <trkpt lat="47.33501" lon="-2.3723">
        <ele>17.799999237061</ele>
        <time>2021-07-01T09:15:45.000Z</time>
      </trkpt>
      <trkpt lat="47.335" lon="-2.37232">
        <ele>17.39999961853</ele>
        <time>2021-07-01T09:15:46.000Z</time>
      </trkpt>
      <trkpt lat="47.33499" lon="-2.37235">
        <ele>16.799999237061</ele>
        <time>2021-07-01T09:15:47.000Z</time>
      </trkpt>
      <trkpt lat="47.335" lon="-2.37239">
        <ele>16.39999961853</ele>
        <time>2021-07-01T09:15:48.000Z</time>
      </trkpt>
      <trkpt lat="47.33501" lon="-2.37243">
        <ele>16</ele>
        <time>2021-07-01T09:15:49.000Z</time>
      </trkpt>
      <trkpt lat="47.33502" lon="-2.37247">
        <ele>16</ele>
        <time>2021-07-01T09:15:50.000Z</time>
      </trkpt>
      <trkpt lat="47.33503" lon="-2.37251">
        <ele>16</ele>
        <time>2021-07-01T09:15:51.000Z</time>
      </trkpt>
      <trkpt lat="47.33512" lon="-2.37281">
        <ele>16</ele>
        <time>2021-07-01T09:15:57.000Z</time>
      </trkpt>
      <trkpt lat="47.33516" lon="-2.37298">
        <ele>16.39999961853</ele>
        <time>2021-07-01T09:16:00.000Z</time>
      </trkpt>
      <trkpt lat="47.33518" lon="-2.37304">
        <ele>16.799999237061</ele>
        <time>2021-07-01T09:16:01.000Z</time>
      </trkpt>
      <trkpt lat="47.33519" lon="-2.37309">
        <ele>17.200000762939</ele>
        <time>2021-07-01T09:16:02.000Z</time>
      </trkpt>
      <trkpt lat="47.33521" lon="-2.37315">
        <ele>17.60000038147</ele>
        <time>2021-07-01T09:16:03.000Z</time>
      </trkpt>
      <trkpt lat="47.33523" lon="-2.37321">
        <ele>18</ele>
        <time>2021-07-01T09:16:04.000Z</time>
      </trkpt>
      <trkpt lat="47.33535" lon="-2.37366">
        <ele>18.60000038147</ele>
        <time>2021-07-01T09:16:12.000Z</time>
      </trkpt>
      <trkpt lat="47.33536" lon="-2.37372">
        <ele>19</ele>
        <time>2021-07-01T09:16:13.000Z</time>
      </trkpt>
      <trkpt lat="47.33537" lon="-2.37379">
        <ele>19.39999961853</ele>
        <time>2021-07-01T09:16:14.000Z</time>
      </trkpt>
      <trkpt lat="47.33537" lon="-2.37385">
        <ele>19.799999237061</ele>
        <time>2021-07-01T09:16:15.000Z</time>
      </trkpt>
      <trkpt lat="47.33537" lon="-2.37392">
        <ele>20.200000762939</ele>
        <time>2021-07-01T09:16:16.000Z</time>
      </trkpt>
      <trkpt lat="47.33538" lon="-2.37406">
        <ele>20.200000762939</ele>
        <time>2021-07-01T09:16:18.000Z</time>
      </trkpt>
      <trkpt lat="47.33537" lon="-2.37447">
        <ele>20.60000038147</ele>
        <time>2021-07-01T09:16:24.000Z</time>
      </trkpt>
      <trkpt lat="47.33536" lon="-2.37454">
        <ele>21</ele>
        <time>2021-07-01T09:16:25.000Z</time>
      </trkpt>
      <trkpt lat="47.33534" lon="-2.37461">
        <ele>21.39999961853</ele>
        <time>2021-07-01T09:16:26.000Z</time>
      </trkpt>
      <trkpt lat="47.33533" lon="-2.37468">
        <ele>22</ele>
        <time>2021-07-01T09:16:27.000Z</time>
      </trkpt>
      <trkpt lat="47.33531" lon="-2.37476">
        <ele>22.39999961853</ele>
        <time>2021-07-01T09:16:28.000Z</time>
      </trkpt>
      <trkpt lat="47.3352" lon="-2.37501">
        <ele>22.39999961853</ele>
        <time>2021-07-01T09:16:32.000Z</time>
      </trkpt>
      <trkpt lat="47.33508" lon="-2.37524">
        <ele>22.39999961853</ele>
        <time>2021-07-01T09:16:36.000Z</time>
      </trkpt>
      <trkpt lat="47.33503" lon="-2.37537">
        <ele>22.39999961853</ele>
        <time>2021-07-01T09:16:38.000Z</time>
      </trkpt>
      <trkpt lat="47.335" lon="-2.37543">
        <ele>22.39999961853</ele>
        <time>2021-07-01T09:16:39.000Z</time>
      </trkpt>
      <trkpt lat="47.33497" lon="-2.37548">
        <ele>22.799999237061</ele>
        <time>2021-07-01T09:16:40.000Z</time>
      </trkpt>
      <trkpt lat="47.33493" lon="-2.37553">
        <ele>23.200000762939</ele>
        <time>2021-07-01T09:16:41.000Z</time>
      </trkpt>
      <trkpt lat="47.33489" lon="-2.37557">
        <ele>23.60000038147</ele>
        <time>2021-07-01T09:16:42.000Z</time>
      </trkpt>
      <trkpt lat="47.33486" lon="-2.37562">
        <ele>24</ele>
        <time>2021-07-01T09:16:43.000Z</time>
      </trkpt>
      <trkpt lat="47.33482" lon="-2.37567">
        <ele>24.39999961853</ele>
        <time>2021-07-01T09:16:44.000Z</time>
      </trkpt>
      <trkpt lat="47.33478" lon="-2.37571">
        <ele>24.39999961853</ele>
        <time>2021-07-01T09:16:45.000Z</time>
      </trkpt>
      <trkpt lat="47.33465" lon="-2.37584">
        <ele>24.39999961853</ele>
        <time>2021-07-01T09:16:48.000Z</time>
      </trkpt>
      <trkpt lat="47.33457" lon="-2.37593">
        <ele>24.39999961853</ele>
        <time>2021-07-01T09:16:50.000Z</time>
      </trkpt>
      <trkpt lat="47.33438" lon="-2.37608">
        <ele>24.39999961853</ele>
        <time>2021-07-01T09:16:54.000Z</time>
      </trkpt>
      <trkpt lat="47.33411" lon="-2.3763">
        <ele>24.39999961853</ele>
        <time>2021-07-01T09:17:00.000Z</time>
      </trkpt>
      <trkpt lat="47.33407" lon="-2.37634">
        <ele>24.39999961853</ele>
        <time>2021-07-01T09:17:01.000Z</time>
      </trkpt>
      <trkpt lat="47.33391" lon="-2.37665">
        <ele>24.39999961853</ele>
        <time>2021-07-01T09:17:06.000Z</time>
      </trkpt>
      <trkpt lat="47.33389" lon="-2.3768">
        <ele>24.39999961853</ele>
        <time>2021-07-01T09:17:08.000Z</time>
      </trkpt>
      <trkpt lat="47.33388" lon="-2.37696">
        <ele>24.39999961853</ele>
        <time>2021-07-01T09:17:10.000Z</time>
      </trkpt>
      <trkpt lat="47.33388" lon="-2.37703">
        <ele>24.39999961853</ele>
        <time>2021-07-01T09:17:11.000Z</time>
      </trkpt>
      <trkpt lat="47.33388" lon="-2.37711">
        <ele>24.799999237061</ele>
        <time>2021-07-01T09:17:12.000Z</time>
      </trkpt>
      <trkpt lat="47.33388" lon="-2.37718">
        <ele>25.200000762939</ele>
        <time>2021-07-01T09:17:13.000Z</time>
      </trkpt>
      <trkpt lat="47.33388" lon="-2.37725">
        <ele>25.799999237061</ele>
        <time>2021-07-01T09:17:14.000Z</time>
      </trkpt>
      <trkpt lat="47.33388" lon="-2.37732">
        <ele>26.200000762939</ele>
        <time>2021-07-01T09:17:15.000Z</time>
      </trkpt>
      <trkpt lat="47.33388" lon="-2.37738">
        <ele>26.60000038147</ele>
        <time>2021-07-01T09:17:16.000Z</time>
      </trkpt>
      <trkpt lat="47.33388" lon="-2.37745">
        <ele>26.60000038147</ele>
        <time>2021-07-01T09:17:17.000Z</time>
      </trkpt>
      <trkpt lat="47.33386" lon="-2.37791">
        <ele>26.60000038147</ele>
        <time>2021-07-01T09:17:23.000Z</time>
      </trkpt>
      <trkpt lat="47.33385" lon="-2.37799">
        <ele>26.60000038147</ele>
        <time>2021-07-01T09:17:24.000Z</time>
      </trkpt>
      <trkpt lat="47.33384" lon="-2.37807">
        <ele>26.60000038147</ele>
        <time>2021-07-01T09:17:25.000Z</time>
      </trkpt>
      <trkpt lat="47.33376" lon="-2.3783">
        <ele>26.60000038147</ele>
        <time>2021-07-01T09:17:28.000Z</time>
      </trkpt>
      <trkpt lat="47.33367" lon="-2.37851">
        <ele>26.60000038147</ele>
        <time>2021-07-01T09:17:32.000Z</time>
      </trkpt>
      <trkpt lat="47.33362" lon="-2.37855">
        <ele>26.200000762939</ele>
        <time>2021-07-01T09:17:34.000Z</time>
      </trkpt>
      <trkpt lat="47.33359" lon="-2.37855">
        <ele>25.39999961853</ele>
        <time>2021-07-01T09:17:35.000Z</time>
      </trkpt>
      <trkpt lat="47.33356" lon="-2.37854">
        <ele>25</ele>
        <time>2021-07-01T09:17:36.000Z</time>
      </trkpt>
      <trkpt lat="47.33353" lon="-2.37853">
        <ele>24.60000038147</ele>
        <time>2021-07-01T09:17:37.000Z</time>
      </trkpt>
      <trkpt lat="47.33337" lon="-2.37853">
        <ele>24.60000038147</ele>
        <time>2021-07-01T09:17:41.000Z</time>
      </trkpt>
      <trkpt lat="47.33309" lon="-2.37864">
        <ele>24.60000038147</ele>
        <time>2021-07-01T09:17:47.000Z</time>
      </trkpt>
      <trkpt lat="47.33279" lon="-2.37873">
        <ele>24</ele>
        <time>2021-07-01T09:17:52.000Z</time>
      </trkpt>
      <trkpt lat="47.33273" lon="-2.37875">
        <ele>23.60000038147</ele>
        <time>2021-07-01T09:17:53.000Z</time>
      </trkpt>
      <trkpt lat="47.33266" lon="-2.37876">
        <ele>23.200000762939</ele>
        <time>2021-07-01T09:17:54.000Z</time>
      </trkpt>
      <trkpt lat="47.33261" lon="-2.37878">
        <ele>22.799999237061</ele>
        <time>2021-07-01T09:17:55.000Z</time>
      </trkpt>
      <trkpt lat="47.33255" lon="-2.37879">
        <ele>22.39999961853</ele>
        <time>2021-07-01T09:17:56.000Z</time>
      </trkpt>
      <trkpt lat="47.3325" lon="-2.37879">
        <ele>21.799999237061</ele>
        <time>2021-07-01T09:17:57.000Z</time>
      </trkpt>
      <trkpt lat="47.33243" lon="-2.37876">
        <ele>21.39999961853</ele>
        <time>2021-07-01T09:17:58.000Z</time>
      </trkpt>
      <trkpt lat="47.33237" lon="-2.37872">
        <ele>21</ele>
        <time>2021-07-01T09:17:59.000Z</time>
      </trkpt>
      <trkpt lat="47.33231" lon="-2.37867">
        <ele>20.39999961853</ele>
        <time>2021-07-01T09:18:00.000Z</time>
      </trkpt>
      <trkpt lat="47.33225" lon="-2.37863">
        <ele>20</ele>
        <time>2021-07-01T09:18:01.000Z</time>
      </trkpt>
      <trkpt lat="47.3322" lon="-2.37857">
        <ele>19.60000038147</ele>
        <time>2021-07-01T09:18:02.000Z</time>
      </trkpt>
      <trkpt lat="47.33214" lon="-2.37851">
        <ele>19</ele>
        <time>2021-07-01T09:18:03.000Z</time>
      </trkpt>
      <trkpt lat="47.33209" lon="-2.37843">
        <ele>18.60000038147</ele>
        <time>2021-07-01T09:18:04.000Z</time>
      </trkpt>
      <trkpt lat="47.33204" lon="-2.37835">
        <ele>18.200000762939</ele>
        <time>2021-07-01T09:18:05.000Z</time>
      </trkpt>
      <trkpt lat="47.3318" lon="-2.37795">
        <ele>18.200000762939</ele>
        <time>2021-07-01T09:18:10.000Z</time>
      </trkpt>
      <trkpt lat="47.33156" lon="-2.37749">
        <ele>17.60000038147</ele>
        <time>2021-07-01T09:18:15.000Z</time>
      </trkpt>
      <trkpt lat="47.33151" lon="-2.37742">
        <ele>17.200000762939</ele>
        <time>2021-07-01T09:18:16.000Z</time>
      </trkpt>
      <trkpt lat="47.33146" lon="-2.37738">
        <ele>16.799999237061</ele>
        <time>2021-07-01T09:18:17.000Z</time>
      </trkpt>
      <trkpt lat="47.33141" lon="-2.37737">
        <ele>16.200000762939</ele>
        <time>2021-07-01T09:18:18.000Z</time>
      </trkpt>
      <trkpt lat="47.33136" lon="-2.37739">
        <ele>15.800000190735</ele>
        <time>2021-07-01T09:18:19.000Z</time>
      </trkpt>
      <trkpt lat="47.33122" lon="-2.37751">
        <ele>15.800000190735</ele>
        <time>2021-07-01T09:18:22.000Z</time>
      </trkpt>
      <trkpt lat="47.33118" lon="-2.37755">
        <ele>15.800000190735</ele>
        <time>2021-07-01T09:18:23.000Z</time>
      </trkpt>
      <trkpt lat="47.33114" lon="-2.37759">
        <ele>15.800000190735</ele>
        <time>2021-07-01T09:18:24.000Z</time>
      </trkpt>
      <trkpt lat="47.33098" lon="-2.37777">
        <ele>15.800000190735</ele>
        <time>2021-07-01T09:18:28.000Z</time>
      </trkpt>
      <trkpt lat="47.33068" lon="-2.37808">
        <ele>15.800000190735</ele>
        <time>2021-07-01T09:18:35.000Z</time>
      </trkpt>
      <trkpt lat="47.33031" lon="-2.3785">
        <ele>15.800000190735</ele>
        <time>2021-07-01T09:18:44.000Z</time>
      </trkpt>
      <trkpt lat="47.33019" lon="-2.37875">
        <ele>15.800000190735</ele>
        <time>2021-07-01T09:18:48.000Z</time>
      </trkpt>
      <trkpt lat="47.33016" lon="-2.37881">
        <ele>16.60000038147</ele>
        <time>2021-07-01T09:18:49.000Z</time>
      </trkpt>
      <trkpt lat="47.33012" lon="-2.37888">
        <ele>17</ele>
        <time>2021-07-01T09:18:50.000Z</time>
      </trkpt>
      <trkpt lat="47.33009" lon="-2.37895">
        <ele>17.39999961853</ele>
        <time>2021-07-01T09:18:51.000Z</time>
      </trkpt>
      <trkpt lat="47.33005" lon="-2.37901">
        <ele>18</ele>
        <time>2021-07-01T09:18:52.000Z</time>
      </trkpt>
      <trkpt lat="47.33002" lon="-2.37907">
        <ele>18</ele>
        <time>2021-07-01T09:18:53.000Z</time>
      </trkpt>
      <trkpt lat="47.32979" lon="-2.37946">
        <ele>18</ele>
        <time>2021-07-01T09:19:00.000Z</time>
      </trkpt>
      <trkpt lat="47.32959" lon="-2.37979">
        <ele>18</ele>
        <time>2021-07-01T09:19:06.000Z</time>
      </trkpt>
      <trkpt lat="47.32948" lon="-2.37994">
        <ele>18</ele>
        <time>2021-07-01T09:19:09.000Z</time>
      </trkpt>
      <trkpt lat="47.32931" lon="-2.38015">
        <ele>18</ele>
        <time>2021-07-01T09:19:13.000Z</time>
      </trkpt>
      <trkpt lat="47.32903" lon="-2.3806">
        <ele>18</ele>
        <time>2021-07-01T09:19:20.000Z</time>
      </trkpt>
      <trkpt lat="47.32895" lon="-2.38072">
        <ele>18.39999961853</ele>
        <time>2021-07-01T09:19:22.000Z</time>
      </trkpt>
      <trkpt lat="47.32892" lon="-2.38078">
        <ele>18.799999237061</ele>
        <time>2021-07-01T09:19:23.000Z</time>
      </trkpt>
      <trkpt lat="47.32888" lon="-2.38084">
        <ele>19.200000762939</ele>
        <time>2021-07-01T09:19:24.000Z</time>
      </trkpt>
      <trkpt lat="47.32885" lon="-2.38091">
        <ele>19.60000038147</ele>
        <time>2021-07-01T09:19:25.000Z</time>
      </trkpt>
      <trkpt lat="47.32881" lon="-2.38098">
        <ele>20</ele>
        <time>2021-07-01T09:19:26.000Z</time>
      </trkpt>
      <trkpt lat="47.32878" lon="-2.38104">
        <ele>20</ele>
        <time>2021-07-01T09:19:27.000Z</time>
      </trkpt>
      <trkpt lat="47.32874" lon="-2.3811">
        <ele>20</ele>
        <time>2021-07-01T09:19:28.000Z</time>
      </trkpt>
      <trkpt lat="47.3286" lon="-2.38132">
        <ele>20</ele>
        <time>2021-07-01T09:19:32.000Z</time>
      </trkpt>
      <trkpt lat="47.3285" lon="-2.38149">
        <ele>20</ele>
        <time>2021-07-01T09:19:35.000Z</time>
      </trkpt>
      <trkpt lat="47.32834" lon="-2.38179">
        <ele>20</ele>
        <time>2021-07-01T09:19:40.000Z</time>
      </trkpt>
      <trkpt lat="47.32829" lon="-2.38191">
        <ele>20.39999961853</ele>
        <time>2021-07-01T09:19:42.000Z</time>
      </trkpt>
      <trkpt lat="47.32826" lon="-2.38197">
        <ele>20.799999237061</ele>
        <time>2021-07-01T09:19:43.000Z</time>
      </trkpt>
      <trkpt lat="47.32824" lon="-2.38203">
        <ele>21.200000762939</ele>
        <time>2021-07-01T09:19:44.000Z</time>
      </trkpt>
      <trkpt lat="47.32822" lon="-2.38209">
        <ele>21.60000038147</ele>
        <time>2021-07-01T09:19:45.000Z</time>
      </trkpt>
      <trkpt lat="47.3282" lon="-2.38215">
        <ele>22</ele>
        <time>2021-07-01T09:19:46.000Z</time>
      </trkpt>
      <trkpt lat="47.32816" lon="-2.38226">
        <ele>22</ele>
        <time>2021-07-01T09:19:48.000Z</time>
      </trkpt>
      <trkpt lat="47.32812" lon="-2.38238">
        <ele>22</ele>
        <time>2021-07-01T09:19:50.000Z</time>
      </trkpt>
      <trkpt lat="47.32809" lon="-2.38251">
        <ele>22</ele>
        <time>2021-07-01T09:19:52.000Z</time>
      </trkpt>
      <trkpt lat="47.32808" lon="-2.38257">
        <ele>22.39999961853</ele>
        <time>2021-07-01T09:19:53.000Z</time>
      </trkpt>
      <trkpt lat="47.32807" lon="-2.38262">
        <ele>22.799999237061</ele>
        <time>2021-07-01T09:19:54.000Z</time>
      </trkpt>
      <trkpt lat="47.32806" lon="-2.38268">
        <ele>23.200000762939</ele>
        <time>2021-07-01T09:19:55.000Z</time>
      </trkpt>
      <trkpt lat="47.32805" lon="-2.38273">
        <ele>23.60000038147</ele>
        <time>2021-07-01T09:19:56.000Z</time>
      </trkpt>
      <trkpt lat="47.32804" lon="-2.38279">
        <ele>24</ele>
        <time>2021-07-01T09:19:57.000Z</time>
      </trkpt>
      <trkpt lat="47.328" lon="-2.38303">
        <ele>24.39999961853</ele>
        <time>2021-07-01T09:20:01.000Z</time>
      </trkpt>
      <trkpt lat="47.32799" lon="-2.38308">
        <ele>24.799999237061</ele>
        <time>2021-07-01T09:20:02.000Z</time>
      </trkpt>
      <trkpt lat="47.32797" lon="-2.38313">
        <ele>25.60000038147</ele>
        <time>2021-07-01T09:20:03.000Z</time>
      </trkpt>
      <trkpt lat="47.32796" lon="-2.38318">
        <ele>26</ele>
        <time>2021-07-01T09:20:04.000Z</time>
      </trkpt>
      <trkpt lat="47.32792" lon="-2.38339">
        <ele>26</ele>
        <time>2021-07-01T09:20:08.000Z</time>
      </trkpt>
      <trkpt lat="47.32788" lon="-2.38354">
        <ele>26.39999961853</ele>
        <time>2021-07-01T09:20:11.000Z</time>
      </trkpt>
      <trkpt lat="47.32787" lon="-2.38359">
        <ele>26.799999237061</ele>
        <time>2021-07-01T09:20:12.000Z</time>
      </trkpt>
      <trkpt lat="47.32786" lon="-2.38364">
        <ele>27.39999961853</ele>
        <time>2021-07-01T09:20:13.000Z</time>
      </trkpt>
      <trkpt lat="47.32785" lon="-2.38369">
        <ele>27.799999237061</ele>
        <time>2021-07-01T09:20:14.000Z</time>
      </trkpt>
      <trkpt lat="47.32784" lon="-2.38373">
        <ele>28.200000762939</ele>
        <time>2021-07-01T09:20:15.000Z</time>
      </trkpt>
      <trkpt lat="47.32778" lon="-2.38391">
        <ele>28.200000762939</ele>
        <time>2021-07-01T09:20:20.000Z</time>
      </trkpt>
      <trkpt lat="47.32765" lon="-2.38397">
        <ele>28.200000762939</ele>
        <time>2021-07-01T09:20:25.000Z</time>
      </trkpt>
      <trkpt lat="47.32741" lon="-2.38402">
        <ele>28.200000762939</ele>
        <time>2021-07-01T09:20:32.000Z</time>
      </trkpt>
      <trkpt lat="47.3273" lon="-2.38405">
        <ele>28.200000762939</ele>
        <time>2021-07-01T09:20:35.000Z</time>
      </trkpt>
      <trkpt lat="47.32717" lon="-2.38406">
        <ele>28.200000762939</ele>
        <time>2021-07-01T09:20:38.000Z</time>
      </trkpt>
      <trkpt lat="47.32708" lon="-2.38406">
        <ele>28.200000762939</ele>
        <time>2021-07-01T09:20:40.000Z</time>
      </trkpt>
      <trkpt lat="47.32693" lon="-2.38402">
        <ele>28.200000762939</ele>
        <time>2021-07-01T09:20:43.000Z</time>
      </trkpt>
      <trkpt lat="47.32676" lon="-2.38385">
        <ele>28.200000762939</ele>
        <time>2021-07-01T09:20:47.000Z</time>
      </trkpt>
      <trkpt lat="47.32673" lon="-2.3838">
        <ele>28.200000762939</ele>
        <time>2021-07-01T09:20:48.000Z</time>
      </trkpt>
      <trkpt lat="47.32669" lon="-2.38375">
        <ele>27.799999237061</ele>
        <time>2021-07-01T09:20:49.000Z</time>
      </trkpt>
      <trkpt lat="47.32665" lon="-2.38371">
        <ele>27.39999961853</ele>
        <time>2021-07-01T09:20:50.000Z</time>
      </trkpt>
      <trkpt lat="47.32661" lon="-2.38366">
        <ele>27</ele>
        <time>2021-07-01T09:20:51.000Z</time>
      </trkpt>
      <trkpt lat="47.32656" lon="-2.3836">
        <ele>26</ele>
        <time>2021-07-01T09:20:52.000Z</time>
      </trkpt>
      <trkpt lat="47.32652" lon="-2.38354">
        <ele>26</ele>
        <time>2021-07-01T09:20:53.000Z</time>
      </trkpt>
      <trkpt lat="47.32637" lon="-2.38334">
        <ele>25.60000038147</ele>
        <time>2021-07-01T09:20:56.000Z</time>
      </trkpt>
      <trkpt lat="47.32632" lon="-2.38327">
        <ele>25.200000762939</ele>
        <time>2021-07-01T09:20:57.000Z</time>
      </trkpt>
      <trkpt lat="47.32626" lon="-2.38319">
        <ele>24.799999237061</ele>
        <time>2021-07-01T09:20:58.000Z</time>
      </trkpt>
      <trkpt lat="47.32621" lon="-2.38311">
        <ele>24.39999961853</ele>
        <time>2021-07-01T09:20:59.000Z</time>
      </trkpt>
      <trkpt lat="47.32615" lon="-2.38305">
        <ele>24</ele>
        <time>2021-07-01T09:21:00.000Z</time>
      </trkpt>
      <trkpt lat="47.32601" lon="-2.38298">
        <ele>24</ele>
        <time>2021-07-01T09:21:02.000Z</time>
      </trkpt>
      <trkpt lat="47.32594" lon="-2.38298">
        <ele>23.39999961853</ele>
        <time>2021-07-01T09:21:03.000Z</time>
      </trkpt>
      <trkpt lat="47.32587" lon="-2.383">
        <ele>23</ele>
        <time>2021-07-01T09:21:04.000Z</time>
      </trkpt>
      <trkpt lat="47.3258" lon="-2.38302">
        <ele>22.60000038147</ele>
        <time>2021-07-01T09:21:05.000Z</time>
      </trkpt>
      <trkpt lat="47.32573" lon="-2.38304">
        <ele>22</ele>
        <time>2021-07-01T09:21:06.000Z</time>
      </trkpt>
      <trkpt lat="47.32566" lon="-2.38306">
        <ele>21.60000038147</ele>
        <time>2021-07-01T09:21:07.000Z</time>
      </trkpt>
      <trkpt lat="47.32541" lon="-2.38312">
        <ele>21.60000038147</ele>
        <time>2021-07-01T09:21:11.000Z</time>
      </trkpt>
      <trkpt lat="47.32527" lon="-2.38318">
        <ele>21.60000038147</ele>
        <time>2021-07-01T09:21:15.000Z</time>
      </trkpt>
      <trkpt lat="47.32523" lon="-2.38323">
        <ele>21.60000038147</ele>
        <time>2021-07-01T09:21:17.000Z</time>
      </trkpt>
      <trkpt lat="47.32523" lon="-2.38333">
        <ele>21.60000038147</ele>
        <time>2021-07-01T09:21:19.000Z</time>
      </trkpt>
      <trkpt lat="47.32524" lon="-2.38348">
        <ele>21.60000038147</ele>
        <time>2021-07-01T09:21:22.000Z</time>
      </trkpt>
      <trkpt lat="47.32525" lon="-2.38366">
        <ele>21.60000038147</ele>
        <time>2021-07-01T09:21:26.000Z</time>
      </trkpt>
      <trkpt lat="47.32526" lon="-2.38377">
        <ele>22</ele>
        <time>2021-07-01T09:21:29.000Z</time>
      </trkpt>
      <trkpt lat="47.32526" lon="-2.3838">
        <ele>22.39999961853</ele>
        <time>2021-07-01T09:21:30.000Z</time>
      </trkpt>
      <trkpt lat="47.32526" lon="-2.38383">
        <ele>22.799999237061</ele>
        <time>2021-07-01T09:21:31.000Z</time>
      </trkpt>
      <trkpt lat="47.32525" lon="-2.38386">
        <ele>23.200000762939</ele>
        <time>2021-07-01T09:21:32.000Z</time>
      </trkpt>
      <trkpt lat="47.32524" lon="-2.38388">
        <ele>23.60000038147</ele>
        <time>2021-07-01T09:21:33.000Z</time>
      </trkpt>
      <trkpt lat="47.32517" lon="-2.38386">
        <ele>23.60000038147</ele>
        <time>2021-07-01T09:21:36.000Z</time>
      </trkpt>
      <trkpt lat="47.32498" lon="-2.38384">
        <ele>23.60000038147</ele>
        <time>2021-07-01T09:21:40.000Z</time>
      </trkpt>
      <trkpt lat="47.32476" lon="-2.38372">
        <ele>23.60000038147</ele>
        <time>2021-07-01T09:21:45.000Z</time>
      </trkpt>
      <trkpt lat="47.32446" lon="-2.38359">
        <ele>23.60000038147</ele>
        <time>2021-07-01T09:21:52.000Z</time>
      </trkpt>
      <trkpt lat="47.32411" lon="-2.38342">
        <ele>23.60000038147</ele>
        <time>2021-07-01T09:22:00.000Z</time>
      </trkpt>
      <trkpt lat="47.32389" lon="-2.38329">
        <ele>23.60000038147</ele>
        <time>2021-07-01T09:22:05.000Z</time>
      </trkpt>
      <trkpt lat="47.32357" lon="-2.38316">
        <ele>23.60000038147</ele>
        <time>2021-07-01T09:22:10.000Z</time>
      </trkpt>
      <trkpt lat="47.32324" lon="-2.38302">
        <ele>23.60000038147</ele>
        <time>2021-07-01T09:22:15.000Z</time>
      </trkpt>
      <trkpt lat="47.32317" lon="-2.38299">
        <ele>23.60000038147</ele>
        <time>2021-07-01T09:22:16.000Z</time>
      </trkpt>
      <trkpt lat="47.32304" lon="-2.38294">
        <ele>23.200000762939</ele>
        <time>2021-07-01T09:22:18.000Z</time>
      </trkpt>
      <trkpt lat="47.32298" lon="-2.38291">
        <ele>22.799999237061</ele>
        <time>2021-07-01T09:22:19.000Z</time>
      </trkpt>
      <trkpt lat="47.32292" lon="-2.38289">
        <ele>22.39999961853</ele>
        <time>2021-07-01T09:22:20.000Z</time>
      </trkpt>
      <trkpt lat="47.32285" lon="-2.38288">
        <ele>22</ele>
        <time>2021-07-01T09:22:21.000Z</time>
      </trkpt>
      <trkpt lat="47.32279" lon="-2.38288">
        <ele>21.60000038147</ele>
        <time>2021-07-01T09:22:22.000Z</time>
      </trkpt>
      <trkpt lat="47.32261" lon="-2.3829">
        <ele>21.60000038147</ele>
        <time>2021-07-01T09:22:25.000Z</time>
      </trkpt>
      <trkpt lat="47.32235" lon="-2.38295">
        <ele>21.60000038147</ele>
        <time>2021-07-01T09:22:30.000Z</time>
      </trkpt>
      <trkpt lat="47.3223" lon="-2.38295">
        <ele>21.60000038147</ele>
        <time>2021-07-01T09:22:31.000Z</time>
      </trkpt>
      <trkpt lat="47.32211" lon="-2.38303">
        <ele>21.200000762939</ele>
        <time>2021-07-01T09:22:35.000Z</time>
      </trkpt>
      <trkpt lat="47.32207" lon="-2.38308">
        <ele>20.799999237061</ele>
        <time>2021-07-01T09:22:36.000Z</time>
      </trkpt>
      <trkpt lat="47.32204" lon="-2.38312">
        <ele>20.39999961853</ele>
        <time>2021-07-01T09:22:37.000Z</time>
      </trkpt>
      <trkpt lat="47.322" lon="-2.38316">
        <ele>19.799999237061</ele>
        <time>2021-07-01T09:22:38.000Z</time>
      </trkpt>
      <trkpt lat="47.32196" lon="-2.38321">
        <ele>19.39999961853</ele>
        <time>2021-07-01T09:22:39.000Z</time>
      </trkpt>
      <trkpt lat="47.3219" lon="-2.38329">
        <ele>19.39999961853</ele>
        <time>2021-07-01T09:22:41.000Z</time>
      </trkpt>
      <trkpt lat="47.32167" lon="-2.38361">
        <ele>19.39999961853</ele>
        <time>2021-07-01T09:22:48.000Z</time>
      </trkpt>
      <trkpt lat="47.32153" lon="-2.38387">
        <ele>19.39999961853</ele>
        <time>2021-07-01T09:22:54.000Z</time>
      </trkpt>
      <trkpt lat="47.32132" lon="-2.38413">
        <ele>19.39999961853</ele>
        <time>2021-07-01T09:23:00.000Z</time>
      </trkpt>
      <trkpt lat="47.3211" lon="-2.3843">
        <ele>19.39999961853</ele>
        <time>2021-07-01T09:23:05.000Z</time>
      </trkpt>
      <trkpt lat="47.32085" lon="-2.38438">
        <ele>19.39999961853</ele>
        <time>2021-07-01T09:23:10.000Z</time>
      </trkpt>
      <trkpt lat="47.32076" lon="-2.38441">
        <ele>19.39999961853</ele>
        <time>2021-07-01T09:23:12.000Z</time>
      </trkpt>
      <trkpt lat="47.32068" lon="-2.38443">
        <ele>19.799999237061</ele>
        <time>2021-07-01T09:23:14.000Z</time>
      </trkpt>
      <trkpt lat="47.32065" lon="-2.38445">
        <ele>20.200000762939</ele>
        <time>2021-07-01T09:23:15.000Z</time>
      </trkpt>
      <trkpt lat="47.32061" lon="-2.38447">
        <ele>20.60000038147</ele>
        <time>2021-07-01T09:23:16.000Z</time>
      </trkpt>
      <trkpt lat="47.32057" lon="-2.38449">
        <ele>21</ele>
        <time>2021-07-01T09:23:17.000Z</time>
      </trkpt>
      <trkpt lat="47.32052" lon="-2.38451">
        <ele>21.39999961853</ele>
        <time>2021-07-01T09:23:18.000Z</time>
      </trkpt>
      <trkpt lat="47.32037" lon="-2.38456">
        <ele>21.39999961853</ele>
        <time>2021-07-01T09:23:21.000Z</time>
      </trkpt>
      <trkpt lat="47.32" lon="-2.3847">
        <ele>21.39999961853</ele>
        <time>2021-07-01T09:23:29.000Z</time>
      </trkpt>
      <trkpt lat="47.31988" lon="-2.38476">
        <ele>21.799999237061</ele>
        <time>2021-07-01T09:23:32.000Z</time>
      </trkpt>
      <trkpt lat="47.31984" lon="-2.38478">
        <ele>22.39999961853</ele>
        <time>2021-07-01T09:23:33.000Z</time>
      </trkpt>
      <trkpt lat="47.3198" lon="-2.3848">
        <ele>22.799999237061</ele>
        <time>2021-07-01T09:23:34.000Z</time>
      </trkpt>
      <trkpt lat="47.31976" lon="-2.38482">
        <ele>23.200000762939</ele>
        <time>2021-07-01T09:23:35.000Z</time>
      </trkpt>
      <trkpt lat="47.31971" lon="-2.38483">
        <ele>23.60000038147</ele>
        <time>2021-07-01T09:23:36.000Z</time>
      </trkpt>
      <trkpt lat="47.3195" lon="-2.3849">
        <ele>23.60000038147</ele>
        <time>2021-07-01T09:23:41.000Z</time>
      </trkpt>
      <trkpt lat="47.31936" lon="-2.38493">
        <ele>23.60000038147</ele>
        <time>2021-07-01T09:23:44.000Z</time>
      </trkpt>
      <trkpt lat="47.31926" lon="-2.38496">
        <ele>24</ele>
        <time>2021-07-01T09:23:46.000Z</time>
      </trkpt>
      <trkpt lat="47.31921" lon="-2.38498">
        <ele>24.60000038147</ele>
        <time>2021-07-01T09:23:47.000Z</time>
      </trkpt>
      <trkpt lat="47.31916" lon="-2.38501">
        <ele>25</ele>
        <time>2021-07-01T09:23:48.000Z</time>
      </trkpt>
      <trkpt lat="47.31911" lon="-2.38503">
        <ele>25.39999961853</ele>
        <time>2021-07-01T09:23:49.000Z</time>
      </trkpt>
      <trkpt lat="47.31907" lon="-2.38505">
        <ele>25.799999237061</ele>
        <time>2021-07-01T09:23:50.000Z</time>
      </trkpt>
      <trkpt lat="47.31881" lon="-2.38515">
        <ele>25.799999237061</ele>
        <time>2021-07-01T09:23:56.000Z</time>
      </trkpt>
      <trkpt lat="47.31863" lon="-2.38524">
        <ele>26.200000762939</ele>
        <time>2021-07-01T09:24:01.000Z</time>
      </trkpt>
      <trkpt lat="47.31859" lon="-2.38525">
        <ele>26.60000038147</ele>
        <time>2021-07-01T09:24:02.000Z</time>
      </trkpt>
      <trkpt lat="47.31857" lon="-2.38527">
        <ele>27</ele>
        <time>2021-07-01T09:24:03.000Z</time>
      </trkpt>
      <trkpt lat="47.31854" lon="-2.38528">
        <ele>27.39999961853</ele>
        <time>2021-07-01T09:24:04.000Z</time>
      </trkpt>
      <trkpt lat="47.31851" lon="-2.38529">
        <ele>28</ele>
        <time>2021-07-01T09:24:05.000Z</time>
      </trkpt>
      <trkpt lat="47.31838" lon="-2.38533">
        <ele>28</ele>
        <time>2021-07-01T09:24:09.000Z</time>
      </trkpt>
      <trkpt lat="47.31828" lon="-2.38537">
        <ele>28.39999961853</ele>
        <time>2021-07-01T09:24:12.000Z</time>
      </trkpt>
      <trkpt lat="47.31825" lon="-2.38538">
        <ele>28.799999237061</ele>
        <time>2021-07-01T09:24:13.000Z</time>
      </trkpt>
      <trkpt lat="47.31822" lon="-2.38538">
        <ele>29.200000762939</ele>
        <time>2021-07-01T09:24:14.000Z</time>
      </trkpt>
      <trkpt lat="47.31819" lon="-2.38538">
        <ele>29.60000038147</ele>
        <time>2021-07-01T09:24:15.000Z</time>
      </trkpt>
      <trkpt lat="47.31817" lon="-2.38538">
        <ele>30</ele>
        <time>2021-07-01T09:24:16.000Z</time>
      </trkpt>
      <trkpt lat="47.31815" lon="-2.38538">
        <ele>30</ele>
        <time>2021-07-01T09:24:17.000Z</time>
      </trkpt>
      <trkpt lat="47.31807" lon="-2.38536">
        <ele>30</ele>
        <time>2021-07-01T09:24:22.000Z</time>
      </trkpt>
      <trkpt lat="47.31806" lon="-2.38536">
        <ele>30</ele>
        <time>2021-07-01T09:24:23.000Z</time>
      </trkpt>
      <trkpt lat="47.31799" lon="-2.38538">
        <ele>30</ele>
        <time>2021-07-01T09:24:29.000Z</time>
      </trkpt>
      <trkpt lat="47.31795" lon="-2.38539">
        <ele>30</ele>
        <time>2021-07-01T09:24:33.000Z</time>
      </trkpt>
      <trkpt lat="47.31798" lon="-2.38541">
        <ele>30</ele>
        <time>2021-07-01T09:24:53.000Z</time>
      </trkpt>
      <trkpt lat="47.31804" lon="-2.38537">
        <ele>30</ele>
        <time>2021-07-01T09:24:58.000Z</time>
      </trkpt>
      <trkpt lat="47.31805" lon="-2.38537">
        <ele>30</ele>
        <time>2021-07-01T09:24:59.000Z</time>
      </trkpt>
      <trkpt lat="47.31806" lon="-2.38537">
        <ele>30</ele>
        <time>2021-07-01T09:25:00.000Z</time>
      </trkpt>
      <trkpt lat="47.31806" lon="-2.38534">
        <ele>30</ele>
        <time>2021-07-01T09:26:42.000Z</time>
      </trkpt>
      <trkpt lat="47.31806" lon="-2.38528">
        <ele>30</ele>
        <time>2021-07-01T09:26:44.000Z</time>
      </trkpt>
      <trkpt lat="47.31808" lon="-2.38498">
        <ele>30</ele>
        <time>2021-07-01T09:26:50.000Z</time>
      </trkpt>
      <trkpt lat="47.31808" lon="-2.38449">
        <ele>30</ele>
        <time>2021-07-01T09:26:57.000Z</time>
      </trkpt>
      <trkpt lat="47.31808" lon="-2.38375">
        <ele>30</ele>
        <time>2021-07-01T09:27:06.000Z</time>
      </trkpt>
      <trkpt lat="47.31808" lon="-2.38306">
        <ele>30</ele>
        <time>2021-07-01T09:27:13.000Z</time>
      </trkpt>
      <trkpt lat="47.31806" lon="-2.38253">
        <ele>29.60000038147</ele>
        <time>2021-07-01T09:27:18.000Z</time>
      </trkpt>
      <trkpt lat="47.31806" lon="-2.38243">
        <ele>29.200000762939</ele>
        <time>2021-07-01T09:27:19.000Z</time>
      </trkpt>
      <trkpt lat="47.31805" lon="-2.38231">
        <ele>28.799999237061</ele>
        <time>2021-07-01T09:27:20.000Z</time>
      </trkpt>
      <trkpt lat="47.31805" lon="-2.3822">
        <ele>28.39999961853</ele>
        <time>2021-07-01T09:27:21.000Z</time>
      </trkpt>
      <trkpt lat="47.31804" lon="-2.38209">
        <ele>28</ele>
        <time>2021-07-01T09:27:22.000Z</time>
      </trkpt>
      <trkpt lat="47.31801" lon="-2.38144">
        <ele>27.60000038147</ele>
        <time>2021-07-01T09:27:28.000Z</time>
      </trkpt>
      <trkpt lat="47.318" lon="-2.38134">
        <ele>27.200000762939</ele>
        <time>2021-07-01T09:27:29.000Z</time>
      </trkpt>
      <trkpt lat="47.318" lon="-2.38124">
        <ele>26.799999237061</ele>
        <time>2021-07-01T09:27:30.000Z</time>
      </trkpt>
      <trkpt lat="47.31799" lon="-2.38113">
        <ele>26.39999961853</ele>
        <time>2021-07-01T09:27:31.000Z</time>
      </trkpt>
      <trkpt lat="47.31799" lon="-2.38103">
        <ele>26</ele>
        <time>2021-07-01T09:27:32.000Z</time>
      </trkpt>
      <trkpt lat="47.31795" lon="-2.38027">
        <ele>26</ele>
        <time>2021-07-01T09:27:39.000Z</time>
      </trkpt>
      <trkpt lat="47.31795" lon="-2.37948">
        <ele>26</ele>
        <time>2021-07-01T09:27:47.000Z</time>
      </trkpt>
      <trkpt lat="47.31801" lon="-2.37869">
        <ele>26</ele>
        <time>2021-07-01T09:27:56.000Z</time>
      </trkpt>
      <trkpt lat="47.31802" lon="-2.37861">
        <ele>26</ele>
        <time>2021-07-01T09:27:57.000Z</time>
      </trkpt>
      <trkpt lat="47.31808" lon="-2.3781">
        <ele>26.39999961853</ele>
        <time>2021-07-01T09:28:03.000Z</time>
      </trkpt>
      <trkpt lat="47.31809" lon="-2.37802">
        <ele>26.799999237061</ele>
        <time>2021-07-01T09:28:04.000Z</time>
      </trkpt>
      <trkpt lat="47.3181" lon="-2.37794">
        <ele>27.200000762939</ele>
        <time>2021-07-01T09:28:05.000Z</time>
      </trkpt>
      <trkpt lat="47.3181" lon="-2.37786">
        <ele>27.60000038147</ele>
        <time>2021-07-01T09:28:06.000Z</time>
      </trkpt>
      <trkpt lat="47.31811" lon="-2.37778">
        <ele>28</ele>
        <time>2021-07-01T09:28:07.000Z</time>
      </trkpt>
      <trkpt lat="47.31815" lon="-2.37717">
        <ele>28</ele>
        <time>2021-07-01T09:28:15.000Z</time>
      </trkpt>
      <trkpt lat="47.31824" lon="-2.37666">
        <ele>28</ele>
        <time>2021-07-01T09:28:22.000Z</time>
      </trkpt>
      <trkpt lat="47.31824" lon="-2.3766">
        <ele>28</ele>
        <time>2021-07-01T09:28:23.000Z</time>
      </trkpt>
      <trkpt lat="47.31821" lon="-2.37652">
        <ele>28</ele>
        <time>2021-07-01T09:28:25.000Z</time>
      </trkpt>
      <trkpt lat="47.31808" lon="-2.37656">
        <ele>28</ele>
        <time>2021-07-01T09:28:28.000Z</time>
      </trkpt>
      <trkpt lat="47.31798" lon="-2.37662">
        <ele>28</ele>
        <time>2021-07-01T09:28:30.000Z</time>
      </trkpt>
      <trkpt lat="47.31779" lon="-2.37679">
        <ele>28</ele>
        <time>2021-07-01T09:28:34.000Z</time>
      </trkpt>
      <trkpt lat="47.31743" lon="-2.37709">
        <ele>28</ele>
        <time>2021-07-01T09:28:41.000Z</time>
      </trkpt>
      <trkpt lat="47.31738" lon="-2.37712">
        <ele>28.799999237061</ele>
        <time>2021-07-01T09:28:42.000Z</time>
      </trkpt>
      <trkpt lat="47.31731" lon="-2.37714">
        <ele>29.200000762939</ele>
        <time>2021-07-01T09:28:43.000Z</time>
      </trkpt>
      <trkpt lat="47.31726" lon="-2.37716">
        <ele>29.60000038147</ele>
        <time>2021-07-01T09:28:44.000Z</time>
      </trkpt>
      <trkpt lat="47.3172" lon="-2.37718">
        <ele>30</ele>
        <time>2021-07-01T09:28:45.000Z</time>
      </trkpt>
      <trkpt lat="47.31708" lon="-2.37719">
        <ele>30</ele>
        <time>2021-07-01T09:28:47.000Z</time>
      </trkpt>
      <trkpt lat="47.31686" lon="-2.37709">
        <ele>30</ele>
        <time>2021-07-01T09:28:51.000Z</time>
      </trkpt>
      <trkpt lat="47.31667" lon="-2.37687">
        <ele>30</ele>
        <time>2021-07-01T09:28:55.000Z</time>
      </trkpt>
      <trkpt lat="47.31663" lon="-2.37682">
        <ele>30</ele>
        <time>2021-07-01T09:28:56.000Z</time>
      </trkpt>
      <trkpt lat="47.31648" lon="-2.37666">
        <ele>30</ele>
        <time>2021-07-01T09:28:59.000Z</time>
      </trkpt>
      <trkpt lat="47.31637" lon="-2.37659">
        <ele>30</ele>
        <time>2021-07-01T09:29:02.000Z</time>
      </trkpt>
      <trkpt lat="47.31631" lon="-2.37656">
        <ele>30</ele>
        <time>2021-07-01T09:29:03.000Z</time>
      </trkpt>
      <trkpt lat="47.31626" lon="-2.37653">
        <ele>30</ele>
        <time>2021-07-01T09:29:04.000Z</time>
      </trkpt>
      <trkpt lat="47.31613" lon="-2.37636">
        <ele>30</ele>
        <time>2021-07-01T09:29:07.000Z</time>
      </trkpt>
      <trkpt lat="47.31611" lon="-2.37611">
        <ele>30</ele>
        <time>2021-07-01T09:29:10.000Z</time>
      </trkpt>
      <trkpt lat="47.3161" lon="-2.37603">
        <ele>30</ele>
        <time>2021-07-01T09:29:11.000Z</time>
      </trkpt>
      <trkpt lat="47.31613" lon="-2.3756">
        <ele>30</ele>
        <time>2021-07-01T09:29:16.000Z</time>
      </trkpt>
      <trkpt lat="47.31614" lon="-2.37552">
        <ele>30</ele>
        <time>2021-07-01T09:29:17.000Z</time>
      </trkpt>
      <trkpt lat="47.31622" lon="-2.37527">
        <ele>30</ele>
        <time>2021-07-01T09:29:20.000Z</time>
      </trkpt>
      <trkpt lat="47.31628" lon="-2.37511">
        <ele>30</ele>
        <time>2021-07-01T09:29:22.000Z</time>
      </trkpt>
      <trkpt lat="47.31635" lon="-2.37475">
        <ele>30</ele>
        <time>2021-07-01T09:29:26.000Z</time>
      </trkpt>
      <trkpt lat="47.31635" lon="-2.37466">
        <ele>30</ele>
        <time>2021-07-01T09:29:27.000Z</time>
      </trkpt>
      <trkpt lat="47.31633" lon="-2.37431">
        <ele>30</ele>
        <time>2021-07-01T09:29:31.000Z</time>
      </trkpt>
      <trkpt lat="47.31632" lon="-2.37404">
        <ele>30</ele>
        <time>2021-07-01T09:29:34.000Z</time>
      </trkpt>
      <trkpt lat="47.3163" lon="-2.37387">
        <ele>30.39999961853</ele>
        <time>2021-07-01T09:29:36.000Z</time>
      </trkpt>
      <trkpt lat="47.31629" lon="-2.37379">
        <ele>31</ele>
        <time>2021-07-01T09:29:37.000Z</time>
      </trkpt>
      <trkpt lat="47.31627" lon="-2.3737">
        <ele>31.39999961853</ele>
        <time>2021-07-01T09:29:38.000Z</time>
      </trkpt>
      <trkpt lat="47.31625" lon="-2.37362">
        <ele>31.799999237061</ele>
        <time>2021-07-01T09:29:39.000Z</time>
      </trkpt>
      <trkpt lat="47.31624" lon="-2.37354">
        <ele>32.200000762939</ele>
        <time>2021-07-01T09:29:40.000Z</time>
      </trkpt>
      <trkpt lat="47.31616" lon="-2.37311">
        <ele>32.200000762939</ele>
        <time>2021-07-01T09:29:45.000Z</time>
      </trkpt>
      <trkpt lat="47.31617" lon="-2.37286">
        <ele>32.200000762939</ele>
        <time>2021-07-01T09:29:48.000Z</time>
      </trkpt>
      <trkpt lat="47.31619" lon="-2.3728">
        <ele>32.200000762939</ele>
        <time>2021-07-01T09:29:49.000Z</time>
      </trkpt>
      <trkpt lat="47.31632" lon="-2.37259">
        <ele>32.200000762939</ele>
        <time>2021-07-01T09:29:53.000Z</time>
      </trkpt>
      <trkpt lat="47.31645" lon="-2.37251">
        <ele>32.200000762939</ele>
        <time>2021-07-01T09:29:55.000Z</time>
      </trkpt>
      <trkpt lat="47.31657" lon="-2.37243">
        <ele>32.200000762939</ele>
        <time>2021-07-01T09:29:57.000Z</time>
      </trkpt>
      <trkpt lat="47.31668" lon="-2.37233">
        <ele>32.200000762939</ele>
        <time>2021-07-01T09:29:59.000Z</time>
      </trkpt>
      <trkpt lat="47.3168" lon="-2.3721">
        <ele>32.200000762939</ele>
        <time>2021-07-01T09:30:02.000Z</time>
      </trkpt>
      <trkpt lat="47.31683" lon="-2.37183">
        <ele>32.200000762939</ele>
        <time>2021-07-01T09:30:05.000Z</time>
      </trkpt>
      <trkpt lat="47.31682" lon="-2.37175">
        <ele>32.200000762939</ele>
        <time>2021-07-01T09:30:06.000Z</time>
      </trkpt>
      <trkpt lat="47.31681" lon="-2.37168">
        <ele>32.599998474121</ele>
        <time>2021-07-01T09:30:07.000Z</time>
      </trkpt>
      <trkpt lat="47.31678" lon="-2.37161">
        <ele>33</ele>
        <time>2021-07-01T09:30:08.000Z</time>
      </trkpt>
      <trkpt lat="47.31675" lon="-2.37154">
        <ele>33.400001525879</ele>
        <time>2021-07-01T09:30:09.000Z</time>
      </trkpt>
      <trkpt lat="47.31671" lon="-2.37146">
        <ele>33.799999237061</ele>
        <time>2021-07-01T09:30:10.000Z</time>
      </trkpt>
      <trkpt lat="47.31668" lon="-2.37139">
        <ele>34.200000762939</ele>
        <time>2021-07-01T09:30:11.000Z</time>
      </trkpt>
      <trkpt lat="47.3166" lon="-2.37124">
        <ele>34.200000762939</ele>
        <time>2021-07-01T09:30:13.000Z</time>
      </trkpt>
      <trkpt lat="47.3163" lon="-2.37069">
        <ele>34.200000762939</ele>
        <time>2021-07-01T09:30:20.000Z</time>
      </trkpt>
      <trkpt lat="47.31605" lon="-2.37004">
        <ele>34.200000762939</ele>
        <time>2021-07-01T09:30:27.000Z</time>
      </trkpt>
      <trkpt lat="47.31593" lon="-2.36966">
        <ele>33.799999237061</ele>
        <time>2021-07-01T09:30:31.000Z</time>
      </trkpt>
      <trkpt lat="47.3159" lon="-2.36956">
        <ele>33.200000762939</ele>
        <time>2021-07-01T09:30:32.000Z</time>
      </trkpt>
      <trkpt lat="47.31587" lon="-2.36946">
        <ele>32.799999237061</ele>
        <time>2021-07-01T09:30:33.000Z</time>
      </trkpt>
      <trkpt lat="47.31584" lon="-2.36936">
        <ele>32.400001525879</ele>
        <time>2021-07-01T09:30:34.000Z</time>
      </trkpt>
      <trkpt lat="47.31582" lon="-2.36926">
        <ele>32</ele>
        <time>2021-07-01T09:30:35.000Z</time>
      </trkpt>
      <trkpt lat="47.3157" lon="-2.36885">
        <ele>31.60000038147</ele>
        <time>2021-07-01T09:30:39.000Z</time>
      </trkpt>
      <trkpt lat="47.31567" lon="-2.36874">
        <ele>31.200000762939</ele>
        <time>2021-07-01T09:30:40.000Z</time>
      </trkpt>
      <trkpt lat="47.31564" lon="-2.36863">
        <ele>30.799999237061</ele>
        <time>2021-07-01T09:30:41.000Z</time>
      </trkpt>
      <trkpt lat="47.3156" lon="-2.36852">
        <ele>30.200000762939</ele>
        <time>2021-07-01T09:30:42.000Z</time>
      </trkpt>
      <trkpt lat="47.31558" lon="-2.36841">
        <ele>29.799999237061</ele>
        <time>2021-07-01T09:30:43.000Z</time>
      </trkpt>
      <trkpt lat="47.31546" lon="-2.36798">
        <ele>29.39999961853</ele>
        <time>2021-07-01T09:30:47.000Z</time>
      </trkpt>
      <trkpt lat="47.31543" lon="-2.36786">
        <ele>29</ele>
        <time>2021-07-01T09:30:48.000Z</time>
      </trkpt>
      <trkpt lat="47.31541" lon="-2.36775">
        <ele>28.39999961853</ele>
        <time>2021-07-01T09:30:49.000Z</time>
      </trkpt>
      <trkpt lat="47.31538" lon="-2.36764">
        <ele>28</ele>
        <time>2021-07-01T09:30:50.000Z</time>
      </trkpt>
      <trkpt lat="47.31535" lon="-2.36752">
        <ele>27.39999961853</ele>
        <time>2021-07-01T09:30:51.000Z</time>
      </trkpt>
      <trkpt lat="47.31533" lon="-2.36741">
        <ele>26.799999237061</ele>
        <time>2021-07-01T09:30:52.000Z</time>
      </trkpt>
      <trkpt lat="47.3153" lon="-2.3673">
        <ele>26.39999961853</ele>
        <time>2021-07-01T09:30:53.000Z</time>
      </trkpt>
      <trkpt lat="47.31526" lon="-2.36719">
        <ele>25.799999237061</ele>
        <time>2021-07-01T09:30:54.000Z</time>
      </trkpt>
      <trkpt lat="47.31523" lon="-2.36707">
        <ele>25.200000762939</ele>
        <time>2021-07-01T09:30:55.000Z</time>
      </trkpt>
      <trkpt lat="47.31517" lon="-2.36686">
        <ele>24.799999237061</ele>
        <time>2021-07-01T09:30:57.000Z</time>
      </trkpt>
      <trkpt lat="47.31514" lon="-2.36676">
        <ele>24.39999961853</ele>
        <time>2021-07-01T09:30:58.000Z</time>
      </trkpt>
      <trkpt lat="47.31512" lon="-2.36666">
        <ele>24</ele>
        <time>2021-07-01T09:30:59.000Z</time>
      </trkpt>
      <trkpt lat="47.31509" lon="-2.36655">
        <ele>23.60000038147</ele>
        <time>2021-07-01T09:31:00.000Z</time>
      </trkpt>
      <trkpt lat="47.31506" lon="-2.36645">
        <ele>23.200000762939</ele>
        <time>2021-07-01T09:31:01.000Z</time>
      </trkpt>
      <trkpt lat="47.31496" lon="-2.36598">
        <ele>23.200000762939</ele>
        <time>2021-07-01T09:31:06.000Z</time>
      </trkpt>
      <trkpt lat="47.31494" lon="-2.36582">
        <ele>22.799999237061</ele>
        <time>2021-07-01T09:31:08.000Z</time>
      </trkpt>
      <trkpt lat="47.31496" lon="-2.36575">
        <ele>22.39999961853</ele>
        <time>2021-07-01T09:31:09.000Z</time>
      </trkpt>
      <trkpt lat="47.31499" lon="-2.36568">
        <ele>22</ele>
        <time>2021-07-01T09:31:10.000Z</time>
      </trkpt>
      <trkpt lat="47.31499" lon="-2.36562">
        <ele>21</ele>
        <time>2021-07-01T09:31:11.000Z</time>
      </trkpt>
      <trkpt lat="47.31498" lon="-2.36551">
        <ele>21</ele>
        <time>2021-07-01T09:31:13.000Z</time>
      </trkpt>
      <trkpt lat="47.31499" lon="-2.36527">
        <ele>21</ele>
        <time>2021-07-01T09:31:17.000Z</time>
      </trkpt>
      <trkpt lat="47.31497" lon="-2.36515">
        <ele>21</ele>
        <time>2021-07-01T09:31:19.000Z</time>
      </trkpt>
      <trkpt lat="47.31497" lon="-2.36503">
        <ele>21</ele>
        <time>2021-07-01T09:31:21.000Z</time>
      </trkpt>
      <trkpt lat="47.31497" lon="-2.36484">
        <ele>21</ele>
        <time>2021-07-01T09:31:24.000Z</time>
      </trkpt>
      <trkpt lat="47.31497" lon="-2.36477">
        <ele>21</ele>
        <time>2021-07-01T09:31:25.000Z</time>
      </trkpt>
      <trkpt lat="47.31496" lon="-2.36445">
        <ele>21</ele>
        <time>2021-07-01T09:31:30.000Z</time>
      </trkpt>
      <trkpt lat="47.31495" lon="-2.36423">
        <ele>21</ele>
        <time>2021-07-01T09:31:33.000Z</time>
      </trkpt>
      <trkpt lat="47.31494" lon="-2.36415">
        <ele>21.60000038147</ele>
        <time>2021-07-01T09:31:34.000Z</time>
      </trkpt>
      <trkpt lat="47.31493" lon="-2.36408">
        <ele>22</ele>
        <time>2021-07-01T09:31:35.000Z</time>
      </trkpt>
      <trkpt lat="47.31492" lon="-2.36401">
        <ele>22.799999237061</ele>
        <time>2021-07-01T09:31:36.000Z</time>
      </trkpt>
      <trkpt lat="47.31491" lon="-2.36393">
        <ele>23.200000762939</ele>
        <time>2021-07-01T09:31:37.000Z</time>
      </trkpt>
      <trkpt lat="47.31489" lon="-2.36371">
        <ele>23.200000762939</ele>
        <time>2021-07-01T09:31:40.000Z</time>
      </trkpt>
      <trkpt lat="47.3149" lon="-2.36364">
        <ele>23.200000762939</ele>
        <time>2021-07-01T09:31:41.000Z</time>
      </trkpt>
      <trkpt lat="47.3149" lon="-2.36357">
        <ele>23.60000038147</ele>
        <time>2021-07-01T09:31:42.000Z</time>
      </trkpt>
      <trkpt lat="47.3149" lon="-2.3635">
        <ele>24</ele>
        <time>2021-07-01T09:31:43.000Z</time>
      </trkpt>
      <trkpt lat="47.3149" lon="-2.36344">
        <ele>24.39999961853</ele>
        <time>2021-07-01T09:31:44.000Z</time>
      </trkpt>
      <trkpt lat="47.31489" lon="-2.36337">
        <ele>24.799999237061</ele>
        <time>2021-07-01T09:31:45.000Z</time>
      </trkpt>
      <trkpt lat="47.31489" lon="-2.36332">
        <ele>25.200000762939</ele>
        <time>2021-07-01T09:31:46.000Z</time>
      </trkpt>
      <trkpt lat="47.31487" lon="-2.36306">
        <ele>25.200000762939</ele>
        <time>2021-07-01T09:31:50.000Z</time>
      </trkpt>
      <trkpt lat="47.31484" lon="-2.36292">
        <ele>25.200000762939</ele>
        <time>2021-07-01T09:31:52.000Z</time>
      </trkpt>
      <trkpt lat="47.31483" lon="-2.36285">
        <ele>25.60000038147</ele>
        <time>2021-07-01T09:31:53.000Z</time>
      </trkpt>
      <trkpt lat="47.31482" lon="-2.36278">
        <ele>26</ele>
        <time>2021-07-01T09:31:54.000Z</time>
      </trkpt>
      <trkpt lat="47.3148" lon="-2.36272">
        <ele>26.60000038147</ele>
        <time>2021-07-01T09:31:55.000Z</time>
      </trkpt>
      <trkpt lat="47.31478" lon="-2.36264">
        <ele>27</ele>
        <time>2021-07-01T09:31:56.000Z</time>
      </trkpt>
      <trkpt lat="47.31477" lon="-2.36257">
        <ele>27.39999961853</ele>
        <time>2021-07-01T09:31:57.000Z</time>
      </trkpt>
      <trkpt lat="47.31473" lon="-2.36244">
        <ele>27.39999961853</ele>
        <time>2021-07-01T09:31:59.000Z</time>
      </trkpt>
      <trkpt lat="47.31467" lon="-2.36214">
        <ele>27.39999961853</ele>
        <time>2021-07-01T09:32:04.000Z</time>
      </trkpt>
      <trkpt lat="47.31463" lon="-2.36189">
        <ele>27.39999961853</ele>
        <time>2021-07-01T09:32:10.000Z</time>
      </trkpt>
      <trkpt lat="47.31464" lon="-2.36187">
        <ele>27.39999961853</ele>
        <time>2021-07-01T09:32:11.000Z</time>
      </trkpt>
      <trkpt lat="47.31466" lon="-2.36183">
        <ele>27.39999961853</ele>
        <time>2021-07-01T09:32:15.000Z</time>
      </trkpt>
      <trkpt lat="47.31467" lon="-2.3618">
        <ele>27.39999961853</ele>
        <time>2021-07-01T09:33:23.000Z</time>
      </trkpt>
      <trkpt lat="47.31468" lon="-2.36178">
        <ele>27.39999961853</ele>
        <time>2021-07-01T09:33:24.000Z</time>
      </trkpt>
      <trkpt lat="47.3147" lon="-2.36174">
        <ele>27.39999961853</ele>
        <time>2021-07-01T09:33:26.000Z</time>
      </trkpt>
      <trkpt lat="47.31483" lon="-2.36157">
        <ele>27.39999961853</ele>
        <time>2021-07-01T09:33:32.000Z</time>
      </trkpt>
      <trkpt lat="47.31502" lon="-2.36134">
        <ele>27.39999961853</ele>
        <time>2021-07-01T09:33:38.000Z</time>
      </trkpt>
      <trkpt lat="47.3151" lon="-2.36125">
        <ele>27.39999961853</ele>
        <time>2021-07-01T09:33:40.000Z</time>
      </trkpt>
      <trkpt lat="47.31516" lon="-2.36117">
        <ele>27.39999961853</ele>
        <time>2021-07-01T09:33:42.000Z</time>
      </trkpt>
      <trkpt lat="47.31527" lon="-2.36104">
        <ele>27.39999961853</ele>
        <time>2021-07-01T09:33:45.000Z</time>
      </trkpt>
      <trkpt lat="47.31537" lon="-2.36093">
        <ele>27.39999961853</ele>
        <time>2021-07-01T09:33:48.000Z</time>
      </trkpt>
      <trkpt lat="47.31559" lon="-2.36069">
        <ele>27.39999961853</ele>
        <time>2021-07-01T09:33:53.000Z</time>
      </trkpt>
      <trkpt lat="47.31569" lon="-2.36061">
        <ele>27.39999961853</ele>
        <time>2021-07-01T09:33:55.000Z</time>
      </trkpt>
      <trkpt lat="47.31584" lon="-2.36047">
        <ele>27.39999961853</ele>
        <time>2021-07-01T09:33:58.000Z</time>
      </trkpt>
      <trkpt lat="47.31616" lon="-2.36014">
        <ele>27.39999961853</ele>
        <time>2021-07-01T09:34:04.000Z</time>
      </trkpt>
      <trkpt lat="47.31638" lon="-2.35991">
        <ele>27.39999961853</ele>
        <time>2021-07-01T09:34:08.000Z</time>
      </trkpt>
      <trkpt lat="47.31649" lon="-2.35981">
        <ele>27.39999961853</ele>
        <time>2021-07-01T09:34:10.000Z</time>
      </trkpt>
      <trkpt lat="47.3169" lon="-2.35956">
        <ele>27.39999961853</ele>
        <time>2021-07-01T09:34:16.000Z</time>
      </trkpt>
      <trkpt lat="47.31697" lon="-2.35952">
        <ele>27.39999961853</ele>
        <time>2021-07-01T09:34:17.000Z</time>
      </trkpt>
      <trkpt lat="47.31719" lon="-2.35939">
        <ele>27.39999961853</ele>
        <time>2021-07-01T09:34:20.000Z</time>
      </trkpt>
      <trkpt lat="47.31761" lon="-2.35912">
        <ele>27</ele>
        <time>2021-07-01T09:34:26.000Z</time>
      </trkpt>
      <trkpt lat="47.31768" lon="-2.35908">
        <ele>26.39999961853</ele>
        <time>2021-07-01T09:34:27.000Z</time>
      </trkpt>
      <trkpt lat="47.31775" lon="-2.35904">
        <ele>26</ele>
        <time>2021-07-01T09:34:28.000Z</time>
      </trkpt>
      <trkpt lat="47.31781" lon="-2.35899">
        <ele>25.200000762939</ele>
        <time>2021-07-01T09:34:29.000Z</time>
      </trkpt>
      <trkpt lat="47.31788" lon="-2.35895">
        <ele>25.200000762939</ele>
        <time>2021-07-01T09:34:30.000Z</time>
      </trkpt>
      <trkpt lat="47.31806" lon="-2.35885">
        <ele>25.200000762939</ele>
        <time>2021-07-01T09:34:33.000Z</time>
      </trkpt>
      <trkpt lat="47.31812" lon="-2.35882">
        <ele>25.200000762939</ele>
        <time>2021-07-01T09:34:34.000Z</time>
      </trkpt>
      <trkpt lat="47.31817" lon="-2.35879">
        <ele>25.200000762939</ele>
        <time>2021-07-01T09:34:35.000Z</time>
      </trkpt>
      <trkpt lat="47.31824" lon="-2.35867">
        <ele>25.200000762939</ele>
        <time>2021-07-01T09:34:37.000Z</time>
      </trkpt>
      <trkpt lat="47.31823" lon="-2.3585">
        <ele>25.200000762939</ele>
        <time>2021-07-01T09:34:40.000Z</time>
      </trkpt>
      <trkpt lat="47.31822" lon="-2.35844">
        <ele>24.60000038147</ele>
        <time>2021-07-01T09:34:41.000Z</time>
      </trkpt>
      <trkpt lat="47.31819" lon="-2.35838">
        <ele>24.200000762939</ele>
        <time>2021-07-01T09:34:42.000Z</time>
      </trkpt>
      <trkpt lat="47.31817" lon="-2.35834">
        <ele>23.799999237061</ele>
        <time>2021-07-01T09:34:43.000Z</time>
      </trkpt>
      <trkpt lat="47.31815" lon="-2.35829">
        <ele>23.39999961853</ele>
        <time>2021-07-01T09:34:44.000Z</time>
      </trkpt>
      <trkpt lat="47.31812" lon="-2.35825">
        <ele>23</ele>
        <time>2021-07-01T09:34:45.000Z</time>
      </trkpt>
      <trkpt lat="47.31796" lon="-2.35811">
        <ele>23</ele>
        <time>2021-07-01T09:34:49.000Z</time>
      </trkpt>
      <trkpt lat="47.31789" lon="-2.35801">
        <ele>23</ele>
        <time>2021-07-01T09:34:51.000Z</time>
      </trkpt>
      <trkpt lat="47.31786" lon="-2.35786">
        <ele>23</ele>
        <time>2021-07-01T09:34:53.000Z</time>
      </trkpt>
      <trkpt lat="47.31785" lon="-2.35737">
        <ele>23</ele>
        <time>2021-07-01T09:34:58.000Z</time>
      </trkpt>
      <trkpt lat="47.31785" lon="-2.35678">
        <ele>22.60000038147</ele>
        <time>2021-07-01T09:35:04.000Z</time>
      </trkpt>
      <trkpt lat="47.31786" lon="-2.35667">
        <ele>22</ele>
        <time>2021-07-01T09:35:05.000Z</time>
      </trkpt>
      <trkpt lat="47.31788" lon="-2.35658">
        <ele>21.60000038147</ele>
        <time>2021-07-01T09:35:06.000Z</time>
      </trkpt>
      <trkpt lat="47.31791" lon="-2.35648">
        <ele>21.200000762939</ele>
        <time>2021-07-01T09:35:07.000Z</time>
      </trkpt>
      <trkpt lat="47.31794" lon="-2.35639">
        <ele>20.60000038147</ele>
        <time>2021-07-01T09:35:08.000Z</time>
      </trkpt>
      <trkpt lat="47.31797" lon="-2.3563">
        <ele>20.60000038147</ele>
        <time>2021-07-01T09:35:09.000Z</time>
      </trkpt>
      <trkpt lat="47.31801" lon="-2.3562">
        <ele>20.200000762939</ele>
        <time>2021-07-01T09:35:10.000Z</time>
      </trkpt>
      <trkpt lat="47.31805" lon="-2.35611">
        <ele>19.799999237061</ele>
        <time>2021-07-01T09:35:11.000Z</time>
      </trkpt>
      <trkpt lat="47.31808" lon="-2.35604">
        <ele>19.39999961853</ele>
        <time>2021-07-01T09:35:12.000Z</time>
      </trkpt>
      <trkpt lat="47.31811" lon="-2.35595">
        <ele>19</ele>
        <time>2021-07-01T09:35:13.000Z</time>
      </trkpt>
      <trkpt lat="47.31814" lon="-2.35588">
        <ele>18.60000038147</ele>
        <time>2021-07-01T09:35:14.000Z</time>
      </trkpt>
      <trkpt lat="47.31817" lon="-2.35584">
        <ele>18.60000038147</ele>
        <time>2021-07-01T09:35:15.000Z</time>
      </trkpt>
      <trkpt lat="47.31823" lon="-2.35576">
        <ele>18.60000038147</ele>
        <time>2021-07-01T09:35:17.000Z</time>
      </trkpt>
      <trkpt lat="47.3183" lon="-2.35567">
        <ele>18.60000038147</ele>
        <time>2021-07-01T09:35:19.000Z</time>
      </trkpt>
      <trkpt lat="47.31837" lon="-2.35553">
        <ele>18.60000038147</ele>
        <time>2021-07-01T09:35:22.000Z</time>
      </trkpt>
      <trkpt lat="47.31836" lon="-2.35539">
        <ele>18.60000038147</ele>
        <time>2021-07-01T09:35:25.000Z</time>
      </trkpt>
      <trkpt lat="47.31834" lon="-2.35534">
        <ele>18.60000038147</ele>
        <time>2021-07-01T09:35:26.000Z</time>
      </trkpt>
      <trkpt lat="47.31823" lon="-2.35501">
        <ele>18.60000038147</ele>
        <time>2021-07-01T09:35:32.000Z</time>
      </trkpt>
      <trkpt lat="47.31807" lon="-2.35474">
        <ele>18.60000038147</ele>
        <time>2021-07-01T09:35:38.000Z</time>
      </trkpt>
      <trkpt lat="47.31795" lon="-2.35449">
        <ele>18.60000038147</ele>
        <time>2021-07-01T09:35:44.000Z</time>
      </trkpt>
      <trkpt lat="47.31778" lon="-2.35422">
        <ele>18.60000038147</ele>
        <time>2021-07-01T09:35:49.000Z</time>
      </trkpt>
      <trkpt lat="47.31758" lon="-2.35391">
        <ele>18.60000038147</ele>
        <time>2021-07-01T09:35:55.000Z</time>
      </trkpt>
      <trkpt lat="47.31753" lon="-2.35383">
        <ele>19</ele>
        <time>2021-07-01T09:35:57.000Z</time>
      </trkpt>
      <trkpt lat="47.31749" lon="-2.35381">
        <ele>19.39999961853</ele>
        <time>2021-07-01T09:35:58.000Z</time>
      </trkpt>
      <trkpt lat="47.31745" lon="-2.35379">
        <ele>19.799999237061</ele>
        <time>2021-07-01T09:35:59.000Z</time>
      </trkpt>
      <trkpt lat="47.31741" lon="-2.35378">
        <ele>20.200000762939</ele>
        <time>2021-07-01T09:36:00.000Z</time>
      </trkpt>
      <trkpt lat="47.31737" lon="-2.35378">
        <ele>20.799999237061</ele>
        <time>2021-07-01T09:36:01.000Z</time>
      </trkpt>
      <trkpt lat="47.31721" lon="-2.3538">
        <ele>20.799999237061</ele>
        <time>2021-07-01T09:36:05.000Z</time>
      </trkpt>
      <trkpt lat="47.31696" lon="-2.35382">
        <ele>21.200000762939</ele>
        <time>2021-07-01T09:36:10.000Z</time>
      </trkpt>
      <trkpt lat="47.31691" lon="-2.35381">
        <ele>21.60000038147</ele>
        <time>2021-07-01T09:36:11.000Z</time>
      </trkpt>
      <trkpt lat="47.31685" lon="-2.35381">
        <ele>22</ele>
        <time>2021-07-01T09:36:12.000Z</time>
      </trkpt>
      <trkpt lat="47.3168" lon="-2.3538">
        <ele>22.39999961853</ele>
        <time>2021-07-01T09:36:13.000Z</time>
      </trkpt>
      <trkpt lat="47.31675" lon="-2.3538">
        <ele>22.799999237061</ele>
        <time>2021-07-01T09:36:14.000Z</time>
      </trkpt>
      <trkpt lat="47.31649" lon="-2.35373">
        <ele>22.799999237061</ele>
        <time>2021-07-01T09:36:19.000Z</time>
      </trkpt>
      <trkpt lat="47.31634" lon="-2.35366">
        <ele>22.799999237061</ele>
        <time>2021-07-01T09:36:22.000Z</time>
      </trkpt>
      <trkpt lat="47.31618" lon="-2.35363">
        <ele>22.799999237061</ele>
        <time>2021-07-01T09:36:25.000Z</time>
      </trkpt>
      <trkpt lat="47.31608" lon="-2.35365">
        <ele>22.799999237061</ele>
        <time>2021-07-01T09:36:27.000Z</time>
      </trkpt>
      <trkpt lat="47.31603" lon="-2.35366">
        <ele>22.799999237061</ele>
        <time>2021-07-01T09:36:28.000Z</time>
      </trkpt>
      <trkpt lat="47.31597" lon="-2.35368">
        <ele>22.799999237061</ele>
        <time>2021-07-01T09:36:29.000Z</time>
      </trkpt>
      <trkpt lat="47.31592" lon="-2.35371">
        <ele>22.799999237061</ele>
        <time>2021-07-01T09:36:30.000Z</time>
      </trkpt>
      <trkpt lat="47.31562" lon="-2.35387">
        <ele>22.799999237061</ele>
        <time>2021-07-01T09:36:36.000Z</time>
      </trkpt>
      <trkpt lat="47.31535" lon="-2.35404">
        <ele>22.799999237061</ele>
        <time>2021-07-01T09:36:42.000Z</time>
      </trkpt>
      <trkpt lat="47.31515" lon="-2.35421">
        <ele>22.799999237061</ele>
        <time>2021-07-01T09:36:47.000Z</time>
      </trkpt>
      <trkpt lat="47.31511" lon="-2.35425">
        <ele>22.799999237061</ele>
        <time>2021-07-01T09:36:48.000Z</time>
      </trkpt>
      <trkpt lat="47.31502" lon="-2.3544">
        <ele>22.799999237061</ele>
        <time>2021-07-01T09:36:51.000Z</time>
      </trkpt>
      <trkpt lat="47.31499" lon="-2.35446">
        <ele>22.799999237061</ele>
        <time>2021-07-01T09:36:52.000Z</time>
      </trkpt>
      <trkpt lat="47.31492" lon="-2.35471">
        <ele>22.799999237061</ele>
        <time>2021-07-01T09:36:57.000Z</time>
      </trkpt>
      <trkpt lat="47.31488" lon="-2.35483">
        <ele>22.799999237061</ele>
        <time>2021-07-01T09:37:01.000Z</time>
      </trkpt>
      <trkpt lat="47.31483" lon="-2.35505">
        <ele>22.799999237061</ele>
        <time>2021-07-01T09:37:06.000Z</time>
      </trkpt>
      <trkpt lat="47.31468" lon="-2.35521">
        <ele>22.799999237061</ele>
        <time>2021-07-01T09:37:11.000Z</time>
      </trkpt>
      <trkpt lat="47.31452" lon="-2.35523">
        <ele>22.799999237061</ele>
        <time>2021-07-01T09:37:15.000Z</time>
      </trkpt>
      <trkpt lat="47.31448" lon="-2.35524">
        <ele>23.200000762939</ele>
        <time>2021-07-01T09:37:16.000Z</time>
      </trkpt>
      <trkpt lat="47.31444" lon="-2.35525">
        <ele>23.60000038147</ele>
        <time>2021-07-01T09:37:17.000Z</time>
      </trkpt>
      <trkpt lat="47.3144" lon="-2.35526">
        <ele>24</ele>
        <time>2021-07-01T09:37:18.000Z</time>
      </trkpt>
      <trkpt lat="47.31435" lon="-2.35525">
        <ele>24.39999961853</ele>
        <time>2021-07-01T09:37:19.000Z</time>
      </trkpt>
      <trkpt lat="47.31431" lon="-2.35525">
        <ele>24.799999237061</ele>
        <time>2021-07-01T09:37:20.000Z</time>
      </trkpt>
      <trkpt lat="47.31426" lon="-2.35525">
        <ele>24.799999237061</ele>
        <time>2021-07-01T09:37:21.000Z</time>
      </trkpt>
      <trkpt lat="47.31393" lon="-2.35525">
        <ele>24.799999237061</ele>
        <time>2021-07-01T09:37:28.000Z</time>
      </trkpt>
      <trkpt lat="47.31379" lon="-2.35526">
        <ele>24.799999237061</ele>
        <time>2021-07-01T09:37:31.000Z</time>
      </trkpt>
      <trkpt lat="47.31367" lon="-2.35532">
        <ele>24.799999237061</ele>
        <time>2021-07-01T09:37:34.000Z</time>
      </trkpt>
      <trkpt lat="47.31352" lon="-2.35541">
        <ele>24.799999237061</ele>
        <time>2021-07-01T09:37:39.000Z</time>
      </trkpt>
      <trkpt lat="47.31341" lon="-2.35544">
        <ele>24.799999237061</ele>
        <time>2021-07-01T09:37:44.000Z</time>
      </trkpt>
      <trkpt lat="47.31338" lon="-2.35544">
        <ele>24.799999237061</ele>
        <time>2021-07-01T09:37:48.000Z</time>
      </trkpt>
      <trkpt lat="47.31336" lon="-2.3554">
        <ele>24.799999237061</ele>
        <time>2021-07-01T09:38:20.000Z</time>
      </trkpt>
      <trkpt lat="47.31334" lon="-2.35525">
        <ele>24.799999237061</ele>
        <time>2021-07-01T09:38:25.000Z</time>
      </trkpt>
      <trkpt lat="47.31337" lon="-2.35501">
        <ele>24.799999237061</ele>
        <time>2021-07-01T09:38:30.000Z</time>
      </trkpt>
      <trkpt lat="47.31337" lon="-2.35478">
        <ele>24.799999237061</ele>
        <time>2021-07-01T09:38:33.000Z</time>
      </trkpt>
      <trkpt lat="47.31336" lon="-2.35462">
        <ele>24.799999237061</ele>
        <time>2021-07-01T09:38:35.000Z</time>
      </trkpt>
      <trkpt lat="47.31334" lon="-2.3544">
        <ele>24.799999237061</ele>
        <time>2021-07-01T09:38:38.000Z</time>
      </trkpt>
      <trkpt lat="47.31335" lon="-2.35423">
        <ele>24.799999237061</ele>
        <time>2021-07-01T09:38:40.000Z</time>
      </trkpt>
      <trkpt lat="47.31334" lon="-2.35343">
        <ele>24.799999237061</ele>
        <time>2021-07-01T09:38:48.000Z</time>
      </trkpt>
      <trkpt lat="47.31337" lon="-2.3526">
        <ele>24.799999237061</ele>
        <time>2021-07-01T09:38:56.000Z</time>
      </trkpt>
      <trkpt lat="47.31338" lon="-2.35201">
        <ele>24.799999237061</ele>
        <time>2021-07-01T09:39:02.000Z</time>
      </trkpt>
      <trkpt lat="47.31342" lon="-2.35133">
        <ele>24.799999237061</ele>
        <time>2021-07-01T09:39:09.000Z</time>
      </trkpt>
      <trkpt lat="47.31343" lon="-2.35055">
        <ele>24.799999237061</ele>
        <time>2021-07-01T09:39:17.000Z</time>
      </trkpt>
      <trkpt lat="47.31338" lon="-2.34988">
        <ele>24.799999237061</ele>
        <time>2021-07-01T09:39:24.000Z</time>
      </trkpt>
      <trkpt lat="47.31324" lon="-2.34927">
        <ele>24.799999237061</ele>
        <time>2021-07-01T09:39:31.000Z</time>
      </trkpt>
      <trkpt lat="47.3131" lon="-2.34883">
        <ele>24.799999237061</ele>
        <time>2021-07-01T09:39:37.000Z</time>
      </trkpt>
      <trkpt lat="47.31295" lon="-2.3482">
        <ele>24.799999237061</ele>
        <time>2021-07-01T09:39:45.000Z</time>
      </trkpt>
      <trkpt lat="47.31285" lon="-2.3477">
        <ele>24.799999237061</ele>
        <time>2021-07-01T09:39:52.000Z</time>
      </trkpt>
      <trkpt lat="47.31278" lon="-2.34716">
        <ele>24.799999237061</ele>
        <time>2021-07-01T09:39:59.000Z</time>
      </trkpt>
      <trkpt lat="47.31274" lon="-2.34704">
        <ele>24.799999237061</ele>
        <time>2021-07-01T09:40:01.000Z</time>
      </trkpt>
      <trkpt lat="47.31274" lon="-2.34695">
        <ele>24.799999237061</ele>
        <time>2021-07-01T09:40:03.000Z</time>
      </trkpt>
      <trkpt lat="47.31278" lon="-2.34686">
        <ele>24.799999237061</ele>
        <time>2021-07-01T09:40:05.000Z</time>
      </trkpt>
      <trkpt lat="47.3128" lon="-2.34681">
        <ele>24.799999237061</ele>
        <time>2021-07-01T09:40:06.000Z</time>
      </trkpt>
      <trkpt lat="47.31283" lon="-2.34676">
        <ele>24.799999237061</ele>
        <time>2021-07-01T09:40:07.000Z</time>
      </trkpt>
      <trkpt lat="47.31291" lon="-2.3465">
        <ele>24.799999237061</ele>
        <time>2021-07-01T09:40:11.000Z</time>
      </trkpt>
      <trkpt lat="47.31289" lon="-2.34632">
        <ele>24.799999237061</ele>
        <time>2021-07-01T09:40:13.000Z</time>
      </trkpt>
      <trkpt lat="47.31287" lon="-2.34611">
        <ele>24.799999237061</ele>
        <time>2021-07-01T09:40:15.000Z</time>
      </trkpt>
      <trkpt lat="47.31285" lon="-2.34589">
        <ele>24.39999961853</ele>
        <time>2021-07-01T09:40:17.000Z</time>
      </trkpt>
      <trkpt lat="47.31284" lon="-2.34578">
        <ele>24</ele>
        <time>2021-07-01T09:40:18.000Z</time>
      </trkpt>
      <trkpt lat="47.31283" lon="-2.34567">
        <ele>23.39999961853</ele>
        <time>2021-07-01T09:40:19.000Z</time>
      </trkpt>
      <trkpt lat="47.31281" lon="-2.34556">
        <ele>23</ele>
        <time>2021-07-01T09:40:20.000Z</time>
      </trkpt>
      <trkpt lat="47.3128" lon="-2.34544">
        <ele>22.60000038147</ele>
        <time>2021-07-01T09:40:21.000Z</time>
      </trkpt>
      <trkpt lat="47.31278" lon="-2.34522">
        <ele>22.60000038147</ele>
        <time>2021-07-01T09:40:23.000Z</time>
      </trkpt>
      <trkpt lat="47.31271" lon="-2.34456">
        <ele>22.200000762939</ele>
        <time>2021-07-01T09:40:29.000Z</time>
      </trkpt>
      <trkpt lat="47.3127" lon="-2.34444">
        <ele>21.799999237061</ele>
        <time>2021-07-01T09:40:30.000Z</time>
      </trkpt>
      <trkpt lat="47.31269" lon="-2.34433">
        <ele>21.200000762939</ele>
        <time>2021-07-01T09:40:31.000Z</time>
      </trkpt>
      <trkpt lat="47.31266" lon="-2.34422">
        <ele>20.799999237061</ele>
        <time>2021-07-01T09:40:32.000Z</time>
      </trkpt>
      <trkpt lat="47.31264" lon="-2.3441">
        <ele>20.39999961853</ele>
        <time>2021-07-01T09:40:33.000Z</time>
      </trkpt>
      <trkpt lat="47.31261" lon="-2.34386">
        <ele>20</ele>
        <time>2021-07-01T09:40:35.000Z</time>
      </trkpt>
      <trkpt lat="47.31258" lon="-2.34375">
        <ele>19.60000038147</ele>
        <time>2021-07-01T09:40:36.000Z</time>
      </trkpt>
      <trkpt lat="47.31254" lon="-2.34365">
        <ele>19.200000762939</ele>
        <time>2021-07-01T09:40:37.000Z</time>
      </trkpt>
      <trkpt lat="47.31247" lon="-2.34357">
        <ele>18.60000038147</ele>
        <time>2021-07-01T09:40:38.000Z</time>
      </trkpt>
      <trkpt lat="47.31241" lon="-2.34351">
        <ele>18.200000762939</ele>
        <time>2021-07-01T09:40:39.000Z</time>
      </trkpt>
      <trkpt lat="47.31225" lon="-2.34343">
        <ele>18.200000762939</ele>
        <time>2021-07-01T09:40:41.000Z</time>
      </trkpt>
      <trkpt lat="47.31217" lon="-2.3434">
        <ele>18.200000762939</ele>
        <time>2021-07-01T09:40:42.000Z</time>
      </trkpt>
      <trkpt lat="47.31209" lon="-2.34335">
        <ele>17.799999237061</ele>
        <time>2021-07-01T09:40:43.000Z</time>
      </trkpt>
      <trkpt lat="47.31201" lon="-2.34327">
        <ele>17.39999961853</ele>
        <time>2021-07-01T09:40:44.000Z</time>
      </trkpt>
      <trkpt lat="47.31194" lon="-2.34319">
        <ele>17</ele>
        <time>2021-07-01T09:40:45.000Z</time>
      </trkpt>
      <trkpt lat="47.31188" lon="-2.34309">
        <ele>16.60000038147</ele>
        <time>2021-07-01T09:40:46.000Z</time>
      </trkpt>
      <trkpt lat="47.31183" lon="-2.34299">
        <ele>16.200000762939</ele>
        <time>2021-07-01T09:40:47.000Z</time>
      </trkpt>
      <trkpt lat="47.31173" lon="-2.34277">
        <ele>16.200000762939</ele>
        <time>2021-07-01T09:40:49.000Z</time>
      </trkpt>
      <trkpt lat="47.31142" lon="-2.34219">
        <ele>16.200000762939</ele>
        <time>2021-07-01T09:40:55.000Z</time>
      </trkpt>
      <trkpt lat="47.31115" lon="-2.34168">
        <ele>16.200000762939</ele>
        <time>2021-07-01T09:41:01.000Z</time>
      </trkpt>
      <trkpt lat="47.31107" lon="-2.34154">
        <ele>16.60000038147</ele>
        <time>2021-07-01T09:41:03.000Z</time>
      </trkpt>
      <trkpt lat="47.31103" lon="-2.34147">
        <ele>17.60000038147</ele>
        <time>2021-07-01T09:41:04.000Z</time>
      </trkpt>
      <trkpt lat="47.311" lon="-2.34141">
        <ele>18</ele>
        <time>2021-07-01T09:41:05.000Z</time>
      </trkpt>
      <trkpt lat="47.31096" lon="-2.34135">
        <ele>18.39999961853</ele>
        <time>2021-07-01T09:41:06.000Z</time>
      </trkpt>
      <trkpt lat="47.31093" lon="-2.34129">
        <ele>18.39999961853</ele>
        <time>2021-07-01T09:41:07.000Z</time>
      </trkpt>
      <trkpt lat="47.31086" lon="-2.34116">
        <ele>18.799999237061</ele>
        <time>2021-07-01T09:41:09.000Z</time>
      </trkpt>
      <trkpt lat="47.31082" lon="-2.34109">
        <ele>19.200000762939</ele>
        <time>2021-07-01T09:41:10.000Z</time>
      </trkpt>
      <trkpt lat="47.31079" lon="-2.34102">
        <ele>19.60000038147</ele>
        <time>2021-07-01T09:41:11.000Z</time>
      </trkpt>
      <trkpt lat="47.31076" lon="-2.34094">
        <ele>20</ele>
        <time>2021-07-01T09:41:12.000Z</time>
      </trkpt>
      <trkpt lat="47.31074" lon="-2.34087">
        <ele>20.39999961853</ele>
        <time>2021-07-01T09:41:13.000Z</time>
      </trkpt>
      <trkpt lat="47.31069" lon="-2.34071">
        <ele>20.39999961853</ele>
        <time>2021-07-01T09:41:15.000Z</time>
      </trkpt>
      <trkpt lat="47.31066" lon="-2.34053">
        <ele>20.799999237061</ele>
        <time>2021-07-01T09:41:17.000Z</time>
      </trkpt>
      <trkpt lat="47.31064" lon="-2.34045">
        <ele>21.200000762939</ele>
        <time>2021-07-01T09:41:18.000Z</time>
      </trkpt>
      <trkpt lat="47.31062" lon="-2.34036">
        <ele>21.799999237061</ele>
        <time>2021-07-01T09:41:19.000Z</time>
      </trkpt>
      <trkpt lat="47.31061" lon="-2.34026">
        <ele>22.200000762939</ele>
        <time>2021-07-01T09:41:20.000Z</time>
      </trkpt>
      <trkpt lat="47.31061" lon="-2.34018">
        <ele>22.60000038147</ele>
        <time>2021-07-01T09:41:21.000Z</time>
      </trkpt>
      <trkpt lat="47.31059" lon="-2.33958">
        <ele>22.60000038147</ele>
        <time>2021-07-01T09:41:28.000Z</time>
      </trkpt>
      <trkpt lat="47.31057" lon="-2.33951">
        <ele>22.60000038147</ele>
        <time>2021-07-01T09:41:29.000Z</time>
      </trkpt>
      <trkpt lat="47.31048" lon="-2.33944">
        <ele>22.60000038147</ele>
        <time>2021-07-01T09:41:31.000Z</time>
      </trkpt>
      <trkpt lat="47.31032" lon="-2.33947">
        <ele>22.60000038147</ele>
        <time>2021-07-01T09:41:34.000Z</time>
      </trkpt>
      <trkpt lat="47.31027" lon="-2.33948">
        <ele>22.60000038147</ele>
        <time>2021-07-01T09:41:35.000Z</time>
      </trkpt>
      <trkpt lat="47.31012" lon="-2.33952">
        <ele>23</ele>
        <time>2021-07-01T09:41:38.000Z</time>
      </trkpt>
      <trkpt lat="47.31006" lon="-2.33951">
        <ele>23.39999961853</ele>
        <time>2021-07-01T09:41:39.000Z</time>
      </trkpt>
      <trkpt lat="47.31001" lon="-2.33952">
        <ele>23.799999237061</ele>
        <time>2021-07-01T09:41:40.000Z</time>
      </trkpt>
      <trkpt lat="47.30995" lon="-2.33952">
        <ele>24.200000762939</ele>
        <time>2021-07-01T09:41:41.000Z</time>
      </trkpt>
      <trkpt lat="47.30989" lon="-2.33952">
        <ele>24.60000038147</ele>
        <time>2021-07-01T09:41:42.000Z</time>
      </trkpt>
      <trkpt lat="47.30967" lon="-2.33953">
        <ele>24.60000038147</ele>
        <time>2021-07-01T09:41:46.000Z</time>
      </trkpt>
      <trkpt lat="47.30934" lon="-2.33947">
        <ele>24.60000038147</ele>
        <time>2021-07-01T09:41:52.000Z</time>
      </trkpt>
      <trkpt lat="47.30892" lon="-2.33944">
        <ele>24.60000038147</ele>
        <time>2021-07-01T09:41:59.000Z</time>
      </trkpt>
      <trkpt lat="47.30887" lon="-2.33945">
        <ele>24.60000038147</ele>
        <time>2021-07-01T09:42:00.000Z</time>
      </trkpt>
      <trkpt lat="47.30859" lon="-2.33951">
        <ele>24.60000038147</ele>
        <time>2021-07-01T09:42:05.000Z</time>
      </trkpt>
      <trkpt lat="47.30816" lon="-2.33961">
        <ele>24.60000038147</ele>
        <time>2021-07-01T09:42:13.000Z</time>
      </trkpt>
      <trkpt lat="47.30785" lon="-2.33973">
        <ele>24.60000038147</ele>
        <time>2021-07-01T09:42:20.000Z</time>
      </trkpt>
      <trkpt lat="47.3078" lon="-2.33988">
        <ele>24.60000038147</ele>
        <time>2021-07-01T09:42:22.000Z</time>
      </trkpt>
      <trkpt lat="47.30778" lon="-2.34001">
        <ele>24.60000038147</ele>
        <time>2021-07-01T09:42:24.000Z</time>
      </trkpt>
      <trkpt lat="47.30777" lon="-2.3402">
        <ele>24.60000038147</ele>
        <time>2021-07-01T09:42:27.000Z</time>
      </trkpt>
      <trkpt lat="47.30778" lon="-2.34054">
        <ele>24.60000038147</ele>
        <time>2021-07-01T09:42:32.000Z</time>
      </trkpt>
      <trkpt lat="47.30779" lon="-2.3406">
        <ele>24.60000038147</ele>
        <time>2021-07-01T09:42:33.000Z</time>
      </trkpt>
      <trkpt lat="47.30778" lon="-2.34093">
        <ele>25</ele>
        <time>2021-07-01T09:42:38.000Z</time>
      </trkpt>
      <trkpt lat="47.30778" lon="-2.34098">
        <ele>25.60000038147</ele>
        <time>2021-07-01T09:42:39.000Z</time>
      </trkpt>
      <trkpt lat="47.30777" lon="-2.34104">
        <ele>26</ele>
        <time>2021-07-01T09:42:40.000Z</time>
      </trkpt>
      <trkpt lat="47.30776" lon="-2.34111">
        <ele>26.39999961853</ele>
        <time>2021-07-01T09:42:41.000Z</time>
      </trkpt>
      <trkpt lat="47.30776" lon="-2.34117">
        <ele>26.799999237061</ele>
        <time>2021-07-01T09:42:42.000Z</time>
      </trkpt>
      <trkpt lat="47.30775" lon="-2.3414">
        <ele>26.799999237061</ele>
        <time>2021-07-01T09:42:45.000Z</time>
      </trkpt>
      <trkpt lat="47.30773" lon="-2.34172">
        <ele>26.799999237061</ele>
        <time>2021-07-01T09:42:50.000Z</time>
      </trkpt>
      <trkpt lat="47.30773" lon="-2.34179">
        <ele>26.799999237061</ele>
        <time>2021-07-01T09:42:51.000Z</time>
      </trkpt>
      <trkpt lat="47.30772" lon="-2.34198">
        <ele>26.799999237061</ele>
        <time>2021-07-01T09:42:54.000Z</time>
      </trkpt>
      <trkpt lat="47.30768" lon="-2.3421">
        <ele>26.799999237061</ele>
        <time>2021-07-01T09:42:56.000Z</time>
      </trkpt>
      <trkpt lat="47.30756" lon="-2.34216">
        <ele>26.799999237061</ele>
        <time>2021-07-01T09:42:59.000Z</time>
      </trkpt>
      <trkpt lat="47.30734" lon="-2.34228">
        <ele>26.799999237061</ele>
        <time>2021-07-01T09:43:04.000Z</time>
      </trkpt>
      <trkpt lat="47.30733" lon="-2.34234">
        <ele>26.799999237061</ele>
        <time>2021-07-01T09:43:05.000Z</time>
      </trkpt>
      <trkpt lat="47.30732" lon="-2.34244">
        <ele>26.799999237061</ele>
        <time>2021-07-01T09:43:07.000Z</time>
      </trkpt>
      <trkpt lat="47.3073" lon="-2.34256">
        <ele>26.799999237061</ele>
        <time>2021-07-01T09:43:09.000Z</time>
      </trkpt>
      <trkpt lat="47.30727" lon="-2.34269">
        <ele>26.799999237061</ele>
        <time>2021-07-01T09:43:11.000Z</time>
      </trkpt>
      <trkpt lat="47.30725" lon="-2.34275">
        <ele>26.799999237061</ele>
        <time>2021-07-01T09:43:12.000Z</time>
      </trkpt>
      <trkpt lat="47.30717" lon="-2.34291">
        <ele>26.799999237061</ele>
        <time>2021-07-01T09:43:15.000Z</time>
      </trkpt>
      <trkpt lat="47.30709" lon="-2.34309">
        <ele>26.799999237061</ele>
        <time>2021-07-01T09:43:18.000Z</time>
      </trkpt>
      <trkpt lat="47.30706" lon="-2.34314">
        <ele>26.799999237061</ele>
        <time>2021-07-01T09:43:19.000Z</time>
      </trkpt>
      <trkpt lat="47.307" lon="-2.34326">
        <ele>26.799999237061</ele>
        <time>2021-07-01T09:43:21.000Z</time>
      </trkpt>
      <trkpt lat="47.30693" lon="-2.3434">
        <ele>26.799999237061</ele>
        <time>2021-07-01T09:43:23.000Z</time>
      </trkpt>
      <trkpt lat="47.30676" lon="-2.34367">
        <ele>27.200000762939</ele>
        <time>2021-07-01T09:43:27.000Z</time>
      </trkpt>
      <trkpt lat="47.30672" lon="-2.34374">
        <ele>27.60000038147</ele>
        <time>2021-07-01T09:43:28.000Z</time>
      </trkpt>
      <trkpt lat="47.30668" lon="-2.3438">
        <ele>28</ele>
        <time>2021-07-01T09:43:29.000Z</time>
      </trkpt>
      <trkpt lat="47.30664" lon="-2.34386">
        <ele>28.39999961853</ele>
        <time>2021-07-01T09:43:30.000Z</time>
      </trkpt>
      <trkpt lat="47.3066" lon="-2.34391">
        <ele>28.799999237061</ele>
        <time>2021-07-01T09:43:31.000Z</time>
      </trkpt>
      <trkpt lat="47.30647" lon="-2.34407">
        <ele>28.799999237061</ele>
        <time>2021-07-01T09:43:34.000Z</time>
      </trkpt>
      <trkpt lat="47.30639" lon="-2.34418">
        <ele>28.799999237061</ele>
        <time>2021-07-01T09:43:36.000Z</time>
      </trkpt>
      <trkpt lat="47.30613" lon="-2.34453">
        <ele>28.799999237061</ele>
        <time>2021-07-01T09:43:43.000Z</time>
      </trkpt>
      <trkpt lat="47.30595" lon="-2.34491">
        <ele>28.799999237061</ele>
        <time>2021-07-01T09:43:49.000Z</time>
      </trkpt>
      <trkpt lat="47.30575" lon="-2.34537">
        <ele>28.799999237061</ele>
        <time>2021-07-01T09:43:55.000Z</time>
      </trkpt>
      <trkpt lat="47.3057" lon="-2.34545">
        <ele>28.799999237061</ele>
        <time>2021-07-01T09:43:56.000Z</time>
      </trkpt>
      <trkpt lat="47.30556" lon="-2.34567">
        <ele>28.799999237061</ele>
        <time>2021-07-01T09:43:59.000Z</time>
      </trkpt>
      <trkpt lat="47.30551" lon="-2.34575">
        <ele>28.799999237061</ele>
        <time>2021-07-01T09:44:00.000Z</time>
      </trkpt>
      <trkpt lat="47.30525" lon="-2.34617">
        <ele>28.799999237061</ele>
        <time>2021-07-01T09:44:06.000Z</time>
      </trkpt>
      <trkpt lat="47.30507" lon="-2.34653">
        <ele>28.799999237061</ele>
        <time>2021-07-01T09:44:11.000Z</time>
      </trkpt>
      <trkpt lat="47.30502" lon="-2.34659">
        <ele>28.799999237061</ele>
        <time>2021-07-01T09:44:12.000Z</time>
      </trkpt>
      <trkpt lat="47.30475" lon="-2.34687">
        <ele>28.799999237061</ele>
        <time>2021-07-01T09:44:17.000Z</time>
      </trkpt>
      <trkpt lat="47.30469" lon="-2.34692">
        <ele>28.799999237061</ele>
        <time>2021-07-01T09:44:18.000Z</time>
      </trkpt>
      <trkpt lat="47.30447" lon="-2.34711">
        <ele>28.799999237061</ele>
        <time>2021-07-01T09:44:22.000Z</time>
      </trkpt>
      <trkpt lat="47.30437" lon="-2.34721">
        <ele>28.799999237061</ele>
        <time>2021-07-01T09:44:24.000Z</time>
      </trkpt>
      <trkpt lat="47.30422" lon="-2.34732">
        <ele>28.799999237061</ele>
        <time>2021-07-01T09:44:27.000Z</time>
      </trkpt>
      <trkpt lat="47.30412" lon="-2.34741">
        <ele>28.799999237061</ele>
        <time>2021-07-01T09:44:29.000Z</time>
      </trkpt>
      <trkpt lat="47.30395" lon="-2.3475">
        <ele>28.799999237061</ele>
        <time>2021-07-01T09:44:32.000Z</time>
      </trkpt>
      <trkpt lat="47.30382" lon="-2.34758">
        <ele>28.799999237061</ele>
        <time>2021-07-01T09:44:34.000Z</time>
      </trkpt>
      <trkpt lat="47.30352" lon="-2.34778">
        <ele>28.799999237061</ele>
        <time>2021-07-01T09:44:40.000Z</time>
      </trkpt>
      <trkpt lat="47.30346" lon="-2.34784">
        <ele>28.799999237061</ele>
        <time>2021-07-01T09:44:41.000Z</time>
      </trkpt>
      <trkpt lat="47.30337" lon="-2.34798">
        <ele>28.799999237061</ele>
        <time>2021-07-01T09:44:43.000Z</time>
      </trkpt>
      <trkpt lat="47.30329" lon="-2.34814">
        <ele>28.799999237061</ele>
        <time>2021-07-01T09:44:45.000Z</time>
      </trkpt>
      <trkpt lat="47.30316" lon="-2.34834">
        <ele>28.799999237061</ele>
        <time>2021-07-01T09:44:48.000Z</time>
      </trkpt>
      <trkpt lat="47.30296" lon="-2.34854">
        <ele>28.799999237061</ele>
        <time>2021-07-01T09:44:52.000Z</time>
      </trkpt>
      <trkpt lat="47.3029" lon="-2.34857">
        <ele>28.799999237061</ele>
        <time>2021-07-01T09:44:53.000Z</time>
      </trkpt>
      <trkpt lat="47.30253" lon="-2.34876">
        <ele>28.799999237061</ele>
        <time>2021-07-01T09:44:59.000Z</time>
      </trkpt>
      <trkpt lat="47.30235" lon="-2.34888">
        <ele>28.799999237061</ele>
        <time>2021-07-01T09:45:02.000Z</time>
      </trkpt>
      <trkpt lat="47.3022" lon="-2.34904">
        <ele>28.799999237061</ele>
        <time>2021-07-01T09:45:05.000Z</time>
      </trkpt>
      <trkpt lat="47.30211" lon="-2.34927">
        <ele>28.799999237061</ele>
        <time>2021-07-01T09:45:08.000Z</time>
      </trkpt>
      <trkpt lat="47.3021" lon="-2.34936">
        <ele>28.799999237061</ele>
        <time>2021-07-01T09:45:09.000Z</time>
      </trkpt>
      <trkpt lat="47.30209" lon="-2.34967">
        <ele>28.799999237061</ele>
        <time>2021-07-01T09:45:12.000Z</time>
      </trkpt>
      <trkpt lat="47.30209" lon="-2.34977">
        <ele>28.39999961853</ele>
        <time>2021-07-01T09:45:13.000Z</time>
      </trkpt>
      <trkpt lat="47.30208" lon="-2.34988">
        <ele>28</ele>
        <time>2021-07-01T09:45:14.000Z</time>
      </trkpt>
      <trkpt lat="47.30207" lon="-2.34998">
        <ele>27.60000038147</ele>
        <time>2021-07-01T09:45:15.000Z</time>
      </trkpt>
      <trkpt lat="47.30207" lon="-2.35009">
        <ele>27</ele>
        <time>2021-07-01T09:45:16.000Z</time>
      </trkpt>
      <trkpt lat="47.30208" lon="-2.35019">
        <ele>26.60000038147</ele>
        <time>2021-07-01T09:45:17.000Z</time>
      </trkpt>
      <trkpt lat="47.30208" lon="-2.35041">
        <ele>26.60000038147</ele>
        <time>2021-07-01T09:45:19.000Z</time>
      </trkpt>
      <trkpt lat="47.30209" lon="-2.35102">
        <ele>26.200000762939</ele>
        <time>2021-07-01T09:45:25.000Z</time>
      </trkpt>
      <trkpt lat="47.30208" lon="-2.35111">
        <ele>25.799999237061</ele>
        <time>2021-07-01T09:45:26.000Z</time>
      </trkpt>
      <trkpt lat="47.30207" lon="-2.35119">
        <ele>25.39999961853</ele>
        <time>2021-07-01T09:45:27.000Z</time>
      </trkpt>
      <trkpt lat="47.30206" lon="-2.35128">
        <ele>25</ele>
        <time>2021-07-01T09:45:28.000Z</time>
      </trkpt>
      <trkpt lat="47.30207" lon="-2.35135">
        <ele>24.39999961853</ele>
        <time>2021-07-01T09:45:29.000Z</time>
      </trkpt>
      <trkpt lat="47.30208" lon="-2.35148">
        <ele>24.39999961853</ele>
        <time>2021-07-01T09:45:31.000Z</time>
      </trkpt>
      <trkpt lat="47.30205" lon="-2.3516">
        <ele>24</ele>
        <time>2021-07-01T09:45:33.000Z</time>
      </trkpt>
      <trkpt lat="47.302" lon="-2.35165">
        <ele>23.200000762939</ele>
        <time>2021-07-01T09:45:34.000Z</time>
      </trkpt>
      <trkpt lat="47.30197" lon="-2.35167">
        <ele>23.200000762939</ele>
        <time>2021-07-01T09:45:35.000Z</time>
      </trkpt>
      <trkpt lat="47.30193" lon="-2.35168">
        <ele>22.200000762939</ele>
        <time>2021-07-01T09:45:36.000Z</time>
      </trkpt>
      <trkpt lat="47.30185" lon="-2.35171">
        <ele>22.200000762939</ele>
        <time>2021-07-01T09:45:38.000Z</time>
      </trkpt>
      <trkpt lat="47.3018" lon="-2.35174">
        <ele>22.200000762939</ele>
        <time>2021-07-01T09:45:39.000Z</time>
      </trkpt>
      <trkpt lat="47.30163" lon="-2.35182">
        <ele>22.200000762939</ele>
        <time>2021-07-01T09:45:44.000Z</time>
      </trkpt>
      <trkpt lat="47.30154" lon="-2.35192">
        <ele>22.200000762939</ele>
        <time>2021-07-01T09:45:48.000Z</time>
      </trkpt>
      <trkpt lat="47.30144" lon="-2.35193">
        <ele>22.200000762939</ele>
        <time>2021-07-01T09:45:53.000Z</time>
      </trkpt>
      <trkpt lat="47.30128" lon="-2.35196">
        <ele>22.200000762939</ele>
        <time>2021-07-01T09:45:57.000Z</time>
      </trkpt>
      <trkpt lat="47.30123" lon="-2.35199">
        <ele>22.200000762939</ele>
        <time>2021-07-01T09:45:58.000Z</time>
      </trkpt>
      <trkpt lat="47.30101" lon="-2.35209">
        <ele>22.200000762939</ele>
        <time>2021-07-01T09:46:04.000Z</time>
      </trkpt>
      <trkpt lat="47.30088" lon="-2.35214">
        <ele>22.200000762939</ele>
        <time>2021-07-01T09:46:07.000Z</time>
      </trkpt>
      <trkpt lat="47.30075" lon="-2.35219">
        <ele>22.200000762939</ele>
        <time>2021-07-01T09:46:10.000Z</time>
      </trkpt>
      <trkpt lat="47.30068" lon="-2.35224">
        <ele>22.200000762939</ele>
        <time>2021-07-01T09:46:12.000Z</time>
      </trkpt>
      <trkpt lat="47.3005" lon="-2.35233">
        <ele>22.200000762939</ele>
        <time>2021-07-01T09:46:16.000Z</time>
      </trkpt>
      <trkpt lat="47.30029" lon="-2.35242">
        <ele>22.200000762939</ele>
        <time>2021-07-01T09:46:22.000Z</time>
      </trkpt>
      <trkpt lat="47.30028" lon="-2.35242">
        <ele>22.200000762939</ele>
        <time>2021-07-01T09:46:23.000Z</time>
      </trkpt>
      <trkpt lat="47.30025" lon="-2.35243">
        <ele>21.799999237061</ele>
        <time>2021-07-01T09:46:24.000Z</time>
      </trkpt>
      <trkpt lat="47.30022" lon="-2.35245">
        <ele>21.39999961853</ele>
        <time>2021-07-01T09:46:25.000Z</time>
      </trkpt>
      <trkpt lat="47.3002" lon="-2.35248">
        <ele>20.60000038147</ele>
        <time>2021-07-01T09:46:26.000Z</time>
      </trkpt>
      <trkpt lat="47.30018" lon="-2.3525">
        <ele>20.200000762939</ele>
        <time>2021-07-01T09:46:27.000Z</time>
      </trkpt>
      <trkpt lat="47.30006" lon="-2.35255">
        <ele>20.200000762939</ele>
        <time>2021-07-01T09:46:33.000Z</time>
      </trkpt>
      <trkpt lat="47.30002" lon="-2.35255">
        <ele>20.200000762939</ele>
        <time>2021-07-01T09:46:37.000Z</time>
      </trkpt>
      <trkpt lat="47.29999" lon="-2.35259">
        <ele>20.200000762939</ele>
        <time>2021-07-01T09:49:45.000Z</time>
      </trkpt>
      <trkpt lat="47.2999" lon="-2.35271">
        <ele>20.200000762939</ele>
        <time>2021-07-01T09:49:50.000Z</time>
      </trkpt>
      <trkpt lat="47.29971" lon="-2.35293">
        <ele>20.200000762939</ele>
        <time>2021-07-01T09:49:56.000Z</time>
      </trkpt>
      <trkpt lat="47.29939" lon="-2.35336">
        <ele>20.200000762939</ele>
        <time>2021-07-01T09:50:05.000Z</time>
      </trkpt>
      <trkpt lat="47.29913" lon="-2.35367">
        <ele>20.200000762939</ele>
        <time>2021-07-01T09:50:12.000Z</time>
      </trkpt>
      <trkpt lat="47.29884" lon="-2.354">
        <ele>20.200000762939</ele>
        <time>2021-07-01T09:50:20.000Z</time>
      </trkpt>
      <trkpt lat="47.29872" lon="-2.35411">
        <ele>20.60000038147</ele>
        <time>2021-07-01T09:50:23.000Z</time>
      </trkpt>
      <trkpt lat="47.29868" lon="-2.35415">
        <ele>21</ele>
        <time>2021-07-01T09:50:24.000Z</time>
      </trkpt>
      <trkpt lat="47.29864" lon="-2.35419">
        <ele>21.39999961853</ele>
        <time>2021-07-01T09:50:25.000Z</time>
      </trkpt>
      <trkpt lat="47.2986" lon="-2.35423">
        <ele>21.799999237061</ele>
        <time>2021-07-01T09:50:26.000Z</time>
      </trkpt>
      <trkpt lat="47.29856" lon="-2.35427">
        <ele>22.200000762939</ele>
        <time>2021-07-01T09:50:27.000Z</time>
      </trkpt>
      <trkpt lat="47.29849" lon="-2.35435">
        <ele>22.200000762939</ele>
        <time>2021-07-01T09:50:29.000Z</time>
      </trkpt>
      <trkpt lat="47.29834" lon="-2.35451">
        <ele>22.200000762939</ele>
        <time>2021-07-01T09:50:33.000Z</time>
      </trkpt>
      <trkpt lat="47.29829" lon="-2.35461">
        <ele>22.200000762939</ele>
        <time>2021-07-01T09:50:35.000Z</time>
      </trkpt>
      <trkpt lat="47.29831" lon="-2.35479">
        <ele>22.200000762939</ele>
        <time>2021-07-01T09:50:38.000Z</time>
      </trkpt>
      <trkpt lat="47.29837" lon="-2.35494">
        <ele>22.200000762939</ele>
        <time>2021-07-01T09:50:41.000Z</time>
      </trkpt>
      <trkpt lat="47.29843" lon="-2.35513">
        <ele>22.200000762939</ele>
        <time>2021-07-01T09:50:44.000Z</time>
      </trkpt>
      <trkpt lat="47.29854" lon="-2.35556">
        <ele>22.60000038147</ele>
        <time>2021-07-01T09:50:51.000Z</time>
      </trkpt>
      <trkpt lat="47.29856" lon="-2.35562">
        <ele>23.200000762939</ele>
        <time>2021-07-01T09:50:52.000Z</time>
      </trkpt>
      <trkpt lat="47.29857" lon="-2.35568">
        <ele>23.60000038147</ele>
        <time>2021-07-01T09:50:53.000Z</time>
      </trkpt>
      <trkpt lat="47.29859" lon="-2.35575">
        <ele>24</ele>
        <time>2021-07-01T09:50:54.000Z</time>
      </trkpt>
      <trkpt lat="47.29861" lon="-2.35581">
        <ele>24.39999961853</ele>
        <time>2021-07-01T09:50:55.000Z</time>
      </trkpt>
      <trkpt lat="47.29869" lon="-2.35613">
        <ele>24.39999961853</ele>
        <time>2021-07-01T09:51:00.000Z</time>
      </trkpt>
      <trkpt lat="47.29875" lon="-2.35638">
        <ele>24.39999961853</ele>
        <time>2021-07-01T09:51:04.000Z</time>
      </trkpt>
      <trkpt lat="47.29877" lon="-2.35651">
        <ele>24.39999961853</ele>
        <time>2021-07-01T09:51:06.000Z</time>
      </trkpt>
      <trkpt lat="47.29881" lon="-2.35691">
        <ele>24.799999237061</ele>
        <time>2021-07-01T09:51:12.000Z</time>
      </trkpt>
      <trkpt lat="47.29882" lon="-2.35697">
        <ele>25.200000762939</ele>
        <time>2021-07-01T09:51:13.000Z</time>
      </trkpt>
      <trkpt lat="47.29884" lon="-2.35703">
        <ele>25.60000038147</ele>
        <time>2021-07-01T09:51:14.000Z</time>
      </trkpt>
      <trkpt lat="47.29885" lon="-2.35708">
        <ele>26</ele>
        <time>2021-07-01T09:51:15.000Z</time>
      </trkpt>
      <trkpt lat="47.29886" lon="-2.35714">
        <ele>26.39999961853</ele>
        <time>2021-07-01T09:51:16.000Z</time>
      </trkpt>
      <trkpt lat="47.2989" lon="-2.35729">
        <ele>26.39999961853</ele>
        <time>2021-07-01T09:51:19.000Z</time>
      </trkpt>
      <trkpt lat="47.29894" lon="-2.35752">
        <ele>26.39999961853</ele>
        <time>2021-07-01T09:51:24.000Z</time>
      </trkpt>
      <trkpt lat="47.29892" lon="-2.35755">
        <ele>26.39999961853</ele>
        <time>2021-07-01T09:51:25.000Z</time>
      </trkpt>
      <trkpt lat="47.29878" lon="-2.35769">
        <ele>26.39999961853</ele>
        <time>2021-07-01T09:51:29.000Z</time>
      </trkpt>
      <trkpt lat="47.29864" lon="-2.35776">
        <ele>26.39999961853</ele>
        <time>2021-07-01T09:51:32.000Z</time>
      </trkpt>
      <trkpt lat="47.29849" lon="-2.35781">
        <ele>26.39999961853</ele>
        <time>2021-07-01T09:51:35.000Z</time>
      </trkpt>
      <trkpt lat="47.29822" lon="-2.35792">
        <ele>26.39999961853</ele>
        <time>2021-07-01T09:51:41.000Z</time>
      </trkpt>
      <trkpt lat="47.29801" lon="-2.35798">
        <ele>27</ele>
        <time>2021-07-01T09:51:46.000Z</time>
      </trkpt>
      <trkpt lat="47.29797" lon="-2.358">
        <ele>27.39999961853</ele>
        <time>2021-07-01T09:51:47.000Z</time>
      </trkpt>
      <trkpt lat="47.29793" lon="-2.35801">
        <ele>27.799999237061</ele>
        <time>2021-07-01T09:51:48.000Z</time>
      </trkpt>
      <trkpt lat="47.29788" lon="-2.35802">
        <ele>28.200000762939</ele>
        <time>2021-07-01T09:51:49.000Z</time>
      </trkpt>
      <trkpt lat="47.29784" lon="-2.35804">
        <ele>28.60000038147</ele>
        <time>2021-07-01T09:51:50.000Z</time>
      </trkpt>
      <trkpt lat="47.29747" lon="-2.35817">
        <ele>28.60000038147</ele>
        <time>2021-07-01T09:51:58.000Z</time>
      </trkpt>
      <trkpt lat="47.29711" lon="-2.35836">
        <ele>28.60000038147</ele>
        <time>2021-07-01T09:52:04.000Z</time>
      </trkpt>
      <trkpt lat="47.29698" lon="-2.35843">
        <ele>28.200000762939</ele>
        <time>2021-07-01T09:52:06.000Z</time>
      </trkpt>
      <trkpt lat="47.29692" lon="-2.35845">
        <ele>27.799999237061</ele>
        <time>2021-07-01T09:52:07.000Z</time>
      </trkpt>
      <trkpt lat="47.29685" lon="-2.35847">
        <ele>27.200000762939</ele>
        <time>2021-07-01T09:52:08.000Z</time>
      </trkpt>
      <trkpt lat="47.29679" lon="-2.35849">
        <ele>26.799999237061</ele>
        <time>2021-07-01T09:52:09.000Z</time>
      </trkpt>
      <trkpt lat="47.29673" lon="-2.35851">
        <ele>26.39999961853</ele>
        <time>2021-07-01T09:52:10.000Z</time>
      </trkpt>
      <trkpt lat="47.29658" lon="-2.35863">
        <ele>26.39999961853</ele>
        <time>2021-07-01T09:52:13.000Z</time>
      </trkpt>
      <trkpt lat="47.29642" lon="-2.35874">
        <ele>26.39999961853</ele>
        <time>2021-07-01T09:52:16.000Z</time>
      </trkpt>
      <trkpt lat="47.29631" lon="-2.3588">
        <ele>26.39999961853</ele>
        <time>2021-07-01T09:52:18.000Z</time>
      </trkpt>
      <trkpt lat="47.29599" lon="-2.35898">
        <ele>26.39999961853</ele>
        <time>2021-07-01T09:52:24.000Z</time>
      </trkpt>
      <trkpt lat="47.29562" lon="-2.3592">
        <ele>26.39999961853</ele>
        <time>2021-07-01T09:52:31.000Z</time>
      </trkpt>
      <trkpt lat="47.29522" lon="-2.35942">
        <ele>26.39999961853</ele>
        <time>2021-07-01T09:52:39.000Z</time>
      </trkpt>
      <trkpt lat="47.29511" lon="-2.35942">
        <ele>26.39999961853</ele>
        <time>2021-07-01T09:52:42.000Z</time>
      </trkpt>
      <trkpt lat="47.29508" lon="-2.35938">
        <ele>26.39999961853</ele>
        <time>2021-07-01T09:52:43.000Z</time>
      </trkpt>
      <trkpt lat="47.29502" lon="-2.35924">
        <ele>26.39999961853</ele>
        <time>2021-07-01T09:52:46.000Z</time>
      </trkpt>
      <trkpt lat="47.29499" lon="-2.35914">
        <ele>26.39999961853</ele>
        <time>2021-07-01T09:52:48.000Z</time>
      </trkpt>
      <trkpt lat="47.29492" lon="-2.35898">
        <ele>26.39999961853</ele>
        <time>2021-07-01T09:52:52.000Z</time>
      </trkpt>
      <trkpt lat="47.2949" lon="-2.35897">
        <ele>26.39999961853</ele>
        <time>2021-07-01T09:52:53.000Z</time>
      </trkpt>
      <trkpt lat="47.29477" lon="-2.35899">
        <ele>26.39999961853</ele>
        <time>2021-07-01T09:52:58.000Z</time>
      </trkpt>
      <trkpt lat="47.29466" lon="-2.35902">
        <ele>26</ele>
        <time>2021-07-01T09:53:02.000Z</time>
      </trkpt>
      <trkpt lat="47.29464" lon="-2.35902">
        <ele>25.60000038147</ele>
        <time>2021-07-01T09:53:03.000Z</time>
      </trkpt>
      <trkpt lat="47.29462" lon="-2.35903">
        <ele>25.200000762939</ele>
        <time>2021-07-01T09:53:04.000Z</time>
      </trkpt>
      <trkpt lat="47.2946" lon="-2.35903">
        <ele>24.60000038147</ele>
        <time>2021-07-01T09:53:05.000Z</time>
      </trkpt>
      <trkpt lat="47.29458" lon="-2.35903">
        <ele>24.200000762939</ele>
        <time>2021-07-01T09:53:06.000Z</time>
      </trkpt>
      <trkpt lat="47.29453" lon="-2.35903">
        <ele>24.200000762939</ele>
        <time>2021-07-01T09:53:09.000Z</time>
      </trkpt>
      <trkpt lat="47.29452" lon="-2.35903">
        <ele>24.200000762939</ele>
        <time>2021-07-01T09:53:10.000Z</time>
      </trkpt>
      <trkpt lat="47.29446" lon="-2.35908">
        <ele>24.200000762939</ele>
        <time>2021-07-01T09:53:14.000Z</time>
      </trkpt>
      <trkpt lat="47.29437" lon="-2.35917">
        <ele>24.200000762939</ele>
        <time>2021-07-01T09:53:19.000Z</time>
      </trkpt>
      <trkpt lat="47.29431" lon="-2.35905">
        <ele>24.200000762939</ele>
        <time>2021-07-01T09:53:22.000Z</time>
      </trkpt>
      <trkpt lat="47.29421" lon="-2.35891">
        <ele>24.200000762939</ele>
        <time>2021-07-01T09:53:25.000Z</time>
      </trkpt>
      <trkpt lat="47.29413" lon="-2.35881">
        <ele>24.200000762939</ele>
        <time>2021-07-01T09:53:27.000Z</time>
      </trkpt>
      <trkpt lat="47.29384" lon="-2.35849">
        <ele>24.200000762939</ele>
        <time>2021-07-01T09:53:34.000Z</time>
      </trkpt>
      <trkpt lat="47.29357" lon="-2.35821">
        <ele>24.200000762939</ele>
        <time>2021-07-01T09:53:40.000Z</time>
      </trkpt>
      <trkpt lat="47.29334" lon="-2.35797">
        <ele>24.200000762939</ele>
        <time>2021-07-01T09:53:45.000Z</time>
      </trkpt>
      <trkpt lat="47.2933" lon="-2.35793">
        <ele>24.200000762939</ele>
        <time>2021-07-01T09:53:46.000Z</time>
      </trkpt>
      <trkpt lat="47.29322" lon="-2.35785">
        <ele>24.200000762939</ele>
        <time>2021-07-01T09:53:49.000Z</time>
      </trkpt>
      <trkpt lat="47.29308" lon="-2.35772">
        <ele>24.200000762939</ele>
        <time>2021-07-01T09:53:55.000Z</time>
      </trkpt>
      <trkpt lat="47.29289" lon="-2.35756">
        <ele>24.200000762939</ele>
        <time>2021-07-01T09:54:01.000Z</time>
      </trkpt>
      <trkpt lat="47.29263" lon="-2.35732">
        <ele>24.200000762939</ele>
        <time>2021-07-01T09:54:09.000Z</time>
      </trkpt>
      <trkpt lat="47.29253" lon="-2.35726">
        <ele>24.200000762939</ele>
        <time>2021-07-01T09:54:12.000Z</time>
      </trkpt>
      <trkpt lat="47.2925" lon="-2.35729">
        <ele>24.200000762939</ele>
        <time>2021-07-01T09:54:13.000Z</time>
      </trkpt>
      <trkpt lat="47.29241" lon="-2.35747">
        <ele>24.200000762939</ele>
        <time>2021-07-01T09:54:16.000Z</time>
      </trkpt>
      <trkpt lat="47.29235" lon="-2.35758">
        <ele>24.200000762939</ele>
        <time>2021-07-01T09:54:18.000Z</time>
      </trkpt>
      <trkpt lat="47.29207" lon="-2.35791">
        <ele>24.200000762939</ele>
        <time>2021-07-01T09:54:25.000Z</time>
      </trkpt>
      <trkpt lat="47.29171" lon="-2.35817">
        <ele>24.200000762939</ele>
        <time>2021-07-01T09:54:33.000Z</time>
      </trkpt>
      <trkpt lat="47.29148" lon="-2.35837">
        <ele>24.200000762939</ele>
        <time>2021-07-01T09:54:38.000Z</time>
      </trkpt>
      <trkpt lat="47.29111" lon="-2.35877">
        <ele>24.200000762939</ele>
        <time>2021-07-01T09:54:46.000Z</time>
      </trkpt>
      <trkpt lat="47.29082" lon="-2.35912">
        <ele>24.200000762939</ele>
        <time>2021-07-01T09:54:53.000Z</time>
      </trkpt>
      <trkpt lat="47.29048" lon="-2.35951">
        <ele>24.200000762939</ele>
        <time>2021-07-01T09:55:01.000Z</time>
      </trkpt>
      <trkpt lat="47.29015" lon="-2.35987">
        <ele>24.200000762939</ele>
        <time>2021-07-01T09:55:09.000Z</time>
      </trkpt>
      <trkpt lat="47.28985" lon="-2.36017">
        <ele>24.200000762939</ele>
        <time>2021-07-01T09:55:16.000Z</time>
      </trkpt>
      <trkpt lat="47.2896" lon="-2.36036">
        <ele>24.200000762939</ele>
        <time>2021-07-01T09:55:22.000Z</time>
      </trkpt>
      <trkpt lat="47.28944" lon="-2.36049">
        <ele>24.200000762939</ele>
        <time>2021-07-01T09:55:26.000Z</time>
      </trkpt>
      <trkpt lat="47.28934" lon="-2.36056">
        <ele>24.200000762939</ele>
        <time>2021-07-01T09:55:28.000Z</time>
      </trkpt>
      <trkpt lat="47.2891" lon="-2.36073">
        <ele>24.200000762939</ele>
        <time>2021-07-01T09:55:33.000Z</time>
      </trkpt>
      <trkpt lat="47.28902" lon="-2.36084">
        <ele>24.200000762939</ele>
        <time>2021-07-01T09:55:35.000Z</time>
      </trkpt>
      <trkpt lat="47.28889" lon="-2.36099">
        <ele>24.200000762939</ele>
        <time>2021-07-01T09:55:38.000Z</time>
      </trkpt>
      <trkpt lat="47.28881" lon="-2.36107">
        <ele>24.200000762939</ele>
        <time>2021-07-01T09:55:40.000Z</time>
      </trkpt>
      <trkpt lat="47.28859" lon="-2.36127">
        <ele>24.200000762939</ele>
        <time>2021-07-01T09:55:45.000Z</time>
      </trkpt>
      <trkpt lat="47.28835" lon="-2.36156">
        <ele>24.200000762939</ele>
        <time>2021-07-01T09:55:51.000Z</time>
      </trkpt>
      <trkpt lat="47.28821" lon="-2.36175">
        <ele>24.200000762939</ele>
        <time>2021-07-01T09:55:55.000Z</time>
      </trkpt>
      <trkpt lat="47.28813" lon="-2.36183">
        <ele>24.200000762939</ele>
        <time>2021-07-01T09:55:57.000Z</time>
      </trkpt>
      <trkpt lat="47.28788" lon="-2.36201">
        <ele>24.200000762939</ele>
        <time>2021-07-01T09:56:03.000Z</time>
      </trkpt>
      <trkpt lat="47.28765" lon="-2.36215">
        <ele>24.200000762939</ele>
        <time>2021-07-01T09:56:10.000Z</time>
      </trkpt>
      <trkpt lat="47.28749" lon="-2.36225">
        <ele>24.200000762939</ele>
        <time>2021-07-01T09:56:16.000Z</time>
      </trkpt>
      <trkpt lat="47.28735" lon="-2.36236">
        <ele>24.200000762939</ele>
        <time>2021-07-01T09:56:22.000Z</time>
      </trkpt>
      <trkpt lat="47.28727" lon="-2.36246">
        <ele>24.200000762939</ele>
        <time>2021-07-01T09:56:27.000Z</time>
      </trkpt>
      <trkpt lat="47.28725" lon="-2.36248">
        <ele>24.60000038147</ele>
        <time>2021-07-01T09:56:28.000Z</time>
      </trkpt>
      <trkpt lat="47.28725" lon="-2.36251">
        <ele>25.200000762939</ele>
        <time>2021-07-01T09:56:29.000Z</time>
      </trkpt>
      <trkpt lat="47.28724" lon="-2.36253">
        <ele>25.60000038147</ele>
        <time>2021-07-01T09:56:30.000Z</time>
      </trkpt>
      <trkpt lat="47.28722" lon="-2.36256">
        <ele>26</ele>
        <time>2021-07-01T09:56:31.000Z</time>
      </trkpt>
      <trkpt lat="47.28721" lon="-2.36258">
        <ele>26.39999961853</ele>
        <time>2021-07-01T09:56:32.000Z</time>
      </trkpt>
      <trkpt lat="47.28719" lon="-2.36259">
        <ele>26.39999961853</ele>
        <time>2021-07-01T09:56:33.000Z</time>
      </trkpt>
      <trkpt lat="47.28707" lon="-2.36272">
        <ele>26.39999961853</ele>
        <time>2021-07-01T09:56:40.000Z</time>
      </trkpt>
      <trkpt lat="47.28703" lon="-2.36275">
        <ele>27.200000762939</ele>
        <time>2021-07-01T09:56:42.000Z</time>
      </trkpt>
      <trkpt lat="47.287" lon="-2.36278">
        <ele>27.60000038147</ele>
        <time>2021-07-01T09:56:43.000Z</time>
      </trkpt>
      <trkpt lat="47.28697" lon="-2.3628">
        <ele>28</ele>
        <time>2021-07-01T09:56:44.000Z</time>
      </trkpt>
      <trkpt lat="47.28695" lon="-2.36281">
        <ele>28.60000038147</ele>
        <time>2021-07-01T09:56:45.000Z</time>
      </trkpt>
      <trkpt lat="47.28688" lon="-2.36282">
        <ele>28.60000038147</ele>
        <time>2021-07-01T09:56:47.000Z</time>
      </trkpt>
      <trkpt lat="47.28679" lon="-2.36275">
        <ele>28.60000038147</ele>
        <time>2021-07-01T09:56:52.000Z</time>
      </trkpt>
      <trkpt lat="47.28675" lon="-2.36252">
        <ele>29</ele>
        <time>2021-07-01T09:56:57.000Z</time>
      </trkpt>
      <trkpt lat="47.28675" lon="-2.36247">
        <ele>29.39999961853</ele>
        <time>2021-07-01T09:56:58.000Z</time>
      </trkpt>
      <trkpt lat="47.28675" lon="-2.36241">
        <ele>29.799999237061</ele>
        <time>2021-07-01T09:56:59.000Z</time>
      </trkpt>
      <trkpt lat="47.28674" lon="-2.36234">
        <ele>30.200000762939</ele>
        <time>2021-07-01T09:57:00.000Z</time>
      </trkpt>
      <trkpt lat="47.28674" lon="-2.36227">
        <ele>30.60000038147</ele>
        <time>2021-07-01T09:57:01.000Z</time>
      </trkpt>
      <trkpt lat="47.2867" lon="-2.3621">
        <ele>30.60000038147</ele>
        <time>2021-07-01T09:57:04.000Z</time>
      </trkpt>
      <trkpt lat="47.28661" lon="-2.36184">
        <ele>31</ele>
        <time>2021-07-01T09:57:09.000Z</time>
      </trkpt>
      <trkpt lat="47.28658" lon="-2.3618">
        <ele>31.39999961853</ele>
        <time>2021-07-01T09:57:10.000Z</time>
      </trkpt>
      <trkpt lat="47.28657" lon="-2.36177">
        <ele>31.799999237061</ele>
        <time>2021-07-01T09:57:11.000Z</time>
      </trkpt>
      <trkpt lat="47.28655" lon="-2.36174">
        <ele>32.400001525879</ele>
        <time>2021-07-01T09:57:12.000Z</time>
      </trkpt>
      <trkpt lat="47.28652" lon="-2.36171">
        <ele>32.799999237061</ele>
        <time>2021-07-01T09:57:13.000Z</time>
      </trkpt>
      <trkpt lat="47.28648" lon="-2.36165">
        <ele>32.799999237061</ele>
        <time>2021-07-01T09:57:15.000Z</time>
      </trkpt>
      <trkpt lat="47.28636" lon="-2.3615">
        <ele>33.200000762939</ele>
        <time>2021-07-01T09:57:19.000Z</time>
      </trkpt>
      <trkpt lat="47.28633" lon="-2.36147">
        <ele>33.599998474121</ele>
        <time>2021-07-01T09:57:20.000Z</time>
      </trkpt>
      <trkpt lat="47.2863" lon="-2.36145">
        <ele>34</ele>
        <time>2021-07-01T09:57:21.000Z</time>
      </trkpt>
      <trkpt lat="47.28628" lon="-2.36145">
        <ele>34.400001525879</ele>
        <time>2021-07-01T09:57:22.000Z</time>
      </trkpt>
      <trkpt lat="47.28625" lon="-2.36147">
        <ele>34.799999237061</ele>
        <time>2021-07-01T09:57:23.000Z</time>
      </trkpt>
      <trkpt lat="47.28618" lon="-2.36152">
        <ele>34.799999237061</ele>
        <time>2021-07-01T09:57:26.000Z</time>
      </trkpt>
      <trkpt lat="47.2861" lon="-2.36157">
        <ele>34.799999237061</ele>
        <time>2021-07-01T09:57:28.000Z</time>
      </trkpt>
      <trkpt lat="47.2859" lon="-2.36154">
        <ele>34.799999237061</ele>
        <time>2021-07-01T09:57:33.000Z</time>
      </trkpt>
      <trkpt lat="47.28572" lon="-2.36151">
        <ele>34.799999237061</ele>
        <time>2021-07-01T09:57:38.000Z</time>
      </trkpt>
      <trkpt lat="47.28552" lon="-2.36157">
        <ele>34.799999237061</ele>
        <time>2021-07-01T09:57:42.000Z</time>
      </trkpt>
      <trkpt lat="47.28547" lon="-2.36156">
        <ele>34.400001525879</ele>
        <time>2021-07-01T09:57:43.000Z</time>
      </trkpt>
      <trkpt lat="47.28543" lon="-2.36153">
        <ele>34</ele>
        <time>2021-07-01T09:57:44.000Z</time>
      </trkpt>
      <trkpt lat="47.28538" lon="-2.36149">
        <ele>33.400001525879</ele>
        <time>2021-07-01T09:57:45.000Z</time>
      </trkpt>
      <trkpt lat="47.28536" lon="-2.36142">
        <ele>33</ele>
        <time>2021-07-01T09:57:46.000Z</time>
      </trkpt>
      <trkpt lat="47.28535" lon="-2.36135">
        <ele>32.599998474121</ele>
        <time>2021-07-01T09:57:47.000Z</time>
      </trkpt>
      <trkpt lat="47.28534" lon="-2.36128">
        <ele>32.599998474121</ele>
        <time>2021-07-01T09:57:48.000Z</time>
      </trkpt>
      <trkpt lat="47.28524" lon="-2.36076">
        <ele>32.599998474121</ele>
        <time>2021-07-01T09:57:56.000Z</time>
      </trkpt>
      <trkpt lat="47.28512" lon="-2.36057">
        <ele>32.599998474121</ele>
        <time>2021-07-01T09:58:00.000Z</time>
      </trkpt>
      <trkpt lat="47.28501" lon="-2.36043">
        <ele>32.599998474121</ele>
        <time>2021-07-01T09:58:03.000Z</time>
      </trkpt>
      <trkpt lat="47.28494" lon="-2.36037">
        <ele>32.599998474121</ele>
        <time>2021-07-01T09:58:05.000Z</time>
      </trkpt>
      <trkpt lat="47.28489" lon="-2.36035">
        <ele>32.599998474121</ele>
        <time>2021-07-01T09:58:06.000Z</time>
      </trkpt>
      <trkpt lat="47.28471" lon="-2.36028">
        <ele>32.599998474121</ele>
        <time>2021-07-01T09:58:10.000Z</time>
      </trkpt>
      <trkpt lat="47.28456" lon="-2.36004">
        <ele>32.599998474121</ele>
        <time>2021-07-01T09:58:14.000Z</time>
      </trkpt>
      <trkpt lat="47.28445" lon="-2.35991">
        <ele>32.599998474121</ele>
        <time>2021-07-01T09:58:17.000Z</time>
      </trkpt>
      <trkpt lat="47.28442" lon="-2.35991">
        <ele>32.599998474121</ele>
        <time>2021-07-01T09:58:18.000Z</time>
      </trkpt>
      <trkpt lat="47.28424" lon="-2.36005">
        <ele>32.599998474121</ele>
        <time>2021-07-01T09:58:22.000Z</time>
      </trkpt>
      <trkpt lat="47.28412" lon="-2.36018">
        <ele>32.599998474121</ele>
        <time>2021-07-01T09:58:25.000Z</time>
      </trkpt>
      <trkpt lat="47.28404" lon="-2.36023">
        <ele>32.599998474121</ele>
        <time>2021-07-01T09:58:27.000Z</time>
      </trkpt>
      <trkpt lat="47.28391" lon="-2.36026">
        <ele>32.599998474121</ele>
        <time>2021-07-01T09:58:30.000Z</time>
      </trkpt>
      <trkpt lat="47.28384" lon="-2.36027">
        <ele>32</ele>
        <time>2021-07-01T09:58:31.000Z</time>
      </trkpt>
      <trkpt lat="47.28377" lon="-2.36027">
        <ele>31.60000038147</ele>
        <time>2021-07-01T09:58:32.000Z</time>
      </trkpt>
      <trkpt lat="47.28371" lon="-2.36027">
        <ele>31.200000762939</ele>
        <time>2021-07-01T09:58:33.000Z</time>
      </trkpt>
      <trkpt lat="47.28365" lon="-2.36027">
        <ele>30.60000038147</ele>
        <time>2021-07-01T09:58:34.000Z</time>
      </trkpt>
      <trkpt lat="47.28357" lon="-2.3603">
        <ele>30</ele>
        <time>2021-07-01T09:58:35.000Z</time>
      </trkpt>
      <trkpt lat="47.28351" lon="-2.36033">
        <ele>29.39999961853</ele>
        <time>2021-07-01T09:58:36.000Z</time>
      </trkpt>
      <trkpt lat="47.28344" lon="-2.36037">
        <ele>28.799999237061</ele>
        <time>2021-07-01T09:58:37.000Z</time>
      </trkpt>
      <trkpt lat="47.28337" lon="-2.36041">
        <ele>28.200000762939</ele>
        <time>2021-07-01T09:58:38.000Z</time>
      </trkpt>
      <trkpt lat="47.28331" lon="-2.36046">
        <ele>27.39999961853</ele>
        <time>2021-07-01T09:58:39.000Z</time>
      </trkpt>
      <trkpt lat="47.28325" lon="-2.3605">
        <ele>26.799999237061</ele>
        <time>2021-07-01T09:58:40.000Z</time>
      </trkpt>
      <trkpt lat="47.28319" lon="-2.36054">
        <ele>26</ele>
        <time>2021-07-01T09:58:41.000Z</time>
      </trkpt>
      <trkpt lat="47.28314" lon="-2.36054">
        <ele>25.39999961853</ele>
        <time>2021-07-01T09:58:42.000Z</time>
      </trkpt>
      <trkpt lat="47.28303" lon="-2.36051">
        <ele>25.39999961853</ele>
        <time>2021-07-01T09:58:44.000Z</time>
      </trkpt>
      <trkpt lat="47.28298" lon="-2.36049">
        <ele>24.799999237061</ele>
        <time>2021-07-01T09:58:45.000Z</time>
      </trkpt>
      <trkpt lat="47.28293" lon="-2.36047">
        <ele>24.39999961853</ele>
        <time>2021-07-01T09:58:46.000Z</time>
      </trkpt>
      <trkpt lat="47.28289" lon="-2.36043">
        <ele>24</ele>
        <time>2021-07-01T09:58:47.000Z</time>
      </trkpt>
      <trkpt lat="47.28286" lon="-2.36039">
        <ele>23.39999961853</ele>
        <time>2021-07-01T09:58:48.000Z</time>
      </trkpt>
      <trkpt lat="47.28283" lon="-2.36035">
        <ele>22.799999237061</ele>
        <time>2021-07-01T09:58:49.000Z</time>
      </trkpt>
      <trkpt lat="47.28281" lon="-2.36029">
        <ele>22</ele>
        <time>2021-07-01T09:58:50.000Z</time>
      </trkpt>
      <trkpt lat="47.28279" lon="-2.36022">
        <ele>21.200000762939</ele>
        <time>2021-07-01T09:58:51.000Z</time>
      </trkpt>
      <trkpt lat="47.28278" lon="-2.36015">
        <ele>20.200000762939</ele>
        <time>2021-07-01T09:58:52.000Z</time>
      </trkpt>
      <trkpt lat="47.28277" lon="-2.36007">
        <ele>19.200000762939</ele>
        <time>2021-07-01T09:58:53.000Z</time>
      </trkpt>
      <trkpt lat="47.28278" lon="-2.36">
        <ele>18.39999961853</ele>
        <time>2021-07-01T09:58:54.000Z</time>
      </trkpt>
      <trkpt lat="47.28278" lon="-2.35993">
        <ele>17.60000038147</ele>
        <time>2021-07-01T09:58:55.000Z</time>
      </trkpt>
      <trkpt lat="47.28279" lon="-2.35986">
        <ele>16.799999237061</ele>
        <time>2021-07-01T09:58:56.000Z</time>
      </trkpt>
      <trkpt lat="47.28278" lon="-2.35981">
        <ele>16</ele>
        <time>2021-07-01T09:58:57.000Z</time>
      </trkpt>
      <trkpt lat="47.28276" lon="-2.35976">
        <ele>15.199999809265</ele>
        <time>2021-07-01T09:58:58.000Z</time>
      </trkpt>
      <trkpt lat="47.28273" lon="-2.35967">
        <ele>15.199999809265</ele>
        <time>2021-07-01T09:59:00.000Z</time>
      </trkpt>
      <trkpt lat="47.28271" lon="-2.35962">
        <ele>15.199999809265</ele>
        <time>2021-07-01T09:59:01.000Z</time>
      </trkpt>
      <trkpt lat="47.28267" lon="-2.35951">
        <ele>15.199999809265</ele>
        <time>2021-07-01T09:59:03.000Z</time>
      </trkpt>
      <trkpt lat="47.28261" lon="-2.35935">
        <ele>15.199999809265</ele>
        <time>2021-07-01T09:59:06.000Z</time>
      </trkpt>
      <trkpt lat="47.28259" lon="-2.35929">
        <ele>15.60000038147</ele>
        <time>2021-07-01T09:59:07.000Z</time>
      </trkpt>
      <trkpt lat="47.28258" lon="-2.35925">
        <ele>16</ele>
        <time>2021-07-01T09:59:08.000Z</time>
      </trkpt>
      <trkpt lat="47.28256" lon="-2.3592">
        <ele>16.39999961853</ele>
        <time>2021-07-01T09:59:09.000Z</time>
      </trkpt>
      <trkpt lat="47.28253" lon="-2.35917">
        <ele>17.39999961853</ele>
        <time>2021-07-01T09:59:10.000Z</time>
      </trkpt>
      <trkpt lat="47.28249" lon="-2.35911">
        <ele>17.39999961853</ele>
        <time>2021-07-01T09:59:12.000Z</time>
      </trkpt>
      <trkpt lat="47.28246" lon="-2.35911">
        <ele>17.39999961853</ele>
        <time>2021-07-01T09:59:13.000Z</time>
      </trkpt>
      <trkpt lat="47.28239" lon="-2.35913">
        <ele>17.39999961853</ele>
        <time>2021-07-01T09:59:15.000Z</time>
      </trkpt>
      <trkpt lat="47.28225" lon="-2.35908">
        <ele>17.39999961853</ele>
        <time>2021-07-01T09:59:18.000Z</time>
      </trkpt>
      <trkpt lat="47.28201" lon="-2.35905">
        <ele>17.39999961853</ele>
        <time>2021-07-01T09:59:24.000Z</time>
      </trkpt>
      <trkpt lat="47.28197" lon="-2.35902">
        <ele>16.799999237061</ele>
        <time>2021-07-01T09:59:25.000Z</time>
      </trkpt>
      <trkpt lat="47.28195" lon="-2.35899">
        <ele>16.39999961853</ele>
        <time>2021-07-01T09:59:26.000Z</time>
      </trkpt>
      <trkpt lat="47.28193" lon="-2.35896">
        <ele>16</ele>
        <time>2021-07-01T09:59:27.000Z</time>
      </trkpt>
      <trkpt lat="47.28191" lon="-2.3589">
        <ele>15.60000038147</ele>
        <time>2021-07-01T09:59:28.000Z</time>
      </trkpt>
      <trkpt lat="47.28191" lon="-2.35885">
        <ele>15.199999809265</ele>
        <time>2021-07-01T09:59:29.000Z</time>
      </trkpt>
      <trkpt lat="47.28187" lon="-2.35869">
        <ele>15.199999809265</ele>
        <time>2021-07-01T09:59:32.000Z</time>
      </trkpt>
      <trkpt lat="47.28184" lon="-2.35861">
        <ele>15.199999809265</ele>
        <time>2021-07-01T09:59:34.000Z</time>
      </trkpt>
      <trkpt lat="47.28179" lon="-2.35849">
        <ele>15.199999809265</ele>
        <time>2021-07-01T09:59:37.000Z</time>
      </trkpt>
      <trkpt lat="47.28172" lon="-2.3584">
        <ele>15.199999809265</ele>
        <time>2021-07-01T09:59:41.000Z</time>
      </trkpt>
      <trkpt lat="47.2817" lon="-2.35836">
        <ele>15.199999809265</ele>
        <time>2021-07-01T09:59:42.000Z</time>
      </trkpt>
      <trkpt lat="47.28154" lon="-2.35807">
        <ele>15.199999809265</ele>
        <time>2021-07-01T09:59:47.000Z</time>
      </trkpt>
      <trkpt lat="47.28144" lon="-2.35775">
        <ele>15.199999809265</ele>
        <time>2021-07-01T09:59:51.000Z</time>
      </trkpt>
      <trkpt lat="47.28141" lon="-2.35768">
        <ele>15.199999809265</ele>
        <time>2021-07-01T09:59:52.000Z</time>
      </trkpt>
      <trkpt lat="47.28131" lon="-2.35761">
        <ele>15.199999809265</ele>
        <time>2021-07-01T09:59:55.000Z</time>
      </trkpt>
      <trkpt lat="47.28121" lon="-2.3576">
        <ele>15.199999809265</ele>
        <time>2021-07-01T09:59:58.000Z</time>
      </trkpt>
      <trkpt lat="47.28109" lon="-2.35783">
        <ele>15.199999809265</ele>
        <time>2021-07-01T10:00:02.000Z</time>
      </trkpt>
      <trkpt lat="47.28105" lon="-2.3579">
        <ele>15.199999809265</ele>
        <time>2021-07-01T10:00:03.000Z</time>
      </trkpt>
      <trkpt lat="47.28094" lon="-2.35804">
        <ele>15.199999809265</ele>
        <time>2021-07-01T10:00:06.000Z</time>
      </trkpt>
      <trkpt lat="47.2809" lon="-2.35806">
        <ele>15.199999809265</ele>
        <time>2021-07-01T10:00:07.000Z</time>
      </trkpt>
      <trkpt lat="47.28081" lon="-2.35799">
        <ele>15.199999809265</ele>
        <time>2021-07-01T10:00:10.000Z</time>
      </trkpt>
      <trkpt lat="47.28083" lon="-2.35784">
        <ele>15.199999809265</ele>
        <time>2021-07-01T10:00:13.000Z</time>
      </trkpt>
      <trkpt lat="47.28088" lon="-2.35758">
        <ele>15.199999809265</ele>
        <time>2021-07-01T10:00:18.000Z</time>
      </trkpt>
      <trkpt lat="47.28091" lon="-2.3574">
        <ele>15.60000038147</ele>
        <time>2021-07-01T10:00:21.000Z</time>
      </trkpt>
      <trkpt lat="47.28093" lon="-2.35735">
        <ele>16</ele>
        <time>2021-07-01T10:00:22.000Z</time>
      </trkpt>
      <trkpt lat="47.28095" lon="-2.35729">
        <ele>16.39999961853</ele>
        <time>2021-07-01T10:00:23.000Z</time>
      </trkpt>
      <trkpt lat="47.28096" lon="-2.35724">
        <ele>17.200000762939</ele>
        <time>2021-07-01T10:00:24.000Z</time>
      </trkpt>
      <trkpt lat="47.28098" lon="-2.35697">
        <ele>17.200000762939</ele>
        <time>2021-07-01T10:00:29.000Z</time>
      </trkpt>
      <trkpt lat="47.28096" lon="-2.3569">
        <ele>17.200000762939</ele>
        <time>2021-07-01T10:00:30.000Z</time>
      </trkpt>
      <trkpt lat="47.28091" lon="-2.35667">
        <ele>17.200000762939</ele>
        <time>2021-07-01T10:00:33.000Z</time>
      </trkpt>
      <trkpt lat="47.2808" lon="-2.35639">
        <ele>17.200000762939</ele>
        <time>2021-07-01T10:00:37.000Z</time>
      </trkpt>
      <trkpt lat="47.28077" lon="-2.35631">
        <ele>17.200000762939</ele>
        <time>2021-07-01T10:00:38.000Z</time>
      </trkpt>
      <trkpt lat="47.28074" lon="-2.35616">
        <ele>16.60000038147</ele>
        <time>2021-07-01T10:00:40.000Z</time>
      </trkpt>
      <trkpt lat="47.28072" lon="-2.35611">
        <ele>16.200000762939</ele>
        <time>2021-07-01T10:00:41.000Z</time>
      </trkpt>
      <trkpt lat="47.28071" lon="-2.35608">
        <ele>15.800000190735</ele>
        <time>2021-07-01T10:00:42.000Z</time>
      </trkpt>
      <trkpt lat="47.28071" lon="-2.35606">
        <ele>15.199999809265</ele>
        <time>2021-07-01T10:00:43.000Z</time>
      </trkpt>
      <trkpt lat="47.2807" lon="-2.35605">
        <ele>14.60000038147</ele>
        <time>2021-07-01T10:00:44.000Z</time>
      </trkpt>
      <trkpt lat="47.2807" lon="-2.35605">
        <ele>14</ele>
        <time>2021-07-01T10:00:45.000Z</time>
      </trkpt>
      <trkpt lat="47.28057" lon="-2.35603">
        <ele>14.800000190735</ele>
        <time>2021-07-01T10:14:19.000Z</time>
      </trkpt>
      <trkpt lat="47.28052" lon="-2.35603">
        <ele>14.800000190735</ele>
        <time>2021-07-01T10:14:22.000Z</time>
      </trkpt>
      <trkpt lat="47.28038" lon="-2.356">
        <ele>14.800000190735</ele>
        <time>2021-07-01T10:14:27.000Z</time>
      </trkpt>
      <trkpt lat="47.28024" lon="-2.35603">
        <ele>14.800000190735</ele>
        <time>2021-07-01T10:14:33.000Z</time>
      </trkpt>
      <trkpt lat="47.28003" lon="-2.35604">
        <ele>14.800000190735</ele>
        <time>2021-07-01T10:14:39.000Z</time>
      </trkpt>
      <trkpt lat="47.27979" lon="-2.35594">
        <ele>14.800000190735</ele>
        <time>2021-07-01T10:14:45.000Z</time>
      </trkpt>
      <trkpt lat="47.27977" lon="-2.35588">
        <ele>14.800000190735</ele>
        <time>2021-07-01T10:14:46.000Z</time>
      </trkpt>
      <trkpt lat="47.27971" lon="-2.35578">
        <ele>14.800000190735</ele>
        <time>2021-07-01T10:14:48.000Z</time>
      </trkpt>
      <trkpt lat="47.27967" lon="-2.35576">
        <ele>14.39999961853</ele>
        <time>2021-07-01T10:14:49.000Z</time>
      </trkpt>
      <trkpt lat="47.27963" lon="-2.35575">
        <ele>13.800000190735</ele>
        <time>2021-07-01T10:14:50.000Z</time>
      </trkpt>
      <trkpt lat="47.2796" lon="-2.35576">
        <ele>13</ele>
        <time>2021-07-01T10:14:51.000Z</time>
      </trkpt>
      <trkpt lat="47.27957" lon="-2.35577">
        <ele>12.60000038147</ele>
        <time>2021-07-01T10:14:52.000Z</time>
      </trkpt>
      <trkpt lat="47.27953" lon="-2.35578">
        <ele>12.60000038147</ele>
        <time>2021-07-01T10:14:53.000Z</time>
      </trkpt>
      <trkpt lat="47.27942" lon="-2.35582">
        <ele>12.60000038147</ele>
        <time>2021-07-01T10:14:56.000Z</time>
      </trkpt>
      <trkpt lat="47.27933" lon="-2.35583">
        <ele>12.60000038147</ele>
        <time>2021-07-01T10:14:58.000Z</time>
      </trkpt>
      <trkpt lat="47.27915" lon="-2.35587">
        <ele>12.60000038147</ele>
        <time>2021-07-01T10:15:02.000Z</time>
      </trkpt>
      <trkpt lat="47.27889" lon="-2.35594">
        <ele>12.60000038147</ele>
        <time>2021-07-01T10:15:07.000Z</time>
      </trkpt>
      <trkpt lat="47.27858" lon="-2.35602">
        <ele>12.199999809265</ele>
        <time>2021-07-01T10:15:12.000Z</time>
      </trkpt>
      <trkpt lat="47.27852" lon="-2.35604">
        <ele>11.800000190735</ele>
        <time>2021-07-01T10:15:13.000Z</time>
      </trkpt>
      <trkpt lat="47.27846" lon="-2.35606">
        <ele>11.39999961853</ele>
        <time>2021-07-01T10:15:14.000Z</time>
      </trkpt>
      <trkpt lat="47.2784" lon="-2.35608">
        <ele>11</ele>
        <time>2021-07-01T10:15:15.000Z</time>
      </trkpt>
      <trkpt lat="47.27834" lon="-2.3561">
        <ele>10.60000038147</ele>
        <time>2021-07-01T10:15:16.000Z</time>
      </trkpt>
      <trkpt lat="47.27809" lon="-2.35618">
        <ele>10.60000038147</ele>
        <time>2021-07-01T10:15:20.000Z</time>
      </trkpt>
      <trkpt lat="47.27803" lon="-2.35619">
        <ele>10.60000038147</ele>
        <time>2021-07-01T10:15:21.000Z</time>
      </trkpt>
      <trkpt lat="47.27798" lon="-2.3562">
        <ele>10.199999809265</ele>
        <time>2021-07-01T10:15:22.000Z</time>
      </trkpt>
      <trkpt lat="47.27793" lon="-2.35623">
        <ele>9.6000003814697</ele>
        <time>2021-07-01T10:15:23.000Z</time>
      </trkpt>
      <trkpt lat="47.27787" lon="-2.35626">
        <ele>9.1999998092651</ele>
        <time>2021-07-01T10:15:24.000Z</time>
      </trkpt>
      <trkpt lat="47.27782" lon="-2.35629">
        <ele>8.8000001907349</ele>
        <time>2021-07-01T10:15:25.000Z</time>
      </trkpt>
      <trkpt lat="47.27778" lon="-2.35634">
        <ele>8.3999996185303</ele>
        <time>2021-07-01T10:15:26.000Z</time>
      </trkpt>
      <trkpt lat="47.27769" lon="-2.35642">
        <ele>8.3999996185303</ele>
        <time>2021-07-01T10:15:28.000Z</time>
      </trkpt>
      <trkpt lat="47.27764" lon="-2.35646">
        <ele>8.3999996185303</ele>
        <time>2021-07-01T10:15:29.000Z</time>
      </trkpt>
      <trkpt lat="47.27745" lon="-2.35672">
        <ele>8.3999996185303</ele>
        <time>2021-07-01T10:15:34.000Z</time>
      </trkpt>
      <trkpt lat="47.27741" lon="-2.35678">
        <ele>8.3999996185303</ele>
        <time>2021-07-01T10:15:35.000Z</time>
      </trkpt>
      <trkpt lat="47.2773" lon="-2.35697">
        <ele>8</ele>
        <time>2021-07-01T10:15:38.000Z</time>
      </trkpt>
      <trkpt lat="47.27726" lon="-2.35702">
        <ele>7.5999999046326</ele>
        <time>2021-07-01T10:15:39.000Z</time>
      </trkpt>
      <trkpt lat="47.27722" lon="-2.35707">
        <ele>7.1999998092651</ele>
        <time>2021-07-01T10:15:40.000Z</time>
      </trkpt>
      <trkpt lat="47.27718" lon="-2.35713">
        <ele>6.4000000953674</ele>
        <time>2021-07-01T10:15:41.000Z</time>
      </trkpt>
      <trkpt lat="47.27709" lon="-2.35722">
        <ele>6.4000000953674</ele>
        <time>2021-07-01T10:15:43.000Z</time>
      </trkpt>
      <trkpt lat="47.27687" lon="-2.3574">
        <ele>6.4000000953674</ele>
        <time>2021-07-01T10:15:48.000Z</time>
      </trkpt>
      <trkpt lat="47.27681" lon="-2.35749">
        <ele>6</ele>
        <time>2021-07-01T10:15:50.000Z</time>
      </trkpt>
      <trkpt lat="47.27677" lon="-2.3575">
        <ele>5.5999999046326</ele>
        <time>2021-07-01T10:15:51.000Z</time>
      </trkpt>
      <trkpt lat="47.27672" lon="-2.35749">
        <ele>5.1999998092651</ele>
        <time>2021-07-01T10:15:52.000Z</time>
      </trkpt>
      <trkpt lat="47.27668" lon="-2.35745">
        <ele>4.8000001907349</ele>
        <time>2021-07-01T10:15:53.000Z</time>
      </trkpt>
      <trkpt lat="47.27665" lon="-2.35739">
        <ele>4.4000000953674</ele>
        <time>2021-07-01T10:15:54.000Z</time>
      </trkpt>
      <trkpt lat="47.27662" lon="-2.35734">
        <ele>4.4000000953674</ele>
        <time>2021-07-01T10:15:55.000Z</time>
      </trkpt>
      <trkpt lat="47.2765" lon="-2.35721">
        <ele>4.4000000953674</ele>
        <time>2021-07-01T10:15:58.000Z</time>
      </trkpt>
      <trkpt lat="47.27645" lon="-2.35719">
        <ele>4.4000000953674</ele>
        <time>2021-07-01T10:15:59.000Z</time>
      </trkpt>
      <trkpt lat="47.27608" lon="-2.35708">
        <ele>4.4000000953674</ele>
        <time>2021-07-01T10:16:05.000Z</time>
      </trkpt>
      <trkpt lat="47.2757" lon="-2.357">
        <ele>4</ele>
        <time>2021-07-01T10:16:11.000Z</time>
      </trkpt>
      <trkpt lat="47.27564" lon="-2.35699">
        <ele>3.5999999046326</ele>
        <time>2021-07-01T10:16:12.000Z</time>
      </trkpt>
      <trkpt lat="47.27558" lon="-2.35698">
        <ele>3.2000000476837</ele>
        <time>2021-07-01T10:16:13.000Z</time>
      </trkpt>
      <trkpt lat="47.27552" lon="-2.35697">
        <ele>2.7999999523163</ele>
        <time>2021-07-01T10:16:14.000Z</time>
      </trkpt>
      <trkpt lat="47.27547" lon="-2.35695">
        <ele>2.4000000953674</ele>
        <time>2021-07-01T10:16:15.000Z</time>
      </trkpt>
      <trkpt lat="47.27531" lon="-2.35689">
        <ele>2.4000000953674</ele>
        <time>2021-07-01T10:16:18.000Z</time>
      </trkpt>
      <trkpt lat="47.2752" lon="-2.35688">
        <ele>2.4000000953674</ele>
        <time>2021-07-01T10:16:20.000Z</time>
      </trkpt>
      <trkpt lat="47.27503" lon="-2.35686">
        <ele>2.4000000953674</ele>
        <time>2021-07-01T10:16:23.000Z</time>
      </trkpt>
      <trkpt lat="47.27475" lon="-2.3568">
        <ele>1.7999999523163</ele>
        <time>2021-07-01T10:16:28.000Z</time>
      </trkpt>
      <trkpt lat="47.2747" lon="-2.35679">
        <ele>1.3999999761581</ele>
        <time>2021-07-01T10:16:29.000Z</time>
      </trkpt>
      <trkpt lat="47.27465" lon="-2.35678">
        <ele>0.60000002384186</ele>
        <time>2021-07-01T10:16:30.000Z</time>
      </trkpt>
      <trkpt lat="47.2746" lon="-2.35677">
        <ele>0.20000000298023</ele>
        <time>2021-07-01T10:16:31.000Z</time>
      </trkpt>
      <trkpt lat="47.27433" lon="-2.35672">
        <ele>0.20000000298023</ele>
        <time>2021-07-01T10:16:37.000Z</time>
      </trkpt>
      <trkpt lat="47.27416" lon="-2.35669">
        <ele>0.20000000298023</ele>
        <time>2021-07-01T10:16:41.000Z</time>
      </trkpt>
      <trkpt lat="47.27406" lon="-2.3567">
        <ele>0.20000000298023</ele>
        <time>2021-07-01T10:16:43.000Z</time>
      </trkpt>
      <trkpt lat="47.27401" lon="-2.35672">
        <ele>0.20000000298023</ele>
        <time>2021-07-01T10:16:44.000Z</time>
      </trkpt>
      <trkpt lat="47.27383" lon="-2.35684">
        <ele>0.20000000298023</ele>
        <time>2021-07-01T10:16:48.000Z</time>
      </trkpt>
      <trkpt lat="47.27354" lon="-2.35704">
        <ele>0.20000000298023</ele>
        <time>2021-07-01T10:16:54.000Z</time>
      </trkpt>
      <trkpt lat="47.27332" lon="-2.35722">
        <ele>0.20000000298023</ele>
        <time>2021-07-01T10:16:59.000Z</time>
      </trkpt>
      <trkpt lat="47.27326" lon="-2.35731">
        <ele>0.20000000298023</ele>
        <time>2021-07-01T10:17:01.000Z</time>
      </trkpt>
      <trkpt lat="47.27317" lon="-2.35744">
        <ele>0.20000000298023</ele>
        <time>2021-07-01T10:17:05.000Z</time>
      </trkpt>
      <trkpt lat="47.27313" lon="-2.35745">
        <ele>0.20000000298023</ele>
        <time>2021-07-01T10:17:06.000Z</time>
      </trkpt>
      <trkpt lat="47.27306" lon="-2.35742">
        <ele>0.20000000298023</ele>
        <time>2021-07-01T10:17:08.000Z</time>
      </trkpt>
      <trkpt lat="47.27303" lon="-2.35725">
        <ele>0.20000000298023</ele>
        <time>2021-07-01T10:17:11.000Z</time>
      </trkpt>
      <trkpt lat="47.27299" lon="-2.35712">
        <ele>0.20000000298023</ele>
        <time>2021-07-01T10:17:13.000Z</time>
      </trkpt>
      <trkpt lat="47.2729" lon="-2.35695">
        <ele>0.20000000298023</ele>
        <time>2021-07-01T10:17:16.000Z</time>
      </trkpt>
      <trkpt lat="47.27265" lon="-2.3564">
        <ele>0.20000000298023</ele>
        <time>2021-07-01T10:17:25.000Z</time>
      </trkpt>
      <trkpt lat="47.27259" lon="-2.35629">
        <ele>0.20000000298023</ele>
        <time>2021-07-01T10:17:27.000Z</time>
      </trkpt>
      <trkpt lat="47.27238" lon="-2.35583">
        <ele>0.20000000298023</ele>
        <time>2021-07-01T10:17:35.000Z</time>
      </trkpt>
      <trkpt lat="47.27215" lon="-2.35531">
        <ele>0.20000000298023</ele>
        <time>2021-07-01T10:17:44.000Z</time>
      </trkpt>
      <trkpt lat="47.27187" lon="-2.35473">
        <ele>0.20000000298023</ele>
        <time>2021-07-01T10:17:54.000Z</time>
      </trkpt>
      <trkpt lat="47.27161" lon="-2.35421">
        <ele>0.20000000298023</ele>
        <time>2021-07-01T10:18:03.000Z</time>
      </trkpt>
      <trkpt lat="47.27129" lon="-2.35363">
        <ele>0.20000000298023</ele>
        <time>2021-07-01T10:18:13.000Z</time>
      </trkpt>
      <trkpt lat="47.27102" lon="-2.35319">
        <ele>0.20000000298023</ele>
        <time>2021-07-01T10:18:21.000Z</time>
      </trkpt>
      <trkpt lat="47.27077" lon="-2.35279">
        <ele>0.20000000298023</ele>
        <time>2021-07-01T10:18:28.000Z</time>
      </trkpt>
      <trkpt lat="47.27047" lon="-2.35233">
        <ele>0.20000000298023</ele>
        <time>2021-07-01T10:18:36.000Z</time>
      </trkpt>
      <trkpt lat="47.27014" lon="-2.35182">
        <ele>0.20000000298023</ele>
        <time>2021-07-01T10:18:45.000Z</time>
      </trkpt>
      <trkpt lat="47.26988" lon="-2.35141">
        <ele>0.20000000298023</ele>
        <time>2021-07-01T10:18:52.000Z</time>
      </trkpt>
      <trkpt lat="47.26953" lon="-2.35088">
        <ele>0.20000000298023</ele>
        <time>2021-07-01T10:19:01.000Z</time>
      </trkpt>
      <trkpt lat="47.26917" lon="-2.35035">
        <ele>0.20000000298023</ele>
        <time>2021-07-01T10:19:10.000Z</time>
      </trkpt>
      <trkpt lat="47.26882" lon="-2.34982">
        <ele>0.20000000298023</ele>
        <time>2021-07-01T10:19:19.000Z</time>
      </trkpt>
      <trkpt lat="47.26848" lon="-2.34929">
        <ele>0.20000000298023</ele>
        <time>2021-07-01T10:19:28.000Z</time>
      </trkpt>
      <trkpt lat="47.26816" lon="-2.34882">
        <ele>0.20000000298023</ele>
        <time>2021-07-01T10:19:36.000Z</time>
      </trkpt>
      <trkpt lat="47.26784" lon="-2.34835">
        <ele>0.20000000298023</ele>
        <time>2021-07-01T10:19:44.000Z</time>
      </trkpt>
      <trkpt lat="47.26756" lon="-2.34798">
        <ele>0.20000000298023</ele>
        <time>2021-07-01T10:19:51.000Z</time>
      </trkpt>
      <trkpt lat="47.26723" lon="-2.34757">
        <ele>0.20000000298023</ele>
        <time>2021-07-01T10:19:58.000Z</time>
      </trkpt>
      <trkpt lat="47.26687" lon="-2.34714">
        <ele>0.20000000298023</ele>
        <time>2021-07-01T10:20:06.000Z</time>
      </trkpt>
      <trkpt lat="47.26648" lon="-2.34666">
        <ele>0.20000000298023</ele>
        <time>2021-07-01T10:20:15.000Z</time>
      </trkpt>
      <trkpt lat="47.26616" lon="-2.34625">
        <ele>0.20000000298023</ele>
        <time>2021-07-01T10:20:23.000Z</time>
      </trkpt>
      <trkpt lat="47.2659" lon="-2.34594">
        <ele>0.20000000298023</ele>
        <time>2021-07-01T10:20:30.000Z</time>
      </trkpt>
      <trkpt lat="47.26578" lon="-2.34581">
        <ele>0.20000000298023</ele>
        <time>2021-07-01T10:20:33.000Z</time>
      </trkpt>
      <trkpt lat="47.26565" lon="-2.34568">
        <ele>0.20000000298023</ele>
        <time>2021-07-01T10:20:36.000Z</time>
      </trkpt>
      <trkpt lat="47.26526" lon="-2.34529">
        <ele>0.20000000298023</ele>
        <time>2021-07-01T10:20:45.000Z</time>
      </trkpt>
      <trkpt lat="47.26498" lon="-2.34508">
        <ele>0.20000000298023</ele>
        <time>2021-07-01T10:20:51.000Z</time>
      </trkpt>
      <trkpt lat="47.26449" lon="-2.34474">
        <ele>0.20000000298023</ele>
        <time>2021-07-01T10:21:01.000Z</time>
      </trkpt>
      <trkpt lat="47.26411" lon="-2.34444">
        <ele>0.20000000298023</ele>
        <time>2021-07-01T10:21:09.000Z</time>
      </trkpt>
      <trkpt lat="47.26366" lon="-2.34406">
        <ele>0.20000000298023</ele>
        <time>2021-07-01T10:21:18.000Z</time>
      </trkpt>
      <trkpt lat="47.26341" lon="-2.34383">
        <ele>0.20000000298023</ele>
        <time>2021-07-01T10:21:24.000Z</time>
      </trkpt>
      <trkpt lat="47.26337" lon="-2.3438">
        <ele>0.20000000298023</ele>
        <time>2021-07-01T10:21:25.000Z</time>
      </trkpt>
      <trkpt lat="47.26324" lon="-2.34377">
        <ele>0.20000000298023</ele>
        <time>2021-07-01T10:21:28.000Z</time>
      </trkpt>
      <trkpt lat="47.26315" lon="-2.34361">
        <ele>0.20000000298023</ele>
        <time>2021-07-01T10:21:31.000Z</time>
      </trkpt>
      <trkpt lat="47.263" lon="-2.34342">
        <ele>0.20000000298023</ele>
        <time>2021-07-01T10:21:35.000Z</time>
      </trkpt>
      <trkpt lat="47.26258" lon="-2.34299">
        <ele>0.20000000298023</ele>
        <time>2021-07-01T10:21:45.000Z</time>
      </trkpt>
      <trkpt lat="47.26225" lon="-2.34264">
        <ele>0.20000000298023</ele>
        <time>2021-07-01T10:21:53.000Z</time>
      </trkpt>
      <trkpt lat="47.26192" lon="-2.34231">
        <ele>0.20000000298023</ele>
        <time>2021-07-01T10:22:01.000Z</time>
      </trkpt>
      <trkpt lat="47.26154" lon="-2.34194">
        <ele>0.20000000298023</ele>
        <time>2021-07-01T10:22:10.000Z</time>
      </trkpt>
      <trkpt lat="47.2614" lon="-2.34184">
        <ele>0.20000000298023</ele>
        <time>2021-07-01T10:22:13.000Z</time>
      </trkpt>
      <trkpt lat="47.26125" lon="-2.34174">
        <ele>0.20000000298023</ele>
        <time>2021-07-01T10:22:16.000Z</time>
      </trkpt>
      <trkpt lat="47.26117" lon="-2.34165">
        <ele>0.20000000298023</ele>
        <time>2021-07-01T10:22:18.000Z</time>
      </trkpt>
      <trkpt lat="47.26112" lon="-2.34161">
        <ele>0.20000000298023</ele>
        <time>2021-07-01T10:22:19.000Z</time>
      </trkpt>
      <trkpt lat="47.26102" lon="-2.34156">
        <ele>0.20000000298023</ele>
        <time>2021-07-01T10:22:21.000Z</time>
      </trkpt>
      <trkpt lat="47.2606" lon="-2.34134">
        <ele>0.20000000298023</ele>
        <time>2021-07-01T10:22:29.000Z</time>
      </trkpt>
      <trkpt lat="47.26025" lon="-2.34116">
        <ele>0.20000000298023</ele>
        <time>2021-07-01T10:22:36.000Z</time>
      </trkpt>
      <trkpt lat="47.25989" lon="-2.34098">
        <ele>0.20000000298023</ele>
        <time>2021-07-01T10:22:43.000Z</time>
      </trkpt>
      <trkpt lat="47.25948" lon="-2.34081">
        <ele>0.20000000298023</ele>
        <time>2021-07-01T10:22:51.000Z</time>
      </trkpt>
      <trkpt lat="47.25942" lon="-2.34078">
        <ele>-0.20000000298023</ele>
        <time>2021-07-01T10:22:52.000Z</time>
      </trkpt>
      <trkpt lat="47.25937" lon="-2.34076">
        <ele>-0.60000002384186</ele>
        <time>2021-07-01T10:22:53.000Z</time>
      </trkpt>
      <trkpt lat="47.25932" lon="-2.34074">
        <ele>-1</ele>
        <time>2021-07-01T10:22:54.000Z</time>
      </trkpt>
      <trkpt lat="47.25927" lon="-2.34072">
        <ele>-1.3999999761581</ele>
        <time>2021-07-01T10:22:55.000Z</time>
      </trkpt>
      <trkpt lat="47.25921" lon="-2.34072">
        <ele>-2</ele>
        <time>2021-07-01T10:22:56.000Z</time>
      </trkpt>
      <trkpt lat="47.25911" lon="-2.34074">
        <ele>-2</ele>
        <time>2021-07-01T10:22:58.000Z</time>
      </trkpt>
      <trkpt lat="47.25906" lon="-2.34072">
        <ele>-2</ele>
        <time>2021-07-01T10:22:59.000Z</time>
      </trkpt>
      <trkpt lat="47.25899" lon="-2.34062">
        <ele>-2</ele>
        <time>2021-07-01T10:23:01.000Z</time>
      </trkpt>
      <trkpt lat="47.25896" lon="-2.34048">
        <ele>-2</ele>
        <time>2021-07-01T10:23:03.000Z</time>
      </trkpt>
      <trkpt lat="47.259" lon="-2.34028">
        <ele>-2</ele>
        <time>2021-07-01T10:23:06.000Z</time>
      </trkpt>
      <trkpt lat="47.25908" lon="-2.3401">
        <ele>-2</ele>
        <time>2021-07-01T10:23:09.000Z</time>
      </trkpt>
      <trkpt lat="47.2591" lon="-2.34003">
        <ele>-2</ele>
        <time>2021-07-01T10:23:10.000Z</time>
      </trkpt>
      <trkpt lat="47.25911" lon="-2.33997">
        <ele>-2</ele>
        <time>2021-07-01T10:23:11.000Z</time>
      </trkpt>
      <trkpt lat="47.25917" lon="-2.33978">
        <ele>-2</ele>
        <time>2021-07-01T10:23:14.000Z</time>
      </trkpt>
      <trkpt lat="47.2592" lon="-2.33972">
        <ele>-2</ele>
        <time>2021-07-01T10:23:15.000Z</time>
      </trkpt>
      <trkpt lat="47.25937" lon="-2.33936">
        <ele>-2</ele>
        <time>2021-07-01T10:23:22.000Z</time>
      </trkpt>
      <trkpt lat="47.25945" lon="-2.33926">
        <ele>-2.4000000953674</ele>
        <time>2021-07-01T10:23:26.000Z</time>
      </trkpt>
      <trkpt lat="47.25946" lon="-2.33925">
        <ele>-2.7999999523163</ele>
        <time>2021-07-01T10:23:27.000Z</time>
      </trkpt>
      <trkpt lat="47.25946" lon="-2.33923">
        <ele>-3.2000000476837</ele>
        <time>2021-07-01T10:23:28.000Z</time>
      </trkpt>
      <trkpt lat="47.25947" lon="-2.33922">
        <ele>-3.5999999046326</ele>
        <time>2021-07-01T10:23:29.000Z</time>
      </trkpt>
      <trkpt lat="47.25947" lon="-2.3392">
        <ele>-4</ele>
        <time>2021-07-01T10:23:30.000Z</time>
      </trkpt>
      <trkpt lat="47.25947" lon="-2.33917">
        <ele>-4</ele>
        <time>2021-07-01T10:23:31.000Z</time>
      </trkpt>
      <trkpt lat="47.25947" lon="-2.33913">
        <ele>-4</ele>
        <time>2021-07-01T10:23:32.000Z</time>
      </trkpt>
      <trkpt lat="47.25955" lon="-2.33889">
        <ele>-4</ele>
        <time>2021-07-01T10:23:39.000Z</time>
      </trkpt>
      <trkpt lat="47.25958" lon="-2.33879">
        <ele>-4</ele>
        <time>2021-07-01T10:23:41.000Z</time>
      </trkpt>
      <trkpt lat="47.25964" lon="-2.33858">
        <ele>-4</ele>
        <time>2021-07-01T10:23:44.000Z</time>
      </trkpt>
      <trkpt lat="47.25984" lon="-2.33791">
        <ele>-4</ele>
        <time>2021-07-01T10:23:53.000Z</time>
      </trkpt>
      <trkpt lat="47.25987" lon="-2.33783">
        <ele>-4</ele>
        <time>2021-07-01T10:23:54.000Z</time>
      </trkpt>
      <trkpt lat="47.25998" lon="-2.33752">
        <ele>-4</ele>
        <time>2021-07-01T10:23:58.000Z</time>
      </trkpt>
      <trkpt lat="47.26018" lon="-2.3369">
        <ele>-4</ele>
        <time>2021-07-01T10:24:06.000Z</time>
      </trkpt>
      <trkpt lat="47.26022" lon="-2.33676">
        <ele>-4</ele>
        <time>2021-07-01T10:24:08.000Z</time>
      </trkpt>
      <trkpt lat="47.26028" lon="-2.33666">
        <ele>-4</ele>
        <time>2021-07-01T10:24:10.000Z</time>
      </trkpt>
      <trkpt lat="47.2604" lon="-2.33666">
        <ele>-4</ele>
        <time>2021-07-01T10:24:13.000Z</time>
      </trkpt>
      <trkpt lat="47.26046" lon="-2.33669">
        <ele>-4</ele>
        <time>2021-07-01T10:24:16.000Z</time>
      </trkpt>
      <trkpt lat="47.26049" lon="-2.3367">
        <ele>-4</ele>
        <time>2021-07-01T10:24:17.000Z</time>
      </trkpt>
      <trkpt lat="47.26051" lon="-2.33669">
        <ele>-4</ele>
        <time>2021-07-01T10:24:18.000Z</time>
      </trkpt>
      <trkpt lat="47.26058" lon="-2.33653">
        <ele>-4</ele>
        <time>2021-07-01T10:24:21.000Z</time>
      </trkpt>
      <trkpt lat="47.2607" lon="-2.33613">
        <ele>-4</ele>
        <time>2021-07-01T10:24:26.000Z</time>
      </trkpt>
      <trkpt lat="47.26084" lon="-2.33574">
        <ele>-4</ele>
        <time>2021-07-01T10:24:31.000Z</time>
      </trkpt>
      <trkpt lat="47.261" lon="-2.33528">
        <ele>-4</ele>
        <time>2021-07-01T10:24:37.000Z</time>
      </trkpt>
      <trkpt lat="47.26115" lon="-2.33489">
        <ele>-4</ele>
        <time>2021-07-01T10:24:43.000Z</time>
      </trkpt>
      <trkpt lat="47.26127" lon="-2.33456">
        <ele>-4</ele>
        <time>2021-07-01T10:24:49.000Z</time>
      </trkpt>
      <trkpt lat="47.26133" lon="-2.33434">
        <ele>-4</ele>
        <time>2021-07-01T10:24:54.000Z</time>
      </trkpt>
      <trkpt lat="47.26131" lon="-2.33424">
        <ele>-4</ele>
        <time>2021-07-01T10:24:58.000Z</time>
      </trkpt>
      <trkpt lat="47.26134" lon="-2.3342">
        <ele>-4</ele>
        <time>2021-07-01T10:25:01.000Z</time>
      </trkpt>
      <trkpt lat="47.26139" lon="-2.33428">
        <ele>-4</ele>
        <time>2021-07-01T10:25:05.000Z</time>
      </trkpt>
      <trkpt lat="47.26138" lon="-2.33428">
        <ele>-4</ele>
        <time>2021-07-01T10:25:28.000Z</time>
      </trkpt>
      <trkpt lat="47.26134" lon="-2.33432">
        <ele>-4</ele>
        <time>2021-07-01T10:25:31.000Z</time>
      </trkpt>
      <trkpt lat="47.26126" lon="-2.33425">
        <ele>-4</ele>
        <time>2021-07-01T10:25:34.000Z</time>
      </trkpt>
      <trkpt lat="47.26124" lon="-2.33422">
        <ele>-4</ele>
        <time>2021-07-01T10:25:35.000Z</time>
      </trkpt>
      <trkpt lat="47.26119" lon="-2.33412">
        <ele>-4</ele>
        <time>2021-07-01T10:25:37.000Z</time>
      </trkpt>
      <trkpt lat="47.26112" lon="-2.33402">
        <ele>-4</ele>
        <time>2021-07-01T10:25:39.000Z</time>
      </trkpt>
      <trkpt lat="47.26098" lon="-2.33383">
        <ele>-4</ele>
        <time>2021-07-01T10:25:43.000Z</time>
      </trkpt>
      <trkpt lat="47.26086" lon="-2.33369">
        <ele>-4</ele>
        <time>2021-07-01T10:25:46.000Z</time>
      </trkpt>
      <trkpt lat="47.26082" lon="-2.33363">
        <ele>-4</ele>
        <time>2021-07-01T10:25:47.000Z</time>
      </trkpt>
      <trkpt lat="47.26072" lon="-2.33341">
        <ele>-4</ele>
        <time>2021-07-01T10:25:50.000Z</time>
      </trkpt>
      <trkpt lat="47.26048" lon="-2.33272">
        <ele>-4</ele>
        <time>2021-07-01T10:25:59.000Z</time>
      </trkpt>
      <trkpt lat="47.26027" lon="-2.33213">
        <ele>-4</ele>
        <time>2021-07-01T10:26:07.000Z</time>
      </trkpt>
      <trkpt lat="47.26006" lon="-2.33154">
        <ele>-4</ele>
        <time>2021-07-01T10:26:15.000Z</time>
      </trkpt>
      <trkpt lat="47.25994" lon="-2.33117">
        <ele>-4</ele>
        <time>2021-07-01T10:26:20.000Z</time>
      </trkpt>
      <trkpt lat="47.25992" lon="-2.33108">
        <ele>-4</ele>
        <time>2021-07-01T10:26:21.000Z</time>
      </trkpt>
      <trkpt lat="47.25989" lon="-2.33091">
        <ele>-4</ele>
        <time>2021-07-01T10:26:23.000Z</time>
      </trkpt>
      <trkpt lat="47.25982" lon="-2.33075">
        <ele>-4</ele>
        <time>2021-07-01T10:26:25.000Z</time>
      </trkpt>
      <trkpt lat="47.25976" lon="-2.33062">
        <ele>-4</ele>
        <time>2021-07-01T10:26:27.000Z</time>
      </trkpt>
      <trkpt lat="47.25962" lon="-2.33022">
        <ele>-4</ele>
        <time>2021-07-01T10:26:32.000Z</time>
      </trkpt>
      <trkpt lat="47.25946" lon="-2.32974">
        <ele>-4</ele>
        <time>2021-07-01T10:26:38.000Z</time>
      </trkpt>
      <trkpt lat="47.25925" lon="-2.32917">
        <ele>-4</ele>
        <time>2021-07-01T10:26:45.000Z</time>
      </trkpt>
      <trkpt lat="47.25904" lon="-2.32862">
        <ele>-4</ele>
        <time>2021-07-01T10:26:52.000Z</time>
      </trkpt>
      <trkpt lat="47.25888" lon="-2.32814">
        <ele>-3.5999999046326</ele>
        <time>2021-07-01T10:26:58.000Z</time>
      </trkpt>
      <trkpt lat="47.25885" lon="-2.32806">
        <ele>-3</ele>
        <time>2021-07-01T10:26:59.000Z</time>
      </trkpt>
      <trkpt lat="47.25882" lon="-2.32799">
        <ele>-2.5999999046326</ele>
        <time>2021-07-01T10:27:00.000Z</time>
      </trkpt>
      <trkpt lat="47.2588" lon="-2.32791">
        <ele>-2.2000000476837</ele>
        <time>2021-07-01T10:27:01.000Z</time>
      </trkpt>
      <trkpt lat="47.25877" lon="-2.32783">
        <ele>-1.7999999523163</ele>
        <time>2021-07-01T10:27:02.000Z</time>
      </trkpt>
      <trkpt lat="47.2587" lon="-2.32758">
        <ele>-1.7999999523163</ele>
        <time>2021-07-01T10:27:05.000Z</time>
      </trkpt>
      <trkpt lat="47.25863" lon="-2.32728">
        <ele>-1.7999999523163</ele>
        <time>2021-07-01T10:27:09.000Z</time>
      </trkpt>
      <trkpt lat="47.25863" lon="-2.32722">
        <ele>-1.7999999523163</ele>
        <time>2021-07-01T10:27:10.000Z</time>
      </trkpt>
      <trkpt lat="47.25857" lon="-2.32704">
        <ele>-1.7999999523163</ele>
        <time>2021-07-01T10:27:13.000Z</time>
      </trkpt>
      <trkpt lat="47.25847" lon="-2.3268">
        <ele>-1.7999999523163</ele>
        <time>2021-07-01T10:27:17.000Z</time>
      </trkpt>
      <trkpt lat="47.25843" lon="-2.32665">
        <ele>-1.7999999523163</ele>
        <time>2021-07-01T10:27:19.000Z</time>
      </trkpt>
      <trkpt lat="47.25835" lon="-2.32635">
        <ele>-1.7999999523163</ele>
        <time>2021-07-01T10:27:23.000Z</time>
      </trkpt>
      <trkpt lat="47.25819" lon="-2.32573">
        <ele>-1.7999999523163</ele>
        <time>2021-07-01T10:27:31.000Z</time>
      </trkpt>
      <trkpt lat="47.25802" lon="-2.32503">
        <ele>-1.7999999523163</ele>
        <time>2021-07-01T10:27:40.000Z</time>
      </trkpt>
      <trkpt lat="47.25799" lon="-2.32484">
        <ele>-1.7999999523163</ele>
        <time>2021-07-01T10:27:43.000Z</time>
      </trkpt>
      <trkpt lat="47.258" lon="-2.32471">
        <ele>-1.7999999523163</ele>
        <time>2021-07-01T10:27:45.000Z</time>
      </trkpt>
      <trkpt lat="47.25805" lon="-2.32463">
        <ele>-1.7999999523163</ele>
        <time>2021-07-01T10:27:47.000Z</time>
      </trkpt>
      <trkpt lat="47.25807" lon="-2.32459">
        <ele>-1.7999999523163</ele>
        <time>2021-07-01T10:27:48.000Z</time>
      </trkpt>
      <trkpt lat="47.25811" lon="-2.32457">
        <ele>-1.7999999523163</ele>
        <time>2021-07-01T10:27:49.000Z</time>
      </trkpt>
      <trkpt lat="47.25819" lon="-2.32459">
        <ele>-2.2000000476837</ele>
        <time>2021-07-01T10:27:51.000Z</time>
      </trkpt>
      <trkpt lat="47.25824" lon="-2.32461">
        <ele>-2.5999999046326</ele>
        <time>2021-07-01T10:27:52.000Z</time>
      </trkpt>
      <trkpt lat="47.25829" lon="-2.32464">
        <ele>-3</ele>
        <time>2021-07-01T10:27:53.000Z</time>
      </trkpt>
      <trkpt lat="47.25833" lon="-2.32466">
        <ele>-3.4000000953674</ele>
        <time>2021-07-01T10:27:54.000Z</time>
      </trkpt>
      <trkpt lat="47.25838" lon="-2.32468">
        <ele>-3.7999999523163</ele>
        <time>2021-07-01T10:27:55.000Z</time>
      </trkpt>
      <trkpt lat="47.25844" lon="-2.3247">
        <ele>-3.7999999523163</ele>
        <time>2021-07-01T10:27:56.000Z</time>
      </trkpt>
      <trkpt lat="47.25849" lon="-2.32471">
        <ele>-3.7999999523163</ele>
        <time>2021-07-01T10:27:57.000Z</time>
      </trkpt>
      <trkpt lat="47.25864" lon="-2.32472">
        <ele>-3.7999999523163</ele>
        <time>2021-07-01T10:28:00.000Z</time>
      </trkpt>
      <trkpt lat="47.25879" lon="-2.3247">
        <ele>-3.7999999523163</ele>
        <time>2021-07-01T10:28:03.000Z</time>
      </trkpt>
      <trkpt lat="47.2589" lon="-2.32467">
        <ele>-3.7999999523163</ele>
        <time>2021-07-01T10:28:05.000Z</time>
      </trkpt>
      <trkpt lat="47.25899" lon="-2.32459">
        <ele>-3.7999999523163</ele>
        <time>2021-07-01T10:28:07.000Z</time>
      </trkpt>
      <trkpt lat="47.25926" lon="-2.32425">
        <ele>-3.7999999523163</ele>
        <time>2021-07-01T10:28:13.000Z</time>
      </trkpt>
      <trkpt lat="47.25955" lon="-2.32387">
        <ele>-3.7999999523163</ele>
        <time>2021-07-01T10:28:20.000Z</time>
      </trkpt>
      <trkpt lat="47.25985" lon="-2.32349">
        <ele>-3.7999999523163</ele>
        <time>2021-07-01T10:28:27.000Z</time>
      </trkpt>
      <trkpt lat="47.2602" lon="-2.32306">
        <ele>-3.7999999523163</ele>
        <time>2021-07-01T10:28:35.000Z</time>
      </trkpt>
      <trkpt lat="47.26047" lon="-2.32276">
        <ele>-3.7999999523163</ele>
        <time>2021-07-01T10:28:41.000Z</time>
      </trkpt>
      <trkpt lat="47.26076" lon="-2.32242">
        <ele>-3.7999999523163</ele>
        <time>2021-07-01T10:28:48.000Z</time>
      </trkpt>
      <trkpt lat="47.26096" lon="-2.32215">
        <ele>-3.7999999523163</ele>
        <time>2021-07-01T10:28:53.000Z</time>
      </trkpt>
      <trkpt lat="47.26099" lon="-2.32208">
        <ele>-3.7999999523163</ele>
        <time>2021-07-01T10:28:54.000Z</time>
      </trkpt>
      <trkpt lat="47.26116" lon="-2.32167">
        <ele>-3.7999999523163</ele>
        <time>2021-07-01T10:29:00.000Z</time>
      </trkpt>
      <trkpt lat="47.26129" lon="-2.32132">
        <ele>-3.7999999523163</ele>
        <time>2021-07-01T10:29:05.000Z</time>
      </trkpt>
      <trkpt lat="47.26143" lon="-2.32084">
        <ele>-3.7999999523163</ele>
        <time>2021-07-01T10:29:12.000Z</time>
      </trkpt>
      <trkpt lat="47.26151" lon="-2.32059">
        <ele>-3.7999999523163</ele>
        <time>2021-07-01T10:29:16.000Z</time>
      </trkpt>
      <trkpt lat="47.26154" lon="-2.32047">
        <ele>-3.7999999523163</ele>
        <time>2021-07-01T10:29:18.000Z</time>
      </trkpt>
      <trkpt lat="47.26163" lon="-2.32025">
        <ele>-3.7999999523163</ele>
        <time>2021-07-01T10:29:22.000Z</time>
      </trkpt>
      <trkpt lat="47.26167" lon="-2.32021">
        <ele>-3.7999999523163</ele>
        <time>2021-07-01T10:29:23.000Z</time>
      </trkpt>
      <trkpt lat="47.26179" lon="-2.32019">
        <ele>-3.7999999523163</ele>
        <time>2021-07-01T10:29:26.000Z</time>
      </trkpt>
      <trkpt lat="47.26186" lon="-2.3202">
        <ele>-3.7999999523163</ele>
        <time>2021-07-01T10:29:28.000Z</time>
      </trkpt>
      <trkpt lat="47.26191" lon="-2.32022">
        <ele>-3.7999999523163</ele>
        <time>2021-07-01T10:29:30.000Z</time>
      </trkpt>
      <trkpt lat="47.26197" lon="-2.32022">
        <ele>-3.7999999523163</ele>
        <time>2021-07-01T10:29:33.000Z</time>
      </trkpt>
      <trkpt lat="47.26199" lon="-2.32015">
        <ele>-3.7999999523163</ele>
        <time>2021-07-01T10:29:35.000Z</time>
      </trkpt>
      <trkpt lat="47.26201" lon="-2.32003">
        <ele>-3.7999999523163</ele>
        <time>2021-07-01T10:29:38.000Z</time>
      </trkpt>
      <trkpt lat="47.26203" lon="-2.32001">
        <ele>-3.7999999523163</ele>
        <time>2021-07-01T10:29:39.000Z</time>
      </trkpt>
      <trkpt lat="47.26214" lon="-2.31991">
        <ele>-3.7999999523163</ele>
        <time>2021-07-01T10:29:44.000Z</time>
      </trkpt>
      <trkpt lat="47.26216" lon="-2.31988">
        <ele>-3.7999999523163</ele>
        <time>2021-07-01T10:29:45.000Z</time>
      </trkpt>
      <trkpt lat="47.26223" lon="-2.31979">
        <ele>-3.7999999523163</ele>
        <time>2021-07-01T10:29:48.000Z</time>
      </trkpt>
      <trkpt lat="47.26226" lon="-2.31978">
        <ele>-3.7999999523163</ele>
        <time>2021-07-01T10:29:49.000Z</time>
      </trkpt>
      <trkpt lat="47.26239" lon="-2.31969">
        <ele>-3.7999999523163</ele>
        <time>2021-07-01T10:29:53.000Z</time>
      </trkpt>
      <trkpt lat="47.26246" lon="-2.31955">
        <ele>-3.7999999523163</ele>
        <time>2021-07-01T10:29:56.000Z</time>
      </trkpt>
      <trkpt lat="47.26251" lon="-2.31946">
        <ele>-3.7999999523163</ele>
        <time>2021-07-01T10:29:58.000Z</time>
      </trkpt>
      <trkpt lat="47.26263" lon="-2.31926">
        <ele>-3.7999999523163</ele>
        <time>2021-07-01T10:30:03.000Z</time>
      </trkpt>
      <trkpt lat="47.26275" lon="-2.31906">
        <ele>-3.7999999523163</ele>
        <time>2021-07-01T10:30:09.000Z</time>
      </trkpt>
      <trkpt lat="47.26292" lon="-2.3189">
        <ele>-3.7999999523163</ele>
        <time>2021-07-01T10:30:14.000Z</time>
      </trkpt>
      <trkpt lat="47.26293" lon="-2.31885">
        <ele>-3.7999999523163</ele>
        <time>2021-07-01T10:30:15.000Z</time>
      </trkpt>
      <trkpt lat="47.26297" lon="-2.31862">
        <ele>-3.7999999523163</ele>
        <time>2021-07-01T10:30:19.000Z</time>
      </trkpt>
      <trkpt lat="47.26298" lon="-2.31856">
        <ele>-3.7999999523163</ele>
        <time>2021-07-01T10:30:20.000Z</time>
      </trkpt>
      <trkpt lat="47.263" lon="-2.31821">
        <ele>-3.7999999523163</ele>
        <time>2021-07-01T10:30:26.000Z</time>
      </trkpt>
      <trkpt lat="47.26302" lon="-2.31774">
        <ele>-3.7999999523163</ele>
        <time>2021-07-01T10:30:34.000Z</time>
      </trkpt>
      <trkpt lat="47.26299" lon="-2.31743">
        <ele>-3.7999999523163</ele>
        <time>2021-07-01T10:30:39.000Z</time>
      </trkpt>
      <trkpt lat="47.26299" lon="-2.3173">
        <ele>-3.7999999523163</ele>
        <time>2021-07-01T10:30:41.000Z</time>
      </trkpt>
      <trkpt lat="47.26303" lon="-2.31719">
        <ele>-3.7999999523163</ele>
        <time>2021-07-01T10:30:43.000Z</time>
      </trkpt>
      <trkpt lat="47.2631" lon="-2.31714">
        <ele>-3.7999999523163</ele>
        <time>2021-07-01T10:30:45.000Z</time>
      </trkpt>
      <trkpt lat="47.26317" lon="-2.31711">
        <ele>-3.7999999523163</ele>
        <time>2021-07-01T10:30:47.000Z</time>
      </trkpt>
      <trkpt lat="47.26329" lon="-2.31701">
        <ele>-3.7999999523163</ele>
        <time>2021-07-01T10:30:51.000Z</time>
      </trkpt>
      <trkpt lat="47.2633" lon="-2.31697">
        <ele>-3.4000000953674</ele>
        <time>2021-07-01T10:30:52.000Z</time>
      </trkpt>
      <trkpt lat="47.26332" lon="-2.31692">
        <ele>-3</ele>
        <time>2021-07-01T10:30:53.000Z</time>
      </trkpt>
      <trkpt lat="47.26334" lon="-2.31689">
        <ele>-2.5999999046326</ele>
        <time>2021-07-01T10:30:54.000Z</time>
      </trkpt>
      <trkpt lat="47.26338" lon="-2.31687">
        <ele>-2.2000000476837</ele>
        <time>2021-07-01T10:30:55.000Z</time>
      </trkpt>
      <trkpt lat="47.26341" lon="-2.31685">
        <ele>-1.7999999523163</ele>
        <time>2021-07-01T10:30:56.000Z</time>
      </trkpt>
      <trkpt lat="47.26348" lon="-2.31682">
        <ele>-1.7999999523163</ele>
        <time>2021-07-01T10:30:58.000Z</time>
      </trkpt>
      <trkpt lat="47.26366" lon="-2.31674">
        <ele>-1.7999999523163</ele>
        <time>2021-07-01T10:31:03.000Z</time>
      </trkpt>
      <trkpt lat="47.2638" lon="-2.31669">
        <ele>-1.3999999761581</ele>
        <time>2021-07-01T10:31:07.000Z</time>
      </trkpt>
      <trkpt lat="47.26383" lon="-2.31666">
        <ele>-1</ele>
        <time>2021-07-01T10:31:08.000Z</time>
      </trkpt>
      <trkpt lat="47.26386" lon="-2.31664">
        <ele>-0.60000002384186</ele>
        <time>2021-07-01T10:31:09.000Z</time>
      </trkpt>
      <trkpt lat="47.26389" lon="-2.31662">
        <ele>-0.20000000298023</ele>
        <time>2021-07-01T10:31:10.000Z</time>
      </trkpt>
      <trkpt lat="47.26393" lon="-2.3166">
        <ele>0.20000000298023</ele>
        <time>2021-07-01T10:31:11.000Z</time>
      </trkpt>
      <trkpt lat="47.26401" lon="-2.31656">
        <ele>0.20000000298023</ele>
        <time>2021-07-01T10:31:14.000Z</time>
      </trkpt>
      <trkpt lat="47.26413" lon="-2.31647">
        <ele>0.20000000298023</ele>
        <time>2021-07-01T10:31:18.000Z</time>
      </trkpt>
      <trkpt lat="47.26413" lon="-2.31642">
        <ele>0.20000000298023</ele>
        <time>2021-07-01T10:31:19.000Z</time>
      </trkpt>
      <trkpt lat="47.2641" lon="-2.31623">
        <ele>0.20000000298023</ele>
        <time>2021-07-01T10:31:23.000Z</time>
      </trkpt>
      <trkpt lat="47.2641" lon="-2.31593">
        <ele>0.20000000298023</ele>
        <time>2021-07-01T10:31:29.000Z</time>
      </trkpt>
      <trkpt lat="47.2641" lon="-2.31566">
        <ele>0.20000000298023</ele>
        <time>2021-07-01T10:31:35.000Z</time>
      </trkpt>
      <trkpt lat="47.26413" lon="-2.31552">
        <ele>0.20000000298023</ele>
        <time>2021-07-01T10:31:41.000Z</time>
      </trkpt>
      <trkpt lat="47.26418" lon="-2.31553">
        <ele>0.20000000298023</ele>
        <time>2021-07-01T10:31:44.000Z</time>
      </trkpt>
      <trkpt lat="47.26418" lon="-2.31553">
        <ele>0.20000000298023</ele>
        <time>2021-07-01T10:31:45.000Z</time>
      </trkpt>
    </trkseg>
  </trk>
</gpx>